<?xml version="1.0" encoding="UTF-8" standalone="no" ?>
<gpx xmlns="http://www.topografix.com/GPX/1/1" xmlns:xsi="http://www.w3.org/2001/XMLSchema-instance" xsi:schemaLocation="http://www.topografix.com/GPX/1/1 http://www.topografix.com/GPX/1/1/gpx.xsd" version="1.1" creator="VisuGPX - https://www.visugpx.com">
  <metadata>
    <name>Trans'Yvelines 2016. Jour 2 : Septeuil / Thiverval Grignon</name>
    <desc><![CDATA[Nous avons encore le temps avec nous, les terrains sont vraiment chouettes, bien roulants !
Une belle journée...]]></desc>
  </metadata>
  <trk>
    <name><![CDATA[Septeuil / Thiverval Grignon]]></name>
    <trkseg>
      <trkpt lat="48.88991" lon="1.6873">
        <ele>109.40000152588</ele>
        <time>2016-06-11T07:58:31.000Z</time>
      </trkpt>
      <trkpt lat="48.8899" lon="1.68728">
        <ele>109.19999694824</ele>
        <time>2016-06-11T07:58:32.000Z</time>
      </trkpt>
      <trkpt lat="48.88991" lon="1.68731">
        <ele>109.40000152588</ele>
        <time>2016-06-11T07:58:35.000Z</time>
      </trkpt>
      <trkpt lat="48.88993" lon="1.68733">
        <ele>109.59999847412</ele>
        <time>2016-06-11T07:58:36.000Z</time>
      </trkpt>
      <trkpt lat="48.89001" lon="1.68742">
        <ele>110</ele>
        <time>2016-06-11T07:58:42.000Z</time>
      </trkpt>
      <trkpt lat="48.89008" lon="1.68748">
        <ele>110.19999694824</ele>
        <time>2016-06-11T07:58:47.000Z</time>
      </trkpt>
      <trkpt lat="48.89015" lon="1.68755">
        <ele>110.59999847412</ele>
        <time>2016-06-11T07:58:53.000Z</time>
      </trkpt>
      <trkpt lat="48.89021" lon="1.6876">
        <ele>110.80000305176</ele>
        <time>2016-06-11T07:58:58.000Z</time>
      </trkpt>
      <trkpt lat="48.89025" lon="1.68764">
        <ele>111</ele>
        <time>2016-06-11T07:59:02.000Z</time>
      </trkpt>
      <trkpt lat="48.89033" lon="1.68761">
        <ele>110.80000305176</ele>
        <time>2016-06-11T07:59:10.000Z</time>
      </trkpt>
      <trkpt lat="48.89035" lon="1.68762">
        <ele>110.80000305176</ele>
        <time>2016-06-11T07:59:13.000Z</time>
      </trkpt>
      <trkpt lat="48.89049" lon="1.6879">
        <ele>111.59999847412</ele>
        <time>2016-06-11T07:59:47.000Z</time>
      </trkpt>
      <trkpt lat="48.89049" lon="1.68793">
        <ele>111.80000305176</ele>
        <time>2016-06-11T07:59:49.000Z</time>
      </trkpt>
      <trkpt lat="48.89049" lon="1.68804">
        <ele>112.19999694824</ele>
        <time>2016-06-11T07:59:57.000Z</time>
      </trkpt>
      <trkpt lat="48.89048" lon="1.68805">
        <ele>112.19999694824</ele>
        <time>2016-06-11T07:59:59.000Z</time>
      </trkpt>
      <trkpt lat="48.89045" lon="1.68846">
        <ele>114</ele>
        <time>2016-06-11T08:01:39.000Z</time>
      </trkpt>
      <trkpt lat="48.89043" lon="1.68845">
        <ele>114</ele>
        <time>2016-06-11T08:01:41.000Z</time>
      </trkpt>
      <trkpt lat="48.8904" lon="1.68846">
        <ele>114</ele>
        <time>2016-06-11T08:01:44.000Z</time>
      </trkpt>
      <trkpt lat="48.89035" lon="1.68846">
        <ele>114</ele>
        <time>2016-06-11T08:01:48.000Z</time>
      </trkpt>
      <trkpt lat="48.89028" lon="1.68846">
        <ele>114</ele>
        <time>2016-06-11T08:01:55.000Z</time>
      </trkpt>
      <trkpt lat="48.89027" lon="1.68846">
        <ele>114</ele>
        <time>2016-06-11T08:01:57.000Z</time>
      </trkpt>
      <trkpt lat="48.89025" lon="1.68847">
        <ele>114</ele>
        <time>2016-06-11T08:02:00.000Z</time>
      </trkpt>
      <trkpt lat="48.8902" lon="1.68843">
        <ele>113.80000305176</ele>
        <time>2016-06-11T08:02:08.000Z</time>
      </trkpt>
      <trkpt lat="48.8901" lon="1.68841">
        <ele>114</ele>
        <time>2016-06-11T08:02:17.000Z</time>
      </trkpt>
      <trkpt lat="48.89005" lon="1.68837">
        <ele>113.80000305176</ele>
        <time>2016-06-11T08:02:23.000Z</time>
      </trkpt>
      <trkpt lat="48.88998" lon="1.68828">
        <ele>113.59999847412</ele>
        <time>2016-06-11T08:02:31.000Z</time>
      </trkpt>
      <trkpt lat="48.88998" lon="1.68825">
        <ele>113.40000152588</ele>
        <time>2016-06-11T08:02:34.000Z</time>
      </trkpt>
      <trkpt lat="48.88997" lon="1.68823">
        <ele>113.40000152588</ele>
        <time>2016-06-11T08:02:36.000Z</time>
      </trkpt>
      <trkpt lat="48.88997" lon="1.68817">
        <ele>113.19999694824</ele>
        <time>2016-06-11T08:02:41.000Z</time>
      </trkpt>
      <trkpt lat="48.8899" lon="1.68808">
        <ele>112.59999847412</ele>
        <time>2016-06-11T08:02:53.000Z</time>
      </trkpt>
      <trkpt lat="48.88984" lon="1.68807">
        <ele>112.59999847412</ele>
        <time>2016-06-11T08:02:59.000Z</time>
      </trkpt>
      <trkpt lat="48.8898" lon="1.68807">
        <ele>112.80000305176</ele>
        <time>2016-06-11T08:03:02.000Z</time>
      </trkpt>
      <trkpt lat="48.88976" lon="1.6881">
        <ele>113</ele>
        <time>2016-06-11T08:03:06.000Z</time>
      </trkpt>
      <trkpt lat="48.8897" lon="1.68811">
        <ele>113.19999694824</ele>
        <time>2016-06-11T08:03:11.000Z</time>
      </trkpt>
      <trkpt lat="48.88964" lon="1.68815">
        <ele>113.40000152588</ele>
        <time>2016-06-11T08:03:16.000Z</time>
      </trkpt>
      <trkpt lat="48.88962" lon="1.68816">
        <ele>113.40000152588</ele>
        <time>2016-06-11T08:03:17.000Z</time>
      </trkpt>
      <trkpt lat="48.88951" lon="1.68821">
        <ele>114</ele>
        <time>2016-06-11T08:03:26.000Z</time>
      </trkpt>
      <trkpt lat="48.88942" lon="1.68827">
        <ele>114.19999694824</ele>
        <time>2016-06-11T08:03:32.000Z</time>
      </trkpt>
      <trkpt lat="48.88934" lon="1.68832">
        <ele>114.59999847412</ele>
        <time>2016-06-11T08:03:39.000Z</time>
      </trkpt>
      <trkpt lat="48.88927" lon="1.68838">
        <ele>114.80000305176</ele>
        <time>2016-06-11T08:03:45.000Z</time>
      </trkpt>
      <trkpt lat="48.88925" lon="1.68838">
        <ele>114.80000305176</ele>
        <time>2016-06-11T08:03:48.000Z</time>
      </trkpt>
      <trkpt lat="48.88921" lon="1.6884">
        <ele>115</ele>
        <time>2016-06-11T08:03:52.000Z</time>
      </trkpt>
      <trkpt lat="48.88916" lon="1.68847">
        <ele>115.19999694824</ele>
        <time>2016-06-11T08:03:58.000Z</time>
      </trkpt>
      <trkpt lat="48.88915" lon="1.68848">
        <ele>115.40000152588</ele>
        <time>2016-06-11T08:04:00.000Z</time>
      </trkpt>
      <trkpt lat="48.88914" lon="1.6885">
        <ele>115.40000152588</ele>
        <time>2016-06-11T08:04:01.000Z</time>
      </trkpt>
      <trkpt lat="48.88911" lon="1.68852">
        <ele>115.59999847412</ele>
        <time>2016-06-11T08:04:04.000Z</time>
      </trkpt>
      <trkpt lat="48.8891" lon="1.68853">
        <ele>115.59999847412</ele>
        <time>2016-06-11T08:04:05.000Z</time>
      </trkpt>
      <trkpt lat="48.88901" lon="1.68857">
        <ele>115.80000305176</ele>
        <time>2016-06-11T08:04:12.000Z</time>
      </trkpt>
      <trkpt lat="48.88892" lon="1.68864">
        <ele>116.19999694824</ele>
        <time>2016-06-11T08:04:20.000Z</time>
      </trkpt>
      <trkpt lat="48.88885" lon="1.68873">
        <ele>116.80000305176</ele>
        <time>2016-06-11T08:04:28.000Z</time>
      </trkpt>
      <trkpt lat="48.88882" lon="1.68877">
        <ele>117.19999694824</ele>
        <time>2016-06-11T08:04:31.000Z</time>
      </trkpt>
      <trkpt lat="48.88876" lon="1.68879">
        <ele>117.19999694824</ele>
        <time>2016-06-11T08:04:35.000Z</time>
      </trkpt>
      <trkpt lat="48.88869" lon="1.68882">
        <ele>117.59999847412</ele>
        <time>2016-06-11T08:04:40.000Z</time>
      </trkpt>
      <trkpt lat="48.88864" lon="1.68885">
        <ele>117.80000305176</ele>
        <time>2016-06-11T08:04:44.000Z</time>
      </trkpt>
      <trkpt lat="48.88861" lon="1.68888">
        <ele>118</ele>
        <time>2016-06-11T08:04:47.000Z</time>
      </trkpt>
      <trkpt lat="48.88849" lon="1.68895">
        <ele>118.59999847412</ele>
        <time>2016-06-11T08:04:56.000Z</time>
      </trkpt>
      <trkpt lat="48.88836" lon="1.68905">
        <ele>119.40000152588</ele>
        <time>2016-06-11T08:05:07.000Z</time>
      </trkpt>
      <trkpt lat="48.88828" lon="1.68914">
        <ele>120.19999694824</ele>
        <time>2016-06-11T08:05:16.000Z</time>
      </trkpt>
      <trkpt lat="48.88822" lon="1.68924">
        <ele>121</ele>
        <time>2016-06-11T08:05:24.000Z</time>
      </trkpt>
      <trkpt lat="48.88822" lon="1.68932">
        <ele>121.40000152588</ele>
        <time>2016-06-11T08:05:29.000Z</time>
      </trkpt>
      <trkpt lat="48.88822" lon="1.68934">
        <ele>121.59999847412</ele>
        <time>2016-06-11T08:05:30.000Z</time>
      </trkpt>
      <trkpt lat="48.88825" lon="1.68938">
        <ele>122</ele>
        <time>2016-06-11T08:05:34.000Z</time>
      </trkpt>
      <trkpt lat="48.88826" lon="1.68942">
        <ele>122.19999694824</ele>
        <time>2016-06-11T08:05:36.000Z</time>
      </trkpt>
      <trkpt lat="48.88827" lon="1.68947">
        <ele>122.40000152588</ele>
        <time>2016-06-11T08:05:40.000Z</time>
      </trkpt>
      <trkpt lat="48.88828" lon="1.68948">
        <ele>122.59999847412</ele>
        <time>2016-06-11T08:05:41.000Z</time>
      </trkpt>
      <trkpt lat="48.88831" lon="1.68956">
        <ele>123</ele>
        <time>2016-06-11T08:05:46.000Z</time>
      </trkpt>
      <trkpt lat="48.88834" lon="1.68967">
        <ele>123.80000305176</ele>
        <time>2016-06-11T08:05:53.000Z</time>
      </trkpt>
      <trkpt lat="48.88837" lon="1.68974">
        <ele>124</ele>
        <time>2016-06-11T08:05:57.000Z</time>
      </trkpt>
      <trkpt lat="48.8884" lon="1.68977">
        <ele>124.19999694824</ele>
        <time>2016-06-11T08:06:00.000Z</time>
      </trkpt>
      <trkpt lat="48.8884" lon="1.68979">
        <ele>124.19999694824</ele>
        <time>2016-06-11T08:06:01.000Z</time>
      </trkpt>
      <trkpt lat="48.88843" lon="1.68984">
        <ele>124.40000152588</ele>
        <time>2016-06-11T08:06:06.000Z</time>
      </trkpt>
      <trkpt lat="48.88846" lon="1.68987">
        <ele>124.59999847412</ele>
        <time>2016-06-11T08:06:09.000Z</time>
      </trkpt>
      <trkpt lat="48.88849" lon="1.68992">
        <ele>124.80000305176</ele>
        <time>2016-06-11T08:06:13.000Z</time>
      </trkpt>
      <trkpt lat="48.88851" lon="1.68996">
        <ele>125</ele>
        <time>2016-06-11T08:06:16.000Z</time>
      </trkpt>
      <trkpt lat="48.88854" lon="1.69001">
        <ele>125.19999694824</ele>
        <time>2016-06-11T08:06:20.000Z</time>
      </trkpt>
      <trkpt lat="48.88859" lon="1.69012">
        <ele>125.40000152588</ele>
        <time>2016-06-11T08:06:27.000Z</time>
      </trkpt>
      <trkpt lat="48.88863" lon="1.69022">
        <ele>125.40000152588</ele>
        <time>2016-06-11T08:06:33.000Z</time>
      </trkpt>
      <trkpt lat="48.88868" lon="1.69035">
        <ele>125.40000152588</ele>
        <time>2016-06-11T08:06:41.000Z</time>
      </trkpt>
      <trkpt lat="48.88869" lon="1.69037">
        <ele>125.40000152588</ele>
        <time>2016-06-11T08:06:42.000Z</time>
      </trkpt>
      <trkpt lat="48.88873" lon="1.69046">
        <ele>125.40000152588</ele>
        <time>2016-06-11T08:06:47.000Z</time>
      </trkpt>
      <trkpt lat="48.88873" lon="1.69046">
        <ele>125.40000152588</ele>
        <time>2016-06-11T08:06:48.000Z</time>
      </trkpt>
      <trkpt lat="48.88876" lon="1.69052">
        <ele>125.40000152588</ele>
        <time>2016-06-11T08:06:52.000Z</time>
      </trkpt>
      <trkpt lat="48.88882" lon="1.69062">
        <ele>125.40000152588</ele>
        <time>2016-06-11T08:06:59.000Z</time>
      </trkpt>
      <trkpt lat="48.88886" lon="1.69072">
        <ele>125.40000152588</ele>
        <time>2016-06-11T08:07:05.000Z</time>
      </trkpt>
      <trkpt lat="48.88888" lon="1.69075">
        <ele>125.40000152588</ele>
        <time>2016-06-11T08:07:07.000Z</time>
      </trkpt>
      <trkpt lat="48.88888" lon="1.69077">
        <ele>125.40000152588</ele>
        <time>2016-06-11T08:07:09.000Z</time>
      </trkpt>
      <trkpt lat="48.88889" lon="1.69078">
        <ele>125.40000152588</ele>
        <time>2016-06-11T08:07:10.000Z</time>
      </trkpt>
      <trkpt lat="48.8889" lon="1.6908">
        <ele>125.40000152588</ele>
        <time>2016-06-11T08:07:11.000Z</time>
      </trkpt>
      <trkpt lat="48.88891" lon="1.69083">
        <ele>125.40000152588</ele>
        <time>2016-06-11T08:07:13.000Z</time>
      </trkpt>
      <trkpt lat="48.88897" lon="1.6909">
        <ele>125.40000152588</ele>
        <time>2016-06-11T08:07:17.000Z</time>
      </trkpt>
      <trkpt lat="48.889" lon="1.69099">
        <ele>125.40000152588</ele>
        <time>2016-06-11T08:07:23.000Z</time>
      </trkpt>
      <trkpt lat="48.88904" lon="1.69111">
        <ele>125.59999847412</ele>
        <time>2016-06-11T08:07:30.000Z</time>
      </trkpt>
      <trkpt lat="48.8891" lon="1.69125">
        <ele>125.59999847412</ele>
        <time>2016-06-11T08:07:39.000Z</time>
      </trkpt>
      <trkpt lat="48.88915" lon="1.69143">
        <ele>125.40000152588</ele>
        <time>2016-06-11T08:07:49.000Z</time>
      </trkpt>
      <trkpt lat="48.88913" lon="1.69156">
        <ele>125.40000152588</ele>
        <time>2016-06-11T08:07:56.000Z</time>
      </trkpt>
      <trkpt lat="48.8891" lon="1.69163">
        <ele>125.40000152588</ele>
        <time>2016-06-11T08:08:01.000Z</time>
      </trkpt>
      <trkpt lat="48.88909" lon="1.69165">
        <ele>125.59999847412</ele>
        <time>2016-06-11T08:08:03.000Z</time>
      </trkpt>
      <trkpt lat="48.88907" lon="1.69171">
        <ele>125.59999847412</ele>
        <time>2016-06-11T08:08:07.000Z</time>
      </trkpt>
      <trkpt lat="48.88906" lon="1.69174">
        <ele>125.59999847412</ele>
        <time>2016-06-11T08:08:09.000Z</time>
      </trkpt>
      <trkpt lat="48.88904" lon="1.69183">
        <ele>125.80000305176</ele>
        <time>2016-06-11T08:08:15.000Z</time>
      </trkpt>
      <trkpt lat="48.88904" lon="1.69185">
        <ele>125.80000305176</ele>
        <time>2016-06-11T08:08:16.000Z</time>
      </trkpt>
      <trkpt lat="48.88899" lon="1.69196">
        <ele>126</ele>
        <time>2016-06-11T08:08:23.000Z</time>
      </trkpt>
      <trkpt lat="48.88897" lon="1.69205">
        <ele>125.80000305176</ele>
        <time>2016-06-11T08:08:27.000Z</time>
      </trkpt>
      <trkpt lat="48.88896" lon="1.69207">
        <ele>125.80000305176</ele>
        <time>2016-06-11T08:08:28.000Z</time>
      </trkpt>
      <trkpt lat="48.88893" lon="1.69215">
        <ele>125.59999847412</ele>
        <time>2016-06-11T08:08:32.000Z</time>
      </trkpt>
      <trkpt lat="48.8889" lon="1.6922">
        <ele>125.59999847412</ele>
        <time>2016-06-11T08:08:35.000Z</time>
      </trkpt>
      <trkpt lat="48.8889" lon="1.69221">
        <ele>125.59999847412</ele>
        <time>2016-06-11T08:08:36.000Z</time>
      </trkpt>
      <trkpt lat="48.88886" lon="1.69226">
        <ele>125.40000152588</ele>
        <time>2016-06-11T08:08:40.000Z</time>
      </trkpt>
      <trkpt lat="48.88885" lon="1.69227">
        <ele>125.40000152588</ele>
        <time>2016-06-11T08:08:41.000Z</time>
      </trkpt>
      <trkpt lat="48.88884" lon="1.69232">
        <ele>125.40000152588</ele>
        <time>2016-06-11T08:08:45.000Z</time>
      </trkpt>
      <trkpt lat="48.88883" lon="1.69233">
        <ele>125.40000152588</ele>
        <time>2016-06-11T08:08:46.000Z</time>
      </trkpt>
      <trkpt lat="48.88882" lon="1.69234">
        <ele>125.40000152588</ele>
        <time>2016-06-11T08:08:47.000Z</time>
      </trkpt>
      <trkpt lat="48.88879" lon="1.6924">
        <ele>125.40000152588</ele>
        <time>2016-06-11T08:08:51.000Z</time>
      </trkpt>
      <trkpt lat="48.88879" lon="1.69242">
        <ele>125.40000152588</ele>
        <time>2016-06-11T08:08:52.000Z</time>
      </trkpt>
      <trkpt lat="48.88872" lon="1.69251">
        <ele>125.40000152588</ele>
        <time>2016-06-11T08:09:00.000Z</time>
      </trkpt>
      <trkpt lat="48.8887" lon="1.69254">
        <ele>125.19999694824</ele>
        <time>2016-06-11T08:09:02.000Z</time>
      </trkpt>
      <trkpt lat="48.88867" lon="1.69258">
        <ele>125.19999694824</ele>
        <time>2016-06-11T08:09:05.000Z</time>
      </trkpt>
      <trkpt lat="48.88861" lon="1.69267">
        <ele>124.80000305176</ele>
        <time>2016-06-11T08:09:12.000Z</time>
      </trkpt>
      <trkpt lat="48.88852" lon="1.69275">
        <ele>124.40000152588</ele>
        <time>2016-06-11T08:09:18.000Z</time>
      </trkpt>
      <trkpt lat="48.88844" lon="1.69283">
        <ele>124.19999694824</ele>
        <time>2016-06-11T08:09:24.000Z</time>
      </trkpt>
      <trkpt lat="48.88839" lon="1.69289">
        <ele>124.19999694824</ele>
        <time>2016-06-11T08:09:28.000Z</time>
      </trkpt>
      <trkpt lat="48.88839" lon="1.6929">
        <ele>124.19999694824</ele>
        <time>2016-06-11T08:09:29.000Z</time>
      </trkpt>
      <trkpt lat="48.88837" lon="1.69291">
        <ele>124.19999694824</ele>
        <time>2016-06-11T08:09:30.000Z</time>
      </trkpt>
      <trkpt lat="48.88831" lon="1.69296">
        <ele>124</ele>
        <time>2016-06-11T08:09:35.000Z</time>
      </trkpt>
      <trkpt lat="48.88821" lon="1.69307">
        <ele>123.19999694824</ele>
        <time>2016-06-11T08:09:44.000Z</time>
      </trkpt>
      <trkpt lat="48.88809" lon="1.6932">
        <ele>122.19999694824</ele>
        <time>2016-06-11T08:09:55.000Z</time>
      </trkpt>
      <trkpt lat="48.88801" lon="1.69328">
        <ele>122</ele>
        <time>2016-06-11T08:10:02.000Z</time>
      </trkpt>
      <trkpt lat="48.88799" lon="1.69331">
        <ele>121.80000305176</ele>
        <time>2016-06-11T08:10:04.000Z</time>
      </trkpt>
      <trkpt lat="48.88796" lon="1.69335">
        <ele>121.59999847412</ele>
        <time>2016-06-11T08:10:07.000Z</time>
      </trkpt>
      <trkpt lat="48.88793" lon="1.69336">
        <ele>121.59999847412</ele>
        <time>2016-06-11T08:10:09.000Z</time>
      </trkpt>
      <trkpt lat="48.88786" lon="1.69344">
        <ele>121</ele>
        <time>2016-06-11T08:10:15.000Z</time>
      </trkpt>
      <trkpt lat="48.88778" lon="1.69353">
        <ele>120.40000152588</ele>
        <time>2016-06-11T08:10:23.000Z</time>
      </trkpt>
      <trkpt lat="48.88773" lon="1.69357">
        <ele>120.19999694824</ele>
        <time>2016-06-11T08:10:27.000Z</time>
      </trkpt>
      <trkpt lat="48.8877" lon="1.69359">
        <ele>120</ele>
        <time>2016-06-11T08:10:30.000Z</time>
      </trkpt>
      <trkpt lat="48.88763" lon="1.69363">
        <ele>119.59999847412</ele>
        <time>2016-06-11T08:10:35.000Z</time>
      </trkpt>
      <trkpt lat="48.88749" lon="1.6937">
        <ele>119</ele>
        <time>2016-06-11T08:10:45.000Z</time>
      </trkpt>
      <trkpt lat="48.88735" lon="1.69377">
        <ele>118.40000152588</ele>
        <time>2016-06-11T08:10:54.000Z</time>
      </trkpt>
      <trkpt lat="48.88721" lon="1.69385">
        <ele>118</ele>
        <time>2016-06-11T08:11:04.000Z</time>
      </trkpt>
      <trkpt lat="48.88709" lon="1.69392">
        <ele>117.59999847412</ele>
        <time>2016-06-11T08:11:13.000Z</time>
      </trkpt>
      <trkpt lat="48.88696" lon="1.69395">
        <ele>117.19999694824</ele>
        <time>2016-06-11T08:11:22.000Z</time>
      </trkpt>
      <trkpt lat="48.88687" lon="1.69396">
        <ele>117</ele>
        <time>2016-06-11T08:11:28.000Z</time>
      </trkpt>
      <trkpt lat="48.88676" lon="1.69395">
        <ele>116.40000152588</ele>
        <time>2016-06-11T08:11:36.000Z</time>
      </trkpt>
      <trkpt lat="48.88674" lon="1.69395">
        <ele>116.19999694824</ele>
        <time>2016-06-11T08:11:37.000Z</time>
      </trkpt>
      <trkpt lat="48.88663" lon="1.69394">
        <ele>115.59999847412</ele>
        <time>2016-06-11T08:11:45.000Z</time>
      </trkpt>
      <trkpt lat="48.88653" lon="1.69395">
        <ele>115.19999694824</ele>
        <time>2016-06-11T08:11:52.000Z</time>
      </trkpt>
      <trkpt lat="48.88646" lon="1.69397">
        <ele>114.80000305176</ele>
        <time>2016-06-11T08:11:57.000Z</time>
      </trkpt>
      <trkpt lat="48.88637" lon="1.69394">
        <ele>114.40000152588</ele>
        <time>2016-06-11T08:12:03.000Z</time>
      </trkpt>
      <trkpt lat="48.88627" lon="1.69395">
        <ele>114</ele>
        <time>2016-06-11T08:12:10.000Z</time>
      </trkpt>
      <trkpt lat="48.8862" lon="1.69395">
        <ele>113.59999847412</ele>
        <time>2016-06-11T08:12:15.000Z</time>
      </trkpt>
      <trkpt lat="48.88618" lon="1.69396">
        <ele>113.59999847412</ele>
        <time>2016-06-11T08:12:17.000Z</time>
      </trkpt>
      <trkpt lat="48.88615" lon="1.69398">
        <ele>113.40000152588</ele>
        <time>2016-06-11T08:12:20.000Z</time>
      </trkpt>
      <trkpt lat="48.88614" lon="1.69399">
        <ele>113.40000152588</ele>
        <time>2016-06-11T08:12:21.000Z</time>
      </trkpt>
      <trkpt lat="48.88613" lon="1.69402">
        <ele>113.40000152588</ele>
        <time>2016-06-11T08:12:23.000Z</time>
      </trkpt>
      <trkpt lat="48.88607" lon="1.69408">
        <ele>113</ele>
        <time>2016-06-11T08:12:28.000Z</time>
      </trkpt>
      <trkpt lat="48.88606" lon="1.69409">
        <ele>112.80000305176</ele>
        <time>2016-06-11T08:12:29.000Z</time>
      </trkpt>
      <trkpt lat="48.88599" lon="1.69421">
        <ele>112.19999694824</ele>
        <time>2016-06-11T08:12:36.000Z</time>
      </trkpt>
      <trkpt lat="48.88592" lon="1.69433">
        <ele>111.59999847412</ele>
        <time>2016-06-11T08:12:44.000Z</time>
      </trkpt>
      <trkpt lat="48.88584" lon="1.69445">
        <ele>111</ele>
        <time>2016-06-11T08:12:52.000Z</time>
      </trkpt>
      <trkpt lat="48.88581" lon="1.69451">
        <ele>110.59999847412</ele>
        <time>2016-06-11T08:12:56.000Z</time>
      </trkpt>
      <trkpt lat="48.88581" lon="1.69454">
        <ele>110.59999847412</ele>
        <time>2016-06-11T08:12:59.000Z</time>
      </trkpt>
      <trkpt lat="48.88579" lon="1.69459">
        <ele>110.40000152588</ele>
        <time>2016-06-11T08:13:02.000Z</time>
      </trkpt>
      <trkpt lat="48.88575" lon="1.69464">
        <ele>110.40000152588</ele>
        <time>2016-06-11T08:13:06.000Z</time>
      </trkpt>
      <trkpt lat="48.88569" lon="1.69472">
        <ele>110.40000152588</ele>
        <time>2016-06-11T08:13:12.000Z</time>
      </trkpt>
      <trkpt lat="48.88565" lon="1.69478">
        <ele>110.40000152588</ele>
        <time>2016-06-11T08:13:16.000Z</time>
      </trkpt>
      <trkpt lat="48.88563" lon="1.6948">
        <ele>110.40000152588</ele>
        <time>2016-06-11T08:13:18.000Z</time>
      </trkpt>
      <trkpt lat="48.88557" lon="1.69488">
        <ele>110.40000152588</ele>
        <time>2016-06-11T08:13:24.000Z</time>
      </trkpt>
      <trkpt lat="48.88547" lon="1.695">
        <ele>110.19999694824</ele>
        <time>2016-06-11T08:13:33.000Z</time>
      </trkpt>
      <trkpt lat="48.88539" lon="1.69508">
        <ele>110</ele>
        <time>2016-06-11T08:13:40.000Z</time>
      </trkpt>
      <trkpt lat="48.8853" lon="1.69517">
        <ele>110</ele>
        <time>2016-06-11T08:13:48.000Z</time>
      </trkpt>
      <trkpt lat="48.8852" lon="1.69525">
        <ele>110</ele>
        <time>2016-06-11T08:13:56.000Z</time>
      </trkpt>
      <trkpt lat="48.88517" lon="1.69529">
        <ele>110</ele>
        <time>2016-06-11T08:13:59.000Z</time>
      </trkpt>
      <trkpt lat="48.88514" lon="1.69532">
        <ele>109.80000305176</ele>
        <time>2016-06-11T08:14:02.000Z</time>
      </trkpt>
      <trkpt lat="48.88511" lon="1.69536">
        <ele>109.80000305176</ele>
        <time>2016-06-11T08:14:05.000Z</time>
      </trkpt>
      <trkpt lat="48.88505" lon="1.69541">
        <ele>109.80000305176</ele>
        <time>2016-06-11T08:14:09.000Z</time>
      </trkpt>
      <trkpt lat="48.88496" lon="1.6955">
        <ele>109.80000305176</ele>
        <time>2016-06-11T08:14:17.000Z</time>
      </trkpt>
      <trkpt lat="48.88482" lon="1.69562">
        <ele>110</ele>
        <time>2016-06-11T08:14:28.000Z</time>
      </trkpt>
      <trkpt lat="48.88473" lon="1.69573">
        <ele>110</ele>
        <time>2016-06-11T08:14:37.000Z</time>
      </trkpt>
      <trkpt lat="48.88464" lon="1.69584">
        <ele>110.19999694824</ele>
        <time>2016-06-11T08:14:45.000Z</time>
      </trkpt>
      <trkpt lat="48.88452" lon="1.69596">
        <ele>110.40000152588</ele>
        <time>2016-06-11T08:14:55.000Z</time>
      </trkpt>
      <trkpt lat="48.88441" lon="1.69608">
        <ele>111</ele>
        <time>2016-06-11T08:15:05.000Z</time>
      </trkpt>
      <trkpt lat="48.88431" lon="1.6962">
        <ele>111.59999847412</ele>
        <time>2016-06-11T08:15:14.000Z</time>
      </trkpt>
      <trkpt lat="48.88422" lon="1.69632">
        <ele>112.40000152588</ele>
        <time>2016-06-11T08:15:23.000Z</time>
      </trkpt>
      <trkpt lat="48.88414" lon="1.6964">
        <ele>112.80000305176</ele>
        <time>2016-06-11T08:15:30.000Z</time>
      </trkpt>
      <trkpt lat="48.88408" lon="1.69645">
        <ele>113</ele>
        <time>2016-06-11T08:15:35.000Z</time>
      </trkpt>
      <trkpt lat="48.88404" lon="1.69649">
        <ele>113.19999694824</ele>
        <time>2016-06-11T08:15:40.000Z</time>
      </trkpt>
      <trkpt lat="48.88397" lon="1.69652">
        <ele>113.59999847412</ele>
        <time>2016-06-11T08:15:45.000Z</time>
      </trkpt>
      <trkpt lat="48.88393" lon="1.69654">
        <ele>113.59999847412</ele>
        <time>2016-06-11T08:15:48.000Z</time>
      </trkpt>
      <trkpt lat="48.88387" lon="1.69658">
        <ele>114</ele>
        <time>2016-06-11T08:15:53.000Z</time>
      </trkpt>
      <trkpt lat="48.88378" lon="1.69661">
        <ele>114.40000152588</ele>
        <time>2016-06-11T08:16:00.000Z</time>
      </trkpt>
      <trkpt lat="48.88371" lon="1.69663">
        <ele>114.80000305176</ele>
        <time>2016-06-11T08:16:06.000Z</time>
      </trkpt>
      <trkpt lat="48.88363" lon="1.69662">
        <ele>115</ele>
        <time>2016-06-11T08:16:13.000Z</time>
      </trkpt>
      <trkpt lat="48.88349" lon="1.69658">
        <ele>115.40000152588</ele>
        <time>2016-06-11T08:16:23.000Z</time>
      </trkpt>
      <trkpt lat="48.88341" lon="1.69654">
        <ele>115.59999847412</ele>
        <time>2016-06-11T08:16:29.000Z</time>
      </trkpt>
      <trkpt lat="48.88339" lon="1.69653">
        <ele>115.59999847412</ele>
        <time>2016-06-11T08:16:31.000Z</time>
      </trkpt>
      <trkpt lat="48.88335" lon="1.69646">
        <ele>115.59999847412</ele>
        <time>2016-06-11T08:16:36.000Z</time>
      </trkpt>
      <trkpt lat="48.88334" lon="1.69645">
        <ele>115.59999847412</ele>
        <time>2016-06-11T08:16:37.000Z</time>
      </trkpt>
      <trkpt lat="48.88332" lon="1.69643">
        <ele>115.59999847412</ele>
        <time>2016-06-11T08:16:39.000Z</time>
      </trkpt>
      <trkpt lat="48.8833" lon="1.69641">
        <ele>115.59999847412</ele>
        <time>2016-06-11T08:16:41.000Z</time>
      </trkpt>
      <trkpt lat="48.88329" lon="1.6964">
        <ele>115.59999847412</ele>
        <time>2016-06-11T08:16:42.000Z</time>
      </trkpt>
      <trkpt lat="48.88323" lon="1.6963">
        <ele>115.59999847412</ele>
        <time>2016-06-11T08:16:48.000Z</time>
      </trkpt>
      <trkpt lat="48.8832" lon="1.69628">
        <ele>115.59999847412</ele>
        <time>2016-06-11T08:16:50.000Z</time>
      </trkpt>
      <trkpt lat="48.88318" lon="1.69624">
        <ele>115.80000305176</ele>
        <time>2016-06-11T08:16:53.000Z</time>
      </trkpt>
      <trkpt lat="48.88308" lon="1.69612">
        <ele>115.80000305176</ele>
        <time>2016-06-11T08:17:01.000Z</time>
      </trkpt>
      <trkpt lat="48.88299" lon="1.69602">
        <ele>115.80000305176</ele>
        <time>2016-06-11T08:17:09.000Z</time>
      </trkpt>
      <trkpt lat="48.88292" lon="1.69594">
        <ele>115.80000305176</ele>
        <time>2016-06-11T08:17:16.000Z</time>
      </trkpt>
      <trkpt lat="48.88291" lon="1.69592">
        <ele>116</ele>
        <time>2016-06-11T08:17:17.000Z</time>
      </trkpt>
      <trkpt lat="48.88288" lon="1.6959">
        <ele>116</ele>
        <time>2016-06-11T08:17:20.000Z</time>
      </trkpt>
      <trkpt lat="48.88278" lon="1.69582">
        <ele>116</ele>
        <time>2016-06-11T08:17:28.000Z</time>
      </trkpt>
      <trkpt lat="48.88271" lon="1.69577">
        <ele>116.19999694824</ele>
        <time>2016-06-11T08:17:34.000Z</time>
      </trkpt>
      <trkpt lat="48.88261" lon="1.69566">
        <ele>116</ele>
        <time>2016-06-11T08:17:43.000Z</time>
      </trkpt>
      <trkpt lat="48.88255" lon="1.69561">
        <ele>116</ele>
        <time>2016-06-11T08:17:48.000Z</time>
      </trkpt>
      <trkpt lat="48.88253" lon="1.69559">
        <ele>115.80000305176</ele>
        <time>2016-06-11T08:17:51.000Z</time>
      </trkpt>
      <trkpt lat="48.88252" lon="1.69556">
        <ele>115.80000305176</ele>
        <time>2016-06-11T08:17:53.000Z</time>
      </trkpt>
      <trkpt lat="48.8825" lon="1.69554">
        <ele>115.80000305176</ele>
        <time>2016-06-11T08:17:55.000Z</time>
      </trkpt>
      <trkpt lat="48.88245" lon="1.69551">
        <ele>115.59999847412</ele>
        <time>2016-06-11T08:17:59.000Z</time>
      </trkpt>
      <trkpt lat="48.88242" lon="1.6955">
        <ele>115.59999847412</ele>
        <time>2016-06-11T08:18:01.000Z</time>
      </trkpt>
      <trkpt lat="48.8824" lon="1.69548">
        <ele>115.59999847412</ele>
        <time>2016-06-11T08:18:04.000Z</time>
      </trkpt>
      <trkpt lat="48.88239" lon="1.69547">
        <ele>115.59999847412</ele>
        <time>2016-06-11T08:18:05.000Z</time>
      </trkpt>
      <trkpt lat="48.88232" lon="1.6954">
        <ele>115.40000152588</ele>
        <time>2016-06-11T08:18:10.000Z</time>
      </trkpt>
      <trkpt lat="48.88231" lon="1.6954">
        <ele>115.40000152588</ele>
        <time>2016-06-11T08:18:11.000Z</time>
      </trkpt>
      <trkpt lat="48.88223" lon="1.69531">
        <ele>115.19999694824</ele>
        <time>2016-06-11T08:18:18.000Z</time>
      </trkpt>
      <trkpt lat="48.88215" lon="1.69525">
        <ele>115</ele>
        <time>2016-06-11T08:18:24.000Z</time>
      </trkpt>
      <trkpt lat="48.88205" lon="1.69519">
        <ele>115</ele>
        <time>2016-06-11T08:18:32.000Z</time>
      </trkpt>
      <trkpt lat="48.88198" lon="1.69518">
        <ele>115</ele>
        <time>2016-06-11T08:18:38.000Z</time>
      </trkpt>
      <trkpt lat="48.88196" lon="1.69518">
        <ele>115</ele>
        <time>2016-06-11T08:18:39.000Z</time>
      </trkpt>
      <trkpt lat="48.88186" lon="1.69521">
        <ele>115.19999694824</ele>
        <time>2016-06-11T08:18:46.000Z</time>
      </trkpt>
      <trkpt lat="48.8818" lon="1.69524">
        <ele>115.19999694824</ele>
        <time>2016-06-11T08:18:51.000Z</time>
      </trkpt>
      <trkpt lat="48.88176" lon="1.69525">
        <ele>115</ele>
        <time>2016-06-11T08:18:54.000Z</time>
      </trkpt>
      <trkpt lat="48.88175" lon="1.69526">
        <ele>115</ele>
        <time>2016-06-11T08:18:55.000Z</time>
      </trkpt>
      <trkpt lat="48.8817" lon="1.69531">
        <ele>115.19999694824</ele>
        <time>2016-06-11T08:19:02.000Z</time>
      </trkpt>
      <trkpt lat="48.88165" lon="1.69536">
        <ele>115.19999694824</ele>
        <time>2016-06-11T08:19:08.000Z</time>
      </trkpt>
      <trkpt lat="48.88158" lon="1.69541">
        <ele>115.19999694824</ele>
        <time>2016-06-11T08:19:14.000Z</time>
      </trkpt>
      <trkpt lat="48.88157" lon="1.69542">
        <ele>115</ele>
        <time>2016-06-11T08:19:15.000Z</time>
      </trkpt>
      <trkpt lat="48.88151" lon="1.69546">
        <ele>114.80000305176</ele>
        <time>2016-06-11T08:19:20.000Z</time>
      </trkpt>
      <trkpt lat="48.88145" lon="1.6955">
        <ele>114.59999847412</ele>
        <time>2016-06-11T08:19:26.000Z</time>
      </trkpt>
      <trkpt lat="48.88136" lon="1.69554">
        <ele>114.19999694824</ele>
        <time>2016-06-11T08:19:32.000Z</time>
      </trkpt>
      <trkpt lat="48.88128" lon="1.6956">
        <ele>114</ele>
        <time>2016-06-11T08:19:39.000Z</time>
      </trkpt>
      <trkpt lat="48.8812" lon="1.69564">
        <ele>113.59999847412</ele>
        <time>2016-06-11T08:19:46.000Z</time>
      </trkpt>
      <trkpt lat="48.88111" lon="1.6957">
        <ele>113.19999694824</ele>
        <time>2016-06-11T08:19:53.000Z</time>
      </trkpt>
      <trkpt lat="48.88104" lon="1.69573">
        <ele>113</ele>
        <time>2016-06-11T08:19:59.000Z</time>
      </trkpt>
      <trkpt lat="48.88095" lon="1.69579">
        <ele>113.19999694824</ele>
        <time>2016-06-11T08:20:06.000Z</time>
      </trkpt>
      <trkpt lat="48.8809" lon="1.69583">
        <ele>113.19999694824</ele>
        <time>2016-06-11T08:20:12.000Z</time>
      </trkpt>
      <trkpt lat="48.88084" lon="1.69588">
        <ele>113.40000152588</ele>
        <time>2016-06-11T08:20:16.000Z</time>
      </trkpt>
      <trkpt lat="48.88082" lon="1.69592">
        <ele>113.40000152588</ele>
        <time>2016-06-11T08:20:20.000Z</time>
      </trkpt>
      <trkpt lat="48.88081" lon="1.69593">
        <ele>113.40000152588</ele>
        <time>2016-06-11T08:20:21.000Z</time>
      </trkpt>
      <trkpt lat="48.88077" lon="1.69597">
        <ele>113.59999847412</ele>
        <time>2016-06-11T08:20:26.000Z</time>
      </trkpt>
      <trkpt lat="48.88077" lon="1.69599">
        <ele>113.59999847412</ele>
        <time>2016-06-11T08:20:27.000Z</time>
      </trkpt>
      <trkpt lat="48.88076" lon="1.69602">
        <ele>113.80000305176</ele>
        <time>2016-06-11T08:20:29.000Z</time>
      </trkpt>
      <trkpt lat="48.88075" lon="1.69607">
        <ele>114</ele>
        <time>2016-06-11T08:20:32.000Z</time>
      </trkpt>
      <trkpt lat="48.88074" lon="1.69616">
        <ele>114.40000152588</ele>
        <time>2016-06-11T08:20:37.000Z</time>
      </trkpt>
      <trkpt lat="48.88073" lon="1.69628">
        <ele>114.59999847412</ele>
        <time>2016-06-11T08:20:44.000Z</time>
      </trkpt>
      <trkpt lat="48.88072" lon="1.69641">
        <ele>114.59999847412</ele>
        <time>2016-06-11T08:20:52.000Z</time>
      </trkpt>
      <trkpt lat="48.88072" lon="1.69643">
        <ele>114.59999847412</ele>
        <time>2016-06-11T08:20:53.000Z</time>
      </trkpt>
      <trkpt lat="48.88072" lon="1.69654">
        <ele>114.59999847412</ele>
        <time>2016-06-11T08:21:00.000Z</time>
      </trkpt>
      <trkpt lat="48.88072" lon="1.69657">
        <ele>114.59999847412</ele>
        <time>2016-06-11T08:21:02.000Z</time>
      </trkpt>
      <trkpt lat="48.88072" lon="1.69671">
        <ele>115</ele>
        <time>2016-06-11T08:21:09.000Z</time>
      </trkpt>
      <trkpt lat="48.88072" lon="1.69686">
        <ele>115.19999694824</ele>
        <time>2016-06-11T08:21:18.000Z</time>
      </trkpt>
      <trkpt lat="48.88073" lon="1.69696">
        <ele>115.59999847412</ele>
        <time>2016-06-11T08:21:24.000Z</time>
      </trkpt>
      <trkpt lat="48.88073" lon="1.69697">
        <ele>115.59999847412</ele>
        <time>2016-06-11T08:21:26.000Z</time>
      </trkpt>
      <trkpt lat="48.88084" lon="1.69738">
        <ele>117.19999694824</ele>
        <time>2016-06-11T08:22:02.000Z</time>
      </trkpt>
      <trkpt lat="48.88085" lon="1.69742">
        <ele>117.19999694824</ele>
        <time>2016-06-11T08:22:05.000Z</time>
      </trkpt>
      <trkpt lat="48.88087" lon="1.6975">
        <ele>117.59999847412</ele>
        <time>2016-06-11T08:22:09.000Z</time>
      </trkpt>
      <trkpt lat="48.88086" lon="1.69752">
        <ele>117.40000152588</ele>
        <time>2016-06-11T08:22:11.000Z</time>
      </trkpt>
      <trkpt lat="48.88086" lon="1.69763">
        <ele>117.59999847412</ele>
        <time>2016-06-11T08:22:16.000Z</time>
      </trkpt>
      <trkpt lat="48.88086" lon="1.69765">
        <ele>117.59999847412</ele>
        <time>2016-06-11T08:22:17.000Z</time>
      </trkpt>
      <trkpt lat="48.88088" lon="1.69778">
        <ele>118</ele>
        <time>2016-06-11T08:22:24.000Z</time>
      </trkpt>
      <trkpt lat="48.8809" lon="1.69783">
        <ele>118.19999694824</ele>
        <time>2016-06-11T08:22:28.000Z</time>
      </trkpt>
      <trkpt lat="48.8809" lon="1.69786">
        <ele>118.19999694824</ele>
        <time>2016-06-11T08:22:29.000Z</time>
      </trkpt>
      <trkpt lat="48.88091" lon="1.69791">
        <ele>118.40000152588</ele>
        <time>2016-06-11T08:22:32.000Z</time>
      </trkpt>
      <trkpt lat="48.88092" lon="1.69795">
        <ele>118.40000152588</ele>
        <time>2016-06-11T08:22:35.000Z</time>
      </trkpt>
      <trkpt lat="48.88093" lon="1.69797">
        <ele>118.59999847412</ele>
        <time>2016-06-11T08:22:37.000Z</time>
      </trkpt>
      <trkpt lat="48.88095" lon="1.69802">
        <ele>118.80000305176</ele>
        <time>2016-06-11T08:22:40.000Z</time>
      </trkpt>
      <trkpt lat="48.88096" lon="1.69803">
        <ele>119</ele>
        <time>2016-06-11T08:22:43.000Z</time>
      </trkpt>
      <trkpt lat="48.88105" lon="1.69837">
        <ele>120</ele>
        <time>2016-06-11T08:23:13.000Z</time>
      </trkpt>
      <trkpt lat="48.88105" lon="1.69846">
        <ele>120</ele>
        <time>2016-06-11T08:23:17.000Z</time>
      </trkpt>
      <trkpt lat="48.88107" lon="1.69854">
        <ele>120</ele>
        <time>2016-06-11T08:23:22.000Z</time>
      </trkpt>
      <trkpt lat="48.88108" lon="1.69855">
        <ele>120</ele>
        <time>2016-06-11T08:23:23.000Z</time>
      </trkpt>
      <trkpt lat="48.88109" lon="1.69857">
        <ele>120</ele>
        <time>2016-06-11T08:23:25.000Z</time>
      </trkpt>
      <trkpt lat="48.88109" lon="1.6986">
        <ele>120</ele>
        <time>2016-06-11T08:23:27.000Z</time>
      </trkpt>
      <trkpt lat="48.8811" lon="1.69864">
        <ele>120</ele>
        <time>2016-06-11T08:23:29.000Z</time>
      </trkpt>
      <trkpt lat="48.88114" lon="1.69872">
        <ele>120</ele>
        <time>2016-06-11T08:23:34.000Z</time>
      </trkpt>
      <trkpt lat="48.88114" lon="1.69874">
        <ele>120</ele>
        <time>2016-06-11T08:23:35.000Z</time>
      </trkpt>
      <trkpt lat="48.88116" lon="1.6988">
        <ele>120</ele>
        <time>2016-06-11T08:23:38.000Z</time>
      </trkpt>
      <trkpt lat="48.88116" lon="1.69882">
        <ele>120</ele>
        <time>2016-06-11T08:23:39.000Z</time>
      </trkpt>
      <trkpt lat="48.88117" lon="1.69888">
        <ele>120</ele>
        <time>2016-06-11T08:23:43.000Z</time>
      </trkpt>
      <trkpt lat="48.88119" lon="1.69894">
        <ele>120</ele>
        <time>2016-06-11T08:23:46.000Z</time>
      </trkpt>
      <trkpt lat="48.8812" lon="1.69898">
        <ele>120</ele>
        <time>2016-06-11T08:23:48.000Z</time>
      </trkpt>
      <trkpt lat="48.88123" lon="1.69904">
        <ele>120</ele>
        <time>2016-06-11T08:23:52.000Z</time>
      </trkpt>
      <trkpt lat="48.88126" lon="1.69912">
        <ele>120</ele>
        <time>2016-06-11T08:23:57.000Z</time>
      </trkpt>
      <trkpt lat="48.88126" lon="1.69918">
        <ele>120</ele>
        <time>2016-06-11T08:24:01.000Z</time>
      </trkpt>
      <trkpt lat="48.88126" lon="1.69924">
        <ele>120</ele>
        <time>2016-06-11T08:24:05.000Z</time>
      </trkpt>
      <trkpt lat="48.88126" lon="1.69926">
        <ele>119.80000305176</ele>
        <time>2016-06-11T08:24:06.000Z</time>
      </trkpt>
      <trkpt lat="48.8813" lon="1.69944">
        <ele>119.19999694824</ele>
        <time>2016-06-11T08:24:15.000Z</time>
      </trkpt>
      <trkpt lat="48.88133" lon="1.6996">
        <ele>118.59999847412</ele>
        <time>2016-06-11T08:24:24.000Z</time>
      </trkpt>
      <trkpt lat="48.88135" lon="1.69971">
        <ele>118.19999694824</ele>
        <time>2016-06-11T08:24:32.000Z</time>
      </trkpt>
      <trkpt lat="48.88137" lon="1.69983">
        <ele>117.59999847412</ele>
        <time>2016-06-11T08:24:39.000Z</time>
      </trkpt>
      <trkpt lat="48.88139" lon="1.69997">
        <ele>117.40000152588</ele>
        <time>2016-06-11T08:24:46.000Z</time>
      </trkpt>
      <trkpt lat="48.88141" lon="1.70009">
        <ele>117.40000152588</ele>
        <time>2016-06-11T08:24:53.000Z</time>
      </trkpt>
      <trkpt lat="48.88142" lon="1.7002">
        <ele>117.40000152588</ele>
        <time>2016-06-11T08:24:59.000Z</time>
      </trkpt>
      <trkpt lat="48.88146" lon="1.70034">
        <ele>117.40000152588</ele>
        <time>2016-06-11T08:25:07.000Z</time>
      </trkpt>
      <trkpt lat="48.88149" lon="1.70046">
        <ele>117.40000152588</ele>
        <time>2016-06-11T08:25:14.000Z</time>
      </trkpt>
      <trkpt lat="48.88155" lon="1.70063">
        <ele>117.40000152588</ele>
        <time>2016-06-11T08:25:24.000Z</time>
      </trkpt>
      <trkpt lat="48.88159" lon="1.70074">
        <ele>117.40000152588</ele>
        <time>2016-06-11T08:25:32.000Z</time>
      </trkpt>
      <trkpt lat="48.8816" lon="1.70074">
        <ele>117.40000152588</ele>
        <time>2016-06-11T08:25:33.000Z</time>
      </trkpt>
      <trkpt lat="48.88162" lon="1.70078">
        <ele>117.40000152588</ele>
        <time>2016-06-11T08:25:36.000Z</time>
      </trkpt>
      <trkpt lat="48.88163" lon="1.70081">
        <ele>117.40000152588</ele>
        <time>2016-06-11T08:25:38.000Z</time>
      </trkpt>
      <trkpt lat="48.88166" lon="1.70094">
        <ele>117.40000152588</ele>
        <time>2016-06-11T08:25:45.000Z</time>
      </trkpt>
      <trkpt lat="48.88167" lon="1.70097">
        <ele>117.19999694824</ele>
        <time>2016-06-11T08:25:47.000Z</time>
      </trkpt>
      <trkpt lat="48.88172" lon="1.70109">
        <ele>117.19999694824</ele>
        <time>2016-06-11T08:25:55.000Z</time>
      </trkpt>
      <trkpt lat="48.88176" lon="1.70122">
        <ele>117</ele>
        <time>2016-06-11T08:26:04.000Z</time>
      </trkpt>
      <trkpt lat="48.88179" lon="1.70132">
        <ele>117</ele>
        <time>2016-06-11T08:26:11.000Z</time>
      </trkpt>
      <trkpt lat="48.8818" lon="1.70137">
        <ele>117</ele>
        <time>2016-06-11T08:26:14.000Z</time>
      </trkpt>
      <trkpt lat="48.88179" lon="1.70144">
        <ele>116.80000305176</ele>
        <time>2016-06-11T08:26:18.000Z</time>
      </trkpt>
      <trkpt lat="48.88174" lon="1.70153">
        <ele>116.40000152588</ele>
        <time>2016-06-11T08:26:25.000Z</time>
      </trkpt>
      <trkpt lat="48.8817" lon="1.70159">
        <ele>116.19999694824</ele>
        <time>2016-06-11T08:26:31.000Z</time>
      </trkpt>
      <trkpt lat="48.88167" lon="1.70165">
        <ele>116.19999694824</ele>
        <time>2016-06-11T08:26:36.000Z</time>
      </trkpt>
      <trkpt lat="48.88166" lon="1.70167">
        <ele>116.19999694824</ele>
        <time>2016-06-11T08:26:37.000Z</time>
      </trkpt>
      <trkpt lat="48.88159" lon="1.70176">
        <ele>115.80000305176</ele>
        <time>2016-06-11T08:26:44.000Z</time>
      </trkpt>
      <trkpt lat="48.88153" lon="1.70183">
        <ele>115.59999847412</ele>
        <time>2016-06-11T08:26:50.000Z</time>
      </trkpt>
      <trkpt lat="48.88146" lon="1.70191">
        <ele>115.40000152588</ele>
        <time>2016-06-11T08:26:57.000Z</time>
      </trkpt>
      <trkpt lat="48.88138" lon="1.70202">
        <ele>115.80000305176</ele>
        <time>2016-06-11T08:27:05.000Z</time>
      </trkpt>
      <trkpt lat="48.88133" lon="1.70208">
        <ele>116</ele>
        <time>2016-06-11T08:27:10.000Z</time>
      </trkpt>
      <trkpt lat="48.88132" lon="1.70209">
        <ele>116</ele>
        <time>2016-06-11T08:27:11.000Z</time>
      </trkpt>
      <trkpt lat="48.88126" lon="1.70216">
        <ele>116.19999694824</ele>
        <time>2016-06-11T08:27:17.000Z</time>
      </trkpt>
      <trkpt lat="48.88124" lon="1.70218">
        <ele>116.40000152588</ele>
        <time>2016-06-11T08:27:21.000Z</time>
      </trkpt>
      <trkpt lat="48.88111" lon="1.70233">
        <ele>116.80000305176</ele>
        <time>2016-06-11T08:27:34.000Z</time>
      </trkpt>
      <trkpt lat="48.88107" lon="1.70239">
        <ele>117.19999694824</ele>
        <time>2016-06-11T08:27:39.000Z</time>
      </trkpt>
      <trkpt lat="48.88105" lon="1.70242">
        <ele>117.19999694824</ele>
        <time>2016-06-11T08:27:41.000Z</time>
      </trkpt>
      <trkpt lat="48.88101" lon="1.7025">
        <ele>117.59999847412</ele>
        <time>2016-06-11T08:27:47.000Z</time>
      </trkpt>
      <trkpt lat="48.88099" lon="1.70253">
        <ele>117.80000305176</ele>
        <time>2016-06-11T08:27:51.000Z</time>
      </trkpt>
      <trkpt lat="48.88099" lon="1.70253">
        <ele>117.80000305176</ele>
        <time>2016-06-11T08:27:52.000Z</time>
      </trkpt>
      <trkpt lat="48.88109" lon="1.7027">
        <ele>118.40000152588</ele>
        <time>2016-06-11T08:28:43.000Z</time>
      </trkpt>
      <trkpt lat="48.88114" lon="1.70277">
        <ele>118.59999847412</ele>
        <time>2016-06-11T08:28:48.000Z</time>
      </trkpt>
      <trkpt lat="48.88116" lon="1.70279">
        <ele>118.59999847412</ele>
        <time>2016-06-11T08:28:49.000Z</time>
      </trkpt>
      <trkpt lat="48.88119" lon="1.70281">
        <ele>118.59999847412</ele>
        <time>2016-06-11T08:28:51.000Z</time>
      </trkpt>
      <trkpt lat="48.88123" lon="1.70284">
        <ele>118.59999847412</ele>
        <time>2016-06-11T08:28:53.000Z</time>
      </trkpt>
      <trkpt lat="48.88126" lon="1.70292">
        <ele>118.80000305176</ele>
        <time>2016-06-11T08:28:57.000Z</time>
      </trkpt>
      <trkpt lat="48.8813" lon="1.70299">
        <ele>118.80000305176</ele>
        <time>2016-06-11T08:29:02.000Z</time>
      </trkpt>
      <trkpt lat="48.88133" lon="1.70306">
        <ele>119</ele>
        <time>2016-06-11T08:29:07.000Z</time>
      </trkpt>
      <trkpt lat="48.88136" lon="1.70315">
        <ele>119.40000152588</ele>
        <time>2016-06-11T08:29:12.000Z</time>
      </trkpt>
      <trkpt lat="48.88139" lon="1.70321">
        <ele>119.40000152588</ele>
        <time>2016-06-11T08:29:16.000Z</time>
      </trkpt>
      <trkpt lat="48.88143" lon="1.70333">
        <ele>119.40000152588</ele>
        <time>2016-06-11T08:29:23.000Z</time>
      </trkpt>
      <trkpt lat="48.88148" lon="1.70342">
        <ele>119.19999694824</ele>
        <time>2016-06-11T08:29:29.000Z</time>
      </trkpt>
      <trkpt lat="48.88149" lon="1.70344">
        <ele>119.19999694824</ele>
        <time>2016-06-11T08:29:30.000Z</time>
      </trkpt>
      <trkpt lat="48.88155" lon="1.70357">
        <ele>119.19999694824</ele>
        <time>2016-06-11T08:29:38.000Z</time>
      </trkpt>
      <trkpt lat="48.88158" lon="1.70365">
        <ele>119</ele>
        <time>2016-06-11T08:29:43.000Z</time>
      </trkpt>
      <trkpt lat="48.88159" lon="1.70366">
        <ele>119</ele>
        <time>2016-06-11T08:29:44.000Z</time>
      </trkpt>
      <trkpt lat="48.88162" lon="1.70373">
        <ele>119</ele>
        <time>2016-06-11T08:29:48.000Z</time>
      </trkpt>
      <trkpt lat="48.88166" lon="1.70384">
        <ele>118.80000305176</ele>
        <time>2016-06-11T08:29:54.000Z</time>
      </trkpt>
      <trkpt lat="48.88168" lon="1.70387">
        <ele>118.80000305176</ele>
        <time>2016-06-11T08:29:56.000Z</time>
      </trkpt>
      <trkpt lat="48.88168" lon="1.70388">
        <ele>118.80000305176</ele>
        <time>2016-06-11T08:29:57.000Z</time>
      </trkpt>
      <trkpt lat="48.88172" lon="1.70397">
        <ele>118.80000305176</ele>
        <time>2016-06-11T08:30:03.000Z</time>
      </trkpt>
      <trkpt lat="48.88174" lon="1.70407">
        <ele>118.80000305176</ele>
        <time>2016-06-11T08:30:09.000Z</time>
      </trkpt>
      <trkpt lat="48.88174" lon="1.70407">
        <ele>118.80000305176</ele>
        <time>2016-06-11T08:30:10.000Z</time>
      </trkpt>
      <trkpt lat="48.88164" lon="1.7043">
        <ele>119.19999694824</ele>
        <time>2016-06-11T08:31:07.000Z</time>
      </trkpt>
      <trkpt lat="48.8816" lon="1.70436">
        <ele>119.40000152588</ele>
        <time>2016-06-11T08:31:11.000Z</time>
      </trkpt>
      <trkpt lat="48.88153" lon="1.70447">
        <ele>119.80000305176</ele>
        <time>2016-06-11T08:31:19.000Z</time>
      </trkpt>
      <trkpt lat="48.88153" lon="1.70447">
        <ele>119.80000305176</ele>
        <time>2016-06-11T08:31:20.000Z</time>
      </trkpt>
      <trkpt lat="48.88163" lon="1.70428">
        <ele>119.19999694824</ele>
        <time>2016-06-11T08:31:34.000Z</time>
      </trkpt>
      <trkpt lat="48.88166" lon="1.70426">
        <ele>119.19999694824</ele>
        <time>2016-06-11T08:31:36.000Z</time>
      </trkpt>
      <trkpt lat="48.88172" lon="1.70421">
        <ele>118.80000305176</ele>
        <time>2016-06-11T08:31:42.000Z</time>
      </trkpt>
      <trkpt lat="48.88173" lon="1.70421">
        <ele>118.80000305176</ele>
        <time>2016-06-11T08:31:43.000Z</time>
      </trkpt>
      <trkpt lat="48.88175" lon="1.70424">
        <ele>118.59999847412</ele>
        <time>2016-06-11T08:31:45.000Z</time>
      </trkpt>
      <trkpt lat="48.88176" lon="1.70425">
        <ele>118.59999847412</ele>
        <time>2016-06-11T08:31:46.000Z</time>
      </trkpt>
      <trkpt lat="48.88179" lon="1.70428">
        <ele>118.59999847412</ele>
        <time>2016-06-11T08:31:49.000Z</time>
      </trkpt>
      <trkpt lat="48.88181" lon="1.70433">
        <ele>118.40000152588</ele>
        <time>2016-06-11T08:31:52.000Z</time>
      </trkpt>
      <trkpt lat="48.88186" lon="1.70442">
        <ele>118.19999694824</ele>
        <time>2016-06-11T08:31:58.000Z</time>
      </trkpt>
      <trkpt lat="48.88192" lon="1.70457">
        <ele>118</ele>
        <time>2016-06-11T08:32:06.000Z</time>
      </trkpt>
      <trkpt lat="48.88195" lon="1.70463">
        <ele>118</ele>
        <time>2016-06-11T08:32:10.000Z</time>
      </trkpt>
      <trkpt lat="48.88197" lon="1.70467">
        <ele>118</ele>
        <time>2016-06-11T08:32:13.000Z</time>
      </trkpt>
      <trkpt lat="48.88197" lon="1.70467">
        <ele>118</ele>
        <time>2016-06-11T08:32:14.000Z</time>
      </trkpt>
      <trkpt lat="48.88199" lon="1.70471">
        <ele>118.19999694824</ele>
        <time>2016-06-11T08:32:16.000Z</time>
      </trkpt>
      <trkpt lat="48.88203" lon="1.70482">
        <ele>118.19999694824</ele>
        <time>2016-06-11T08:32:22.000Z</time>
      </trkpt>
      <trkpt lat="48.88206" lon="1.7049">
        <ele>118.19999694824</ele>
        <time>2016-06-11T08:32:27.000Z</time>
      </trkpt>
      <trkpt lat="48.88208" lon="1.70499">
        <ele>118.59999847412</ele>
        <time>2016-06-11T08:32:33.000Z</time>
      </trkpt>
      <trkpt lat="48.88209" lon="1.70503">
        <ele>118.59999847412</ele>
        <time>2016-06-11T08:32:35.000Z</time>
      </trkpt>
      <trkpt lat="48.88211" lon="1.70508">
        <ele>118.80000305176</ele>
        <time>2016-06-11T08:32:38.000Z</time>
      </trkpt>
      <trkpt lat="48.88212" lon="1.7051">
        <ele>118.80000305176</ele>
        <time>2016-06-11T08:32:39.000Z</time>
      </trkpt>
      <trkpt lat="48.88214" lon="1.70519">
        <ele>119.19999694824</ele>
        <time>2016-06-11T08:32:43.000Z</time>
      </trkpt>
      <trkpt lat="48.88215" lon="1.70521">
        <ele>119.19999694824</ele>
        <time>2016-06-11T08:32:44.000Z</time>
      </trkpt>
      <trkpt lat="48.88216" lon="1.7053">
        <ele>119.59999847412</ele>
        <time>2016-06-11T08:32:49.000Z</time>
      </trkpt>
      <trkpt lat="48.88217" lon="1.70531">
        <ele>119.59999847412</ele>
        <time>2016-06-11T08:32:50.000Z</time>
      </trkpt>
      <trkpt lat="48.88218" lon="1.70541">
        <ele>120</ele>
        <time>2016-06-11T08:32:56.000Z</time>
      </trkpt>
      <trkpt lat="48.88218" lon="1.70545">
        <ele>120.19999694824</ele>
        <time>2016-06-11T08:32:58.000Z</time>
      </trkpt>
      <trkpt lat="48.88219" lon="1.70554">
        <ele>120.40000152588</ele>
        <time>2016-06-11T08:33:02.000Z</time>
      </trkpt>
      <trkpt lat="48.88219" lon="1.70558">
        <ele>120.59999847412</ele>
        <time>2016-06-11T08:33:05.000Z</time>
      </trkpt>
      <trkpt lat="48.8822" lon="1.70563">
        <ele>120.80000305176</ele>
        <time>2016-06-11T08:33:07.000Z</time>
      </trkpt>
      <trkpt lat="48.88221" lon="1.70565">
        <ele>120.80000305176</ele>
        <time>2016-06-11T08:33:08.000Z</time>
      </trkpt>
      <trkpt lat="48.88222" lon="1.70571">
        <ele>121</ele>
        <time>2016-06-11T08:33:12.000Z</time>
      </trkpt>
      <trkpt lat="48.88222" lon="1.70574">
        <ele>121.19999694824</ele>
        <time>2016-06-11T08:33:14.000Z</time>
      </trkpt>
      <trkpt lat="48.88222" lon="1.70582">
        <ele>121.19999694824</ele>
        <time>2016-06-11T08:33:17.000Z</time>
      </trkpt>
      <trkpt lat="48.88222" lon="1.70584">
        <ele>121.40000152588</ele>
        <time>2016-06-11T08:33:18.000Z</time>
      </trkpt>
      <trkpt lat="48.88221" lon="1.70598">
        <ele>121.59999847412</ele>
        <time>2016-06-11T08:33:24.000Z</time>
      </trkpt>
      <trkpt lat="48.8822" lon="1.7061">
        <ele>122.19999694824</ele>
        <time>2016-06-11T08:33:30.000Z</time>
      </trkpt>
      <trkpt lat="48.88219" lon="1.70614">
        <ele>122.40000152588</ele>
        <time>2016-06-11T08:33:32.000Z</time>
      </trkpt>
      <trkpt lat="48.88218" lon="1.7062">
        <ele>122.80000305176</ele>
        <time>2016-06-11T08:33:35.000Z</time>
      </trkpt>
      <trkpt lat="48.88217" lon="1.70629">
        <ele>123.19999694824</ele>
        <time>2016-06-11T08:33:39.000Z</time>
      </trkpt>
      <trkpt lat="48.88215" lon="1.70636">
        <ele>123.59999847412</ele>
        <time>2016-06-11T08:33:42.000Z</time>
      </trkpt>
      <trkpt lat="48.88214" lon="1.70646">
        <ele>124</ele>
        <time>2016-06-11T08:33:47.000Z</time>
      </trkpt>
      <trkpt lat="48.88212" lon="1.70655">
        <ele>124.40000152588</ele>
        <time>2016-06-11T08:33:51.000Z</time>
      </trkpt>
      <trkpt lat="48.8821" lon="1.7067">
        <ele>124.80000305176</ele>
        <time>2016-06-11T08:33:58.000Z</time>
      </trkpt>
      <trkpt lat="48.88209" lon="1.70683">
        <ele>125.19999694824</ele>
        <time>2016-06-11T08:34:04.000Z</time>
      </trkpt>
      <trkpt lat="48.88207" lon="1.70695">
        <ele>125.19999694824</ele>
        <time>2016-06-11T08:34:11.000Z</time>
      </trkpt>
      <trkpt lat="48.88205" lon="1.70705">
        <ele>125.40000152588</ele>
        <time>2016-06-11T08:34:17.000Z</time>
      </trkpt>
      <trkpt lat="48.88201" lon="1.7071">
        <ele>125.59999847412</ele>
        <time>2016-06-11T08:34:20.000Z</time>
      </trkpt>
      <trkpt lat="48.882" lon="1.70711">
        <ele>125.59999847412</ele>
        <time>2016-06-11T08:34:22.000Z</time>
      </trkpt>
      <trkpt lat="48.882" lon="1.70711">
        <ele>125.59999847412</ele>
        <time>2016-06-11T08:34:23.000Z</time>
      </trkpt>
      <trkpt lat="48.88176" lon="1.70694">
        <ele>125.80000305176</ele>
        <time>2016-06-11T08:35:46.000Z</time>
      </trkpt>
      <trkpt lat="48.88173" lon="1.70688">
        <ele>125.80000305176</ele>
        <time>2016-06-11T08:35:49.000Z</time>
      </trkpt>
      <trkpt lat="48.88173" lon="1.70687">
        <ele>125.80000305176</ele>
        <time>2016-06-11T08:35:50.000Z</time>
      </trkpt>
      <trkpt lat="48.88172" lon="1.70685">
        <ele>125.80000305176</ele>
        <time>2016-06-11T08:35:51.000Z</time>
      </trkpt>
      <trkpt lat="48.88167" lon="1.70679">
        <ele>125.80000305176</ele>
        <time>2016-06-11T08:35:56.000Z</time>
      </trkpt>
      <trkpt lat="48.8816" lon="1.70669">
        <ele>125.80000305176</ele>
        <time>2016-06-11T08:36:04.000Z</time>
      </trkpt>
      <trkpt lat="48.88151" lon="1.70656">
        <ele>126</ele>
        <time>2016-06-11T08:36:13.000Z</time>
      </trkpt>
      <trkpt lat="48.88143" lon="1.70642">
        <ele>125.80000305176</ele>
        <time>2016-06-11T08:36:22.000Z</time>
      </trkpt>
      <trkpt lat="48.88142" lon="1.70641">
        <ele>125.80000305176</ele>
        <time>2016-06-11T08:36:23.000Z</time>
      </trkpt>
      <trkpt lat="48.8814" lon="1.70636">
        <ele>125.80000305176</ele>
        <time>2016-06-11T08:36:26.000Z</time>
      </trkpt>
      <trkpt lat="48.88138" lon="1.70632">
        <ele>125.80000305176</ele>
        <time>2016-06-11T08:36:28.000Z</time>
      </trkpt>
      <trkpt lat="48.8813" lon="1.70617">
        <ele>125.59999847412</ele>
        <time>2016-06-11T08:36:37.000Z</time>
      </trkpt>
      <trkpt lat="48.88121" lon="1.706">
        <ele>125.40000152588</ele>
        <time>2016-06-11T08:36:47.000Z</time>
      </trkpt>
      <trkpt lat="48.88114" lon="1.70588">
        <ele>125.19999694824</ele>
        <time>2016-06-11T08:36:55.000Z</time>
      </trkpt>
      <trkpt lat="48.88112" lon="1.70587">
        <ele>125.19999694824</ele>
        <time>2016-06-11T08:36:56.000Z</time>
      </trkpt>
      <trkpt lat="48.88108" lon="1.7058">
        <ele>125.19999694824</ele>
        <time>2016-06-11T08:37:00.000Z</time>
      </trkpt>
      <trkpt lat="48.88102" lon="1.70572">
        <ele>125</ele>
        <time>2016-06-11T08:37:06.000Z</time>
      </trkpt>
      <trkpt lat="48.88098" lon="1.70564">
        <ele>125</ele>
        <time>2016-06-11T08:37:11.000Z</time>
      </trkpt>
      <trkpt lat="48.88092" lon="1.70556">
        <ele>125</ele>
        <time>2016-06-11T08:37:17.000Z</time>
      </trkpt>
      <trkpt lat="48.88085" lon="1.70553">
        <ele>125</ele>
        <time>2016-06-11T08:37:23.000Z</time>
      </trkpt>
      <trkpt lat="48.88084" lon="1.70554">
        <ele>125</ele>
        <time>2016-06-11T08:37:24.000Z</time>
      </trkpt>
      <trkpt lat="48.8808" lon="1.70556">
        <ele>124.80000305176</ele>
        <time>2016-06-11T08:37:28.000Z</time>
      </trkpt>
      <trkpt lat="48.88077" lon="1.7056">
        <ele>124.80000305176</ele>
        <time>2016-06-11T08:37:31.000Z</time>
      </trkpt>
      <trkpt lat="48.88072" lon="1.70564">
        <ele>124.59999847412</ele>
        <time>2016-06-11T08:37:35.000Z</time>
      </trkpt>
      <trkpt lat="48.88066" lon="1.70568">
        <ele>124.59999847412</ele>
        <time>2016-06-11T08:37:40.000Z</time>
      </trkpt>
      <trkpt lat="48.88064" lon="1.70571">
        <ele>124.59999847412</ele>
        <time>2016-06-11T08:37:42.000Z</time>
      </trkpt>
      <trkpt lat="48.88058" lon="1.70577">
        <ele>124.59999847412</ele>
        <time>2016-06-11T08:37:47.000Z</time>
      </trkpt>
      <trkpt lat="48.88058" lon="1.70577">
        <ele>124.59999847412</ele>
        <time>2016-06-11T08:37:48.000Z</time>
      </trkpt>
      <trkpt lat="48.88053" lon="1.7058">
        <ele>124.59999847412</ele>
        <time>2016-06-11T08:37:51.000Z</time>
      </trkpt>
      <trkpt lat="48.88052" lon="1.70581">
        <ele>124.59999847412</ele>
        <time>2016-06-11T08:37:52.000Z</time>
      </trkpt>
      <trkpt lat="48.88042" lon="1.70586">
        <ele>124.59999847412</ele>
        <time>2016-06-11T08:38:00.000Z</time>
      </trkpt>
      <trkpt lat="48.88035" lon="1.70595">
        <ele>124.59999847412</ele>
        <time>2016-06-11T08:38:09.000Z</time>
      </trkpt>
      <trkpt lat="48.88024" lon="1.70618">
        <ele>124.59999847412</ele>
        <time>2016-06-11T08:38:34.000Z</time>
      </trkpt>
      <trkpt lat="48.88023" lon="1.7062">
        <ele>124.59999847412</ele>
        <time>2016-06-11T08:38:35.000Z</time>
      </trkpt>
      <trkpt lat="48.88021" lon="1.70623">
        <ele>124.59999847412</ele>
        <time>2016-06-11T08:38:37.000Z</time>
      </trkpt>
      <trkpt lat="48.88017" lon="1.70631">
        <ele>124.80000305176</ele>
        <time>2016-06-11T08:38:43.000Z</time>
      </trkpt>
      <trkpt lat="48.88009" lon="1.70644">
        <ele>125.19999694824</ele>
        <time>2016-06-11T08:38:52.000Z</time>
      </trkpt>
      <trkpt lat="48.88004" lon="1.70652">
        <ele>125.40000152588</ele>
        <time>2016-06-11T08:38:58.000Z</time>
      </trkpt>
      <trkpt lat="48.87999" lon="1.70659">
        <ele>125.59999847412</ele>
        <time>2016-06-11T08:39:03.000Z</time>
      </trkpt>
      <trkpt lat="48.87996" lon="1.70664">
        <ele>125.80000305176</ele>
        <time>2016-06-11T08:39:06.000Z</time>
      </trkpt>
      <trkpt lat="48.87995" lon="1.70666">
        <ele>125.80000305176</ele>
        <time>2016-06-11T08:39:08.000Z</time>
      </trkpt>
      <trkpt lat="48.87995" lon="1.70667">
        <ele>125.80000305176</ele>
        <time>2016-06-11T08:39:09.000Z</time>
      </trkpt>
      <trkpt lat="48.87994" lon="1.70668">
        <ele>125.80000305176</ele>
        <time>2016-06-11T08:39:10.000Z</time>
      </trkpt>
      <trkpt lat="48.87992" lon="1.70672">
        <ele>126</ele>
        <time>2016-06-11T08:39:14.000Z</time>
      </trkpt>
      <trkpt lat="48.8799" lon="1.70673">
        <ele>126</ele>
        <time>2016-06-11T08:39:15.000Z</time>
      </trkpt>
      <trkpt lat="48.87983" lon="1.70685">
        <ele>126.40000152588</ele>
        <time>2016-06-11T08:39:22.000Z</time>
      </trkpt>
      <trkpt lat="48.87981" lon="1.70687">
        <ele>126.40000152588</ele>
        <time>2016-06-11T08:39:23.000Z</time>
      </trkpt>
      <trkpt lat="48.87976" lon="1.70694">
        <ele>126.40000152588</ele>
        <time>2016-06-11T08:39:28.000Z</time>
      </trkpt>
      <trkpt lat="48.87969" lon="1.70704">
        <ele>126.19999694824</ele>
        <time>2016-06-11T08:39:35.000Z</time>
      </trkpt>
      <trkpt lat="48.87966" lon="1.70708">
        <ele>126</ele>
        <time>2016-06-11T08:39:38.000Z</time>
      </trkpt>
      <trkpt lat="48.87964" lon="1.70711">
        <ele>126</ele>
        <time>2016-06-11T08:39:40.000Z</time>
      </trkpt>
      <trkpt lat="48.87963" lon="1.70715">
        <ele>125.80000305176</ele>
        <time>2016-06-11T08:39:42.000Z</time>
      </trkpt>
      <trkpt lat="48.87961" lon="1.70719">
        <ele>125.59999847412</ele>
        <time>2016-06-11T08:39:46.000Z</time>
      </trkpt>
      <trkpt lat="48.87959" lon="1.70722">
        <ele>125.59999847412</ele>
        <time>2016-06-11T08:39:48.000Z</time>
      </trkpt>
      <trkpt lat="48.87958" lon="1.70726">
        <ele>125.40000152588</ele>
        <time>2016-06-11T08:39:50.000Z</time>
      </trkpt>
      <trkpt lat="48.87952" lon="1.70737">
        <ele>125.19999694824</ele>
        <time>2016-06-11T08:39:56.000Z</time>
      </trkpt>
      <trkpt lat="48.87948" lon="1.70749">
        <ele>125</ele>
        <time>2016-06-11T08:40:02.000Z</time>
      </trkpt>
      <trkpt lat="48.87947" lon="1.7075">
        <ele>124.80000305176</ele>
        <time>2016-06-11T08:40:03.000Z</time>
      </trkpt>
      <trkpt lat="48.87947" lon="1.70766">
        <ele>124.40000152588</ele>
        <time>2016-06-11T08:40:11.000Z</time>
      </trkpt>
      <trkpt lat="48.87948" lon="1.70773">
        <ele>124.40000152588</ele>
        <time>2016-06-11T08:40:16.000Z</time>
      </trkpt>
      <trkpt lat="48.87949" lon="1.70777">
        <ele>124.19999694824</ele>
        <time>2016-06-11T08:40:18.000Z</time>
      </trkpt>
      <trkpt lat="48.87949" lon="1.70782">
        <ele>124.19999694824</ele>
        <time>2016-06-11T08:40:22.000Z</time>
      </trkpt>
      <trkpt lat="48.87949" lon="1.70782">
        <ele>124.19999694824</ele>
        <time>2016-06-11T08:40:23.000Z</time>
      </trkpt>
      <trkpt lat="48.87949" lon="1.70782">
        <ele>124.19999694824</ele>
        <time>2016-06-11T08:40:24.000Z</time>
      </trkpt>
      <trkpt lat="48.87943" lon="1.7076">
        <ele>124.59999847412</ele>
        <time>2016-06-11T08:42:33.000Z</time>
      </trkpt>
      <trkpt lat="48.87943" lon="1.70763">
        <ele>124.40000152588</ele>
        <time>2016-06-11T08:42:34.000Z</time>
      </trkpt>
      <trkpt lat="48.87948" lon="1.70779">
        <ele>124.19999694824</ele>
        <time>2016-06-11T08:42:41.000Z</time>
      </trkpt>
      <trkpt lat="48.87953" lon="1.7079">
        <ele>124</ele>
        <time>2016-06-11T08:42:48.000Z</time>
      </trkpt>
      <trkpt lat="48.87955" lon="1.70791">
        <ele>124</ele>
        <time>2016-06-11T08:42:49.000Z</time>
      </trkpt>
      <trkpt lat="48.87958" lon="1.70795">
        <ele>124</ele>
        <time>2016-06-11T08:42:53.000Z</time>
      </trkpt>
      <trkpt lat="48.8796" lon="1.70798">
        <ele>124</ele>
        <time>2016-06-11T08:42:55.000Z</time>
      </trkpt>
      <trkpt lat="48.87961" lon="1.70799">
        <ele>124</ele>
        <time>2016-06-11T08:42:56.000Z</time>
      </trkpt>
      <trkpt lat="48.87964" lon="1.70805">
        <ele>124</ele>
        <time>2016-06-11T08:43:00.000Z</time>
      </trkpt>
      <trkpt lat="48.87967" lon="1.70816">
        <ele>123.80000305176</ele>
        <time>2016-06-11T08:43:06.000Z</time>
      </trkpt>
      <trkpt lat="48.87971" lon="1.70825">
        <ele>123.59999847412</ele>
        <time>2016-06-11T08:43:11.000Z</time>
      </trkpt>
      <trkpt lat="48.87972" lon="1.7083">
        <ele>123.59999847412</ele>
        <time>2016-06-11T08:43:13.000Z</time>
      </trkpt>
      <trkpt lat="48.87976" lon="1.7084">
        <ele>123.40000152588</ele>
        <time>2016-06-11T08:43:16.000Z</time>
      </trkpt>
      <trkpt lat="48.87979" lon="1.70851">
        <ele>123.19999694824</ele>
        <time>2016-06-11T08:43:19.000Z</time>
      </trkpt>
      <trkpt lat="48.87982" lon="1.70863">
        <ele>123</ele>
        <time>2016-06-11T08:43:23.000Z</time>
      </trkpt>
      <trkpt lat="48.87986" lon="1.70882">
        <ele>122.59999847412</ele>
        <time>2016-06-11T08:43:29.000Z</time>
      </trkpt>
      <trkpt lat="48.87989" lon="1.70909">
        <ele>122.19999694824</ele>
        <time>2016-06-11T08:43:38.000Z</time>
      </trkpt>
      <trkpt lat="48.87991" lon="1.70923">
        <ele>122.40000152588</ele>
        <time>2016-06-11T08:43:44.000Z</time>
      </trkpt>
      <trkpt lat="48.87992" lon="1.70935">
        <ele>122.59999847412</ele>
        <time>2016-06-11T08:43:49.000Z</time>
      </trkpt>
      <trkpt lat="48.87994" lon="1.70955">
        <ele>123</ele>
        <time>2016-06-11T08:43:57.000Z</time>
      </trkpt>
      <trkpt lat="48.87997" lon="1.70966">
        <ele>123</ele>
        <time>2016-06-11T08:44:02.000Z</time>
      </trkpt>
      <trkpt lat="48.88002" lon="1.70982">
        <ele>122.80000305176</ele>
        <time>2016-06-11T08:44:10.000Z</time>
      </trkpt>
      <trkpt lat="48.88012" lon="1.71">
        <ele>123.19999694824</ele>
        <time>2016-06-11T08:44:20.000Z</time>
      </trkpt>
      <trkpt lat="48.8802" lon="1.71015">
        <ele>123.40000152588</ele>
        <time>2016-06-11T08:44:26.000Z</time>
      </trkpt>
      <trkpt lat="48.88028" lon="1.71029">
        <ele>123.59999847412</ele>
        <time>2016-06-11T08:44:34.000Z</time>
      </trkpt>
      <trkpt lat="48.88037" lon="1.71048">
        <ele>123.59999847412</ele>
        <time>2016-06-11T08:44:45.000Z</time>
      </trkpt>
      <trkpt lat="48.88044" lon="1.7106">
        <ele>123.59999847412</ele>
        <time>2016-06-11T08:44:53.000Z</time>
      </trkpt>
      <trkpt lat="48.88052" lon="1.71073">
        <ele>123.80000305176</ele>
        <time>2016-06-11T08:44:59.000Z</time>
      </trkpt>
      <trkpt lat="48.88062" lon="1.71092">
        <ele>124.19999694824</ele>
        <time>2016-06-11T08:45:05.000Z</time>
      </trkpt>
      <trkpt lat="48.88069" lon="1.71104">
        <ele>124.59999847412</ele>
        <time>2016-06-11T08:45:12.000Z</time>
      </trkpt>
      <trkpt lat="48.88072" lon="1.71108">
        <ele>124.59999847412</ele>
        <time>2016-06-11T08:45:15.000Z</time>
      </trkpt>
      <trkpt lat="48.88077" lon="1.7111">
        <ele>124.80000305176</ele>
        <time>2016-06-11T08:45:18.000Z</time>
      </trkpt>
      <trkpt lat="48.88079" lon="1.71112">
        <ele>124.80000305176</ele>
        <time>2016-06-11T08:45:19.000Z</time>
      </trkpt>
      <trkpt lat="48.88083" lon="1.71119">
        <ele>125</ele>
        <time>2016-06-11T08:45:22.000Z</time>
      </trkpt>
      <trkpt lat="48.88088" lon="1.71129">
        <ele>125.19999694824</ele>
        <time>2016-06-11T08:45:28.000Z</time>
      </trkpt>
      <trkpt lat="48.88088" lon="1.71132">
        <ele>125.40000152588</ele>
        <time>2016-06-11T08:45:29.000Z</time>
      </trkpt>
      <trkpt lat="48.88091" lon="1.71137">
        <ele>125.40000152588</ele>
        <time>2016-06-11T08:45:32.000Z</time>
      </trkpt>
      <trkpt lat="48.881" lon="1.71151">
        <ele>125.80000305176</ele>
        <time>2016-06-11T08:45:40.000Z</time>
      </trkpt>
      <trkpt lat="48.8811" lon="1.71168">
        <ele>126.19999694824</ele>
        <time>2016-06-11T08:45:50.000Z</time>
      </trkpt>
      <trkpt lat="48.88121" lon="1.71185">
        <ele>126.59999847412</ele>
        <time>2016-06-11T08:46:00.000Z</time>
      </trkpt>
      <trkpt lat="48.88129" lon="1.71195">
        <ele>126.80000305176</ele>
        <time>2016-06-11T08:46:07.000Z</time>
      </trkpt>
      <trkpt lat="48.88135" lon="1.71213">
        <ele>127</ele>
        <time>2016-06-11T08:46:12.000Z</time>
      </trkpt>
      <trkpt lat="48.88142" lon="1.71236">
        <ele>127.40000152588</ele>
        <time>2016-06-11T08:46:19.000Z</time>
      </trkpt>
      <trkpt lat="48.88149" lon="1.71254">
        <ele>127.40000152588</ele>
        <time>2016-06-11T08:46:28.000Z</time>
      </trkpt>
      <trkpt lat="48.88157" lon="1.71272">
        <ele>127.19999694824</ele>
        <time>2016-06-11T08:46:37.000Z</time>
      </trkpt>
      <trkpt lat="48.88164" lon="1.71294">
        <ele>127</ele>
        <time>2016-06-11T08:46:47.000Z</time>
      </trkpt>
      <trkpt lat="48.88173" lon="1.71314">
        <ele>127</ele>
        <time>2016-06-11T08:46:57.000Z</time>
      </trkpt>
      <trkpt lat="48.88176" lon="1.71331">
        <ele>127.40000152588</ele>
        <time>2016-06-11T08:47:05.000Z</time>
      </trkpt>
      <trkpt lat="48.88177" lon="1.71344">
        <ele>127.80000305176</ele>
        <time>2016-06-11T08:47:10.000Z</time>
      </trkpt>
      <trkpt lat="48.88179" lon="1.71356">
        <ele>128.19999694824</ele>
        <time>2016-06-11T08:47:14.000Z</time>
      </trkpt>
      <trkpt lat="48.88179" lon="1.71361">
        <ele>128.39999389648</ele>
        <time>2016-06-11T08:47:16.000Z</time>
      </trkpt>
      <trkpt lat="48.88179" lon="1.71376">
        <ele>129</ele>
        <time>2016-06-11T08:47:23.000Z</time>
      </trkpt>
      <trkpt lat="48.88177" lon="1.71394">
        <ele>129.60000610352</ele>
        <time>2016-06-11T08:47:30.000Z</time>
      </trkpt>
      <trkpt lat="48.88176" lon="1.71405">
        <ele>129.80000305176</ele>
        <time>2016-06-11T08:47:35.000Z</time>
      </trkpt>
      <trkpt lat="48.88175" lon="1.71407">
        <ele>129.80000305176</ele>
        <time>2016-06-11T08:47:36.000Z</time>
      </trkpt>
      <trkpt lat="48.88174" lon="1.7142">
        <ele>130</ele>
        <time>2016-06-11T08:47:40.000Z</time>
      </trkpt>
      <trkpt lat="48.88174" lon="1.71423">
        <ele>130</ele>
        <time>2016-06-11T08:47:41.000Z</time>
      </trkpt>
      <trkpt lat="48.88172" lon="1.7144">
        <ele>130.19999694824</ele>
        <time>2016-06-11T08:47:49.000Z</time>
      </trkpt>
      <trkpt lat="48.88171" lon="1.71455">
        <ele>130.39999389648</ele>
        <time>2016-06-11T08:47:56.000Z</time>
      </trkpt>
      <trkpt lat="48.88164" lon="1.71472">
        <ele>130.60000610352</ele>
        <time>2016-06-11T08:48:05.000Z</time>
      </trkpt>
      <trkpt lat="48.88158" lon="1.71488">
        <ele>131</ele>
        <time>2016-06-11T08:48:13.000Z</time>
      </trkpt>
      <trkpt lat="48.88156" lon="1.71489">
        <ele>131</ele>
        <time>2016-06-11T08:48:14.000Z</time>
      </trkpt>
      <trkpt lat="48.88154" lon="1.71493">
        <ele>131.19999694824</ele>
        <time>2016-06-11T08:48:16.000Z</time>
      </trkpt>
      <trkpt lat="48.88149" lon="1.71507">
        <ele>131.39999389648</ele>
        <time>2016-06-11T08:48:23.000Z</time>
      </trkpt>
      <trkpt lat="48.88142" lon="1.71523">
        <ele>131.80000305176</ele>
        <time>2016-06-11T08:48:31.000Z</time>
      </trkpt>
      <trkpt lat="48.88135" lon="1.71543">
        <ele>131.60000610352</ele>
        <time>2016-06-11T08:48:38.000Z</time>
      </trkpt>
      <trkpt lat="48.88129" lon="1.71562">
        <ele>131.60000610352</ele>
        <time>2016-06-11T08:48:45.000Z</time>
      </trkpt>
      <trkpt lat="48.88125" lon="1.71576">
        <ele>131.60000610352</ele>
        <time>2016-06-11T08:48:52.000Z</time>
      </trkpt>
      <trkpt lat="48.88117" lon="1.71596">
        <ele>131.19999694824</ele>
        <time>2016-06-11T08:49:02.000Z</time>
      </trkpt>
      <trkpt lat="48.88111" lon="1.71612">
        <ele>130.80000305176</ele>
        <time>2016-06-11T08:49:10.000Z</time>
      </trkpt>
      <trkpt lat="48.88107" lon="1.71622">
        <ele>130.39999389648</ele>
        <time>2016-06-11T08:49:15.000Z</time>
      </trkpt>
      <trkpt lat="48.88106" lon="1.71626">
        <ele>130.39999389648</ele>
        <time>2016-06-11T08:49:17.000Z</time>
      </trkpt>
      <trkpt lat="48.881" lon="1.71636">
        <ele>130</ele>
        <time>2016-06-11T08:49:25.000Z</time>
      </trkpt>
      <trkpt lat="48.88093" lon="1.71655">
        <ele>129.39999389648</ele>
        <time>2016-06-11T08:49:37.000Z</time>
      </trkpt>
      <trkpt lat="48.88091" lon="1.71658">
        <ele>129.39999389648</ele>
        <time>2016-06-11T08:49:39.000Z</time>
      </trkpt>
      <trkpt lat="48.88085" lon="1.71671">
        <ele>129</ele>
        <time>2016-06-11T08:49:46.000Z</time>
      </trkpt>
      <trkpt lat="48.88081" lon="1.71677">
        <ele>128.80000305176</ele>
        <time>2016-06-11T08:49:51.000Z</time>
      </trkpt>
      <trkpt lat="48.88078" lon="1.71688">
        <ele>128.60000610352</ele>
        <time>2016-06-11T08:49:56.000Z</time>
      </trkpt>
      <trkpt lat="48.88077" lon="1.7169">
        <ele>128.60000610352</ele>
        <time>2016-06-11T08:49:57.000Z</time>
      </trkpt>
      <trkpt lat="48.88073" lon="1.7171">
        <ele>128.19999694824</ele>
        <time>2016-06-11T08:50:06.000Z</time>
      </trkpt>
      <trkpt lat="48.88067" lon="1.71731">
        <ele>127.59999847412</ele>
        <time>2016-06-11T08:50:16.000Z</time>
      </trkpt>
      <trkpt lat="48.8806" lon="1.71754">
        <ele>127.19999694824</ele>
        <time>2016-06-11T08:50:27.000Z</time>
      </trkpt>
      <trkpt lat="48.88058" lon="1.71771">
        <ele>126.80000305176</ele>
        <time>2016-06-11T08:50:35.000Z</time>
      </trkpt>
      <trkpt lat="48.88056" lon="1.71778">
        <ele>126.80000305176</ele>
        <time>2016-06-11T08:50:38.000Z</time>
      </trkpt>
      <trkpt lat="48.88055" lon="1.71782">
        <ele>126.80000305176</ele>
        <time>2016-06-11T08:50:40.000Z</time>
      </trkpt>
      <trkpt lat="48.88053" lon="1.71793">
        <ele>126.80000305176</ele>
        <time>2016-06-11T08:50:45.000Z</time>
      </trkpt>
      <trkpt lat="48.88051" lon="1.71808">
        <ele>126.59999847412</ele>
        <time>2016-06-11T08:50:51.000Z</time>
      </trkpt>
      <trkpt lat="48.88049" lon="1.7182">
        <ele>126.59999847412</ele>
        <time>2016-06-11T08:50:56.000Z</time>
      </trkpt>
      <trkpt lat="48.88048" lon="1.71833">
        <ele>126.80000305176</ele>
        <time>2016-06-11T08:51:01.000Z</time>
      </trkpt>
      <trkpt lat="48.88044" lon="1.71849">
        <ele>127.19999694824</ele>
        <time>2016-06-11T08:51:08.000Z</time>
      </trkpt>
      <trkpt lat="48.88043" lon="1.71866">
        <ele>127.19999694824</ele>
        <time>2016-06-11T08:51:13.000Z</time>
      </trkpt>
      <trkpt lat="48.88039" lon="1.71892">
        <ele>127.40000152588</ele>
        <time>2016-06-11T08:51:19.000Z</time>
      </trkpt>
      <trkpt lat="48.88032" lon="1.7193">
        <ele>127.40000152588</ele>
        <time>2016-06-11T08:51:27.000Z</time>
      </trkpt>
      <trkpt lat="48.88019" lon="1.71973">
        <ele>127.80000305176</ele>
        <time>2016-06-11T08:51:36.000Z</time>
      </trkpt>
      <trkpt lat="48.88009" lon="1.72009">
        <ele>128.60000610352</ele>
        <time>2016-06-11T08:51:43.000Z</time>
      </trkpt>
      <trkpt lat="48.87991" lon="1.72049">
        <ele>129.39999389648</ele>
        <time>2016-06-11T08:51:51.000Z</time>
      </trkpt>
      <trkpt lat="48.87966" lon="1.72096">
        <ele>130.39999389648</ele>
        <time>2016-06-11T08:52:01.000Z</time>
      </trkpt>
      <trkpt lat="48.87939" lon="1.72147">
        <ele>132.80000305176</ele>
        <time>2016-06-11T08:52:11.000Z</time>
      </trkpt>
      <trkpt lat="48.87917" lon="1.72189">
        <ele>133.39999389648</ele>
        <time>2016-06-11T08:52:19.000Z</time>
      </trkpt>
      <trkpt lat="48.87897" lon="1.72229">
        <ele>134</ele>
        <time>2016-06-11T08:52:27.000Z</time>
      </trkpt>
      <trkpt lat="48.87871" lon="1.72281">
        <ele>134.19999694824</ele>
        <time>2016-06-11T08:52:37.000Z</time>
      </trkpt>
      <trkpt lat="48.87851" lon="1.72318">
        <ele>134</ele>
        <time>2016-06-11T08:52:45.000Z</time>
      </trkpt>
      <trkpt lat="48.87828" lon="1.72364">
        <ele>134.19999694824</ele>
        <time>2016-06-11T08:52:55.000Z</time>
      </trkpt>
      <trkpt lat="48.87811" lon="1.72396">
        <ele>134.39999389648</ele>
        <time>2016-06-11T08:53:02.000Z</time>
      </trkpt>
      <trkpt lat="48.87788" lon="1.7244">
        <ele>134.39999389648</ele>
        <time>2016-06-11T08:53:11.000Z</time>
      </trkpt>
      <trkpt lat="48.87763" lon="1.72489">
        <ele>133.80000305176</ele>
        <time>2016-06-11T08:53:21.000Z</time>
      </trkpt>
      <trkpt lat="48.87741" lon="1.72532">
        <ele>133.19999694824</ele>
        <time>2016-06-11T08:53:30.000Z</time>
      </trkpt>
      <trkpt lat="48.87728" lon="1.72557">
        <ele>132.60000610352</ele>
        <time>2016-06-11T08:53:35.000Z</time>
      </trkpt>
      <trkpt lat="48.87721" lon="1.72571">
        <ele>132.19999694824</ele>
        <time>2016-06-11T08:53:38.000Z</time>
      </trkpt>
      <trkpt lat="48.87705" lon="1.72607">
        <ele>131.39999389648</ele>
        <time>2016-06-11T08:53:45.000Z</time>
      </trkpt>
      <trkpt lat="48.87686" lon="1.72658">
        <ele>131</ele>
        <time>2016-06-11T08:53:55.000Z</time>
      </trkpt>
      <trkpt lat="48.87678" lon="1.72691">
        <ele>130.80000305176</ele>
        <time>2016-06-11T08:54:01.000Z</time>
      </trkpt>
      <trkpt lat="48.87669" lon="1.7273">
        <ele>130.80000305176</ele>
        <time>2016-06-11T08:54:09.000Z</time>
      </trkpt>
      <trkpt lat="48.87667" lon="1.72741">
        <ele>130.80000305176</ele>
        <time>2016-06-11T08:54:14.000Z</time>
      </trkpt>
      <trkpt lat="48.87665" lon="1.7275">
        <ele>130.80000305176</ele>
        <time>2016-06-11T08:54:18.000Z</time>
      </trkpt>
      <trkpt lat="48.87662" lon="1.72763">
        <ele>130.60000610352</ele>
        <time>2016-06-11T08:54:25.000Z</time>
      </trkpt>
      <trkpt lat="48.8766" lon="1.72774">
        <ele>130.60000610352</ele>
        <time>2016-06-11T08:54:31.000Z</time>
      </trkpt>
      <trkpt lat="48.87656" lon="1.72788">
        <ele>130.60000610352</ele>
        <time>2016-06-11T08:54:38.000Z</time>
      </trkpt>
      <trkpt lat="48.87651" lon="1.72802">
        <ele>130.80000305176</ele>
        <time>2016-06-11T08:54:45.000Z</time>
      </trkpt>
      <trkpt lat="48.87647" lon="1.72815">
        <ele>131</ele>
        <time>2016-06-11T08:54:51.000Z</time>
      </trkpt>
      <trkpt lat="48.87644" lon="1.7283">
        <ele>130.80000305176</ele>
        <time>2016-06-11T08:54:57.000Z</time>
      </trkpt>
      <trkpt lat="48.8764" lon="1.72846">
        <ele>130.60000610352</ele>
        <time>2016-06-11T08:55:03.000Z</time>
      </trkpt>
      <trkpt lat="48.87635" lon="1.72865">
        <ele>130.39999389648</ele>
        <time>2016-06-11T08:55:11.000Z</time>
      </trkpt>
      <trkpt lat="48.87628" lon="1.72886">
        <ele>130.19999694824</ele>
        <time>2016-06-11T08:55:20.000Z</time>
      </trkpt>
      <trkpt lat="48.87622" lon="1.72908">
        <ele>130</ele>
        <time>2016-06-11T08:55:25.000Z</time>
      </trkpt>
      <trkpt lat="48.87612" lon="1.72949">
        <ele>130.60000610352</ele>
        <time>2016-06-11T08:55:34.000Z</time>
      </trkpt>
      <trkpt lat="48.87599" lon="1.73007">
        <ele>131.39999389648</ele>
        <time>2016-06-11T08:55:45.000Z</time>
      </trkpt>
      <trkpt lat="48.87589" lon="1.73055">
        <ele>132.39999389648</ele>
        <time>2016-06-11T08:55:54.000Z</time>
      </trkpt>
      <trkpt lat="48.87581" lon="1.73112">
        <ele>131.60000610352</ele>
        <time>2016-06-11T08:56:04.000Z</time>
      </trkpt>
      <trkpt lat="48.87575" lon="1.73159">
        <ele>131.60000610352</ele>
        <time>2016-06-11T08:56:13.000Z</time>
      </trkpt>
      <trkpt lat="48.87575" lon="1.73183">
        <ele>131.19999694824</ele>
        <time>2016-06-11T08:56:18.000Z</time>
      </trkpt>
      <trkpt lat="48.87572" lon="1.73235">
        <ele>131</ele>
        <time>2016-06-11T08:56:27.000Z</time>
      </trkpt>
      <trkpt lat="48.87563" lon="1.73276">
        <ele>132</ele>
        <time>2016-06-11T08:56:34.000Z</time>
      </trkpt>
      <trkpt lat="48.87552" lon="1.73325">
        <ele>132.39999389648</ele>
        <time>2016-06-11T08:56:42.000Z</time>
      </trkpt>
      <trkpt lat="48.87545" lon="1.73368">
        <ele>133.39999389648</ele>
        <time>2016-06-11T08:56:50.000Z</time>
      </trkpt>
      <trkpt lat="48.87544" lon="1.73384">
        <ele>133.80000305176</ele>
        <time>2016-06-11T08:56:55.000Z</time>
      </trkpt>
      <trkpt lat="48.8754" lon="1.73393">
        <ele>134</ele>
        <time>2016-06-11T08:57:02.000Z</time>
      </trkpt>
      <trkpt lat="48.87536" lon="1.73397">
        <ele>134</ele>
        <time>2016-06-11T08:57:21.000Z</time>
      </trkpt>
      <trkpt lat="48.87533" lon="1.73398">
        <ele>134</ele>
        <time>2016-06-11T08:57:23.000Z</time>
      </trkpt>
      <trkpt lat="48.8752" lon="1.73401">
        <ele>134</ele>
        <time>2016-06-11T08:57:31.000Z</time>
      </trkpt>
      <trkpt lat="48.87502" lon="1.73408">
        <ele>133.80000305176</ele>
        <time>2016-06-11T08:57:42.000Z</time>
      </trkpt>
      <trkpt lat="48.87492" lon="1.73414">
        <ele>133.80000305176</ele>
        <time>2016-06-11T08:57:50.000Z</time>
      </trkpt>
      <trkpt lat="48.87486" lon="1.73418">
        <ele>133.80000305176</ele>
        <time>2016-06-11T08:58:11.000Z</time>
      </trkpt>
      <trkpt lat="48.87481" lon="1.73422">
        <ele>133.80000305176</ele>
        <time>2016-06-11T08:58:14.000Z</time>
      </trkpt>
      <trkpt lat="48.8747" lon="1.7343">
        <ele>133.60000610352</ele>
        <time>2016-06-11T08:58:20.000Z</time>
      </trkpt>
      <trkpt lat="48.87459" lon="1.7344">
        <ele>133.60000610352</ele>
        <time>2016-06-11T08:58:27.000Z</time>
      </trkpt>
      <trkpt lat="48.87446" lon="1.73446">
        <ele>133.60000610352</ele>
        <time>2016-06-11T08:58:35.000Z</time>
      </trkpt>
      <trkpt lat="48.87431" lon="1.73449">
        <ele>133.60000610352</ele>
        <time>2016-06-11T08:58:43.000Z</time>
      </trkpt>
      <trkpt lat="48.87416" lon="1.73452">
        <ele>133.60000610352</ele>
        <time>2016-06-11T08:58:52.000Z</time>
      </trkpt>
      <trkpt lat="48.874" lon="1.73454">
        <ele>133.60000610352</ele>
        <time>2016-06-11T08:59:01.000Z</time>
      </trkpt>
      <trkpt lat="48.87383" lon="1.73457">
        <ele>133.39999389648</ele>
        <time>2016-06-11T08:59:10.000Z</time>
      </trkpt>
      <trkpt lat="48.87367" lon="1.73459">
        <ele>133.19999694824</ele>
        <time>2016-06-11T08:59:19.000Z</time>
      </trkpt>
      <trkpt lat="48.87346" lon="1.73462">
        <ele>133</ele>
        <time>2016-06-11T08:59:31.000Z</time>
      </trkpt>
      <trkpt lat="48.87341" lon="1.73462">
        <ele>133</ele>
        <time>2016-06-11T08:59:34.000Z</time>
      </trkpt>
      <trkpt lat="48.87338" lon="1.73462">
        <ele>133</ele>
        <time>2016-06-11T08:59:36.000Z</time>
      </trkpt>
      <trkpt lat="48.87322" lon="1.73465">
        <ele>132.80000305176</ele>
        <time>2016-06-11T08:59:45.000Z</time>
      </trkpt>
      <trkpt lat="48.87312" lon="1.73466">
        <ele>132.80000305176</ele>
        <time>2016-06-11T08:59:51.000Z</time>
      </trkpt>
      <trkpt lat="48.87298" lon="1.73468">
        <ele>132.60000610352</ele>
        <time>2016-06-11T08:59:59.000Z</time>
      </trkpt>
      <trkpt lat="48.87284" lon="1.7347">
        <ele>132.39999389648</ele>
        <time>2016-06-11T09:00:07.000Z</time>
      </trkpt>
      <trkpt lat="48.87269" lon="1.73473">
        <ele>132</ele>
        <time>2016-06-11T09:00:16.000Z</time>
      </trkpt>
      <trkpt lat="48.87253" lon="1.73475">
        <ele>131.80000305176</ele>
        <time>2016-06-11T09:00:25.000Z</time>
      </trkpt>
      <trkpt lat="48.87242" lon="1.73477">
        <ele>131.60000610352</ele>
        <time>2016-06-11T09:00:31.000Z</time>
      </trkpt>
      <trkpt lat="48.87227" lon="1.7348">
        <ele>131.39999389648</ele>
        <time>2016-06-11T09:00:40.000Z</time>
      </trkpt>
      <trkpt lat="48.87217" lon="1.73479">
        <ele>131.39999389648</ele>
        <time>2016-06-11T09:00:46.000Z</time>
      </trkpt>
      <trkpt lat="48.87198" lon="1.73482">
        <ele>131</ele>
        <time>2016-06-11T09:00:57.000Z</time>
      </trkpt>
      <trkpt lat="48.87189" lon="1.73485">
        <ele>131</ele>
        <time>2016-06-11T09:01:02.000Z</time>
      </trkpt>
      <trkpt lat="48.87176" lon="1.73485">
        <ele>130.60000610352</ele>
        <time>2016-06-11T09:01:10.000Z</time>
      </trkpt>
      <trkpt lat="48.87165" lon="1.73486">
        <ele>130.39999389648</ele>
        <time>2016-06-11T09:01:16.000Z</time>
      </trkpt>
      <trkpt lat="48.87154" lon="1.73487">
        <ele>130.19999694824</ele>
        <time>2016-06-11T09:01:22.000Z</time>
      </trkpt>
      <trkpt lat="48.87151" lon="1.73487">
        <ele>130</ele>
        <time>2016-06-11T09:01:26.000Z</time>
      </trkpt>
      <trkpt lat="48.87147" lon="1.73489">
        <ele>130</ele>
        <time>2016-06-11T09:01:29.000Z</time>
      </trkpt>
      <trkpt lat="48.87143" lon="1.73489">
        <ele>130</ele>
        <time>2016-06-11T09:01:31.000Z</time>
      </trkpt>
      <trkpt lat="48.87134" lon="1.7349">
        <ele>129.60000610352</ele>
        <time>2016-06-11T09:01:37.000Z</time>
      </trkpt>
      <trkpt lat="48.87121" lon="1.7349">
        <ele>129.39999389648</ele>
        <time>2016-06-11T09:01:42.000Z</time>
      </trkpt>
      <trkpt lat="48.87088" lon="1.7349">
        <ele>128.60000610352</ele>
        <time>2016-06-11T09:01:51.000Z</time>
      </trkpt>
      <trkpt lat="48.87053" lon="1.73494">
        <ele>127.80000305176</ele>
        <time>2016-06-11T09:02:00.000Z</time>
      </trkpt>
      <trkpt lat="48.87013" lon="1.73503">
        <ele>126.80000305176</ele>
        <time>2016-06-11T09:02:10.000Z</time>
      </trkpt>
      <trkpt lat="48.86987" lon="1.73511">
        <ele>126.80000305176</ele>
        <time>2016-06-11T09:02:16.000Z</time>
      </trkpt>
      <trkpt lat="48.86946" lon="1.73524">
        <ele>127</ele>
        <time>2016-06-11T09:02:24.000Z</time>
      </trkpt>
      <trkpt lat="48.86906" lon="1.73533">
        <ele>126.59999847412</ele>
        <time>2016-06-11T09:02:32.000Z</time>
      </trkpt>
      <trkpt lat="48.86872" lon="1.73534">
        <ele>126.19999694824</ele>
        <time>2016-06-11T09:02:39.000Z</time>
      </trkpt>
      <trkpt lat="48.86831" lon="1.73533">
        <ele>126.40000152588</ele>
        <time>2016-06-11T09:02:47.000Z</time>
      </trkpt>
      <trkpt lat="48.86785" lon="1.7353">
        <ele>126.40000152588</ele>
        <time>2016-06-11T09:02:56.000Z</time>
      </trkpt>
      <trkpt lat="48.86739" lon="1.73522">
        <ele>125.80000305176</ele>
        <time>2016-06-11T09:03:05.000Z</time>
      </trkpt>
      <trkpt lat="48.86733" lon="1.73521">
        <ele>125.59999847412</ele>
        <time>2016-06-11T09:03:06.000Z</time>
      </trkpt>
      <trkpt lat="48.86687" lon="1.73511">
        <ele>125</ele>
        <time>2016-06-11T09:03:15.000Z</time>
      </trkpt>
      <trkpt lat="48.86683" lon="1.7351">
        <ele>125</ele>
        <time>2016-06-11T09:03:16.000Z</time>
      </trkpt>
      <trkpt lat="48.86658" lon="1.73506">
        <ele>124.59999847412</ele>
        <time>2016-06-11T09:03:22.000Z</time>
      </trkpt>
      <trkpt lat="48.86654" lon="1.73506">
        <ele>124.59999847412</ele>
        <time>2016-06-11T09:03:23.000Z</time>
      </trkpt>
      <trkpt lat="48.86645" lon="1.73504">
        <ele>124.40000152588</ele>
        <time>2016-06-11T09:03:27.000Z</time>
      </trkpt>
      <trkpt lat="48.86644" lon="1.73501">
        <ele>124.40000152588</ele>
        <time>2016-06-11T09:03:31.000Z</time>
      </trkpt>
      <trkpt lat="48.86646" lon="1.73494">
        <ele>124.40000152588</ele>
        <time>2016-06-11T09:03:37.000Z</time>
      </trkpt>
      <trkpt lat="48.8665" lon="1.7348">
        <ele>124.59999847412</ele>
        <time>2016-06-11T09:03:41.000Z</time>
      </trkpt>
      <trkpt lat="48.86655" lon="1.73459">
        <ele>124.59999847412</ele>
        <time>2016-06-11T09:03:48.000Z</time>
      </trkpt>
      <trkpt lat="48.86661" lon="1.73434">
        <ele>124.59999847412</ele>
        <time>2016-06-11T09:03:57.000Z</time>
      </trkpt>
      <trkpt lat="48.86666" lon="1.7341">
        <ele>124.80000305176</ele>
        <time>2016-06-11T09:04:03.000Z</time>
      </trkpt>
      <trkpt lat="48.86675" lon="1.73371">
        <ele>125.19999694824</ele>
        <time>2016-06-11T09:04:12.000Z</time>
      </trkpt>
      <trkpt lat="48.86685" lon="1.73328">
        <ele>125.80000305176</ele>
        <time>2016-06-11T09:04:21.000Z</time>
      </trkpt>
      <trkpt lat="48.86699" lon="1.73266">
        <ele>125.19999694824</ele>
        <time>2016-06-11T09:04:33.000Z</time>
      </trkpt>
      <trkpt lat="48.86708" lon="1.73228">
        <ele>125.19999694824</ele>
        <time>2016-06-11T09:04:40.000Z</time>
      </trkpt>
      <trkpt lat="48.86719" lon="1.73178">
        <ele>125.80000305176</ele>
        <time>2016-06-11T09:04:49.000Z</time>
      </trkpt>
      <trkpt lat="48.8673" lon="1.73126">
        <ele>125.40000152588</ele>
        <time>2016-06-11T09:04:58.000Z</time>
      </trkpt>
      <trkpt lat="48.86742" lon="1.73073">
        <ele>124</ele>
        <time>2016-06-11T09:05:08.000Z</time>
      </trkpt>
      <trkpt lat="48.86742" lon="1.7306">
        <ele>123.80000305176</ele>
        <time>2016-06-11T09:05:13.000Z</time>
      </trkpt>
      <trkpt lat="48.86741" lon="1.73058">
        <ele>123.80000305176</ele>
        <time>2016-06-11T09:05:14.000Z</time>
      </trkpt>
      <trkpt lat="48.86735" lon="1.73052">
        <ele>123.80000305176</ele>
        <time>2016-06-11T09:05:17.000Z</time>
      </trkpt>
      <trkpt lat="48.86734" lon="1.73051">
        <ele>123.80000305176</ele>
        <time>2016-06-11T09:05:18.000Z</time>
      </trkpt>
      <trkpt lat="48.86726" lon="1.73046">
        <ele>123.80000305176</ele>
        <time>2016-06-11T09:05:23.000Z</time>
      </trkpt>
      <trkpt lat="48.86712" lon="1.73037">
        <ele>123.59999847412</ele>
        <time>2016-06-11T09:05:31.000Z</time>
      </trkpt>
      <trkpt lat="48.86698" lon="1.73025">
        <ele>123.40000152588</ele>
        <time>2016-06-11T09:05:39.000Z</time>
      </trkpt>
      <trkpt lat="48.86684" lon="1.73015">
        <ele>123.19999694824</ele>
        <time>2016-06-11T09:05:48.000Z</time>
      </trkpt>
      <trkpt lat="48.86673" lon="1.73008">
        <ele>123</ele>
        <time>2016-06-11T09:05:55.000Z</time>
      </trkpt>
      <trkpt lat="48.86662" lon="1.73">
        <ele>122.80000305176</ele>
        <time>2016-06-11T09:06:03.000Z</time>
      </trkpt>
      <trkpt lat="48.86646" lon="1.72989">
        <ele>122.40000152588</ele>
        <time>2016-06-11T09:06:14.000Z</time>
      </trkpt>
      <trkpt lat="48.86631" lon="1.72979">
        <ele>122.59999847412</ele>
        <time>2016-06-11T09:06:24.000Z</time>
      </trkpt>
      <trkpt lat="48.86621" lon="1.72972">
        <ele>122.59999847412</ele>
        <time>2016-06-11T09:06:31.000Z</time>
      </trkpt>
      <trkpt lat="48.86603" lon="1.72959">
        <ele>122.59999847412</ele>
        <time>2016-06-11T09:06:43.000Z</time>
      </trkpt>
      <trkpt lat="48.86594" lon="1.72953">
        <ele>122.80000305176</ele>
        <time>2016-06-11T09:06:49.000Z</time>
      </trkpt>
      <trkpt lat="48.86584" lon="1.72945">
        <ele>123</ele>
        <time>2016-06-11T09:06:56.000Z</time>
      </trkpt>
      <trkpt lat="48.86576" lon="1.72937">
        <ele>123.19999694824</ele>
        <time>2016-06-11T09:07:02.000Z</time>
      </trkpt>
      <trkpt lat="48.86563" lon="1.7292">
        <ele>123.59999847412</ele>
        <time>2016-06-11T09:07:12.000Z</time>
      </trkpt>
      <trkpt lat="48.86555" lon="1.7291">
        <ele>123.80000305176</ele>
        <time>2016-06-11T09:07:19.000Z</time>
      </trkpt>
      <trkpt lat="48.86546" lon="1.72898">
        <ele>124</ele>
        <time>2016-06-11T09:07:26.000Z</time>
      </trkpt>
      <trkpt lat="48.86533" lon="1.72876">
        <ele>124</ele>
        <time>2016-06-11T09:07:38.000Z</time>
      </trkpt>
      <trkpt lat="48.86525" lon="1.72863">
        <ele>124</ele>
        <time>2016-06-11T09:07:45.000Z</time>
      </trkpt>
      <trkpt lat="48.86519" lon="1.72851">
        <ele>124</ele>
        <time>2016-06-11T09:07:51.000Z</time>
      </trkpt>
      <trkpt lat="48.86511" lon="1.72838">
        <ele>124</ele>
        <time>2016-06-11T09:07:58.000Z</time>
      </trkpt>
      <trkpt lat="48.86506" lon="1.72836">
        <ele>124</ele>
        <time>2016-06-11T09:08:02.000Z</time>
      </trkpt>
      <trkpt lat="48.86506" lon="1.72837">
        <ele>124</ele>
        <time>2016-06-11T09:08:03.000Z</time>
      </trkpt>
      <trkpt lat="48.86499" lon="1.72848">
        <ele>124</ele>
        <time>2016-06-11T09:08:09.000Z</time>
      </trkpt>
      <trkpt lat="48.8649" lon="1.72862">
        <ele>124</ele>
        <time>2016-06-11T09:08:17.000Z</time>
      </trkpt>
      <trkpt lat="48.86478" lon="1.7288">
        <ele>124</ele>
        <time>2016-06-11T09:08:27.000Z</time>
      </trkpt>
      <trkpt lat="48.86468" lon="1.72898">
        <ele>124</ele>
        <time>2016-06-11T09:08:35.000Z</time>
      </trkpt>
      <trkpt lat="48.86461" lon="1.7291">
        <ele>124</ele>
        <time>2016-06-11T09:08:41.000Z</time>
      </trkpt>
      <trkpt lat="48.86453" lon="1.72922">
        <ele>124</ele>
        <time>2016-06-11T09:08:47.000Z</time>
      </trkpt>
      <trkpt lat="48.86441" lon="1.7294">
        <ele>124.40000152588</ele>
        <time>2016-06-11T09:08:55.000Z</time>
      </trkpt>
      <trkpt lat="48.86434" lon="1.7295">
        <ele>124.59999847412</ele>
        <time>2016-06-11T09:09:00.000Z</time>
      </trkpt>
      <trkpt lat="48.86432" lon="1.72954">
        <ele>124.59999847412</ele>
        <time>2016-06-11T09:09:02.000Z</time>
      </trkpt>
      <trkpt lat="48.86428" lon="1.72961">
        <ele>124.80000305176</ele>
        <time>2016-06-11T09:09:06.000Z</time>
      </trkpt>
      <trkpt lat="48.86426" lon="1.72964">
        <ele>124.80000305176</ele>
        <time>2016-06-11T09:09:08.000Z</time>
      </trkpt>
      <trkpt lat="48.86423" lon="1.72969">
        <ele>125</ele>
        <time>2016-06-11T09:09:11.000Z</time>
      </trkpt>
      <trkpt lat="48.86421" lon="1.72972">
        <ele>125</ele>
        <time>2016-06-11T09:09:13.000Z</time>
      </trkpt>
      <trkpt lat="48.86418" lon="1.72978">
        <ele>125</ele>
        <time>2016-06-11T09:09:16.000Z</time>
      </trkpt>
      <trkpt lat="48.86413" lon="1.72987">
        <ele>125</ele>
        <time>2016-06-11T09:09:21.000Z</time>
      </trkpt>
      <trkpt lat="48.86406" lon="1.72997">
        <ele>124.80000305176</ele>
        <time>2016-06-11T09:09:27.000Z</time>
      </trkpt>
      <trkpt lat="48.86399" lon="1.7301">
        <ele>124.80000305176</ele>
        <time>2016-06-11T09:09:33.000Z</time>
      </trkpt>
      <trkpt lat="48.8639" lon="1.73023">
        <ele>124.59999847412</ele>
        <time>2016-06-11T09:09:39.000Z</time>
      </trkpt>
      <trkpt lat="48.86381" lon="1.73039">
        <ele>124.40000152588</ele>
        <time>2016-06-11T09:09:48.000Z</time>
      </trkpt>
      <trkpt lat="48.8637" lon="1.73055">
        <ele>124.19999694824</ele>
        <time>2016-06-11T09:09:56.000Z</time>
      </trkpt>
      <trkpt lat="48.86361" lon="1.73068">
        <ele>124</ele>
        <time>2016-06-11T09:10:03.000Z</time>
      </trkpt>
      <trkpt lat="48.86349" lon="1.73087">
        <ele>123.80000305176</ele>
        <time>2016-06-11T09:10:14.000Z</time>
      </trkpt>
      <trkpt lat="48.86343" lon="1.73098">
        <ele>123.80000305176</ele>
        <time>2016-06-11T09:10:20.000Z</time>
      </trkpt>
      <trkpt lat="48.86334" lon="1.73112">
        <ele>123.80000305176</ele>
        <time>2016-06-11T09:10:28.000Z</time>
      </trkpt>
      <trkpt lat="48.86326" lon="1.73126">
        <ele>123.59999847412</ele>
        <time>2016-06-11T09:10:36.000Z</time>
      </trkpt>
      <trkpt lat="48.86315" lon="1.73145">
        <ele>123.19999694824</ele>
        <time>2016-06-11T09:10:47.000Z</time>
      </trkpt>
      <trkpt lat="48.86304" lon="1.73164">
        <ele>123.19999694824</ele>
        <time>2016-06-11T09:10:57.000Z</time>
      </trkpt>
      <trkpt lat="48.86296" lon="1.73177">
        <ele>123.19999694824</ele>
        <time>2016-06-11T09:11:05.000Z</time>
      </trkpt>
      <trkpt lat="48.86287" lon="1.7319">
        <ele>123.19999694824</ele>
        <time>2016-06-11T09:11:13.000Z</time>
      </trkpt>
      <trkpt lat="48.86276" lon="1.73192">
        <ele>123</ele>
        <time>2016-06-11T09:11:20.000Z</time>
      </trkpt>
      <trkpt lat="48.86264" lon="1.7319">
        <ele>123.19999694824</ele>
        <time>2016-06-11T09:11:28.000Z</time>
      </trkpt>
      <trkpt lat="48.86246" lon="1.73188">
        <ele>123.40000152588</ele>
        <time>2016-06-11T09:11:39.000Z</time>
      </trkpt>
      <trkpt lat="48.86241" lon="1.73188">
        <ele>123.40000152588</ele>
        <time>2016-06-11T09:11:42.000Z</time>
      </trkpt>
      <trkpt lat="48.86236" lon="1.73188">
        <ele>123.40000152588</ele>
        <time>2016-06-11T09:11:45.000Z</time>
      </trkpt>
      <trkpt lat="48.86224" lon="1.73186">
        <ele>123.59999847412</ele>
        <time>2016-06-11T09:11:53.000Z</time>
      </trkpt>
      <trkpt lat="48.86215" lon="1.73186">
        <ele>123.59999847412</ele>
        <time>2016-06-11T09:11:59.000Z</time>
      </trkpt>
      <trkpt lat="48.86199" lon="1.73185">
        <ele>123.59999847412</ele>
        <time>2016-06-11T09:12:09.000Z</time>
      </trkpt>
      <trkpt lat="48.86185" lon="1.73184">
        <ele>123.59999847412</ele>
        <time>2016-06-11T09:12:18.000Z</time>
      </trkpt>
      <trkpt lat="48.86173" lon="1.73184">
        <ele>123.59999847412</ele>
        <time>2016-06-11T09:12:26.000Z</time>
      </trkpt>
      <trkpt lat="48.8616" lon="1.73184">
        <ele>123.59999847412</ele>
        <time>2016-06-11T09:12:34.000Z</time>
      </trkpt>
      <trkpt lat="48.86148" lon="1.73184">
        <ele>123.59999847412</ele>
        <time>2016-06-11T09:12:42.000Z</time>
      </trkpt>
      <trkpt lat="48.86134" lon="1.73183">
        <ele>123.59999847412</ele>
        <time>2016-06-11T09:12:51.000Z</time>
      </trkpt>
      <trkpt lat="48.86123" lon="1.73183">
        <ele>123.59999847412</ele>
        <time>2016-06-11T09:12:58.000Z</time>
      </trkpt>
      <trkpt lat="48.86108" lon="1.73183">
        <ele>123.59999847412</ele>
        <time>2016-06-11T09:13:07.000Z</time>
      </trkpt>
      <trkpt lat="48.86095" lon="1.73181">
        <ele>123.59999847412</ele>
        <time>2016-06-11T09:13:15.000Z</time>
      </trkpt>
      <trkpt lat="48.86086" lon="1.73181">
        <ele>123.59999847412</ele>
        <time>2016-06-11T09:13:21.000Z</time>
      </trkpt>
      <trkpt lat="48.86071" lon="1.7318">
        <ele>123.59999847412</ele>
        <time>2016-06-11T09:13:30.000Z</time>
      </trkpt>
      <trkpt lat="48.86057" lon="1.7318">
        <ele>123.59999847412</ele>
        <time>2016-06-11T09:13:39.000Z</time>
      </trkpt>
      <trkpt lat="48.86045" lon="1.73181">
        <ele>123.59999847412</ele>
        <time>2016-06-11T09:13:46.000Z</time>
      </trkpt>
      <trkpt lat="48.8604" lon="1.73178">
        <ele>123.80000305176</ele>
        <time>2016-06-11T09:13:50.000Z</time>
      </trkpt>
      <trkpt lat="48.86039" lon="1.73173">
        <ele>123.80000305176</ele>
        <time>2016-06-11T09:13:52.000Z</time>
      </trkpt>
      <trkpt lat="48.8604" lon="1.73162">
        <ele>124</ele>
        <time>2016-06-11T09:13:56.000Z</time>
      </trkpt>
      <trkpt lat="48.8604" lon="1.73154">
        <ele>124</ele>
        <time>2016-06-11T09:13:59.000Z</time>
      </trkpt>
      <trkpt lat="48.86042" lon="1.73129">
        <ele>123.80000305176</ele>
        <time>2016-06-11T09:14:09.000Z</time>
      </trkpt>
      <trkpt lat="48.8604" lon="1.73123">
        <ele>123.59999847412</ele>
        <time>2016-06-11T09:14:13.000Z</time>
      </trkpt>
      <trkpt lat="48.86038" lon="1.7312">
        <ele>123.59999847412</ele>
        <time>2016-06-11T09:14:15.000Z</time>
      </trkpt>
      <trkpt lat="48.86029" lon="1.73113">
        <ele>123.59999847412</ele>
        <time>2016-06-11T09:14:22.000Z</time>
      </trkpt>
      <trkpt lat="48.86017" lon="1.73107">
        <ele>123.40000152588</ele>
        <time>2016-06-11T09:14:30.000Z</time>
      </trkpt>
      <trkpt lat="48.86003" lon="1.731">
        <ele>123.19999694824</ele>
        <time>2016-06-11T09:14:39.000Z</time>
      </trkpt>
      <trkpt lat="48.85991" lon="1.73095">
        <ele>123</ele>
        <time>2016-06-11T09:14:47.000Z</time>
      </trkpt>
      <trkpt lat="48.85981" lon="1.73091">
        <ele>122.80000305176</ele>
        <time>2016-06-11T09:14:53.000Z</time>
      </trkpt>
      <trkpt lat="48.85963" lon="1.73083">
        <ele>122.40000152588</ele>
        <time>2016-06-11T09:15:05.000Z</time>
      </trkpt>
      <trkpt lat="48.85954" lon="1.73079">
        <ele>122.19999694824</ele>
        <time>2016-06-11T09:15:11.000Z</time>
      </trkpt>
      <trkpt lat="48.85938" lon="1.73071">
        <ele>122</ele>
        <time>2016-06-11T09:15:21.000Z</time>
      </trkpt>
      <trkpt lat="48.85924" lon="1.73064">
        <ele>122.19999694824</ele>
        <time>2016-06-11T09:15:30.000Z</time>
      </trkpt>
      <trkpt lat="48.85897" lon="1.73053">
        <ele>122.19999694824</ele>
        <time>2016-06-11T09:15:47.000Z</time>
      </trkpt>
      <trkpt lat="48.85886" lon="1.73046">
        <ele>122.40000152588</ele>
        <time>2016-06-11T09:15:55.000Z</time>
      </trkpt>
      <trkpt lat="48.85879" lon="1.7305">
        <ele>122.40000152588</ele>
        <time>2016-06-11T09:16:01.000Z</time>
      </trkpt>
      <trkpt lat="48.85876" lon="1.73057">
        <ele>122.59999847412</ele>
        <time>2016-06-11T09:16:05.000Z</time>
      </trkpt>
      <trkpt lat="48.85875" lon="1.73062">
        <ele>122.59999847412</ele>
        <time>2016-06-11T09:16:07.000Z</time>
      </trkpt>
      <trkpt lat="48.85869" lon="1.73081">
        <ele>123.19999694824</ele>
        <time>2016-06-11T09:16:16.000Z</time>
      </trkpt>
      <trkpt lat="48.85863" lon="1.731">
        <ele>123.40000152588</ele>
        <time>2016-06-11T09:16:25.000Z</time>
      </trkpt>
      <trkpt lat="48.85854" lon="1.73128">
        <ele>123.59999847412</ele>
        <time>2016-06-11T09:16:38.000Z</time>
      </trkpt>
      <trkpt lat="48.8585" lon="1.73139">
        <ele>123.59999847412</ele>
        <time>2016-06-11T09:16:44.000Z</time>
      </trkpt>
      <trkpt lat="48.85846" lon="1.7315">
        <ele>123.80000305176</ele>
        <time>2016-06-11T09:16:49.000Z</time>
      </trkpt>
      <trkpt lat="48.85842" lon="1.73165">
        <ele>123.59999847412</ele>
        <time>2016-06-11T09:16:56.000Z</time>
      </trkpt>
      <trkpt lat="48.85837" lon="1.73181">
        <ele>123.59999847412</ele>
        <time>2016-06-11T09:17:04.000Z</time>
      </trkpt>
      <trkpt lat="48.85832" lon="1.73198">
        <ele>123.40000152588</ele>
        <time>2016-06-11T09:17:12.000Z</time>
      </trkpt>
      <trkpt lat="48.85826" lon="1.73214">
        <ele>123.19999694824</ele>
        <time>2016-06-11T09:17:20.000Z</time>
      </trkpt>
      <trkpt lat="48.85826" lon="1.73216">
        <ele>123.19999694824</ele>
        <time>2016-06-11T09:17:21.000Z</time>
      </trkpt>
      <trkpt lat="48.85824" lon="1.73224">
        <ele>123</ele>
        <time>2016-06-11T09:17:25.000Z</time>
      </trkpt>
      <trkpt lat="48.85819" lon="1.73238">
        <ele>122.59999847412</ele>
        <time>2016-06-11T09:17:32.000Z</time>
      </trkpt>
      <trkpt lat="48.85815" lon="1.73255">
        <ele>121.80000305176</ele>
        <time>2016-06-11T09:17:41.000Z</time>
      </trkpt>
      <trkpt lat="48.85814" lon="1.73257">
        <ele>121.80000305176</ele>
        <time>2016-06-11T09:17:42.000Z</time>
      </trkpt>
      <trkpt lat="48.85807" lon="1.73279">
        <ele>121</ele>
        <time>2016-06-11T09:17:53.000Z</time>
      </trkpt>
      <trkpt lat="48.85801" lon="1.73297">
        <ele>121.40000152588</ele>
        <time>2016-06-11T09:18:02.000Z</time>
      </trkpt>
      <trkpt lat="48.85796" lon="1.73314">
        <ele>121.59999847412</ele>
        <time>2016-06-11T09:18:11.000Z</time>
      </trkpt>
      <trkpt lat="48.85788" lon="1.73337">
        <ele>121.80000305176</ele>
        <time>2016-06-11T09:18:23.000Z</time>
      </trkpt>
      <trkpt lat="48.85782" lon="1.73355">
        <ele>121.19999694824</ele>
        <time>2016-06-11T09:18:32.000Z</time>
      </trkpt>
      <trkpt lat="48.85778" lon="1.73368">
        <ele>121</ele>
        <time>2016-06-11T09:18:39.000Z</time>
      </trkpt>
      <trkpt lat="48.85774" lon="1.73381">
        <ele>120.59999847412</ele>
        <time>2016-06-11T09:18:45.000Z</time>
      </trkpt>
      <trkpt lat="48.85769" lon="1.73398">
        <ele>120</ele>
        <time>2016-06-11T09:18:54.000Z</time>
      </trkpt>
      <trkpt lat="48.85765" lon="1.73414">
        <ele>120.40000152588</ele>
        <time>2016-06-11T09:19:02.000Z</time>
      </trkpt>
      <trkpt lat="48.8576" lon="1.73428">
        <ele>120.80000305176</ele>
        <time>2016-06-11T09:19:10.000Z</time>
      </trkpt>
      <trkpt lat="48.85756" lon="1.73443">
        <ele>121.19999694824</ele>
        <time>2016-06-11T09:19:17.000Z</time>
      </trkpt>
      <trkpt lat="48.85752" lon="1.73459">
        <ele>121.59999847412</ele>
        <time>2016-06-11T09:19:25.000Z</time>
      </trkpt>
      <trkpt lat="48.85747" lon="1.73472">
        <ele>121.80000305176</ele>
        <time>2016-06-11T09:19:32.000Z</time>
      </trkpt>
      <trkpt lat="48.85744" lon="1.73484">
        <ele>122</ele>
        <time>2016-06-11T09:19:38.000Z</time>
      </trkpt>
      <trkpt lat="48.85736" lon="1.73508">
        <ele>122</ele>
        <time>2016-06-11T09:19:49.000Z</time>
      </trkpt>
      <trkpt lat="48.85731" lon="1.73524">
        <ele>122</ele>
        <time>2016-06-11T09:19:57.000Z</time>
      </trkpt>
      <trkpt lat="48.85728" lon="1.73538">
        <ele>121.80000305176</ele>
        <time>2016-06-11T09:20:04.000Z</time>
      </trkpt>
      <trkpt lat="48.85723" lon="1.73555">
        <ele>121.59999847412</ele>
        <time>2016-06-11T09:20:13.000Z</time>
      </trkpt>
      <trkpt lat="48.85715" lon="1.73581">
        <ele>121.40000152588</ele>
        <time>2016-06-11T09:20:26.000Z</time>
      </trkpt>
      <trkpt lat="48.8571" lon="1.73595">
        <ele>121.40000152588</ele>
        <time>2016-06-11T09:20:33.000Z</time>
      </trkpt>
      <trkpt lat="48.85704" lon="1.73616">
        <ele>122</ele>
        <time>2016-06-11T09:20:43.000Z</time>
      </trkpt>
      <trkpt lat="48.85697" lon="1.73638">
        <ele>122.59999847412</ele>
        <time>2016-06-11T09:20:54.000Z</time>
      </trkpt>
      <trkpt lat="48.85693" lon="1.73648">
        <ele>122.80000305176</ele>
        <time>2016-06-11T09:21:00.000Z</time>
      </trkpt>
      <trkpt lat="48.85692" lon="1.73653">
        <ele>123</ele>
        <time>2016-06-11T09:21:05.000Z</time>
      </trkpt>
      <trkpt lat="48.85698" lon="1.73663">
        <ele>122.80000305176</ele>
        <time>2016-06-11T09:21:31.000Z</time>
      </trkpt>
      <trkpt lat="48.85702" lon="1.73668">
        <ele>122.80000305176</ele>
        <time>2016-06-11T09:21:35.000Z</time>
      </trkpt>
      <trkpt lat="48.85703" lon="1.7367">
        <ele>122.80000305176</ele>
        <time>2016-06-11T09:21:36.000Z</time>
      </trkpt>
      <trkpt lat="48.85713" lon="1.73674">
        <ele>122.80000305176</ele>
        <time>2016-06-11T09:21:43.000Z</time>
      </trkpt>
      <trkpt lat="48.85721" lon="1.73677">
        <ele>122.59999847412</ele>
        <time>2016-06-11T09:21:49.000Z</time>
      </trkpt>
      <trkpt lat="48.85724" lon="1.73678">
        <ele>122.59999847412</ele>
        <time>2016-06-11T09:21:51.000Z</time>
      </trkpt>
      <trkpt lat="48.85725" lon="1.73678">
        <ele>122.59999847412</ele>
        <time>2016-06-11T09:21:52.000Z</time>
      </trkpt>
      <trkpt lat="48.85731" lon="1.7368">
        <ele>122.59999847412</ele>
        <time>2016-06-11T09:21:56.000Z</time>
      </trkpt>
      <trkpt lat="48.85743" lon="1.73686">
        <ele>122.40000152588</ele>
        <time>2016-06-11T09:22:06.000Z</time>
      </trkpt>
      <trkpt lat="48.85752" lon="1.7369">
        <ele>122.19999694824</ele>
        <time>2016-06-11T09:22:13.000Z</time>
      </trkpt>
      <trkpt lat="48.85769" lon="1.73698">
        <ele>122</ele>
        <time>2016-06-11T09:22:26.000Z</time>
      </trkpt>
      <trkpt lat="48.8578" lon="1.73706">
        <ele>122</ele>
        <time>2016-06-11T09:22:36.000Z</time>
      </trkpt>
      <trkpt lat="48.85789" lon="1.73712">
        <ele>122</ele>
        <time>2016-06-11T09:22:44.000Z</time>
      </trkpt>
      <trkpt lat="48.85796" lon="1.73716">
        <ele>122</ele>
        <time>2016-06-11T09:22:52.000Z</time>
      </trkpt>
      <trkpt lat="48.85801" lon="1.73719">
        <ele>122</ele>
        <time>2016-06-11T09:22:56.000Z</time>
      </trkpt>
      <trkpt lat="48.85803" lon="1.7372">
        <ele>122</ele>
        <time>2016-06-11T09:22:58.000Z</time>
      </trkpt>
      <trkpt lat="48.85816" lon="1.73729">
        <ele>122</ele>
        <time>2016-06-11T09:23:08.000Z</time>
      </trkpt>
      <trkpt lat="48.85829" lon="1.7374">
        <ele>122</ele>
        <time>2016-06-11T09:23:18.000Z</time>
      </trkpt>
      <trkpt lat="48.85841" lon="1.7375">
        <ele>121.80000305176</ele>
        <time>2016-06-11T09:23:27.000Z</time>
      </trkpt>
      <trkpt lat="48.8585" lon="1.73757">
        <ele>121.80000305176</ele>
        <time>2016-06-11T09:23:34.000Z</time>
      </trkpt>
      <trkpt lat="48.8586" lon="1.73766">
        <ele>121.80000305176</ele>
        <time>2016-06-11T09:23:42.000Z</time>
      </trkpt>
      <trkpt lat="48.85875" lon="1.73783">
        <ele>121.59999847412</ele>
        <time>2016-06-11T09:23:55.000Z</time>
      </trkpt>
      <trkpt lat="48.85882" lon="1.73792">
        <ele>121.59999847412</ele>
        <time>2016-06-11T09:24:02.000Z</time>
      </trkpt>
      <trkpt lat="48.85883" lon="1.73793">
        <ele>121.59999847412</ele>
        <time>2016-06-11T09:24:03.000Z</time>
      </trkpt>
      <trkpt lat="48.85887" lon="1.73797">
        <ele>121.59999847412</ele>
        <time>2016-06-11T09:24:07.000Z</time>
      </trkpt>
      <trkpt lat="48.85888" lon="1.73798">
        <ele>121.59999847412</ele>
        <time>2016-06-11T09:24:08.000Z</time>
      </trkpt>
      <trkpt lat="48.85898" lon="1.73806">
        <ele>121.59999847412</ele>
        <time>2016-06-11T09:24:16.000Z</time>
      </trkpt>
      <trkpt lat="48.85908" lon="1.73818">
        <ele>121.59999847412</ele>
        <time>2016-06-11T09:24:25.000Z</time>
      </trkpt>
      <trkpt lat="48.85917" lon="1.7383">
        <ele>121.59999847412</ele>
        <time>2016-06-11T09:24:34.000Z</time>
      </trkpt>
      <trkpt lat="48.85927" lon="1.73841">
        <ele>121.59999847412</ele>
        <time>2016-06-11T09:24:42.000Z</time>
      </trkpt>
      <trkpt lat="48.8594" lon="1.73856">
        <ele>121.59999847412</ele>
        <time>2016-06-11T09:24:53.000Z</time>
      </trkpt>
      <trkpt lat="48.8595" lon="1.73868">
        <ele>121.40000152588</ele>
        <time>2016-06-11T09:25:03.000Z</time>
      </trkpt>
      <trkpt lat="48.8596" lon="1.73881">
        <ele>121</ele>
        <time>2016-06-11T09:25:13.000Z</time>
      </trkpt>
      <trkpt lat="48.85968" lon="1.73889">
        <ele>120.80000305176</ele>
        <time>2016-06-11T09:25:19.000Z</time>
      </trkpt>
      <trkpt lat="48.85979" lon="1.73902">
        <ele>120.59999847412</ele>
        <time>2016-06-11T09:25:29.000Z</time>
      </trkpt>
      <trkpt lat="48.8599" lon="1.73915">
        <ele>120.40000152588</ele>
        <time>2016-06-11T09:25:38.000Z</time>
      </trkpt>
      <trkpt lat="48.85997" lon="1.73924">
        <ele>120.40000152588</ele>
        <time>2016-06-11T09:25:44.000Z</time>
      </trkpt>
      <trkpt lat="48.86004" lon="1.73935">
        <ele>120.19999694824</ele>
        <time>2016-06-11T09:25:51.000Z</time>
      </trkpt>
      <trkpt lat="48.86013" lon="1.73948">
        <ele>120.19999694824</ele>
        <time>2016-06-11T09:25:59.000Z</time>
      </trkpt>
      <trkpt lat="48.86019" lon="1.73957">
        <ele>120</ele>
        <time>2016-06-11T09:26:05.000Z</time>
      </trkpt>
      <trkpt lat="48.86025" lon="1.73966">
        <ele>120</ele>
        <time>2016-06-11T09:26:11.000Z</time>
      </trkpt>
      <trkpt lat="48.86028" lon="1.73971">
        <ele>120</ele>
        <time>2016-06-11T09:26:14.000Z</time>
      </trkpt>
      <trkpt lat="48.86031" lon="1.73975">
        <ele>120.19999694824</ele>
        <time>2016-06-11T09:26:17.000Z</time>
      </trkpt>
      <trkpt lat="48.86039" lon="1.73989">
        <ele>120.19999694824</ele>
        <time>2016-06-11T09:26:25.000Z</time>
      </trkpt>
      <trkpt lat="48.86041" lon="1.73992">
        <ele>120.19999694824</ele>
        <time>2016-06-11T09:26:27.000Z</time>
      </trkpt>
      <trkpt lat="48.86045" lon="1.74002">
        <ele>120.19999694824</ele>
        <time>2016-06-11T09:26:32.000Z</time>
      </trkpt>
      <trkpt lat="48.86049" lon="1.74013">
        <ele>120.40000152588</ele>
        <time>2016-06-11T09:26:38.000Z</time>
      </trkpt>
      <trkpt lat="48.86054" lon="1.74026">
        <ele>120.40000152588</ele>
        <time>2016-06-11T09:26:45.000Z</time>
      </trkpt>
      <trkpt lat="48.86059" lon="1.74042">
        <ele>120.40000152588</ele>
        <time>2016-06-11T09:26:53.000Z</time>
      </trkpt>
      <trkpt lat="48.86061" lon="1.74046">
        <ele>120.40000152588</ele>
        <time>2016-06-11T09:26:58.000Z</time>
      </trkpt>
      <trkpt lat="48.86069" lon="1.74057">
        <ele>120.59999847412</ele>
        <time>2016-06-11T09:27:07.000Z</time>
      </trkpt>
      <trkpt lat="48.86081" lon="1.7407">
        <ele>120.59999847412</ele>
        <time>2016-06-11T09:27:17.000Z</time>
      </trkpt>
      <trkpt lat="48.86092" lon="1.7408">
        <ele>120.80000305176</ele>
        <time>2016-06-11T09:27:24.000Z</time>
      </trkpt>
      <trkpt lat="48.86107" lon="1.74095">
        <ele>121</ele>
        <time>2016-06-11T09:27:30.000Z</time>
      </trkpt>
      <trkpt lat="48.86117" lon="1.74104">
        <ele>121.19999694824</ele>
        <time>2016-06-11T09:27:36.000Z</time>
      </trkpt>
      <trkpt lat="48.86126" lon="1.74112">
        <ele>121.40000152588</ele>
        <time>2016-06-11T09:27:42.000Z</time>
      </trkpt>
      <trkpt lat="48.86133" lon="1.74119">
        <ele>121.59999847412</ele>
        <time>2016-06-11T09:27:48.000Z</time>
      </trkpt>
      <trkpt lat="48.86136" lon="1.74121">
        <ele>121.80000305176</ele>
        <time>2016-06-11T09:27:50.000Z</time>
      </trkpt>
      <trkpt lat="48.8614" lon="1.74125">
        <ele>121.80000305176</ele>
        <time>2016-06-11T09:27:53.000Z</time>
      </trkpt>
      <trkpt lat="48.86147" lon="1.74135">
        <ele>122</ele>
        <time>2016-06-11T09:28:00.000Z</time>
      </trkpt>
      <trkpt lat="48.86153" lon="1.74143">
        <ele>122.19999694824</ele>
        <time>2016-06-11T09:28:06.000Z</time>
      </trkpt>
      <trkpt lat="48.86156" lon="1.74149">
        <ele>122.19999694824</ele>
        <time>2016-06-11T09:28:09.000Z</time>
      </trkpt>
      <trkpt lat="48.86159" lon="1.74153">
        <ele>122.19999694824</ele>
        <time>2016-06-11T09:28:12.000Z</time>
      </trkpt>
      <trkpt lat="48.86166" lon="1.74161">
        <ele>122.40000152588</ele>
        <time>2016-06-11T09:28:19.000Z</time>
      </trkpt>
      <trkpt lat="48.86173" lon="1.74167">
        <ele>122.40000152588</ele>
        <time>2016-06-11T09:28:26.000Z</time>
      </trkpt>
      <trkpt lat="48.86179" lon="1.74165">
        <ele>122.59999847412</ele>
        <time>2016-06-11T09:28:32.000Z</time>
      </trkpt>
      <trkpt lat="48.86182" lon="1.74163">
        <ele>122.80000305176</ele>
        <time>2016-06-11T09:28:34.000Z</time>
      </trkpt>
      <trkpt lat="48.86186" lon="1.74162">
        <ele>122.80000305176</ele>
        <time>2016-06-11T09:28:37.000Z</time>
      </trkpt>
      <trkpt lat="48.86196" lon="1.74157">
        <ele>123.19999694824</ele>
        <time>2016-06-11T09:28:45.000Z</time>
      </trkpt>
      <trkpt lat="48.86209" lon="1.74159">
        <ele>123.59999847412</ele>
        <time>2016-06-11T09:28:54.000Z</time>
      </trkpt>
      <trkpt lat="48.86217" lon="1.74166">
        <ele>124</ele>
        <time>2016-06-11T09:29:01.000Z</time>
      </trkpt>
      <trkpt lat="48.86221" lon="1.74169">
        <ele>124.19999694824</ele>
        <time>2016-06-11T09:29:05.000Z</time>
      </trkpt>
      <trkpt lat="48.86224" lon="1.74171">
        <ele>124.19999694824</ele>
        <time>2016-06-11T09:29:07.000Z</time>
      </trkpt>
      <trkpt lat="48.86229" lon="1.74174">
        <ele>124.40000152588</ele>
        <time>2016-06-11T09:29:11.000Z</time>
      </trkpt>
      <trkpt lat="48.86233" lon="1.74177">
        <ele>124.59999847412</ele>
        <time>2016-06-11T09:29:14.000Z</time>
      </trkpt>
      <trkpt lat="48.86243" lon="1.74183">
        <ele>125</ele>
        <time>2016-06-11T09:29:22.000Z</time>
      </trkpt>
      <trkpt lat="48.8625" lon="1.74186">
        <ele>125.19999694824</ele>
        <time>2016-06-11T09:29:26.000Z</time>
      </trkpt>
      <trkpt lat="48.86261" lon="1.74194">
        <ele>125.59999847412</ele>
        <time>2016-06-11T09:29:34.000Z</time>
      </trkpt>
      <trkpt lat="48.86269" lon="1.74199">
        <ele>126</ele>
        <time>2016-06-11T09:29:39.000Z</time>
      </trkpt>
      <trkpt lat="48.8627" lon="1.74201">
        <ele>126</ele>
        <time>2016-06-11T09:29:40.000Z</time>
      </trkpt>
      <trkpt lat="48.86273" lon="1.74204">
        <ele>126.19999694824</ele>
        <time>2016-06-11T09:29:43.000Z</time>
      </trkpt>
      <trkpt lat="48.8628" lon="1.74209">
        <ele>126</ele>
        <time>2016-06-11T09:29:48.000Z</time>
      </trkpt>
      <trkpt lat="48.86285" lon="1.74211">
        <ele>126</ele>
        <time>2016-06-11T09:29:52.000Z</time>
      </trkpt>
      <trkpt lat="48.86288" lon="1.74214">
        <ele>125.80000305176</ele>
        <time>2016-06-11T09:29:55.000Z</time>
      </trkpt>
      <trkpt lat="48.86291" lon="1.74214">
        <ele>125.80000305176</ele>
        <time>2016-06-11T09:29:57.000Z</time>
      </trkpt>
      <trkpt lat="48.86293" lon="1.74217">
        <ele>125.80000305176</ele>
        <time>2016-06-11T09:29:59.000Z</time>
      </trkpt>
      <trkpt lat="48.86299" lon="1.74222">
        <ele>125.80000305176</ele>
        <time>2016-06-11T09:30:04.000Z</time>
      </trkpt>
      <trkpt lat="48.86304" lon="1.74225">
        <ele>125.59999847412</ele>
        <time>2016-06-11T09:30:08.000Z</time>
      </trkpt>
      <trkpt lat="48.8631" lon="1.74228">
        <ele>125.40000152588</ele>
        <time>2016-06-11T09:30:12.000Z</time>
      </trkpt>
      <trkpt lat="48.86322" lon="1.74234">
        <ele>125.19999694824</ele>
        <time>2016-06-11T09:30:20.000Z</time>
      </trkpt>
      <trkpt lat="48.86329" lon="1.7424">
        <ele>125</ele>
        <time>2016-06-11T09:30:25.000Z</time>
      </trkpt>
      <trkpt lat="48.86345" lon="1.74248">
        <ele>124.19999694824</ele>
        <time>2016-06-11T09:30:37.000Z</time>
      </trkpt>
      <trkpt lat="48.86359" lon="1.74255">
        <ele>123.80000305176</ele>
        <time>2016-06-11T09:30:48.000Z</time>
      </trkpt>
      <trkpt lat="48.86368" lon="1.74257">
        <ele>124</ele>
        <time>2016-06-11T09:30:55.000Z</time>
      </trkpt>
      <trkpt lat="48.86381" lon="1.74267">
        <ele>124.19999694824</ele>
        <time>2016-06-11T09:31:06.000Z</time>
      </trkpt>
      <trkpt lat="48.86393" lon="1.74271">
        <ele>124.40000152588</ele>
        <time>2016-06-11T09:31:11.000Z</time>
      </trkpt>
      <trkpt lat="48.86403" lon="1.74275">
        <ele>124.40000152588</ele>
        <time>2016-06-11T09:31:18.000Z</time>
      </trkpt>
      <trkpt lat="48.86416" lon="1.7428">
        <ele>124.40000152588</ele>
        <time>2016-06-11T09:31:27.000Z</time>
      </trkpt>
      <trkpt lat="48.86431" lon="1.74285">
        <ele>124.19999694824</ele>
        <time>2016-06-11T09:31:38.000Z</time>
      </trkpt>
      <trkpt lat="48.86445" lon="1.74288">
        <ele>124.19999694824</ele>
        <time>2016-06-11T09:31:48.000Z</time>
      </trkpt>
      <trkpt lat="48.86453" lon="1.74292">
        <ele>124</ele>
        <time>2016-06-11T09:31:54.000Z</time>
      </trkpt>
      <trkpt lat="48.86462" lon="1.74297">
        <ele>123.80000305176</ele>
        <time>2016-06-11T09:32:03.000Z</time>
      </trkpt>
      <trkpt lat="48.86463" lon="1.74296">
        <ele>123.80000305176</ele>
        <time>2016-06-11T09:32:04.000Z</time>
      </trkpt>
      <trkpt lat="48.86469" lon="1.74298">
        <ele>123.80000305176</ele>
        <time>2016-06-11T09:32:08.000Z</time>
      </trkpt>
      <trkpt lat="48.86473" lon="1.74301">
        <ele>123.80000305176</ele>
        <time>2016-06-11T09:32:11.000Z</time>
      </trkpt>
      <trkpt lat="48.86479" lon="1.74304">
        <ele>123.59999847412</ele>
        <time>2016-06-11T09:32:16.000Z</time>
      </trkpt>
      <trkpt lat="48.86489" lon="1.74304">
        <ele>123.40000152588</ele>
        <time>2016-06-11T09:32:23.000Z</time>
      </trkpt>
      <trkpt lat="48.86501" lon="1.74305">
        <ele>123.19999694824</ele>
        <time>2016-06-11T09:32:31.000Z</time>
      </trkpt>
      <trkpt lat="48.86517" lon="1.74306">
        <ele>122.80000305176</ele>
        <time>2016-06-11T09:32:42.000Z</time>
      </trkpt>
      <trkpt lat="48.8653" lon="1.74305">
        <ele>122.80000305176</ele>
        <time>2016-06-11T09:32:47.000Z</time>
      </trkpt>
      <trkpt lat="48.8654" lon="1.74303">
        <ele>123</ele>
        <time>2016-06-11T09:32:53.000Z</time>
      </trkpt>
      <trkpt lat="48.86551" lon="1.743">
        <ele>123</ele>
        <time>2016-06-11T09:33:01.000Z</time>
      </trkpt>
      <trkpt lat="48.86564" lon="1.74297">
        <ele>123.19999694824</ele>
        <time>2016-06-11T09:33:10.000Z</time>
      </trkpt>
      <trkpt lat="48.86574" lon="1.74293">
        <ele>123.19999694824</ele>
        <time>2016-06-11T09:33:17.000Z</time>
      </trkpt>
      <trkpt lat="48.8659" lon="1.74288">
        <ele>123.59999847412</ele>
        <time>2016-06-11T09:33:28.000Z</time>
      </trkpt>
      <trkpt lat="48.86604" lon="1.74284">
        <ele>124</ele>
        <time>2016-06-11T09:33:38.000Z</time>
      </trkpt>
      <trkpt lat="48.86615" lon="1.7428">
        <ele>124</ele>
        <time>2016-06-11T09:33:46.000Z</time>
      </trkpt>
      <trkpt lat="48.86631" lon="1.74275">
        <ele>124</ele>
        <time>2016-06-11T09:33:56.000Z</time>
      </trkpt>
      <trkpt lat="48.8664" lon="1.74271">
        <ele>124</ele>
        <time>2016-06-11T09:34:03.000Z</time>
      </trkpt>
      <trkpt lat="48.86653" lon="1.74267">
        <ele>124.19999694824</ele>
        <time>2016-06-11T09:34:12.000Z</time>
      </trkpt>
      <trkpt lat="48.86657" lon="1.74267">
        <ele>124.19999694824</ele>
        <time>2016-06-11T09:34:16.000Z</time>
      </trkpt>
      <trkpt lat="48.86659" lon="1.74269">
        <ele>124.19999694824</ele>
        <time>2016-06-11T09:34:17.000Z</time>
      </trkpt>
      <trkpt lat="48.86665" lon="1.74267">
        <ele>124.40000152588</ele>
        <time>2016-06-11T09:34:21.000Z</time>
      </trkpt>
      <trkpt lat="48.86667" lon="1.74266">
        <ele>124.40000152588</ele>
        <time>2016-06-11T09:34:23.000Z</time>
      </trkpt>
      <trkpt lat="48.86678" lon="1.74259">
        <ele>124.59999847412</ele>
        <time>2016-06-11T09:34:30.000Z</time>
      </trkpt>
      <trkpt lat="48.8669" lon="1.7426">
        <ele>124.80000305176</ele>
        <time>2016-06-11T09:34:39.000Z</time>
      </trkpt>
      <trkpt lat="48.86698" lon="1.7427">
        <ele>124.80000305176</ele>
        <time>2016-06-11T09:34:47.000Z</time>
      </trkpt>
      <trkpt lat="48.86701" lon="1.74288">
        <ele>124.59999847412</ele>
        <time>2016-06-11T09:34:55.000Z</time>
      </trkpt>
      <trkpt lat="48.86703" lon="1.74302">
        <ele>124.59999847412</ele>
        <time>2016-06-11T09:35:02.000Z</time>
      </trkpt>
      <trkpt lat="48.86704" lon="1.74315">
        <ele>124.40000152588</ele>
        <time>2016-06-11T09:35:08.000Z</time>
      </trkpt>
      <trkpt lat="48.86705" lon="1.74316">
        <ele>124.40000152588</ele>
        <time>2016-06-11T09:35:09.000Z</time>
      </trkpt>
      <trkpt lat="48.86705" lon="1.74323">
        <ele>124.40000152588</ele>
        <time>2016-06-11T09:35:12.000Z</time>
      </trkpt>
      <trkpt lat="48.86706" lon="1.74329">
        <ele>124.59999847412</ele>
        <time>2016-06-11T09:35:15.000Z</time>
      </trkpt>
      <trkpt lat="48.86706" lon="1.7434">
        <ele>124.80000305176</ele>
        <time>2016-06-11T09:35:20.000Z</time>
      </trkpt>
      <trkpt lat="48.86706" lon="1.74347">
        <ele>125</ele>
        <time>2016-06-11T09:35:26.000Z</time>
      </trkpt>
      <trkpt lat="48.86706" lon="1.74347">
        <ele>125</ele>
        <time>2016-06-11T09:35:27.000Z</time>
      </trkpt>
      <trkpt lat="48.86706" lon="1.74359">
        <ele>125.40000152588</ele>
        <time>2016-06-11T09:35:51.000Z</time>
      </trkpt>
      <trkpt lat="48.86706" lon="1.74365">
        <ele>125.40000152588</ele>
        <time>2016-06-11T09:35:54.000Z</time>
      </trkpt>
      <trkpt lat="48.86705" lon="1.74383">
        <ele>125.80000305176</ele>
        <time>2016-06-11T09:36:02.000Z</time>
      </trkpt>
      <trkpt lat="48.86705" lon="1.74399">
        <ele>126.19999694824</ele>
        <time>2016-06-11T09:36:10.000Z</time>
      </trkpt>
      <trkpt lat="48.86704" lon="1.74423">
        <ele>126.40000152588</ele>
        <time>2016-06-11T09:36:21.000Z</time>
      </trkpt>
      <trkpt lat="48.86702" lon="1.74442">
        <ele>126.59999847412</ele>
        <time>2016-06-11T09:36:30.000Z</time>
      </trkpt>
      <trkpt lat="48.86701" lon="1.74468">
        <ele>127</ele>
        <time>2016-06-11T09:36:42.000Z</time>
      </trkpt>
      <trkpt lat="48.86699" lon="1.74487">
        <ele>127.19999694824</ele>
        <time>2016-06-11T09:36:51.000Z</time>
      </trkpt>
      <trkpt lat="48.86698" lon="1.74508">
        <ele>127.19999694824</ele>
        <time>2016-06-11T09:37:01.000Z</time>
      </trkpt>
      <trkpt lat="48.86697" lon="1.74529">
        <ele>127.19999694824</ele>
        <time>2016-06-11T09:37:11.000Z</time>
      </trkpt>
      <trkpt lat="48.86695" lon="1.7455">
        <ele>127.19999694824</ele>
        <time>2016-06-11T09:37:21.000Z</time>
      </trkpt>
      <trkpt lat="48.86692" lon="1.74574">
        <ele>127</ele>
        <time>2016-06-11T09:37:32.000Z</time>
      </trkpt>
      <trkpt lat="48.8669" lon="1.74597">
        <ele>126.80000305176</ele>
        <time>2016-06-11T09:37:43.000Z</time>
      </trkpt>
      <trkpt lat="48.86688" lon="1.74627">
        <ele>126.40000152588</ele>
        <time>2016-06-11T09:37:57.000Z</time>
      </trkpt>
      <trkpt lat="48.86687" lon="1.74649">
        <ele>126</ele>
        <time>2016-06-11T09:38:07.000Z</time>
      </trkpt>
      <trkpt lat="48.86685" lon="1.74674">
        <ele>126.40000152588</ele>
        <time>2016-06-11T09:38:19.000Z</time>
      </trkpt>
      <trkpt lat="48.86687" lon="1.74688">
        <ele>126.80000305176</ele>
        <time>2016-06-11T09:38:27.000Z</time>
      </trkpt>
      <trkpt lat="48.86685" lon="1.74709">
        <ele>127.19999694824</ele>
        <time>2016-06-11T09:38:37.000Z</time>
      </trkpt>
      <trkpt lat="48.86684" lon="1.74712">
        <ele>127.40000152588</ele>
        <time>2016-06-11T09:38:39.000Z</time>
      </trkpt>
      <trkpt lat="48.86683" lon="1.74719">
        <ele>127.40000152588</ele>
        <time>2016-06-11T09:38:43.000Z</time>
      </trkpt>
      <trkpt lat="48.86681" lon="1.74721">
        <ele>127.59999847412</ele>
        <time>2016-06-11T09:38:44.000Z</time>
      </trkpt>
      <trkpt lat="48.86678" lon="1.74729">
        <ele>127.59999847412</ele>
        <time>2016-06-11T09:38:48.000Z</time>
      </trkpt>
      <trkpt lat="48.86678" lon="1.74731">
        <ele>127.59999847412</ele>
        <time>2016-06-11T09:38:49.000Z</time>
      </trkpt>
      <trkpt lat="48.86672" lon="1.74746">
        <ele>127.40000152588</ele>
        <time>2016-06-11T09:38:57.000Z</time>
      </trkpt>
      <trkpt lat="48.86667" lon="1.74763">
        <ele>127.19999694824</ele>
        <time>2016-06-11T09:39:06.000Z</time>
      </trkpt>
      <trkpt lat="48.86667" lon="1.74764">
        <ele>127.19999694824</ele>
        <time>2016-06-11T09:39:07.000Z</time>
      </trkpt>
      <trkpt lat="48.86664" lon="1.7477">
        <ele>127</ele>
        <time>2016-06-11T09:39:11.000Z</time>
      </trkpt>
      <trkpt lat="48.86657" lon="1.74781">
        <ele>126.80000305176</ele>
        <time>2016-06-11T09:39:17.000Z</time>
      </trkpt>
      <trkpt lat="48.86656" lon="1.74784">
        <ele>126.59999847412</ele>
        <time>2016-06-11T09:39:19.000Z</time>
      </trkpt>
      <trkpt lat="48.86649" lon="1.74793">
        <ele>126.59999847412</ele>
        <time>2016-06-11T09:39:25.000Z</time>
      </trkpt>
      <trkpt lat="48.86636" lon="1.748">
        <ele>126.40000152588</ele>
        <time>2016-06-11T09:39:34.000Z</time>
      </trkpt>
      <trkpt lat="48.86623" lon="1.74806">
        <ele>126.19999694824</ele>
        <time>2016-06-11T09:39:43.000Z</time>
      </trkpt>
      <trkpt lat="48.86611" lon="1.74813">
        <ele>126</ele>
        <time>2016-06-11T09:39:52.000Z</time>
      </trkpt>
      <trkpt lat="48.866" lon="1.74818">
        <ele>126</ele>
        <time>2016-06-11T09:40:00.000Z</time>
      </trkpt>
      <trkpt lat="48.86591" lon="1.74824">
        <ele>126</ele>
        <time>2016-06-11T09:40:06.000Z</time>
      </trkpt>
      <trkpt lat="48.86579" lon="1.7483">
        <ele>126.19999694824</ele>
        <time>2016-06-11T09:40:15.000Z</time>
      </trkpt>
      <trkpt lat="48.86571" lon="1.74836">
        <ele>126.19999694824</ele>
        <time>2016-06-11T09:40:22.000Z</time>
      </trkpt>
      <trkpt lat="48.86561" lon="1.74846">
        <ele>126.19999694824</ele>
        <time>2016-06-11T09:40:30.000Z</time>
      </trkpt>
      <trkpt lat="48.86549" lon="1.74859">
        <ele>126.19999694824</ele>
        <time>2016-06-11T09:40:40.000Z</time>
      </trkpt>
      <trkpt lat="48.86542" lon="1.74868">
        <ele>125.80000305176</ele>
        <time>2016-06-11T09:40:46.000Z</time>
      </trkpt>
      <trkpt lat="48.86532" lon="1.74884">
        <ele>125.40000152588</ele>
        <time>2016-06-11T09:40:55.000Z</time>
      </trkpt>
      <trkpt lat="48.8653" lon="1.749">
        <ele>125.19999694824</ele>
        <time>2016-06-11T09:41:03.000Z</time>
      </trkpt>
      <trkpt lat="48.86525" lon="1.74912">
        <ele>125.19999694824</ele>
        <time>2016-06-11T09:41:09.000Z</time>
      </trkpt>
      <trkpt lat="48.8652" lon="1.74923">
        <ele>125.19999694824</ele>
        <time>2016-06-11T09:41:15.000Z</time>
      </trkpt>
      <trkpt lat="48.86518" lon="1.74926">
        <ele>125.19999694824</ele>
        <time>2016-06-11T09:41:17.000Z</time>
      </trkpt>
      <trkpt lat="48.86507" lon="1.74943">
        <ele>125.40000152588</ele>
        <time>2016-06-11T09:41:27.000Z</time>
      </trkpt>
      <trkpt lat="48.86501" lon="1.74955">
        <ele>125.59999847412</ele>
        <time>2016-06-11T09:41:34.000Z</time>
      </trkpt>
      <trkpt lat="48.86496" lon="1.74969">
        <ele>125.40000152588</ele>
        <time>2016-06-11T09:41:42.000Z</time>
      </trkpt>
      <trkpt lat="48.86494" lon="1.74975">
        <ele>125.19999694824</ele>
        <time>2016-06-11T09:41:47.000Z</time>
      </trkpt>
      <trkpt lat="48.86493" lon="1.74984">
        <ele>125</ele>
        <time>2016-06-11T09:41:53.000Z</time>
      </trkpt>
      <trkpt lat="48.86497" lon="1.74997">
        <ele>125</ele>
        <time>2016-06-11T09:41:59.000Z</time>
      </trkpt>
      <trkpt lat="48.86504" lon="1.75009">
        <ele>125.40000152588</ele>
        <time>2016-06-11T09:42:05.000Z</time>
      </trkpt>
      <trkpt lat="48.86513" lon="1.75024">
        <ele>125.59999847412</ele>
        <time>2016-06-11T09:42:14.000Z</time>
      </trkpt>
      <trkpt lat="48.86518" lon="1.75035">
        <ele>125.80000305176</ele>
        <time>2016-06-11T09:42:20.000Z</time>
      </trkpt>
      <trkpt lat="48.86528" lon="1.75052">
        <ele>126</ele>
        <time>2016-06-11T09:42:31.000Z</time>
      </trkpt>
      <trkpt lat="48.86528" lon="1.75052">
        <ele>126</ele>
        <time>2016-06-11T09:42:34.000Z</time>
      </trkpt>
      <trkpt lat="48.86533" lon="1.75062">
        <ele>126.19999694824</ele>
        <time>2016-06-11T09:42:58.000Z</time>
      </trkpt>
      <trkpt lat="48.86534" lon="1.75063">
        <ele>126.19999694824</ele>
        <time>2016-06-11T09:42:59.000Z</time>
      </trkpt>
      <trkpt lat="48.86539" lon="1.75073">
        <ele>126.19999694824</ele>
        <time>2016-06-11T09:43:05.000Z</time>
      </trkpt>
      <trkpt lat="48.8654" lon="1.75075">
        <ele>126.40000152588</ele>
        <time>2016-06-11T09:43:06.000Z</time>
      </trkpt>
      <trkpt lat="48.86547" lon="1.75086">
        <ele>126.59999847412</ele>
        <time>2016-06-11T09:43:13.000Z</time>
      </trkpt>
      <trkpt lat="48.86556" lon="1.751">
        <ele>127</ele>
        <time>2016-06-11T09:43:22.000Z</time>
      </trkpt>
      <trkpt lat="48.86564" lon="1.75112">
        <ele>127.40000152588</ele>
        <time>2016-06-11T09:43:30.000Z</time>
      </trkpt>
      <trkpt lat="48.86571" lon="1.75123">
        <ele>127.80000305176</ele>
        <time>2016-06-11T09:43:37.000Z</time>
      </trkpt>
      <trkpt lat="48.86578" lon="1.75135">
        <ele>128</ele>
        <time>2016-06-11T09:43:45.000Z</time>
      </trkpt>
      <trkpt lat="48.86579" lon="1.75141">
        <ele>128</ele>
        <time>2016-06-11T09:43:48.000Z</time>
      </trkpt>
      <trkpt lat="48.86578" lon="1.75145">
        <ele>128</ele>
        <time>2016-06-11T09:43:50.000Z</time>
      </trkpt>
      <trkpt lat="48.86577" lon="1.75146">
        <ele>128</ele>
        <time>2016-06-11T09:43:51.000Z</time>
      </trkpt>
      <trkpt lat="48.86574" lon="1.75153">
        <ele>127.80000305176</ele>
        <time>2016-06-11T09:43:55.000Z</time>
      </trkpt>
      <trkpt lat="48.86569" lon="1.75165">
        <ele>127.80000305176</ele>
        <time>2016-06-11T09:44:01.000Z</time>
      </trkpt>
      <trkpt lat="48.8656" lon="1.75185">
        <ele>127.80000305176</ele>
        <time>2016-06-11T09:44:11.000Z</time>
      </trkpt>
      <trkpt lat="48.86554" lon="1.75201">
        <ele>127.59999847412</ele>
        <time>2016-06-11T09:44:20.000Z</time>
      </trkpt>
      <trkpt lat="48.86551" lon="1.75215">
        <ele>127.80000305176</ele>
        <time>2016-06-11T09:44:27.000Z</time>
      </trkpt>
      <trkpt lat="48.86542" lon="1.75232">
        <ele>127.59999847412</ele>
        <time>2016-06-11T09:44:37.000Z</time>
      </trkpt>
      <trkpt lat="48.86538" lon="1.75242">
        <ele>127.59999847412</ele>
        <time>2016-06-11T09:44:42.000Z</time>
      </trkpt>
      <trkpt lat="48.86536" lon="1.75248">
        <ele>127.40000152588</ele>
        <time>2016-06-11T09:44:45.000Z</time>
      </trkpt>
      <trkpt lat="48.86534" lon="1.75252">
        <ele>127.40000152588</ele>
        <time>2016-06-11T09:44:47.000Z</time>
      </trkpt>
      <trkpt lat="48.86526" lon="1.75268">
        <ele>127.40000152588</ele>
        <time>2016-06-11T09:44:51.000Z</time>
      </trkpt>
      <trkpt lat="48.86513" lon="1.753">
        <ele>127.59999847412</ele>
        <time>2016-06-11T09:44:58.000Z</time>
      </trkpt>
      <trkpt lat="48.86501" lon="1.7533">
        <ele>127.80000305176</ele>
        <time>2016-06-11T09:45:04.000Z</time>
      </trkpt>
      <trkpt lat="48.86487" lon="1.75366">
        <ele>127.59999847412</ele>
        <time>2016-06-11T09:45:10.000Z</time>
      </trkpt>
      <trkpt lat="48.86467" lon="1.75418">
        <ele>126.59999847412</ele>
        <time>2016-06-11T09:45:18.000Z</time>
      </trkpt>
      <trkpt lat="48.8644" lon="1.75465">
        <ele>126</ele>
        <time>2016-06-11T09:45:26.000Z</time>
      </trkpt>
      <trkpt lat="48.86415" lon="1.75514">
        <ele>127.19999694824</ele>
        <time>2016-06-11T09:45:34.000Z</time>
      </trkpt>
      <trkpt lat="48.86396" lon="1.75556">
        <ele>129.80000305176</ele>
        <time>2016-06-11T09:45:42.000Z</time>
      </trkpt>
      <trkpt lat="48.86387" lon="1.7558">
        <ele>131.39999389648</ele>
        <time>2016-06-11T09:45:48.000Z</time>
      </trkpt>
      <trkpt lat="48.86383" lon="1.75593">
        <ele>132.19999694824</ele>
        <time>2016-06-11T09:45:54.000Z</time>
      </trkpt>
      <trkpt lat="48.86379" lon="1.75606">
        <ele>133</ele>
        <time>2016-06-11T09:46:01.000Z</time>
      </trkpt>
      <trkpt lat="48.86375" lon="1.75622">
        <ele>133.80000305176</ele>
        <time>2016-06-11T09:46:09.000Z</time>
      </trkpt>
      <trkpt lat="48.86375" lon="1.75628">
        <ele>134</ele>
        <time>2016-06-11T09:46:12.000Z</time>
      </trkpt>
      <trkpt lat="48.86375" lon="1.75627">
        <ele>133.80000305176</ele>
        <time>2016-06-11T09:46:13.000Z</time>
      </trkpt>
      <trkpt lat="48.86373" lon="1.75637">
        <ele>134.39999389648</ele>
        <time>2016-06-11T09:46:17.000Z</time>
      </trkpt>
      <trkpt lat="48.8637" lon="1.75644">
        <ele>134.80000305176</ele>
        <time>2016-06-11T09:46:21.000Z</time>
      </trkpt>
      <trkpt lat="48.86364" lon="1.75655">
        <ele>135.60000610352</ele>
        <time>2016-06-11T09:46:28.000Z</time>
      </trkpt>
      <trkpt lat="48.8636" lon="1.75666">
        <ele>135.60000610352</ele>
        <time>2016-06-11T09:46:34.000Z</time>
      </trkpt>
      <trkpt lat="48.8636" lon="1.75667">
        <ele>135.60000610352</ele>
        <time>2016-06-11T09:46:35.000Z</time>
      </trkpt>
      <trkpt lat="48.86359" lon="1.75671">
        <ele>135.39999389648</ele>
        <time>2016-06-11T09:46:38.000Z</time>
      </trkpt>
      <trkpt lat="48.86357" lon="1.75678">
        <ele>135.19999694824</ele>
        <time>2016-06-11T09:46:41.000Z</time>
      </trkpt>
      <trkpt lat="48.86357" lon="1.75682">
        <ele>135</ele>
        <time>2016-06-11T09:46:43.000Z</time>
      </trkpt>
      <trkpt lat="48.86353" lon="1.75695">
        <ele>134.39999389648</ele>
        <time>2016-06-11T09:46:49.000Z</time>
      </trkpt>
      <trkpt lat="48.86352" lon="1.75696">
        <ele>134.39999389648</ele>
        <time>2016-06-11T09:46:50.000Z</time>
      </trkpt>
      <trkpt lat="48.86351" lon="1.75703">
        <ele>134.19999694824</ele>
        <time>2016-06-11T09:46:55.000Z</time>
      </trkpt>
      <trkpt lat="48.86351" lon="1.75703">
        <ele>134.19999694824</ele>
        <time>2016-06-11T09:46:56.000Z</time>
      </trkpt>
      <trkpt lat="48.86346" lon="1.75723">
        <ele>133.19999694824</ele>
        <time>2016-06-11T09:47:16.000Z</time>
      </trkpt>
      <trkpt lat="48.86346" lon="1.75726">
        <ele>133.19999694824</ele>
        <time>2016-06-11T09:47:18.000Z</time>
      </trkpt>
      <trkpt lat="48.86346" lon="1.75728">
        <ele>133</ele>
        <time>2016-06-11T09:47:19.000Z</time>
      </trkpt>
      <trkpt lat="48.86342" lon="1.75736">
        <ele>132.80000305176</ele>
        <time>2016-06-11T09:47:23.000Z</time>
      </trkpt>
      <trkpt lat="48.86338" lon="1.75746">
        <ele>132</ele>
        <time>2016-06-11T09:47:26.000Z</time>
      </trkpt>
      <trkpt lat="48.86335" lon="1.75754">
        <ele>131.60000610352</ele>
        <time>2016-06-11T09:47:28.000Z</time>
      </trkpt>
      <trkpt lat="48.86324" lon="1.75783">
        <ele>129.60000610352</ele>
        <time>2016-06-11T09:47:36.000Z</time>
      </trkpt>
      <trkpt lat="48.86317" lon="1.75795">
        <ele>128.80000305176</ele>
        <time>2016-06-11T09:47:42.000Z</time>
      </trkpt>
      <trkpt lat="48.86311" lon="1.75803">
        <ele>128.19999694824</ele>
        <time>2016-06-11T09:47:47.000Z</time>
      </trkpt>
      <trkpt lat="48.8631" lon="1.75805">
        <ele>128.19999694824</ele>
        <time>2016-06-11T09:47:48.000Z</time>
      </trkpt>
      <trkpt lat="48.86299" lon="1.75818">
        <ele>127.40000152588</ele>
        <time>2016-06-11T09:47:56.000Z</time>
      </trkpt>
      <trkpt lat="48.86284" lon="1.75837">
        <ele>127.19999694824</ele>
        <time>2016-06-11T09:48:08.000Z</time>
      </trkpt>
      <trkpt lat="48.86271" lon="1.75853">
        <ele>127</ele>
        <time>2016-06-11T09:48:19.000Z</time>
      </trkpt>
      <trkpt lat="48.86262" lon="1.75872">
        <ele>126.80000305176</ele>
        <time>2016-06-11T09:48:29.000Z</time>
      </trkpt>
      <trkpt lat="48.86256" lon="1.75883">
        <ele>126.80000305176</ele>
        <time>2016-06-11T09:48:36.000Z</time>
      </trkpt>
      <trkpt lat="48.86249" lon="1.75897">
        <ele>126.59999847412</ele>
        <time>2016-06-11T09:48:44.000Z</time>
      </trkpt>
      <trkpt lat="48.86243" lon="1.75913">
        <ele>126.19999694824</ele>
        <time>2016-06-11T09:48:52.000Z</time>
      </trkpt>
      <trkpt lat="48.86238" lon="1.75928">
        <ele>126.19999694824</ele>
        <time>2016-06-11T09:48:59.000Z</time>
      </trkpt>
      <trkpt lat="48.86235" lon="1.75947">
        <ele>126</ele>
        <time>2016-06-11T09:49:06.000Z</time>
      </trkpt>
      <trkpt lat="48.86234" lon="1.75967">
        <ele>126.19999694824</ele>
        <time>2016-06-11T09:49:12.000Z</time>
      </trkpt>
      <trkpt lat="48.86233" lon="1.75972">
        <ele>126.40000152588</ele>
        <time>2016-06-11T09:49:14.000Z</time>
      </trkpt>
      <trkpt lat="48.86233" lon="1.75978">
        <ele>126.40000152588</ele>
        <time>2016-06-11T09:49:17.000Z</time>
      </trkpt>
      <trkpt lat="48.86233" lon="1.75992">
        <ele>126.59999847412</ele>
        <time>2016-06-11T09:49:23.000Z</time>
      </trkpt>
      <trkpt lat="48.86232" lon="1.76009">
        <ele>126.59999847412</ele>
        <time>2016-06-11T09:49:28.000Z</time>
      </trkpt>
      <trkpt lat="48.86231" lon="1.7604">
        <ele>126.80000305176</ele>
        <time>2016-06-11T09:49:38.000Z</time>
      </trkpt>
      <trkpt lat="48.86231" lon="1.76053">
        <ele>127.40000152588</ele>
        <time>2016-06-11T09:49:44.000Z</time>
      </trkpt>
      <trkpt lat="48.86229" lon="1.76071">
        <ele>128</ele>
        <time>2016-06-11T09:49:52.000Z</time>
      </trkpt>
      <trkpt lat="48.86229" lon="1.76082">
        <ele>128.19999694824</ele>
        <time>2016-06-11T09:49:57.000Z</time>
      </trkpt>
      <trkpt lat="48.86229" lon="1.76087">
        <ele>128.19999694824</ele>
        <time>2016-06-11T09:50:00.000Z</time>
      </trkpt>
      <trkpt lat="48.86229" lon="1.76093">
        <ele>128.39999389648</ele>
        <time>2016-06-11T09:50:03.000Z</time>
      </trkpt>
      <trkpt lat="48.86229" lon="1.76096">
        <ele>128.39999389648</ele>
        <time>2016-06-11T09:50:04.000Z</time>
      </trkpt>
      <trkpt lat="48.86227" lon="1.76112">
        <ele>128.60000610352</ele>
        <time>2016-06-11T09:50:11.000Z</time>
      </trkpt>
      <trkpt lat="48.86226" lon="1.76134">
        <ele>129.19999694824</ele>
        <time>2016-06-11T09:50:21.000Z</time>
      </trkpt>
      <trkpt lat="48.86226" lon="1.76138">
        <ele>129.19999694824</ele>
        <time>2016-06-11T09:50:23.000Z</time>
      </trkpt>
      <trkpt lat="48.86226" lon="1.76144">
        <ele>129.39999389648</ele>
        <time>2016-06-11T09:50:26.000Z</time>
      </trkpt>
      <trkpt lat="48.86223" lon="1.76161">
        <ele>129.80000305176</ele>
        <time>2016-06-11T09:50:34.000Z</time>
      </trkpt>
      <trkpt lat="48.86223" lon="1.76179">
        <ele>129.80000305176</ele>
        <time>2016-06-11T09:50:43.000Z</time>
      </trkpt>
      <trkpt lat="48.86224" lon="1.76197">
        <ele>129.39999389648</ele>
        <time>2016-06-11T09:50:51.000Z</time>
      </trkpt>
      <trkpt lat="48.86227" lon="1.76213">
        <ele>128.80000305176</ele>
        <time>2016-06-11T09:50:59.000Z</time>
      </trkpt>
      <trkpt lat="48.86237" lon="1.76222">
        <ele>128.60000610352</ele>
        <time>2016-06-11T09:51:07.000Z</time>
      </trkpt>
      <trkpt lat="48.86247" lon="1.76235">
        <ele>128.19999694824</ele>
        <time>2016-06-11T09:51:14.000Z</time>
      </trkpt>
      <trkpt lat="48.86259" lon="1.76244">
        <ele>128</ele>
        <time>2016-06-11T09:51:21.000Z</time>
      </trkpt>
      <trkpt lat="48.86275" lon="1.76257">
        <ele>128</ele>
        <time>2016-06-11T09:51:32.000Z</time>
      </trkpt>
      <trkpt lat="48.86288" lon="1.76267">
        <ele>128.39999389648</ele>
        <time>2016-06-11T09:51:39.000Z</time>
      </trkpt>
      <trkpt lat="48.86298" lon="1.76272">
        <ele>128.60000610352</ele>
        <time>2016-06-11T09:51:45.000Z</time>
      </trkpt>
      <trkpt lat="48.86313" lon="1.76284">
        <ele>129</ele>
        <time>2016-06-11T09:51:52.000Z</time>
      </trkpt>
      <trkpt lat="48.86328" lon="1.76295">
        <ele>129.39999389648</ele>
        <time>2016-06-11T09:52:00.000Z</time>
      </trkpt>
      <trkpt lat="48.86338" lon="1.76302">
        <ele>129.60000610352</ele>
        <time>2016-06-11T09:52:08.000Z</time>
      </trkpt>
      <trkpt lat="48.86349" lon="1.76311">
        <ele>129.80000305176</ele>
        <time>2016-06-11T09:52:17.000Z</time>
      </trkpt>
      <trkpt lat="48.86362" lon="1.76323">
        <ele>130</ele>
        <time>2016-06-11T09:52:28.000Z</time>
      </trkpt>
      <trkpt lat="48.86371" lon="1.7633">
        <ele>130</ele>
        <time>2016-06-11T09:52:35.000Z</time>
      </trkpt>
      <trkpt lat="48.86382" lon="1.76337">
        <ele>130.19999694824</ele>
        <time>2016-06-11T09:52:41.000Z</time>
      </trkpt>
      <trkpt lat="48.86388" lon="1.76343">
        <ele>130.19999694824</ele>
        <time>2016-06-11T09:52:46.000Z</time>
      </trkpt>
      <trkpt lat="48.86403" lon="1.76354">
        <ele>130.19999694824</ele>
        <time>2016-06-11T09:52:52.000Z</time>
      </trkpt>
      <trkpt lat="48.86419" lon="1.76366">
        <ele>130.19999694824</ele>
        <time>2016-06-11T09:52:59.000Z</time>
      </trkpt>
      <trkpt lat="48.86438" lon="1.7638">
        <ele>130.19999694824</ele>
        <time>2016-06-11T09:53:07.000Z</time>
      </trkpt>
      <trkpt lat="48.86454" lon="1.76393">
        <ele>130.39999389648</ele>
        <time>2016-06-11T09:53:14.000Z</time>
      </trkpt>
      <trkpt lat="48.86469" lon="1.76405">
        <ele>130.39999389648</ele>
        <time>2016-06-11T09:53:20.000Z</time>
      </trkpt>
      <trkpt lat="48.86488" lon="1.76419">
        <ele>130.80000305176</ele>
        <time>2016-06-11T09:53:26.000Z</time>
      </trkpt>
      <trkpt lat="48.86506" lon="1.76433">
        <ele>131.19999694824</ele>
        <time>2016-06-11T09:53:32.000Z</time>
      </trkpt>
      <trkpt lat="48.8653" lon="1.76453">
        <ele>131.80000305176</ele>
        <time>2016-06-11T09:53:40.000Z</time>
      </trkpt>
      <trkpt lat="48.86544" lon="1.76463">
        <ele>132.19999694824</ele>
        <time>2016-06-11T09:53:45.000Z</time>
      </trkpt>
      <trkpt lat="48.86553" lon="1.76471">
        <ele>132.60000610352</ele>
        <time>2016-06-11T09:53:50.000Z</time>
      </trkpt>
      <trkpt lat="48.86556" lon="1.76474">
        <ele>132.60000610352</ele>
        <time>2016-06-11T09:53:53.000Z</time>
      </trkpt>
      <trkpt lat="48.86558" lon="1.76476">
        <ele>132.80000305176</ele>
        <time>2016-06-11T09:53:55.000Z</time>
      </trkpt>
      <trkpt lat="48.86564" lon="1.7648">
        <ele>132.80000305176</ele>
        <time>2016-06-11T09:53:59.000Z</time>
      </trkpt>
      <trkpt lat="48.86568" lon="1.76489">
        <ele>133.19999694824</ele>
        <time>2016-06-11T09:54:05.000Z</time>
      </trkpt>
      <trkpt lat="48.86568" lon="1.76492">
        <ele>133.19999694824</ele>
        <time>2016-06-11T09:54:06.000Z</time>
      </trkpt>
      <trkpt lat="48.86566" lon="1.76498">
        <ele>133.19999694824</ele>
        <time>2016-06-11T09:54:09.000Z</time>
      </trkpt>
      <trkpt lat="48.86562" lon="1.76507">
        <ele>133.19999694824</ele>
        <time>2016-06-11T09:54:14.000Z</time>
      </trkpt>
      <trkpt lat="48.86554" lon="1.76525">
        <ele>133.19999694824</ele>
        <time>2016-06-11T09:54:24.000Z</time>
      </trkpt>
      <trkpt lat="48.86548" lon="1.76537">
        <ele>133</ele>
        <time>2016-06-11T09:54:30.000Z</time>
      </trkpt>
      <trkpt lat="48.86541" lon="1.76554">
        <ele>132.60000610352</ele>
        <time>2016-06-11T09:54:39.000Z</time>
      </trkpt>
      <trkpt lat="48.86535" lon="1.76572">
        <ele>132.39999389648</ele>
        <time>2016-06-11T09:54:48.000Z</time>
      </trkpt>
      <trkpt lat="48.86526" lon="1.76588">
        <ele>132.19999694824</ele>
        <time>2016-06-11T09:54:57.000Z</time>
      </trkpt>
      <trkpt lat="48.86513" lon="1.7661">
        <ele>131.80000305176</ele>
        <time>2016-06-11T09:55:10.000Z</time>
      </trkpt>
      <trkpt lat="48.86503" lon="1.7663">
        <ele>131.60000610352</ele>
        <time>2016-06-11T09:55:21.000Z</time>
      </trkpt>
      <trkpt lat="48.86493" lon="1.76648">
        <ele>131.60000610352</ele>
        <time>2016-06-11T09:55:31.000Z</time>
      </trkpt>
      <trkpt lat="48.86483" lon="1.76667">
        <ele>131.60000610352</ele>
        <time>2016-06-11T09:55:42.000Z</time>
      </trkpt>
      <trkpt lat="48.8647" lon="1.76691">
        <ele>131.60000610352</ele>
        <time>2016-06-11T09:55:56.000Z</time>
      </trkpt>
      <trkpt lat="48.8646" lon="1.76708">
        <ele>131.19999694824</ele>
        <time>2016-06-11T09:56:06.000Z</time>
      </trkpt>
      <trkpt lat="48.86452" lon="1.76722">
        <ele>130.60000610352</ele>
        <time>2016-06-11T09:56:14.000Z</time>
      </trkpt>
      <trkpt lat="48.86445" lon="1.76731">
        <ele>130.19999694824</ele>
        <time>2016-06-11T09:56:20.000Z</time>
      </trkpt>
      <trkpt lat="48.8644" lon="1.76741">
        <ele>130</ele>
        <time>2016-06-11T09:56:26.000Z</time>
      </trkpt>
      <trkpt lat="48.86434" lon="1.76748">
        <ele>130</ele>
        <time>2016-06-11T09:56:31.000Z</time>
      </trkpt>
      <trkpt lat="48.86423" lon="1.76764">
        <ele>130</ele>
        <time>2016-06-11T09:56:40.000Z</time>
      </trkpt>
      <trkpt lat="48.86411" lon="1.76783">
        <ele>129.80000305176</ele>
        <time>2016-06-11T09:56:51.000Z</time>
      </trkpt>
      <trkpt lat="48.86403" lon="1.76794">
        <ele>129.80000305176</ele>
        <time>2016-06-11T09:56:58.000Z</time>
      </trkpt>
      <trkpt lat="48.86393" lon="1.7681">
        <ele>129.39999389648</ele>
        <time>2016-06-11T09:57:07.000Z</time>
      </trkpt>
      <trkpt lat="48.86385" lon="1.76822">
        <ele>129</ele>
        <time>2016-06-11T09:57:15.000Z</time>
      </trkpt>
      <trkpt lat="48.86374" lon="1.76836">
        <ele>128.80000305176</ele>
        <time>2016-06-11T09:57:24.000Z</time>
      </trkpt>
      <trkpt lat="48.86367" lon="1.76846">
        <ele>128.60000610352</ele>
        <time>2016-06-11T09:57:30.000Z</time>
      </trkpt>
      <trkpt lat="48.86358" lon="1.76858">
        <ele>128.19999694824</ele>
        <time>2016-06-11T09:57:38.000Z</time>
      </trkpt>
      <trkpt lat="48.86349" lon="1.7687">
        <ele>128</ele>
        <time>2016-06-11T09:57:46.000Z</time>
      </trkpt>
      <trkpt lat="48.86341" lon="1.76881">
        <ele>128.19999694824</ele>
        <time>2016-06-11T09:57:54.000Z</time>
      </trkpt>
      <trkpt lat="48.86333" lon="1.76891">
        <ele>128.19999694824</ele>
        <time>2016-06-11T09:58:01.000Z</time>
      </trkpt>
      <trkpt lat="48.86325" lon="1.76904">
        <ele>128</ele>
        <time>2016-06-11T09:58:09.000Z</time>
      </trkpt>
      <trkpt lat="48.86315" lon="1.76917">
        <ele>128.39999389648</ele>
        <time>2016-06-11T09:58:17.000Z</time>
      </trkpt>
      <trkpt lat="48.86312" lon="1.76922">
        <ele>128.39999389648</ele>
        <time>2016-06-11T09:58:20.000Z</time>
      </trkpt>
      <trkpt lat="48.8631" lon="1.76925">
        <ele>128.39999389648</ele>
        <time>2016-06-11T09:58:22.000Z</time>
      </trkpt>
      <trkpt lat="48.863" lon="1.7694">
        <ele>128.60000610352</ele>
        <time>2016-06-11T09:58:31.000Z</time>
      </trkpt>
      <trkpt lat="48.86298" lon="1.76942">
        <ele>128.60000610352</ele>
        <time>2016-06-11T09:58:33.000Z</time>
      </trkpt>
      <trkpt lat="48.86295" lon="1.76948">
        <ele>128.60000610352</ele>
        <time>2016-06-11T09:58:36.000Z</time>
      </trkpt>
      <trkpt lat="48.86287" lon="1.76959">
        <ele>128.39999389648</ele>
        <time>2016-06-11T09:58:43.000Z</time>
      </trkpt>
      <trkpt lat="48.86275" lon="1.76979">
        <ele>128</ele>
        <time>2016-06-11T09:58:55.000Z</time>
      </trkpt>
      <trkpt lat="48.86268" lon="1.76991">
        <ele>128</ele>
        <time>2016-06-11T09:59:03.000Z</time>
      </trkpt>
      <trkpt lat="48.86255" lon="1.77011">
        <ele>128</ele>
        <time>2016-06-11T09:59:15.000Z</time>
      </trkpt>
      <trkpt lat="48.86246" lon="1.77026">
        <ele>128.19999694824</ele>
        <time>2016-06-11T09:59:24.000Z</time>
      </trkpt>
      <trkpt lat="48.86237" lon="1.77041">
        <ele>128.19999694824</ele>
        <time>2016-06-11T09:59:33.000Z</time>
      </trkpt>
      <trkpt lat="48.86229" lon="1.77055">
        <ele>128</ele>
        <time>2016-06-11T09:59:41.000Z</time>
      </trkpt>
      <trkpt lat="48.86218" lon="1.77072">
        <ele>127.59999847412</ele>
        <time>2016-06-11T09:59:51.000Z</time>
      </trkpt>
      <trkpt lat="48.86211" lon="1.77084">
        <ele>127.59999847412</ele>
        <time>2016-06-11T09:59:59.000Z</time>
      </trkpt>
      <trkpt lat="48.86205" lon="1.77092">
        <ele>127.59999847412</ele>
        <time>2016-06-11T10:00:05.000Z</time>
      </trkpt>
      <trkpt lat="48.86195" lon="1.77109">
        <ele>128</ele>
        <time>2016-06-11T10:00:16.000Z</time>
      </trkpt>
      <trkpt lat="48.86195" lon="1.77111">
        <ele>128</ele>
        <time>2016-06-11T10:00:17.000Z</time>
      </trkpt>
      <trkpt lat="48.86194" lon="1.77119">
        <ele>128.19999694824</ele>
        <time>2016-06-11T10:00:21.000Z</time>
      </trkpt>
      <trkpt lat="48.86194" lon="1.7713">
        <ele>128.39999389648</ele>
        <time>2016-06-11T10:00:28.000Z</time>
      </trkpt>
      <trkpt lat="48.86201" lon="1.77135">
        <ele>128.60000610352</ele>
        <time>2016-06-11T10:00:35.000Z</time>
      </trkpt>
      <trkpt lat="48.86211" lon="1.77145">
        <ele>128.80000305176</ele>
        <time>2016-06-11T10:00:43.000Z</time>
      </trkpt>
      <trkpt lat="48.86219" lon="1.77153">
        <ele>129</ele>
        <time>2016-06-11T10:00:50.000Z</time>
      </trkpt>
      <trkpt lat="48.86227" lon="1.77162">
        <ele>129.19999694824</ele>
        <time>2016-06-11T10:00:57.000Z</time>
      </trkpt>
      <trkpt lat="48.86237" lon="1.77174">
        <ele>129.80000305176</ele>
        <time>2016-06-11T10:01:06.000Z</time>
      </trkpt>
      <trkpt lat="48.86249" lon="1.77189">
        <ele>130.19999694824</ele>
        <time>2016-06-11T10:01:17.000Z</time>
      </trkpt>
      <trkpt lat="48.86255" lon="1.77198">
        <ele>130.60000610352</ele>
        <time>2016-06-11T10:01:23.000Z</time>
      </trkpt>
      <trkpt lat="48.86256" lon="1.77202">
        <ele>130.80000305176</ele>
        <time>2016-06-11T10:01:25.000Z</time>
      </trkpt>
      <trkpt lat="48.86258" lon="1.77206">
        <ele>130.80000305176</ele>
        <time>2016-06-11T10:01:27.000Z</time>
      </trkpt>
      <trkpt lat="48.86265" lon="1.77213">
        <ele>131.19999694824</ele>
        <time>2016-06-11T10:01:30.000Z</time>
      </trkpt>
      <trkpt lat="48.86275" lon="1.77225">
        <ele>131.60000610352</ele>
        <time>2016-06-11T10:01:37.000Z</time>
      </trkpt>
      <trkpt lat="48.86288" lon="1.7724">
        <ele>132</ele>
        <time>2016-06-11T10:01:48.000Z</time>
      </trkpt>
      <trkpt lat="48.86297" lon="1.77251">
        <ele>132.60000610352</ele>
        <time>2016-06-11T10:01:56.000Z</time>
      </trkpt>
      <trkpt lat="48.86308" lon="1.77263">
        <ele>133.19999694824</ele>
        <time>2016-06-11T10:02:05.000Z</time>
      </trkpt>
      <trkpt lat="48.86317" lon="1.77272">
        <ele>133.60000610352</ele>
        <time>2016-06-11T10:02:09.000Z</time>
      </trkpt>
      <trkpt lat="48.86332" lon="1.77287">
        <ele>134.39999389648</ele>
        <time>2016-06-11T10:02:16.000Z</time>
      </trkpt>
      <trkpt lat="48.86342" lon="1.77295">
        <ele>134.80000305176</ele>
        <time>2016-06-11T10:02:22.000Z</time>
      </trkpt>
      <trkpt lat="48.86351" lon="1.77303">
        <ele>135.19999694824</ele>
        <time>2016-06-11T10:02:30.000Z</time>
      </trkpt>
      <trkpt lat="48.86358" lon="1.77307">
        <ele>135.19999694824</ele>
        <time>2016-06-11T10:02:35.000Z</time>
      </trkpt>
      <trkpt lat="48.86359" lon="1.77308">
        <ele>135.19999694824</ele>
        <time>2016-06-11T10:02:36.000Z</time>
      </trkpt>
      <trkpt lat="48.86363" lon="1.77311">
        <ele>135</ele>
        <time>2016-06-11T10:02:39.000Z</time>
      </trkpt>
      <trkpt lat="48.86366" lon="1.77313">
        <ele>135</ele>
        <time>2016-06-11T10:02:41.000Z</time>
      </trkpt>
      <trkpt lat="48.86376" lon="1.77319">
        <ele>134.60000610352</ele>
        <time>2016-06-11T10:02:49.000Z</time>
      </trkpt>
      <trkpt lat="48.86377" lon="1.7732">
        <ele>134.60000610352</ele>
        <time>2016-06-11T10:02:50.000Z</time>
      </trkpt>
      <trkpt lat="48.8638" lon="1.77321">
        <ele>134.60000610352</ele>
        <time>2016-06-11T10:02:52.000Z</time>
      </trkpt>
      <trkpt lat="48.86383" lon="1.77323">
        <ele>134.39999389648</ele>
        <time>2016-06-11T10:02:54.000Z</time>
      </trkpt>
      <trkpt lat="48.86386" lon="1.77324">
        <ele>134.19999694824</ele>
        <time>2016-06-11T10:02:56.000Z</time>
      </trkpt>
      <trkpt lat="48.864" lon="1.77331">
        <ele>133.60000610352</ele>
        <time>2016-06-11T10:03:05.000Z</time>
      </trkpt>
      <trkpt lat="48.8641" lon="1.77337">
        <ele>133.19999694824</ele>
        <time>2016-06-11T10:03:13.000Z</time>
      </trkpt>
      <trkpt lat="48.86422" lon="1.77343">
        <ele>132.60000610352</ele>
        <time>2016-06-11T10:03:22.000Z</time>
      </trkpt>
      <trkpt lat="48.86426" lon="1.77344">
        <ele>132.39999389648</ele>
        <time>2016-06-11T10:03:25.000Z</time>
      </trkpt>
      <trkpt lat="48.86428" lon="1.77344">
        <ele>132.19999694824</ele>
        <time>2016-06-11T10:03:27.000Z</time>
      </trkpt>
      <trkpt lat="48.86438" lon="1.77347">
        <ele>131.80000305176</ele>
        <time>2016-06-11T10:03:32.000Z</time>
      </trkpt>
      <trkpt lat="48.86454" lon="1.77358">
        <ele>133.19999694824</ele>
        <time>2016-06-11T10:03:39.000Z</time>
      </trkpt>
      <trkpt lat="48.86462" lon="1.77363">
        <ele>134</ele>
        <time>2016-06-11T10:03:45.000Z</time>
      </trkpt>
      <trkpt lat="48.86472" lon="1.77369">
        <ele>134.80000305176</ele>
        <time>2016-06-11T10:03:52.000Z</time>
      </trkpt>
      <trkpt lat="48.86484" lon="1.77375">
        <ele>136</ele>
        <time>2016-06-11T10:04:01.000Z</time>
      </trkpt>
      <trkpt lat="48.86487" lon="1.77376">
        <ele>136.39999389648</ele>
        <time>2016-06-11T10:04:03.000Z</time>
      </trkpt>
      <trkpt lat="48.86491" lon="1.77379">
        <ele>136.80000305176</ele>
        <time>2016-06-11T10:04:06.000Z</time>
      </trkpt>
      <trkpt lat="48.86493" lon="1.77379">
        <ele>136.80000305176</ele>
        <time>2016-06-11T10:04:07.000Z</time>
      </trkpt>
      <trkpt lat="48.86495" lon="1.77381">
        <ele>137</ele>
        <time>2016-06-11T10:04:10.000Z</time>
      </trkpt>
      <trkpt lat="48.86497" lon="1.77382">
        <ele>137.39999389648</ele>
        <time>2016-06-11T10:04:12.000Z</time>
      </trkpt>
      <trkpt lat="48.86499" lon="1.77384">
        <ele>137.39999389648</ele>
        <time>2016-06-11T10:04:14.000Z</time>
      </trkpt>
      <trkpt lat="48.865" lon="1.77386">
        <ele>137.60000610352</ele>
        <time>2016-06-11T10:04:16.000Z</time>
      </trkpt>
      <trkpt lat="48.86502" lon="1.77387">
        <ele>137.80000305176</ele>
        <time>2016-06-11T10:04:18.000Z</time>
      </trkpt>
      <trkpt lat="48.86504" lon="1.77388">
        <ele>138</ele>
        <time>2016-06-11T10:04:21.000Z</time>
      </trkpt>
      <trkpt lat="48.86513" lon="1.77393">
        <ele>138.80000305176</ele>
        <time>2016-06-11T10:04:28.000Z</time>
      </trkpt>
      <trkpt lat="48.86526" lon="1.77399">
        <ele>139.19999694824</ele>
        <time>2016-06-11T10:04:33.000Z</time>
      </trkpt>
      <trkpt lat="48.86534" lon="1.77402">
        <ele>139</ele>
        <time>2016-06-11T10:04:37.000Z</time>
      </trkpt>
      <trkpt lat="48.86547" lon="1.77409">
        <ele>138.80000305176</ele>
        <time>2016-06-11T10:04:46.000Z</time>
      </trkpt>
      <trkpt lat="48.86551" lon="1.7741">
        <ele>138.60000610352</ele>
        <time>2016-06-11T10:04:49.000Z</time>
      </trkpt>
      <trkpt lat="48.86554" lon="1.77412">
        <ele>138.60000610352</ele>
        <time>2016-06-11T10:04:52.000Z</time>
      </trkpt>
      <trkpt lat="48.8656" lon="1.77414">
        <ele>138.39999389648</ele>
        <time>2016-06-11T10:04:57.000Z</time>
      </trkpt>
      <trkpt lat="48.86562" lon="1.77415">
        <ele>138.19999694824</ele>
        <time>2016-06-11T10:04:58.000Z</time>
      </trkpt>
      <trkpt lat="48.86565" lon="1.77417">
        <ele>138.19999694824</ele>
        <time>2016-06-11T10:05:00.000Z</time>
      </trkpt>
      <trkpt lat="48.86568" lon="1.77418">
        <ele>138</ele>
        <time>2016-06-11T10:05:02.000Z</time>
      </trkpt>
      <trkpt lat="48.86573" lon="1.7742">
        <ele>138</ele>
        <time>2016-06-11T10:05:04.000Z</time>
      </trkpt>
      <trkpt lat="48.86578" lon="1.77424">
        <ele>137.80000305176</ele>
        <time>2016-06-11T10:05:06.000Z</time>
      </trkpt>
      <trkpt lat="48.86589" lon="1.77432">
        <ele>137.60000610352</ele>
        <time>2016-06-11T10:05:11.000Z</time>
      </trkpt>
      <trkpt lat="48.86597" lon="1.77439">
        <ele>137.60000610352</ele>
        <time>2016-06-11T10:05:17.000Z</time>
      </trkpt>
      <trkpt lat="48.866" lon="1.77444">
        <ele>137.80000305176</ele>
        <time>2016-06-11T10:05:20.000Z</time>
      </trkpt>
      <trkpt lat="48.86602" lon="1.77448">
        <ele>137.80000305176</ele>
        <time>2016-06-11T10:05:22.000Z</time>
      </trkpt>
      <trkpt lat="48.86605" lon="1.7745">
        <ele>137.80000305176</ele>
        <time>2016-06-11T10:05:23.000Z</time>
      </trkpt>
      <trkpt lat="48.8661" lon="1.77455">
        <ele>138</ele>
        <time>2016-06-11T10:05:25.000Z</time>
      </trkpt>
      <trkpt lat="48.86624" lon="1.77466">
        <ele>138.19999694824</ele>
        <time>2016-06-11T10:05:32.000Z</time>
      </trkpt>
      <trkpt lat="48.86632" lon="1.77483">
        <ele>139</ele>
        <time>2016-06-11T10:05:40.000Z</time>
      </trkpt>
      <trkpt lat="48.86634" lon="1.77497">
        <ele>139.60000610352</ele>
        <time>2016-06-11T10:05:45.000Z</time>
      </trkpt>
      <trkpt lat="48.86635" lon="1.77515">
        <ele>140</ele>
        <time>2016-06-11T10:05:52.000Z</time>
      </trkpt>
      <trkpt lat="48.86629" lon="1.77534">
        <ele>139.80000305176</ele>
        <time>2016-06-11T10:06:00.000Z</time>
      </trkpt>
      <trkpt lat="48.86629" lon="1.77536">
        <ele>139.60000610352</ele>
        <time>2016-06-11T10:06:01.000Z</time>
      </trkpt>
      <trkpt lat="48.86625" lon="1.77546">
        <ele>139.60000610352</ele>
        <time>2016-06-11T10:06:05.000Z</time>
      </trkpt>
      <trkpt lat="48.86617" lon="1.77562">
        <ele>139.19999694824</ele>
        <time>2016-06-11T10:06:12.000Z</time>
      </trkpt>
      <trkpt lat="48.86612" lon="1.77574">
        <ele>139.19999694824</ele>
        <time>2016-06-11T10:06:18.000Z</time>
      </trkpt>
      <trkpt lat="48.86607" lon="1.77584">
        <ele>139.39999389648</ele>
        <time>2016-06-11T10:06:24.000Z</time>
      </trkpt>
      <trkpt lat="48.866" lon="1.77598">
        <ele>139.80000305176</ele>
        <time>2016-06-11T10:06:32.000Z</time>
      </trkpt>
      <trkpt lat="48.86593" lon="1.77612">
        <ele>140.39999389648</ele>
        <time>2016-06-11T10:06:39.000Z</time>
      </trkpt>
      <trkpt lat="48.86586" lon="1.77625">
        <ele>141</ele>
        <time>2016-06-11T10:06:45.000Z</time>
      </trkpt>
      <trkpt lat="48.86579" lon="1.77635">
        <ele>141.19999694824</ele>
        <time>2016-06-11T10:06:51.000Z</time>
      </trkpt>
      <trkpt lat="48.86573" lon="1.77651">
        <ele>140.60000610352</ele>
        <time>2016-06-11T10:06:59.000Z</time>
      </trkpt>
      <trkpt lat="48.86566" lon="1.77665">
        <ele>141</ele>
        <time>2016-06-11T10:07:07.000Z</time>
      </trkpt>
      <trkpt lat="48.86557" lon="1.77683">
        <ele>141.39999389648</ele>
        <time>2016-06-11T10:07:17.000Z</time>
      </trkpt>
      <trkpt lat="48.86547" lon="1.77702">
        <ele>142</ele>
        <time>2016-06-11T10:07:27.000Z</time>
      </trkpt>
      <trkpt lat="48.86544" lon="1.77709">
        <ele>142.19999694824</ele>
        <time>2016-06-11T10:07:31.000Z</time>
      </trkpt>
      <trkpt lat="48.86542" lon="1.77715">
        <ele>142.39999389648</ele>
        <time>2016-06-11T10:07:34.000Z</time>
      </trkpt>
      <trkpt lat="48.86535" lon="1.77729">
        <ele>142.80000305176</ele>
        <time>2016-06-11T10:07:42.000Z</time>
      </trkpt>
      <trkpt lat="48.8652" lon="1.77758">
        <ele>144</ele>
        <time>2016-06-11T10:07:58.000Z</time>
      </trkpt>
      <trkpt lat="48.8651" lon="1.77778">
        <ele>145</ele>
        <time>2016-06-11T10:08:08.000Z</time>
      </trkpt>
      <trkpt lat="48.86503" lon="1.77793">
        <ele>145.60000610352</ele>
        <time>2016-06-11T10:08:16.000Z</time>
      </trkpt>
      <trkpt lat="48.865" lon="1.77805">
        <ele>146.19999694824</ele>
        <time>2016-06-11T10:08:22.000Z</time>
      </trkpt>
      <trkpt lat="48.86501" lon="1.77806">
        <ele>146.19999694824</ele>
        <time>2016-06-11T10:08:23.000Z</time>
      </trkpt>
      <trkpt lat="48.86506" lon="1.77808">
        <ele>146.39999389648</ele>
        <time>2016-06-11T10:08:27.000Z</time>
      </trkpt>
      <trkpt lat="48.86509" lon="1.77807">
        <ele>146.39999389648</ele>
        <time>2016-06-11T10:08:29.000Z</time>
      </trkpt>
      <trkpt lat="48.8652" lon="1.77806">
        <ele>146.19999694824</ele>
        <time>2016-06-11T10:08:36.000Z</time>
      </trkpt>
      <trkpt lat="48.86521" lon="1.77805">
        <ele>146.19999694824</ele>
        <time>2016-06-11T10:08:37.000Z</time>
      </trkpt>
      <trkpt lat="48.86527" lon="1.77804">
        <ele>146.39999389648</ele>
        <time>2016-06-11T10:08:41.000Z</time>
      </trkpt>
      <trkpt lat="48.86528" lon="1.77804">
        <ele>146.39999389648</ele>
        <time>2016-06-11T10:08:42.000Z</time>
      </trkpt>
      <trkpt lat="48.86539" lon="1.778">
        <ele>146.60000610352</ele>
        <time>2016-06-11T10:08:49.000Z</time>
      </trkpt>
      <trkpt lat="48.86547" lon="1.77797">
        <ele>146.80000305176</ele>
        <time>2016-06-11T10:08:55.000Z</time>
      </trkpt>
      <trkpt lat="48.86553" lon="1.77796">
        <ele>146.80000305176</ele>
        <time>2016-06-11T10:08:59.000Z</time>
      </trkpt>
      <trkpt lat="48.86555" lon="1.77795">
        <ele>147</ele>
        <time>2016-06-11T10:09:01.000Z</time>
      </trkpt>
      <trkpt lat="48.86565" lon="1.77795">
        <ele>147.19999694824</ele>
        <time>2016-06-11T10:09:06.000Z</time>
      </trkpt>
      <trkpt lat="48.86574" lon="1.77794">
        <ele>147.60000610352</ele>
        <time>2016-06-11T10:09:12.000Z</time>
      </trkpt>
      <trkpt lat="48.86584" lon="1.77793">
        <ele>147.80000305176</ele>
        <time>2016-06-11T10:09:18.000Z</time>
      </trkpt>
      <trkpt lat="48.86585" lon="1.77792">
        <ele>147.60000610352</ele>
        <time>2016-06-11T10:09:19.000Z</time>
      </trkpt>
      <trkpt lat="48.86591" lon="1.77791">
        <ele>147.60000610352</ele>
        <time>2016-06-11T10:09:23.000Z</time>
      </trkpt>
      <trkpt lat="48.86593" lon="1.77791">
        <ele>147.60000610352</ele>
        <time>2016-06-11T10:09:24.000Z</time>
      </trkpt>
      <trkpt lat="48.86603" lon="1.77792">
        <ele>147.80000305176</ele>
        <time>2016-06-11T10:09:31.000Z</time>
      </trkpt>
      <trkpt lat="48.86616" lon="1.77797">
        <ele>148.60000610352</ele>
        <time>2016-06-11T10:09:40.000Z</time>
      </trkpt>
      <trkpt lat="48.8663" lon="1.77805">
        <ele>149.60000610352</ele>
        <time>2016-06-11T10:09:50.000Z</time>
      </trkpt>
      <trkpt lat="48.86641" lon="1.77811">
        <ele>150.60000610352</ele>
        <time>2016-06-11T10:09:55.000Z</time>
      </trkpt>
      <trkpt lat="48.86653" lon="1.77817">
        <ele>151.39999389648</ele>
        <time>2016-06-11T10:10:00.000Z</time>
      </trkpt>
      <trkpt lat="48.86654" lon="1.77818">
        <ele>151.39999389648</ele>
        <time>2016-06-11T10:10:01.000Z</time>
      </trkpt>
      <trkpt lat="48.86659" lon="1.77824">
        <ele>152.19999694824</ele>
        <time>2016-06-11T10:10:06.000Z</time>
      </trkpt>
      <trkpt lat="48.86657" lon="1.77833">
        <ele>152.80000305176</ele>
        <time>2016-06-11T10:10:12.000Z</time>
      </trkpt>
      <trkpt lat="48.86658" lon="1.77845">
        <ele>153.80000305176</ele>
        <time>2016-06-11T10:10:19.000Z</time>
      </trkpt>
      <trkpt lat="48.86662" lon="1.77855">
        <ele>154.80000305176</ele>
        <time>2016-06-11T10:10:24.000Z</time>
      </trkpt>
      <trkpt lat="48.86663" lon="1.77859">
        <ele>155.19999694824</ele>
        <time>2016-06-11T10:10:26.000Z</time>
      </trkpt>
      <trkpt lat="48.86663" lon="1.77863">
        <ele>155.60000610352</ele>
        <time>2016-06-11T10:10:28.000Z</time>
      </trkpt>
      <trkpt lat="48.86663" lon="1.77871">
        <ele>156.19999694824</ele>
        <time>2016-06-11T10:10:32.000Z</time>
      </trkpt>
      <trkpt lat="48.86663" lon="1.77876">
        <ele>156.60000610352</ele>
        <time>2016-06-11T10:10:34.000Z</time>
      </trkpt>
      <trkpt lat="48.86663" lon="1.77881">
        <ele>157</ele>
        <time>2016-06-11T10:10:37.000Z</time>
      </trkpt>
      <trkpt lat="48.86661" lon="1.77889">
        <ele>157.60000610352</ele>
        <time>2016-06-11T10:10:42.000Z</time>
      </trkpt>
      <trkpt lat="48.86661" lon="1.77893">
        <ele>158</ele>
        <time>2016-06-11T10:10:44.000Z</time>
      </trkpt>
      <trkpt lat="48.86661" lon="1.77901">
        <ele>158.60000610352</ele>
        <time>2016-06-11T10:10:48.000Z</time>
      </trkpt>
      <trkpt lat="48.86661" lon="1.7791">
        <ele>159.19999694824</ele>
        <time>2016-06-11T10:10:53.000Z</time>
      </trkpt>
      <trkpt lat="48.86662" lon="1.77923">
        <ele>159.60000610352</ele>
        <time>2016-06-11T10:10:59.000Z</time>
      </trkpt>
      <trkpt lat="48.86664" lon="1.77932">
        <ele>160</ele>
        <time>2016-06-11T10:11:02.000Z</time>
      </trkpt>
      <trkpt lat="48.86665" lon="1.77945">
        <ele>160.60000610352</ele>
        <time>2016-06-11T10:11:05.000Z</time>
      </trkpt>
      <trkpt lat="48.86666" lon="1.7795">
        <ele>160.80000305176</ele>
        <time>2016-06-11T10:11:06.000Z</time>
      </trkpt>
      <trkpt lat="48.86665" lon="1.77969">
        <ele>161.80000305176</ele>
        <time>2016-06-11T10:11:11.000Z</time>
      </trkpt>
      <trkpt lat="48.86666" lon="1.77982">
        <ele>162.80000305176</ele>
        <time>2016-06-11T10:11:17.000Z</time>
      </trkpt>
      <trkpt lat="48.86666" lon="1.77992">
        <ele>163.60000610352</ele>
        <time>2016-06-11T10:11:22.000Z</time>
      </trkpt>
      <trkpt lat="48.86666" lon="1.77995">
        <ele>163.80000305176</ele>
        <time>2016-06-11T10:11:24.000Z</time>
      </trkpt>
      <trkpt lat="48.86666" lon="1.77997">
        <ele>163.80000305176</ele>
        <time>2016-06-11T10:11:25.000Z</time>
      </trkpt>
      <trkpt lat="48.86667" lon="1.78001">
        <ele>164</ele>
        <time>2016-06-11T10:11:27.000Z</time>
      </trkpt>
      <trkpt lat="48.86667" lon="1.78006">
        <ele>164.39999389648</ele>
        <time>2016-06-11T10:11:30.000Z</time>
      </trkpt>
      <trkpt lat="48.86666" lon="1.7801">
        <ele>164.60000610352</ele>
        <time>2016-06-11T10:11:32.000Z</time>
      </trkpt>
      <trkpt lat="48.86665" lon="1.78013">
        <ele>164.80000305176</ele>
        <time>2016-06-11T10:11:34.000Z</time>
      </trkpt>
      <trkpt lat="48.86666" lon="1.78021">
        <ele>165.19999694824</ele>
        <time>2016-06-11T10:11:38.000Z</time>
      </trkpt>
      <trkpt lat="48.86667" lon="1.78023">
        <ele>165.39999389648</ele>
        <time>2016-06-11T10:11:40.000Z</time>
      </trkpt>
      <trkpt lat="48.86668" lon="1.78032">
        <ele>166</ele>
        <time>2016-06-11T10:11:46.000Z</time>
      </trkpt>
      <trkpt lat="48.86669" lon="1.78037">
        <ele>166.19999694824</ele>
        <time>2016-06-11T10:11:48.000Z</time>
      </trkpt>
      <trkpt lat="48.8667" lon="1.78046">
        <ele>166.80000305176</ele>
        <time>2016-06-11T10:11:52.000Z</time>
      </trkpt>
      <trkpt lat="48.86672" lon="1.78056">
        <ele>167.39999389648</ele>
        <time>2016-06-11T10:11:58.000Z</time>
      </trkpt>
      <trkpt lat="48.86671" lon="1.78068">
        <ele>168.19999694824</ele>
        <time>2016-06-11T10:12:04.000Z</time>
      </trkpt>
      <trkpt lat="48.86672" lon="1.78079">
        <ele>169</ele>
        <time>2016-06-11T10:12:10.000Z</time>
      </trkpt>
      <trkpt lat="48.86672" lon="1.78083">
        <ele>169.39999389648</ele>
        <time>2016-06-11T10:12:12.000Z</time>
      </trkpt>
      <trkpt lat="48.86673" lon="1.78097">
        <ele>170.60000610352</ele>
        <time>2016-06-11T10:12:17.000Z</time>
      </trkpt>
      <trkpt lat="48.86672" lon="1.78103">
        <ele>171</ele>
        <time>2016-06-11T10:12:22.000Z</time>
      </trkpt>
      <trkpt lat="48.86669" lon="1.78145">
        <ele>174.19999694824</ele>
        <time>2016-06-11T10:13:15.000Z</time>
      </trkpt>
      <trkpt lat="48.86669" lon="1.78147">
        <ele>174.39999389648</ele>
        <time>2016-06-11T10:13:16.000Z</time>
      </trkpt>
      <trkpt lat="48.86667" lon="1.78152">
        <ele>174.60000610352</ele>
        <time>2016-06-11T10:13:19.000Z</time>
      </trkpt>
      <trkpt lat="48.86666" lon="1.78154">
        <ele>174.80000305176</ele>
        <time>2016-06-11T10:13:21.000Z</time>
      </trkpt>
      <trkpt lat="48.86664" lon="1.78164">
        <ele>175</ele>
        <time>2016-06-11T10:13:26.000Z</time>
      </trkpt>
      <trkpt lat="48.86663" lon="1.78174">
        <ele>175.19999694824</ele>
        <time>2016-06-11T10:13:31.000Z</time>
      </trkpt>
      <trkpt lat="48.86662" lon="1.7818">
        <ele>175.19999694824</ele>
        <time>2016-06-11T10:13:34.000Z</time>
      </trkpt>
      <trkpt lat="48.86662" lon="1.78186">
        <ele>175.39999389648</ele>
        <time>2016-06-11T10:13:37.000Z</time>
      </trkpt>
      <trkpt lat="48.86661" lon="1.78188">
        <ele>175.39999389648</ele>
        <time>2016-06-11T10:13:38.000Z</time>
      </trkpt>
      <trkpt lat="48.86659" lon="1.78197">
        <ele>175.60000610352</ele>
        <time>2016-06-11T10:13:42.000Z</time>
      </trkpt>
      <trkpt lat="48.86658" lon="1.78213">
        <ele>176</ele>
        <time>2016-06-11T10:13:49.000Z</time>
      </trkpt>
      <trkpt lat="48.86656" lon="1.78227">
        <ele>176</ele>
        <time>2016-06-11T10:13:55.000Z</time>
      </trkpt>
      <trkpt lat="48.86652" lon="1.78241">
        <ele>176.19999694824</ele>
        <time>2016-06-11T10:14:01.000Z</time>
      </trkpt>
      <trkpt lat="48.8665" lon="1.78247">
        <ele>176</ele>
        <time>2016-06-11T10:14:05.000Z</time>
      </trkpt>
      <trkpt lat="48.8665" lon="1.78251">
        <ele>176</ele>
        <time>2016-06-11T10:14:07.000Z</time>
      </trkpt>
      <trkpt lat="48.86648" lon="1.7826">
        <ele>176</ele>
        <time>2016-06-11T10:14:11.000Z</time>
      </trkpt>
      <trkpt lat="48.86648" lon="1.78261">
        <ele>176</ele>
        <time>2016-06-11T10:14:12.000Z</time>
      </trkpt>
      <trkpt lat="48.86647" lon="1.78265">
        <ele>176</ele>
        <time>2016-06-11T10:14:14.000Z</time>
      </trkpt>
      <trkpt lat="48.86645" lon="1.78273">
        <ele>176</ele>
        <time>2016-06-11T10:14:18.000Z</time>
      </trkpt>
      <trkpt lat="48.86641" lon="1.78285">
        <ele>175.60000610352</ele>
        <time>2016-06-11T10:14:23.000Z</time>
      </trkpt>
      <trkpt lat="48.86633" lon="1.78301">
        <ele>174.80000305176</ele>
        <time>2016-06-11T10:14:30.000Z</time>
      </trkpt>
      <trkpt lat="48.86625" lon="1.78316">
        <ele>174</ele>
        <time>2016-06-11T10:14:37.000Z</time>
      </trkpt>
      <trkpt lat="48.86618" lon="1.78336">
        <ele>173.39999389648</ele>
        <time>2016-06-11T10:14:46.000Z</time>
      </trkpt>
      <trkpt lat="48.86615" lon="1.78346">
        <ele>173.19999694824</ele>
        <time>2016-06-11T10:14:51.000Z</time>
      </trkpt>
      <trkpt lat="48.86613" lon="1.78352">
        <ele>173</ele>
        <time>2016-06-11T10:14:53.000Z</time>
      </trkpt>
      <trkpt lat="48.86611" lon="1.78361">
        <ele>172.80000305176</ele>
        <time>2016-06-11T10:14:57.000Z</time>
      </trkpt>
      <trkpt lat="48.86607" lon="1.78377">
        <ele>172.39999389648</ele>
        <time>2016-06-11T10:15:04.000Z</time>
      </trkpt>
      <trkpt lat="48.86606" lon="1.78379">
        <ele>172.39999389648</ele>
        <time>2016-06-11T10:15:05.000Z</time>
      </trkpt>
      <trkpt lat="48.86605" lon="1.78388">
        <ele>172.19999694824</ele>
        <time>2016-06-11T10:15:09.000Z</time>
      </trkpt>
      <trkpt lat="48.86604" lon="1.7839">
        <ele>172</ele>
        <time>2016-06-11T10:15:10.000Z</time>
      </trkpt>
      <trkpt lat="48.86602" lon="1.78395">
        <ele>171.80000305176</ele>
        <time>2016-06-11T10:15:13.000Z</time>
      </trkpt>
      <trkpt lat="48.866" lon="1.784">
        <ele>171.80000305176</ele>
        <time>2016-06-11T10:15:15.000Z</time>
      </trkpt>
      <trkpt lat="48.86598" lon="1.78411">
        <ele>171.60000610352</ele>
        <time>2016-06-11T10:15:20.000Z</time>
      </trkpt>
      <trkpt lat="48.86594" lon="1.78426">
        <ele>171.39999389648</ele>
        <time>2016-06-11T10:15:27.000Z</time>
      </trkpt>
      <trkpt lat="48.8659" lon="1.78446">
        <ele>171.19999694824</ele>
        <time>2016-06-11T10:15:36.000Z</time>
      </trkpt>
      <trkpt lat="48.86586" lon="1.78458">
        <ele>171</ele>
        <time>2016-06-11T10:15:42.000Z</time>
      </trkpt>
      <trkpt lat="48.86585" lon="1.7846">
        <ele>171</ele>
        <time>2016-06-11T10:15:43.000Z</time>
      </trkpt>
      <trkpt lat="48.86582" lon="1.78465">
        <ele>170.80000305176</ele>
        <time>2016-06-11T10:15:47.000Z</time>
      </trkpt>
      <trkpt lat="48.86582" lon="1.78465">
        <ele>170.80000305176</ele>
        <time>2016-06-11T10:15:48.000Z</time>
      </trkpt>
      <trkpt lat="48.86582" lon="1.78465">
        <ele>170.80000305176</ele>
        <time>2016-06-11T10:15:49.000Z</time>
      </trkpt>
      <trkpt lat="48.86574" lon="1.78486">
        <ele>171.19999694824</ele>
        <time>2016-06-11T10:16:04.000Z</time>
      </trkpt>
      <trkpt lat="48.86573" lon="1.78489">
        <ele>171.19999694824</ele>
        <time>2016-06-11T10:16:06.000Z</time>
      </trkpt>
      <trkpt lat="48.86569" lon="1.78496">
        <ele>171</ele>
        <time>2016-06-11T10:16:12.000Z</time>
      </trkpt>
      <trkpt lat="48.86569" lon="1.78496">
        <ele>171</ele>
        <time>2016-06-11T10:16:13.000Z</time>
      </trkpt>
      <trkpt lat="48.86562" lon="1.78486">
        <ele>170.80000305176</ele>
        <time>2016-06-11T10:16:40.000Z</time>
      </trkpt>
      <trkpt lat="48.8656" lon="1.7848">
        <ele>170.60000610352</ele>
        <time>2016-06-11T10:16:43.000Z</time>
      </trkpt>
      <trkpt lat="48.86555" lon="1.78472">
        <ele>170.39999389648</ele>
        <time>2016-06-11T10:16:48.000Z</time>
      </trkpt>
      <trkpt lat="48.86555" lon="1.78469">
        <ele>170.39999389648</ele>
        <time>2016-06-11T10:16:49.000Z</time>
      </trkpt>
      <trkpt lat="48.86554" lon="1.78466">
        <ele>170.19999694824</ele>
        <time>2016-06-11T10:16:51.000Z</time>
      </trkpt>
      <trkpt lat="48.86553" lon="1.78459">
        <ele>170</ele>
        <time>2016-06-11T10:16:54.000Z</time>
      </trkpt>
      <trkpt lat="48.8655" lon="1.78448">
        <ele>169.80000305176</ele>
        <time>2016-06-11T10:16:59.000Z</time>
      </trkpt>
      <trkpt lat="48.86547" lon="1.78436">
        <ele>169.39999389648</ele>
        <time>2016-06-11T10:17:05.000Z</time>
      </trkpt>
      <trkpt lat="48.86545" lon="1.78432">
        <ele>169.19999694824</ele>
        <time>2016-06-11T10:17:07.000Z</time>
      </trkpt>
      <trkpt lat="48.86542" lon="1.78425">
        <ele>169</ele>
        <time>2016-06-11T10:17:10.000Z</time>
      </trkpt>
      <trkpt lat="48.86538" lon="1.78405">
        <ele>168.80000305176</ele>
        <time>2016-06-11T10:17:19.000Z</time>
      </trkpt>
      <trkpt lat="48.86538" lon="1.78404">
        <ele>168.80000305176</ele>
        <time>2016-06-11T10:17:20.000Z</time>
      </trkpt>
      <trkpt lat="48.86533" lon="1.78397">
        <ele>168.60000610352</ele>
        <time>2016-06-11T10:17:24.000Z</time>
      </trkpt>
      <trkpt lat="48.86532" lon="1.78396">
        <ele>168.39999389648</ele>
        <time>2016-06-11T10:17:25.000Z</time>
      </trkpt>
      <trkpt lat="48.86525" lon="1.78395">
        <ele>168</ele>
        <time>2016-06-11T10:17:30.000Z</time>
      </trkpt>
      <trkpt lat="48.86515" lon="1.78391">
        <ele>167.60000610352</ele>
        <time>2016-06-11T10:17:36.000Z</time>
      </trkpt>
      <trkpt lat="48.86506" lon="1.78389">
        <ele>167.19999694824</ele>
        <time>2016-06-11T10:17:42.000Z</time>
      </trkpt>
      <trkpt lat="48.86495" lon="1.78385">
        <ele>166.80000305176</ele>
        <time>2016-06-11T10:17:49.000Z</time>
      </trkpt>
      <trkpt lat="48.86484" lon="1.78381">
        <ele>166.39999389648</ele>
        <time>2016-06-11T10:17:56.000Z</time>
      </trkpt>
      <trkpt lat="48.86475" lon="1.78378">
        <ele>166.19999694824</ele>
        <time>2016-06-11T10:18:02.000Z</time>
      </trkpt>
      <trkpt lat="48.86472" lon="1.78377">
        <ele>166.19999694824</ele>
        <time>2016-06-11T10:18:04.000Z</time>
      </trkpt>
      <trkpt lat="48.86461" lon="1.78374">
        <ele>165.80000305176</ele>
        <time>2016-06-11T10:18:11.000Z</time>
      </trkpt>
      <trkpt lat="48.8646" lon="1.78374">
        <ele>165.80000305176</ele>
        <time>2016-06-11T10:18:12.000Z</time>
      </trkpt>
      <trkpt lat="48.86452" lon="1.78371">
        <ele>165.39999389648</ele>
        <time>2016-06-11T10:18:17.000Z</time>
      </trkpt>
      <trkpt lat="48.86449" lon="1.78369">
        <ele>165.39999389648</ele>
        <time>2016-06-11T10:18:19.000Z</time>
      </trkpt>
      <trkpt lat="48.86438" lon="1.78364">
        <ele>165</ele>
        <time>2016-06-11T10:18:26.000Z</time>
      </trkpt>
      <trkpt lat="48.86428" lon="1.7836">
        <ele>164</ele>
        <time>2016-06-11T10:18:33.000Z</time>
      </trkpt>
      <trkpt lat="48.86415" lon="1.78355">
        <ele>163</ele>
        <time>2016-06-11T10:18:41.000Z</time>
      </trkpt>
      <trkpt lat="48.86398" lon="1.78348">
        <ele>161.60000610352</ele>
        <time>2016-06-11T10:18:52.000Z</time>
      </trkpt>
      <trkpt lat="48.86387" lon="1.78343">
        <ele>160.80000305176</ele>
        <time>2016-06-11T10:18:59.000Z</time>
      </trkpt>
      <trkpt lat="48.8638" lon="1.78341">
        <ele>160.19999694824</ele>
        <time>2016-06-11T10:19:04.000Z</time>
      </trkpt>
      <trkpt lat="48.86371" lon="1.78337">
        <ele>159.39999389648</ele>
        <time>2016-06-11T10:19:10.000Z</time>
      </trkpt>
      <trkpt lat="48.86361" lon="1.78336">
        <ele>158.60000610352</ele>
        <time>2016-06-11T10:19:16.000Z</time>
      </trkpt>
      <trkpt lat="48.86352" lon="1.78333">
        <ele>158</ele>
        <time>2016-06-11T10:19:22.000Z</time>
      </trkpt>
      <trkpt lat="48.86341" lon="1.7833">
        <ele>157.60000610352</ele>
        <time>2016-06-11T10:19:29.000Z</time>
      </trkpt>
      <trkpt lat="48.8633" lon="1.78327">
        <ele>157.19999694824</ele>
        <time>2016-06-11T10:19:36.000Z</time>
      </trkpt>
      <trkpt lat="48.86316" lon="1.78321">
        <ele>156.60000610352</ele>
        <time>2016-06-11T10:19:45.000Z</time>
      </trkpt>
      <trkpt lat="48.86305" lon="1.78318">
        <ele>156</ele>
        <time>2016-06-11T10:19:52.000Z</time>
      </trkpt>
      <trkpt lat="48.86291" lon="1.78314">
        <ele>155.19999694824</ele>
        <time>2016-06-11T10:20:01.000Z</time>
      </trkpt>
      <trkpt lat="48.86277" lon="1.78311">
        <ele>154.60000610352</ele>
        <time>2016-06-11T10:20:10.000Z</time>
      </trkpt>
      <trkpt lat="48.86268" lon="1.78309">
        <ele>154.60000610352</ele>
        <time>2016-06-11T10:20:16.000Z</time>
      </trkpt>
      <trkpt lat="48.86255" lon="1.78302">
        <ele>155</ele>
        <time>2016-06-11T10:20:24.000Z</time>
      </trkpt>
      <trkpt lat="48.86248" lon="1.78297">
        <ele>155</ele>
        <time>2016-06-11T10:20:30.000Z</time>
      </trkpt>
      <trkpt lat="48.86248" lon="1.78297">
        <ele>155</ele>
        <time>2016-06-11T10:20:31.000Z</time>
      </trkpt>
      <trkpt lat="48.86235" lon="1.78284">
        <ele>155</ele>
        <time>2016-06-11T10:21:50.000Z</time>
      </trkpt>
      <trkpt lat="48.86233" lon="1.7828">
        <ele>154.80000305176</ele>
        <time>2016-06-11T10:21:52.000Z</time>
      </trkpt>
      <trkpt lat="48.86228" lon="1.78272">
        <ele>154.80000305176</ele>
        <time>2016-06-11T10:21:55.000Z</time>
      </trkpt>
      <trkpt lat="48.86221" lon="1.7826">
        <ele>154.60000610352</ele>
        <time>2016-06-11T10:22:01.000Z</time>
      </trkpt>
      <trkpt lat="48.86212" lon="1.78242">
        <ele>154.19999694824</ele>
        <time>2016-06-11T10:22:10.000Z</time>
      </trkpt>
      <trkpt lat="48.86202" lon="1.78224">
        <ele>153.39999389648</ele>
        <time>2016-06-11T10:22:19.000Z</time>
      </trkpt>
      <trkpt lat="48.86192" lon="1.78203">
        <ele>152.39999389648</ele>
        <time>2016-06-11T10:22:30.000Z</time>
      </trkpt>
      <trkpt lat="48.86185" lon="1.78189">
        <ele>151.39999389648</ele>
        <time>2016-06-11T10:22:37.000Z</time>
      </trkpt>
      <trkpt lat="48.86182" lon="1.78181">
        <ele>150.80000305176</ele>
        <time>2016-06-11T10:22:41.000Z</time>
      </trkpt>
      <trkpt lat="48.86181" lon="1.78178">
        <ele>150.60000610352</ele>
        <time>2016-06-11T10:22:43.000Z</time>
      </trkpt>
      <trkpt lat="48.86177" lon="1.78169">
        <ele>149.80000305176</ele>
        <time>2016-06-11T10:22:49.000Z</time>
      </trkpt>
      <trkpt lat="48.86176" lon="1.78167">
        <ele>149.80000305176</ele>
        <time>2016-06-11T10:22:50.000Z</time>
      </trkpt>
      <trkpt lat="48.86174" lon="1.78164">
        <ele>149.39999389648</ele>
        <time>2016-06-11T10:22:52.000Z</time>
      </trkpt>
      <trkpt lat="48.86173" lon="1.78159">
        <ele>149.19999694824</ele>
        <time>2016-06-11T10:22:54.000Z</time>
      </trkpt>
      <trkpt lat="48.86166" lon="1.78147">
        <ele>148.80000305176</ele>
        <time>2016-06-11T10:23:01.000Z</time>
      </trkpt>
      <trkpt lat="48.86165" lon="1.78143">
        <ele>148.80000305176</ele>
        <time>2016-06-11T10:23:03.000Z</time>
      </trkpt>
      <trkpt lat="48.86162" lon="1.78137">
        <ele>148.60000610352</ele>
        <time>2016-06-11T10:23:06.000Z</time>
      </trkpt>
      <trkpt lat="48.86161" lon="1.78136">
        <ele>148.60000610352</ele>
        <time>2016-06-11T10:23:07.000Z</time>
      </trkpt>
      <trkpt lat="48.8615" lon="1.78116">
        <ele>148.60000610352</ele>
        <time>2016-06-11T10:23:17.000Z</time>
      </trkpt>
      <trkpt lat="48.86143" lon="1.78101">
        <ele>148</ele>
        <time>2016-06-11T10:23:25.000Z</time>
      </trkpt>
      <trkpt lat="48.86142" lon="1.781">
        <ele>148</ele>
        <time>2016-06-11T10:23:26.000Z</time>
      </trkpt>
      <trkpt lat="48.8614" lon="1.78097">
        <ele>148</ele>
        <time>2016-06-11T10:23:29.000Z</time>
      </trkpt>
      <trkpt lat="48.8614" lon="1.78097">
        <ele>148</ele>
        <time>2016-06-11T10:23:30.000Z</time>
      </trkpt>
      <trkpt lat="48.8613" lon="1.78074">
        <ele>147</ele>
        <time>2016-06-11T10:24:23.000Z</time>
      </trkpt>
      <trkpt lat="48.86127" lon="1.78066">
        <ele>146.80000305176</ele>
        <time>2016-06-11T10:24:27.000Z</time>
      </trkpt>
      <trkpt lat="48.86121" lon="1.78056">
        <ele>146.60000610352</ele>
        <time>2016-06-11T10:24:33.000Z</time>
      </trkpt>
      <trkpt lat="48.8612" lon="1.78053">
        <ele>146.39999389648</ele>
        <time>2016-06-11T10:24:35.000Z</time>
      </trkpt>
      <trkpt lat="48.86116" lon="1.78046">
        <ele>146.39999389648</ele>
        <time>2016-06-11T10:24:39.000Z</time>
      </trkpt>
      <trkpt lat="48.86111" lon="1.78036">
        <ele>146</ele>
        <time>2016-06-11T10:24:45.000Z</time>
      </trkpt>
      <trkpt lat="48.86107" lon="1.78029">
        <ele>146</ele>
        <time>2016-06-11T10:24:49.000Z</time>
      </trkpt>
      <trkpt lat="48.86106" lon="1.78025">
        <ele>145.80000305176</ele>
        <time>2016-06-11T10:24:51.000Z</time>
      </trkpt>
      <trkpt lat="48.861" lon="1.78014">
        <ele>145.19999694824</ele>
        <time>2016-06-11T10:24:58.000Z</time>
      </trkpt>
      <trkpt lat="48.86095" lon="1.78004">
        <ele>144.80000305176</ele>
        <time>2016-06-11T10:25:04.000Z</time>
      </trkpt>
      <trkpt lat="48.86091" lon="1.77999">
        <ele>144.60000610352</ele>
        <time>2016-06-11T10:25:07.000Z</time>
      </trkpt>
      <trkpt lat="48.86089" lon="1.77995">
        <ele>144.39999389648</ele>
        <time>2016-06-11T10:25:09.000Z</time>
      </trkpt>
      <trkpt lat="48.86088" lon="1.77994">
        <ele>144.19999694824</ele>
        <time>2016-06-11T10:25:12.000Z</time>
      </trkpt>
      <trkpt lat="48.86084" lon="1.78">
        <ele>144.60000610352</ele>
        <time>2016-06-11T10:25:21.000Z</time>
      </trkpt>
      <trkpt lat="48.86076" lon="1.77995">
        <ele>144.39999389648</ele>
        <time>2016-06-11T10:25:25.000Z</time>
      </trkpt>
      <trkpt lat="48.86074" lon="1.77993">
        <ele>144.19999694824</ele>
        <time>2016-06-11T10:25:26.000Z</time>
      </trkpt>
      <trkpt lat="48.86072" lon="1.77992">
        <ele>144.19999694824</ele>
        <time>2016-06-11T10:25:28.000Z</time>
      </trkpt>
      <trkpt lat="48.8607" lon="1.77992">
        <ele>144.19999694824</ele>
        <time>2016-06-11T10:25:30.000Z</time>
      </trkpt>
      <trkpt lat="48.86069" lon="1.77991">
        <ele>144.19999694824</ele>
        <time>2016-06-11T10:25:31.000Z</time>
      </trkpt>
      <trkpt lat="48.86066" lon="1.77987">
        <ele>144</ele>
        <time>2016-06-11T10:25:34.000Z</time>
      </trkpt>
      <trkpt lat="48.86063" lon="1.77984">
        <ele>144</ele>
        <time>2016-06-11T10:25:38.000Z</time>
      </trkpt>
      <trkpt lat="48.86059" lon="1.77982">
        <ele>144</ele>
        <time>2016-06-11T10:25:40.000Z</time>
      </trkpt>
      <trkpt lat="48.86053" lon="1.77977">
        <ele>143.80000305176</ele>
        <time>2016-06-11T10:25:45.000Z</time>
      </trkpt>
      <trkpt lat="48.8605" lon="1.77975">
        <ele>143.80000305176</ele>
        <time>2016-06-11T10:25:48.000Z</time>
      </trkpt>
      <trkpt lat="48.86047" lon="1.77971">
        <ele>143.80000305176</ele>
        <time>2016-06-11T10:25:52.000Z</time>
      </trkpt>
      <trkpt lat="48.86042" lon="1.77966">
        <ele>143.80000305176</ele>
        <time>2016-06-11T10:25:57.000Z</time>
      </trkpt>
      <trkpt lat="48.8604" lon="1.77965">
        <ele>143.80000305176</ele>
        <time>2016-06-11T10:26:01.000Z</time>
      </trkpt>
      <trkpt lat="48.86019" lon="1.77938">
        <ele>143.39999389648</ele>
        <time>2016-06-11T10:27:41.000Z</time>
      </trkpt>
      <trkpt lat="48.86018" lon="1.77938">
        <ele>143.39999389648</ele>
        <time>2016-06-11T10:27:42.000Z</time>
      </trkpt>
      <trkpt lat="48.86015" lon="1.77938">
        <ele>143.39999389648</ele>
        <time>2016-06-11T10:27:44.000Z</time>
      </trkpt>
      <trkpt lat="48.86014" lon="1.77939">
        <ele>143.39999389648</ele>
        <time>2016-06-11T10:27:47.000Z</time>
      </trkpt>
      <trkpt lat="48.85982" lon="1.7796">
        <ele>143.39999389648</ele>
        <time>2016-06-11T10:28:46.000Z</time>
      </trkpt>
      <trkpt lat="48.85974" lon="1.77964">
        <ele>143.19999694824</ele>
        <time>2016-06-11T10:28:52.000Z</time>
      </trkpt>
      <trkpt lat="48.8597" lon="1.77968">
        <ele>143</ele>
        <time>2016-06-11T10:28:55.000Z</time>
      </trkpt>
      <trkpt lat="48.85968" lon="1.77969">
        <ele>143</ele>
        <time>2016-06-11T10:28:57.000Z</time>
      </trkpt>
      <trkpt lat="48.85966" lon="1.77971">
        <ele>142.80000305176</ele>
        <time>2016-06-11T10:28:59.000Z</time>
      </trkpt>
      <trkpt lat="48.85965" lon="1.77971">
        <ele>142.80000305176</ele>
        <time>2016-06-11T10:29:01.000Z</time>
      </trkpt>
      <trkpt lat="48.85943" lon="1.77995">
        <ele>141.80000305176</ele>
        <time>2016-06-11T10:30:36.000Z</time>
      </trkpt>
      <trkpt lat="48.85931" lon="1.77997">
        <ele>142</ele>
        <time>2016-06-11T10:30:40.000Z</time>
      </trkpt>
      <trkpt lat="48.85917" lon="1.78003">
        <ele>142.19999694824</ele>
        <time>2016-06-11T10:30:46.000Z</time>
      </trkpt>
      <trkpt lat="48.85911" lon="1.78009">
        <ele>142.19999694824</ele>
        <time>2016-06-11T10:30:51.000Z</time>
      </trkpt>
      <trkpt lat="48.85903" lon="1.78019">
        <ele>142.19999694824</ele>
        <time>2016-06-11T10:30:58.000Z</time>
      </trkpt>
      <trkpt lat="48.85898" lon="1.78025">
        <ele>142.19999694824</ele>
        <time>2016-06-11T10:31:02.000Z</time>
      </trkpt>
      <trkpt lat="48.85895" lon="1.78027">
        <ele>142.19999694824</ele>
        <time>2016-06-11T10:31:04.000Z</time>
      </trkpt>
      <trkpt lat="48.85889" lon="1.78037">
        <ele>141.80000305176</ele>
        <time>2016-06-11T10:31:10.000Z</time>
      </trkpt>
      <trkpt lat="48.85888" lon="1.78039">
        <ele>141.80000305176</ele>
        <time>2016-06-11T10:31:11.000Z</time>
      </trkpt>
      <trkpt lat="48.85881" lon="1.78046">
        <ele>141.60000610352</ele>
        <time>2016-06-11T10:31:17.000Z</time>
      </trkpt>
      <trkpt lat="48.8588" lon="1.78047">
        <ele>141.60000610352</ele>
        <time>2016-06-11T10:31:18.000Z</time>
      </trkpt>
      <trkpt lat="48.85873" lon="1.78057">
        <ele>141.19999694824</ele>
        <time>2016-06-11T10:31:24.000Z</time>
      </trkpt>
      <trkpt lat="48.85867" lon="1.78067">
        <ele>141</ele>
        <time>2016-06-11T10:31:30.000Z</time>
      </trkpt>
      <trkpt lat="48.85861" lon="1.78074">
        <ele>140.80000305176</ele>
        <time>2016-06-11T10:31:36.000Z</time>
      </trkpt>
      <trkpt lat="48.8586" lon="1.78076">
        <ele>140.80000305176</ele>
        <time>2016-06-11T10:31:37.000Z</time>
      </trkpt>
      <trkpt lat="48.85854" lon="1.78083">
        <ele>140.39999389648</ele>
        <time>2016-06-11T10:31:42.000Z</time>
      </trkpt>
      <trkpt lat="48.85849" lon="1.78096">
        <ele>139.80000305176</ele>
        <time>2016-06-11T10:31:48.000Z</time>
      </trkpt>
      <trkpt lat="48.85848" lon="1.78096">
        <ele>139.80000305176</ele>
        <time>2016-06-11T10:31:49.000Z</time>
      </trkpt>
      <trkpt lat="48.85844" lon="1.78102">
        <ele>139.60000610352</ele>
        <time>2016-06-11T10:31:53.000Z</time>
      </trkpt>
      <trkpt lat="48.85837" lon="1.78112">
        <ele>139</ele>
        <time>2016-06-11T10:31:59.000Z</time>
      </trkpt>
      <trkpt lat="48.85829" lon="1.78119">
        <ele>138.80000305176</ele>
        <time>2016-06-11T10:32:06.000Z</time>
      </trkpt>
      <trkpt lat="48.85824" lon="1.78131">
        <ele>138.39999389648</ele>
        <time>2016-06-11T10:32:12.000Z</time>
      </trkpt>
      <trkpt lat="48.85817" lon="1.78139">
        <ele>138.60000610352</ele>
        <time>2016-06-11T10:32:18.000Z</time>
      </trkpt>
      <trkpt lat="48.85811" lon="1.7815">
        <ele>138.60000610352</ele>
        <time>2016-06-11T10:32:24.000Z</time>
      </trkpt>
      <trkpt lat="48.85806" lon="1.78157">
        <ele>138.80000305176</ele>
        <time>2016-06-11T10:32:29.000Z</time>
      </trkpt>
      <trkpt lat="48.85803" lon="1.78162">
        <ele>138.80000305176</ele>
        <time>2016-06-11T10:32:32.000Z</time>
      </trkpt>
      <trkpt lat="48.85802" lon="1.78165">
        <ele>139</ele>
        <time>2016-06-11T10:32:34.000Z</time>
      </trkpt>
      <trkpt lat="48.85801" lon="1.78169">
        <ele>139</ele>
        <time>2016-06-11T10:32:36.000Z</time>
      </trkpt>
      <trkpt lat="48.858" lon="1.7817">
        <ele>139</ele>
        <time>2016-06-11T10:32:37.000Z</time>
      </trkpt>
      <trkpt lat="48.85798" lon="1.78175">
        <ele>139</ele>
        <time>2016-06-11T10:32:40.000Z</time>
      </trkpt>
      <trkpt lat="48.85794" lon="1.78183">
        <ele>139.19999694824</ele>
        <time>2016-06-11T10:32:45.000Z</time>
      </trkpt>
      <trkpt lat="48.85793" lon="1.78187">
        <ele>139.19999694824</ele>
        <time>2016-06-11T10:32:47.000Z</time>
      </trkpt>
      <trkpt lat="48.85789" lon="1.78193">
        <ele>139.19999694824</ele>
        <time>2016-06-11T10:32:51.000Z</time>
      </trkpt>
      <trkpt lat="48.85782" lon="1.78208">
        <ele>139.19999694824</ele>
        <time>2016-06-11T10:32:59.000Z</time>
      </trkpt>
      <trkpt lat="48.85776" lon="1.78216">
        <ele>139.19999694824</ele>
        <time>2016-06-11T10:33:05.000Z</time>
      </trkpt>
      <trkpt lat="48.85775" lon="1.78218">
        <ele>139.19999694824</ele>
        <time>2016-06-11T10:33:08.000Z</time>
      </trkpt>
      <trkpt lat="48.85764" lon="1.78232">
        <ele>138.60000610352</ele>
        <time>2016-06-11T10:33:21.000Z</time>
      </trkpt>
      <trkpt lat="48.85763" lon="1.78233">
        <ele>138.60000610352</ele>
        <time>2016-06-11T10:33:22.000Z</time>
      </trkpt>
      <trkpt lat="48.85756" lon="1.78245">
        <ele>138</ele>
        <time>2016-06-11T10:33:30.000Z</time>
      </trkpt>
      <trkpt lat="48.85753" lon="1.78249">
        <ele>137.60000610352</ele>
        <time>2016-06-11T10:33:33.000Z</time>
      </trkpt>
      <trkpt lat="48.85752" lon="1.78251">
        <ele>137.39999389648</ele>
        <time>2016-06-11T10:33:36.000Z</time>
      </trkpt>
      <trkpt lat="48.85752" lon="1.78252">
        <ele>137.39999389648</ele>
        <time>2016-06-11T10:33:37.000Z</time>
      </trkpt>
      <trkpt lat="48.85737" lon="1.78277">
        <ele>135.39999389648</ele>
        <time>2016-06-11T10:34:42.000Z</time>
      </trkpt>
      <trkpt lat="48.85734" lon="1.7828">
        <ele>135</ele>
        <time>2016-06-11T10:34:45.000Z</time>
      </trkpt>
      <trkpt lat="48.85727" lon="1.78285">
        <ele>134.80000305176</ele>
        <time>2016-06-11T10:34:51.000Z</time>
      </trkpt>
      <trkpt lat="48.85727" lon="1.78286">
        <ele>134.80000305176</ele>
        <time>2016-06-11T10:34:53.000Z</time>
      </trkpt>
      <trkpt lat="48.8572" lon="1.78283">
        <ele>134.80000305176</ele>
        <time>2016-06-11T10:38:00.000Z</time>
      </trkpt>
      <trkpt lat="48.8572" lon="1.78282">
        <ele>134.80000305176</ele>
        <time>2016-06-11T10:38:01.000Z</time>
      </trkpt>
      <trkpt lat="48.85719" lon="1.78282">
        <ele>134.80000305176</ele>
        <time>2016-06-11T10:38:04.000Z</time>
      </trkpt>
      <trkpt lat="48.85701" lon="1.7829">
        <ele>134.19999694824</ele>
        <time>2016-06-11T10:38:41.000Z</time>
      </trkpt>
      <trkpt lat="48.85699" lon="1.78291">
        <ele>134.19999694824</ele>
        <time>2016-06-11T10:38:42.000Z</time>
      </trkpt>
      <trkpt lat="48.85691" lon="1.78296">
        <ele>134</ele>
        <time>2016-06-11T10:38:48.000Z</time>
      </trkpt>
      <trkpt lat="48.85689" lon="1.78297">
        <ele>133.80000305176</ele>
        <time>2016-06-11T10:38:49.000Z</time>
      </trkpt>
      <trkpt lat="48.85683" lon="1.78301">
        <ele>133.19999694824</ele>
        <time>2016-06-11T10:38:54.000Z</time>
      </trkpt>
      <trkpt lat="48.85677" lon="1.78305">
        <ele>132.60000610352</ele>
        <time>2016-06-11T10:38:59.000Z</time>
      </trkpt>
      <trkpt lat="48.85673" lon="1.78305">
        <ele>132.39999389648</ele>
        <time>2016-06-11T10:39:02.000Z</time>
      </trkpt>
      <trkpt lat="48.85669" lon="1.78307">
        <ele>132.19999694824</ele>
        <time>2016-06-11T10:39:05.000Z</time>
      </trkpt>
      <trkpt lat="48.8566" lon="1.7831">
        <ele>132</ele>
        <time>2016-06-11T10:39:12.000Z</time>
      </trkpt>
      <trkpt lat="48.85653" lon="1.78315">
        <ele>131.60000610352</ele>
        <time>2016-06-11T10:39:17.000Z</time>
      </trkpt>
      <trkpt lat="48.8565" lon="1.78317">
        <ele>131.60000610352</ele>
        <time>2016-06-11T10:39:19.000Z</time>
      </trkpt>
      <trkpt lat="48.8564" lon="1.78324">
        <ele>131.19999694824</ele>
        <time>2016-06-11T10:39:26.000Z</time>
      </trkpt>
      <trkpt lat="48.85627" lon="1.78328">
        <ele>130.60000610352</ele>
        <time>2016-06-11T10:39:34.000Z</time>
      </trkpt>
      <trkpt lat="48.85618" lon="1.7833">
        <ele>130.19999694824</ele>
        <time>2016-06-11T10:39:39.000Z</time>
      </trkpt>
      <trkpt lat="48.85606" lon="1.78334">
        <ele>130</ele>
        <time>2016-06-11T10:39:46.000Z</time>
      </trkpt>
      <trkpt lat="48.85598" lon="1.78335">
        <ele>129.60000610352</ele>
        <time>2016-06-11T10:39:53.000Z</time>
      </trkpt>
      <trkpt lat="48.85597" lon="1.78334">
        <ele>129.39999389648</ele>
        <time>2016-06-11T10:39:54.000Z</time>
      </trkpt>
      <trkpt lat="48.85596" lon="1.78334">
        <ele>129.39999389648</ele>
        <time>2016-06-11T10:39:56.000Z</time>
      </trkpt>
      <trkpt lat="48.8559" lon="1.78328">
        <ele>129</ele>
        <time>2016-06-11T10:40:03.000Z</time>
      </trkpt>
      <trkpt lat="48.85589" lon="1.78326">
        <ele>129</ele>
        <time>2016-06-11T10:40:04.000Z</time>
      </trkpt>
      <trkpt lat="48.85581" lon="1.78316">
        <ele>128.60000610352</ele>
        <time>2016-06-11T10:40:11.000Z</time>
      </trkpt>
      <trkpt lat="48.85578" lon="1.78312">
        <ele>128.39999389648</ele>
        <time>2016-06-11T10:40:14.000Z</time>
      </trkpt>
      <trkpt lat="48.85575" lon="1.78314">
        <ele>128.19999694824</ele>
        <time>2016-06-11T10:40:17.000Z</time>
      </trkpt>
      <trkpt lat="48.8557" lon="1.78314">
        <ele>128</ele>
        <time>2016-06-11T10:40:22.000Z</time>
      </trkpt>
      <trkpt lat="48.85567" lon="1.78311">
        <ele>127.80000305176</ele>
        <time>2016-06-11T10:40:25.000Z</time>
      </trkpt>
      <trkpt lat="48.85566" lon="1.78311">
        <ele>127.80000305176</ele>
        <time>2016-06-11T10:40:26.000Z</time>
      </trkpt>
      <trkpt lat="48.85564" lon="1.7831">
        <ele>127.59999847412</ele>
        <time>2016-06-11T10:40:27.000Z</time>
      </trkpt>
      <trkpt lat="48.85558" lon="1.78309">
        <ele>127.19999694824</ele>
        <time>2016-06-11T10:40:31.000Z</time>
      </trkpt>
      <trkpt lat="48.85556" lon="1.78308">
        <ele>127.19999694824</ele>
        <time>2016-06-11T10:40:32.000Z</time>
      </trkpt>
      <trkpt lat="48.85553" lon="1.78303">
        <ele>127</ele>
        <time>2016-06-11T10:40:35.000Z</time>
      </trkpt>
      <trkpt lat="48.85551" lon="1.78301">
        <ele>127</ele>
        <time>2016-06-11T10:40:37.000Z</time>
      </trkpt>
      <trkpt lat="48.85543" lon="1.78298">
        <ele>126.59999847412</ele>
        <time>2016-06-11T10:40:42.000Z</time>
      </trkpt>
      <trkpt lat="48.85542" lon="1.78298">
        <ele>126.40000152588</ele>
        <time>2016-06-11T10:40:43.000Z</time>
      </trkpt>
      <trkpt lat="48.85542" lon="1.78298">
        <ele>126.40000152588</ele>
        <time>2016-06-11T10:40:45.000Z</time>
      </trkpt>
      <trkpt lat="48.85537" lon="1.78297">
        <ele>126.19999694824</ele>
        <time>2016-06-11T10:40:51.000Z</time>
      </trkpt>
      <trkpt lat="48.85535" lon="1.78296">
        <ele>126</ele>
        <time>2016-06-11T10:40:52.000Z</time>
      </trkpt>
      <trkpt lat="48.85524" lon="1.78293">
        <ele>125.40000152588</ele>
        <time>2016-06-11T10:40:59.000Z</time>
      </trkpt>
      <trkpt lat="48.85515" lon="1.7829">
        <ele>125.40000152588</ele>
        <time>2016-06-11T10:41:04.000Z</time>
      </trkpt>
      <trkpt lat="48.85507" lon="1.78288">
        <ele>125.40000152588</ele>
        <time>2016-06-11T10:41:09.000Z</time>
      </trkpt>
      <trkpt lat="48.85504" lon="1.78287">
        <ele>125.40000152588</ele>
        <time>2016-06-11T10:41:13.000Z</time>
      </trkpt>
      <trkpt lat="48.85497" lon="1.78285">
        <ele>125.40000152588</ele>
        <time>2016-06-11T10:41:20.000Z</time>
      </trkpt>
      <trkpt lat="48.85485" lon="1.78281">
        <ele>125.40000152588</ele>
        <time>2016-06-11T10:41:27.000Z</time>
      </trkpt>
      <trkpt lat="48.85477" lon="1.78278">
        <ele>125.40000152588</ele>
        <time>2016-06-11T10:41:32.000Z</time>
      </trkpt>
      <trkpt lat="48.85466" lon="1.78275">
        <ele>125.40000152588</ele>
        <time>2016-06-11T10:41:38.000Z</time>
      </trkpt>
      <trkpt lat="48.85453" lon="1.78271">
        <ele>125.40000152588</ele>
        <time>2016-06-11T10:41:46.000Z</time>
      </trkpt>
      <trkpt lat="48.85443" lon="1.78267">
        <ele>125.40000152588</ele>
        <time>2016-06-11T10:41:54.000Z</time>
      </trkpt>
      <trkpt lat="48.85443" lon="1.78267">
        <ele>125.40000152588</ele>
        <time>2016-06-11T10:41:55.000Z</time>
      </trkpt>
      <trkpt lat="48.85429" lon="1.78267">
        <ele>125.59999847412</ele>
        <time>2016-06-11T10:42:17.000Z</time>
      </trkpt>
      <trkpt lat="48.85425" lon="1.78268">
        <ele>125.80000305176</ele>
        <time>2016-06-11T10:42:20.000Z</time>
      </trkpt>
      <trkpt lat="48.85415" lon="1.7828">
        <ele>125.80000305176</ele>
        <time>2016-06-11T10:42:28.000Z</time>
      </trkpt>
      <trkpt lat="48.85404" lon="1.78299">
        <ele>125.40000152588</ele>
        <time>2016-06-11T10:42:38.000Z</time>
      </trkpt>
      <trkpt lat="48.85391" lon="1.78315">
        <ele>124.40000152588</ele>
        <time>2016-06-11T10:42:48.000Z</time>
      </trkpt>
      <trkpt lat="48.85376" lon="1.78331">
        <ele>124.19999694824</ele>
        <time>2016-06-11T10:42:59.000Z</time>
      </trkpt>
      <trkpt lat="48.85362" lon="1.78344">
        <ele>124.19999694824</ele>
        <time>2016-06-11T10:43:09.000Z</time>
      </trkpt>
      <trkpt lat="48.85354" lon="1.78351">
        <ele>124</ele>
        <time>2016-06-11T10:43:17.000Z</time>
      </trkpt>
      <trkpt lat="48.85353" lon="1.78351">
        <ele>124</ele>
        <time>2016-06-11T10:43:18.000Z</time>
      </trkpt>
      <trkpt lat="48.85352" lon="1.78327">
        <ele>124.19999694824</ele>
        <time>2016-06-11T10:43:33.000Z</time>
      </trkpt>
      <trkpt lat="48.85352" lon="1.78321">
        <ele>124.19999694824</ele>
        <time>2016-06-11T10:43:35.000Z</time>
      </trkpt>
      <trkpt lat="48.85352" lon="1.78302">
        <ele>125.19999694824</ele>
        <time>2016-06-11T10:43:42.000Z</time>
      </trkpt>
      <trkpt lat="48.85352" lon="1.78297">
        <ele>125.59999847412</ele>
        <time>2016-06-11T10:43:45.000Z</time>
      </trkpt>
      <trkpt lat="48.85352" lon="1.78296">
        <ele>125.59999847412</ele>
        <time>2016-06-11T10:43:47.000Z</time>
      </trkpt>
      <trkpt lat="48.8535" lon="1.7828">
        <ele>126.59999847412</ele>
        <time>2016-06-11T10:44:18.000Z</time>
      </trkpt>
      <trkpt lat="48.85349" lon="1.78274">
        <ele>126.80000305176</ele>
        <time>2016-06-11T10:44:21.000Z</time>
      </trkpt>
      <trkpt lat="48.85347" lon="1.78265">
        <ele>127.40000152588</ele>
        <time>2016-06-11T10:44:26.000Z</time>
      </trkpt>
      <trkpt lat="48.85346" lon="1.78263">
        <ele>127.59999847412</ele>
        <time>2016-06-11T10:44:28.000Z</time>
      </trkpt>
      <trkpt lat="48.85345" lon="1.78262">
        <ele>127.80000305176</ele>
        <time>2016-06-11T10:44:30.000Z</time>
      </trkpt>
      <trkpt lat="48.85345" lon="1.78261">
        <ele>127.80000305176</ele>
        <time>2016-06-11T10:44:31.000Z</time>
      </trkpt>
      <trkpt lat="48.85344" lon="1.78261">
        <ele>127.80000305176</ele>
        <time>2016-06-11T10:44:32.000Z</time>
      </trkpt>
      <trkpt lat="48.85342" lon="1.78261">
        <ele>127.80000305176</ele>
        <time>2016-06-11T12:00:13.000Z</time>
      </trkpt>
      <trkpt lat="48.85342" lon="1.78263">
        <ele>127.59999847412</ele>
        <time>2016-06-11T12:00:15.000Z</time>
      </trkpt>
      <trkpt lat="48.85342" lon="1.78266">
        <ele>127.40000152588</ele>
        <time>2016-06-11T12:00:17.000Z</time>
      </trkpt>
      <trkpt lat="48.85342" lon="1.78278">
        <ele>126.80000305176</ele>
        <time>2016-06-11T12:00:24.000Z</time>
      </trkpt>
      <trkpt lat="48.85341" lon="1.78296">
        <ele>125.80000305176</ele>
        <time>2016-06-11T12:00:34.000Z</time>
      </trkpt>
      <trkpt lat="48.85338" lon="1.78313">
        <ele>125</ele>
        <time>2016-06-11T12:00:43.000Z</time>
      </trkpt>
      <trkpt lat="48.85336" lon="1.78331">
        <ele>124.80000305176</ele>
        <time>2016-06-11T12:00:52.000Z</time>
      </trkpt>
      <trkpt lat="48.85334" lon="1.78336">
        <ele>124.80000305176</ele>
        <time>2016-06-11T12:00:56.000Z</time>
      </trkpt>
      <trkpt lat="48.85332" lon="1.78337">
        <ele>124.80000305176</ele>
        <time>2016-06-11T12:00:58.000Z</time>
      </trkpt>
      <trkpt lat="48.85328" lon="1.78337">
        <ele>125</ele>
        <time>2016-06-11T12:01:01.000Z</time>
      </trkpt>
      <trkpt lat="48.85323" lon="1.78334">
        <ele>125.19999694824</ele>
        <time>2016-06-11T12:01:05.000Z</time>
      </trkpt>
      <trkpt lat="48.85312" lon="1.78326">
        <ele>125.59999847412</ele>
        <time>2016-06-11T12:01:15.000Z</time>
      </trkpt>
      <trkpt lat="48.85308" lon="1.78323">
        <ele>125.80000305176</ele>
        <time>2016-06-11T12:01:20.000Z</time>
      </trkpt>
      <trkpt lat="48.85305" lon="1.7832">
        <ele>125.80000305176</ele>
        <time>2016-06-11T12:01:22.000Z</time>
      </trkpt>
      <trkpt lat="48.85302" lon="1.78317">
        <ele>126</ele>
        <time>2016-06-11T12:01:25.000Z</time>
      </trkpt>
      <trkpt lat="48.85299" lon="1.78314">
        <ele>126.40000152588</ele>
        <time>2016-06-11T12:01:28.000Z</time>
      </trkpt>
      <trkpt lat="48.85295" lon="1.78312">
        <ele>126.59999847412</ele>
        <time>2016-06-11T12:01:34.000Z</time>
      </trkpt>
      <trkpt lat="48.85282" lon="1.7832">
        <ele>126.80000305176</ele>
        <time>2016-06-11T12:02:14.000Z</time>
      </trkpt>
      <trkpt lat="48.85271" lon="1.78315">
        <ele>127.19999694824</ele>
        <time>2016-06-11T12:02:23.000Z</time>
      </trkpt>
      <trkpt lat="48.85264" lon="1.78312">
        <ele>127.19999694824</ele>
        <time>2016-06-11T12:02:30.000Z</time>
      </trkpt>
      <trkpt lat="48.85259" lon="1.78312">
        <ele>127.40000152588</ele>
        <time>2016-06-11T12:02:34.000Z</time>
      </trkpt>
      <trkpt lat="48.85258" lon="1.78313">
        <ele>127.40000152588</ele>
        <time>2016-06-11T12:02:35.000Z</time>
      </trkpt>
      <trkpt lat="48.85255" lon="1.78316">
        <ele>127.40000152588</ele>
        <time>2016-06-11T12:02:38.000Z</time>
      </trkpt>
      <trkpt lat="48.85252" lon="1.78324">
        <ele>127.40000152588</ele>
        <time>2016-06-11T12:02:42.000Z</time>
      </trkpt>
      <trkpt lat="48.8525" lon="1.7833">
        <ele>127.59999847412</ele>
        <time>2016-06-11T12:02:46.000Z</time>
      </trkpt>
      <trkpt lat="48.85247" lon="1.78341">
        <ele>127.59999847412</ele>
        <time>2016-06-11T12:02:52.000Z</time>
      </trkpt>
      <trkpt lat="48.85247" lon="1.7835">
        <ele>127.59999847412</ele>
        <time>2016-06-11T12:02:57.000Z</time>
      </trkpt>
      <trkpt lat="48.85245" lon="1.78359">
        <ele>127.59999847412</ele>
        <time>2016-06-11T12:03:02.000Z</time>
      </trkpt>
      <trkpt lat="48.85245" lon="1.7836">
        <ele>127.59999847412</ele>
        <time>2016-06-11T12:03:03.000Z</time>
      </trkpt>
      <trkpt lat="48.85245" lon="1.78366">
        <ele>127.59999847412</ele>
        <time>2016-06-11T12:03:07.000Z</time>
      </trkpt>
      <trkpt lat="48.85244" lon="1.78368">
        <ele>127.59999847412</ele>
        <time>2016-06-11T12:03:08.000Z</time>
      </trkpt>
      <trkpt lat="48.85241" lon="1.78374">
        <ele>127.80000305176</ele>
        <time>2016-06-11T12:03:11.000Z</time>
      </trkpt>
      <trkpt lat="48.8524" lon="1.78379">
        <ele>128</ele>
        <time>2016-06-11T12:03:14.000Z</time>
      </trkpt>
      <trkpt lat="48.85238" lon="1.78381">
        <ele>128.19999694824</ele>
        <time>2016-06-11T12:03:15.000Z</time>
      </trkpt>
      <trkpt lat="48.85234" lon="1.78387">
        <ele>128.60000610352</ele>
        <time>2016-06-11T12:03:19.000Z</time>
      </trkpt>
      <trkpt lat="48.85232" lon="1.78389">
        <ele>128.80000305176</ele>
        <time>2016-06-11T12:03:21.000Z</time>
      </trkpt>
      <trkpt lat="48.85229" lon="1.78393">
        <ele>129.19999694824</ele>
        <time>2016-06-11T12:03:24.000Z</time>
      </trkpt>
      <trkpt lat="48.85228" lon="1.78395">
        <ele>129.19999694824</ele>
        <time>2016-06-11T12:03:25.000Z</time>
      </trkpt>
      <trkpt lat="48.85224" lon="1.78405">
        <ele>129.80000305176</ele>
        <time>2016-06-11T12:03:30.000Z</time>
      </trkpt>
      <trkpt lat="48.85223" lon="1.78407">
        <ele>130</ele>
        <time>2016-06-11T12:03:31.000Z</time>
      </trkpt>
      <trkpt lat="48.85222" lon="1.78412">
        <ele>130.19999694824</ele>
        <time>2016-06-11T12:03:34.000Z</time>
      </trkpt>
      <trkpt lat="48.85221" lon="1.78414">
        <ele>130.19999694824</ele>
        <time>2016-06-11T12:03:35.000Z</time>
      </trkpt>
      <trkpt lat="48.85217" lon="1.78424">
        <ele>130.80000305176</ele>
        <time>2016-06-11T12:03:41.000Z</time>
      </trkpt>
      <trkpt lat="48.85215" lon="1.78429">
        <ele>131</ele>
        <time>2016-06-11T12:03:45.000Z</time>
      </trkpt>
      <trkpt lat="48.85215" lon="1.78429">
        <ele>131</ele>
        <time>2016-06-11T12:03:47.000Z</time>
      </trkpt>
      <trkpt lat="48.85196" lon="1.78504">
        <ele>131.60000610352</ele>
        <time>2016-06-11T12:04:58.000Z</time>
      </trkpt>
      <trkpt lat="48.85195" lon="1.78506">
        <ele>131.60000610352</ele>
        <time>2016-06-11T12:04:59.000Z</time>
      </trkpt>
      <trkpt lat="48.85191" lon="1.78516">
        <ele>131.39999389648</ele>
        <time>2016-06-11T12:05:04.000Z</time>
      </trkpt>
      <trkpt lat="48.8519" lon="1.78519">
        <ele>131.19999694824</ele>
        <time>2016-06-11T12:05:06.000Z</time>
      </trkpt>
      <trkpt lat="48.85187" lon="1.78526">
        <ele>131.19999694824</ele>
        <time>2016-06-11T12:05:09.000Z</time>
      </trkpt>
      <trkpt lat="48.85185" lon="1.78535">
        <ele>131</ele>
        <time>2016-06-11T12:05:14.000Z</time>
      </trkpt>
      <trkpt lat="48.85184" lon="1.78538">
        <ele>130.80000305176</ele>
        <time>2016-06-11T12:05:16.000Z</time>
      </trkpt>
      <trkpt lat="48.85182" lon="1.78544">
        <ele>130.80000305176</ele>
        <time>2016-06-11T12:05:19.000Z</time>
      </trkpt>
      <trkpt lat="48.85179" lon="1.78555">
        <ele>130.60000610352</ele>
        <time>2016-06-11T12:05:25.000Z</time>
      </trkpt>
      <trkpt lat="48.85178" lon="1.7856">
        <ele>130.39999389648</ele>
        <time>2016-06-11T12:05:29.000Z</time>
      </trkpt>
      <trkpt lat="48.85177" lon="1.78564">
        <ele>130.19999694824</ele>
        <time>2016-06-11T12:05:32.000Z</time>
      </trkpt>
      <trkpt lat="48.85177" lon="1.78565">
        <ele>130.19999694824</ele>
        <time>2016-06-11T12:05:33.000Z</time>
      </trkpt>
      <trkpt lat="48.85175" lon="1.78568">
        <ele>130.19999694824</ele>
        <time>2016-06-11T12:05:35.000Z</time>
      </trkpt>
      <trkpt lat="48.8517" lon="1.78577">
        <ele>130</ele>
        <time>2016-06-11T12:05:40.000Z</time>
      </trkpt>
      <trkpt lat="48.85169" lon="1.78578">
        <ele>130</ele>
        <time>2016-06-11T12:05:41.000Z</time>
      </trkpt>
      <trkpt lat="48.85169" lon="1.7858">
        <ele>130</ele>
        <time>2016-06-11T12:05:42.000Z</time>
      </trkpt>
      <trkpt lat="48.8517" lon="1.78581">
        <ele>129.80000305176</ele>
        <time>2016-06-11T12:05:43.000Z</time>
      </trkpt>
      <trkpt lat="48.85168" lon="1.78591">
        <ele>129.80000305176</ele>
        <time>2016-06-11T12:05:48.000Z</time>
      </trkpt>
      <trkpt lat="48.85166" lon="1.78594">
        <ele>129.80000305176</ele>
        <time>2016-06-11T12:05:50.000Z</time>
      </trkpt>
      <trkpt lat="48.85165" lon="1.78598">
        <ele>129.60000610352</ele>
        <time>2016-06-11T12:05:52.000Z</time>
      </trkpt>
      <trkpt lat="48.85163" lon="1.78603">
        <ele>129.60000610352</ele>
        <time>2016-06-11T12:05:54.000Z</time>
      </trkpt>
      <trkpt lat="48.8516" lon="1.78612">
        <ele>129.60000610352</ele>
        <time>2016-06-11T12:05:59.000Z</time>
      </trkpt>
      <trkpt lat="48.85159" lon="1.78614">
        <ele>129.39999389648</ele>
        <time>2016-06-11T12:06:01.000Z</time>
      </trkpt>
      <trkpt lat="48.85158" lon="1.78614">
        <ele>129.39999389648</ele>
        <time>2016-06-11T12:06:02.000Z</time>
      </trkpt>
      <trkpt lat="48.85156" lon="1.78614">
        <ele>129.39999389648</ele>
        <time>2016-06-11T12:06:03.000Z</time>
      </trkpt>
      <trkpt lat="48.85148" lon="1.78615">
        <ele>129.39999389648</ele>
        <time>2016-06-11T12:06:08.000Z</time>
      </trkpt>
      <trkpt lat="48.85146" lon="1.78614">
        <ele>129.39999389648</ele>
        <time>2016-06-11T12:06:09.000Z</time>
      </trkpt>
      <trkpt lat="48.85141" lon="1.78614">
        <ele>129.39999389648</ele>
        <time>2016-06-11T12:06:12.000Z</time>
      </trkpt>
      <trkpt lat="48.85136" lon="1.78612">
        <ele>129.60000610352</ele>
        <time>2016-06-11T12:06:17.000Z</time>
      </trkpt>
      <trkpt lat="48.85134" lon="1.78605">
        <ele>129.60000610352</ele>
        <time>2016-06-11T12:06:22.000Z</time>
      </trkpt>
      <trkpt lat="48.85131" lon="1.78599">
        <ele>129.60000610352</ele>
        <time>2016-06-11T12:06:27.000Z</time>
      </trkpt>
      <trkpt lat="48.8513" lon="1.78598">
        <ele>129.60000610352</ele>
        <time>2016-06-11T12:06:28.000Z</time>
      </trkpt>
      <trkpt lat="48.85124" lon="1.78595">
        <ele>129.80000305176</ele>
        <time>2016-06-11T12:06:33.000Z</time>
      </trkpt>
      <trkpt lat="48.85116" lon="1.78596">
        <ele>129.80000305176</ele>
        <time>2016-06-11T12:06:40.000Z</time>
      </trkpt>
      <trkpt lat="48.85115" lon="1.78604">
        <ele>129.60000610352</ele>
        <time>2016-06-11T12:06:45.000Z</time>
      </trkpt>
      <trkpt lat="48.85113" lon="1.78609">
        <ele>129.60000610352</ele>
        <time>2016-06-11T12:06:48.000Z</time>
      </trkpt>
      <trkpt lat="48.85113" lon="1.78609">
        <ele>129.60000610352</ele>
        <time>2016-06-11T12:06:49.000Z</time>
      </trkpt>
      <trkpt lat="48.85113" lon="1.78613">
        <ele>129.60000610352</ele>
        <time>2016-06-11T12:06:51.000Z</time>
      </trkpt>
      <trkpt lat="48.85113" lon="1.78615">
        <ele>129.39999389648</ele>
        <time>2016-06-11T12:06:53.000Z</time>
      </trkpt>
      <trkpt lat="48.85111" lon="1.7862">
        <ele>129.39999389648</ele>
        <time>2016-06-11T12:06:56.000Z</time>
      </trkpt>
      <trkpt lat="48.85111" lon="1.78621">
        <ele>129.39999389648</ele>
        <time>2016-06-11T12:06:57.000Z</time>
      </trkpt>
      <trkpt lat="48.85108" lon="1.78629">
        <ele>129.39999389648</ele>
        <time>2016-06-11T12:07:02.000Z</time>
      </trkpt>
      <trkpt lat="48.85107" lon="1.78632">
        <ele>129.19999694824</ele>
        <time>2016-06-11T12:07:04.000Z</time>
      </trkpt>
      <trkpt lat="48.85108" lon="1.78634">
        <ele>129.19999694824</ele>
        <time>2016-06-11T12:07:05.000Z</time>
      </trkpt>
      <trkpt lat="48.85107" lon="1.78637">
        <ele>129.19999694824</ele>
        <time>2016-06-11T12:07:07.000Z</time>
      </trkpt>
      <trkpt lat="48.85108" lon="1.78645">
        <ele>129.19999694824</ele>
        <time>2016-06-11T12:07:11.000Z</time>
      </trkpt>
      <trkpt lat="48.85108" lon="1.78655">
        <ele>129</ele>
        <time>2016-06-11T12:07:16.000Z</time>
      </trkpt>
      <trkpt lat="48.85107" lon="1.78666">
        <ele>129.39999389648</ele>
        <time>2016-06-11T12:07:21.000Z</time>
      </trkpt>
      <trkpt lat="48.85108" lon="1.78675">
        <ele>129.80000305176</ele>
        <time>2016-06-11T12:07:25.000Z</time>
      </trkpt>
      <trkpt lat="48.85108" lon="1.78681">
        <ele>130</ele>
        <time>2016-06-11T12:07:28.000Z</time>
      </trkpt>
      <trkpt lat="48.85109" lon="1.78682">
        <ele>130</ele>
        <time>2016-06-11T12:07:29.000Z</time>
      </trkpt>
      <trkpt lat="48.85109" lon="1.78685">
        <ele>130</ele>
        <time>2016-06-11T12:07:31.000Z</time>
      </trkpt>
      <trkpt lat="48.85111" lon="1.78696">
        <ele>130.39999389648</ele>
        <time>2016-06-11T12:07:37.000Z</time>
      </trkpt>
      <trkpt lat="48.8511" lon="1.78704">
        <ele>130.80000305176</ele>
        <time>2016-06-11T12:07:41.000Z</time>
      </trkpt>
      <trkpt lat="48.85111" lon="1.78705">
        <ele>130.80000305176</ele>
        <time>2016-06-11T12:07:42.000Z</time>
      </trkpt>
      <trkpt lat="48.85111" lon="1.78709">
        <ele>130.80000305176</ele>
        <time>2016-06-11T12:07:45.000Z</time>
      </trkpt>
      <trkpt lat="48.85112" lon="1.78713">
        <ele>131</ele>
        <time>2016-06-11T12:07:48.000Z</time>
      </trkpt>
      <trkpt lat="48.85113" lon="1.7872">
        <ele>131.19999694824</ele>
        <time>2016-06-11T12:07:52.000Z</time>
      </trkpt>
      <trkpt lat="48.85111" lon="1.78729">
        <ele>131.60000610352</ele>
        <time>2016-06-11T12:07:56.000Z</time>
      </trkpt>
      <trkpt lat="48.85112" lon="1.78738">
        <ele>132</ele>
        <time>2016-06-11T12:08:01.000Z</time>
      </trkpt>
      <trkpt lat="48.85112" lon="1.78748">
        <ele>131.60000610352</ele>
        <time>2016-06-11T12:08:07.000Z</time>
      </trkpt>
      <trkpt lat="48.85112" lon="1.78753">
        <ele>131.60000610352</ele>
        <time>2016-06-11T12:08:10.000Z</time>
      </trkpt>
      <trkpt lat="48.85112" lon="1.78754">
        <ele>131.60000610352</ele>
        <time>2016-06-11T12:08:11.000Z</time>
      </trkpt>
      <trkpt lat="48.85111" lon="1.78761">
        <ele>131.39999389648</ele>
        <time>2016-06-11T12:08:14.000Z</time>
      </trkpt>
      <trkpt lat="48.85111" lon="1.78768">
        <ele>131.19999694824</ele>
        <time>2016-06-11T12:08:18.000Z</time>
      </trkpt>
      <trkpt lat="48.85111" lon="1.78771">
        <ele>131.19999694824</ele>
        <time>2016-06-11T12:08:19.000Z</time>
      </trkpt>
      <trkpt lat="48.85113" lon="1.78776">
        <ele>131</ele>
        <time>2016-06-11T12:08:22.000Z</time>
      </trkpt>
      <trkpt lat="48.85113" lon="1.78781">
        <ele>130.80000305176</ele>
        <time>2016-06-11T12:08:24.000Z</time>
      </trkpt>
      <trkpt lat="48.85114" lon="1.7879">
        <ele>130.60000610352</ele>
        <time>2016-06-11T12:08:28.000Z</time>
      </trkpt>
      <trkpt lat="48.85115" lon="1.78792">
        <ele>130.60000610352</ele>
        <time>2016-06-11T12:08:29.000Z</time>
      </trkpt>
      <trkpt lat="48.85114" lon="1.78794">
        <ele>130.60000610352</ele>
        <time>2016-06-11T12:08:30.000Z</time>
      </trkpt>
      <trkpt lat="48.85113" lon="1.788">
        <ele>130.39999389648</ele>
        <time>2016-06-11T12:08:33.000Z</time>
      </trkpt>
      <trkpt lat="48.85112" lon="1.78808">
        <ele>130.19999694824</ele>
        <time>2016-06-11T12:08:37.000Z</time>
      </trkpt>
      <trkpt lat="48.8511" lon="1.78818">
        <ele>130</ele>
        <time>2016-06-11T12:08:42.000Z</time>
      </trkpt>
      <trkpt lat="48.8511" lon="1.78831">
        <ele>129.80000305176</ele>
        <time>2016-06-11T12:08:47.000Z</time>
      </trkpt>
      <trkpt lat="48.8511" lon="1.78836">
        <ele>129.60000610352</ele>
        <time>2016-06-11T12:08:49.000Z</time>
      </trkpt>
      <trkpt lat="48.85112" lon="1.78841">
        <ele>129.39999389648</ele>
        <time>2016-06-11T12:08:52.000Z</time>
      </trkpt>
      <trkpt lat="48.85112" lon="1.78843">
        <ele>129.39999389648</ele>
        <time>2016-06-11T12:08:53.000Z</time>
      </trkpt>
      <trkpt lat="48.8511" lon="1.78854">
        <ele>129.19999694824</ele>
        <time>2016-06-11T12:08:58.000Z</time>
      </trkpt>
      <trkpt lat="48.8511" lon="1.78864">
        <ele>129</ele>
        <time>2016-06-11T12:09:03.000Z</time>
      </trkpt>
      <trkpt lat="48.85109" lon="1.78871">
        <ele>128.80000305176</ele>
        <time>2016-06-11T12:09:06.000Z</time>
      </trkpt>
      <trkpt lat="48.85111" lon="1.78874">
        <ele>128.60000610352</ele>
        <time>2016-06-11T12:09:08.000Z</time>
      </trkpt>
      <trkpt lat="48.85111" lon="1.78876">
        <ele>128.60000610352</ele>
        <time>2016-06-11T12:09:09.000Z</time>
      </trkpt>
      <trkpt lat="48.85111" lon="1.78886">
        <ele>128.39999389648</ele>
        <time>2016-06-11T12:09:14.000Z</time>
      </trkpt>
      <trkpt lat="48.85111" lon="1.7889">
        <ele>128.19999694824</ele>
        <time>2016-06-11T12:09:16.000Z</time>
      </trkpt>
      <trkpt lat="48.85113" lon="1.78894">
        <ele>128.19999694824</ele>
        <time>2016-06-11T12:09:18.000Z</time>
      </trkpt>
      <trkpt lat="48.85115" lon="1.78897">
        <ele>128</ele>
        <time>2016-06-11T12:09:20.000Z</time>
      </trkpt>
      <trkpt lat="48.85115" lon="1.78901">
        <ele>128</ele>
        <time>2016-06-11T12:09:22.000Z</time>
      </trkpt>
      <trkpt lat="48.85115" lon="1.78907">
        <ele>128</ele>
        <time>2016-06-11T12:09:25.000Z</time>
      </trkpt>
      <trkpt lat="48.85116" lon="1.78914">
        <ele>128</ele>
        <time>2016-06-11T12:09:28.000Z</time>
      </trkpt>
      <trkpt lat="48.85118" lon="1.78919">
        <ele>128</ele>
        <time>2016-06-11T12:09:31.000Z</time>
      </trkpt>
      <trkpt lat="48.85123" lon="1.78928">
        <ele>128</ele>
        <time>2016-06-11T12:09:37.000Z</time>
      </trkpt>
      <trkpt lat="48.85125" lon="1.78936">
        <ele>128</ele>
        <time>2016-06-11T12:09:40.000Z</time>
      </trkpt>
      <trkpt lat="48.85126" lon="1.78937">
        <ele>128</ele>
        <time>2016-06-11T12:09:41.000Z</time>
      </trkpt>
      <trkpt lat="48.8513" lon="1.78942">
        <ele>128</ele>
        <time>2016-06-11T12:09:46.000Z</time>
      </trkpt>
      <trkpt lat="48.85131" lon="1.78946">
        <ele>128</ele>
        <time>2016-06-11T12:09:48.000Z</time>
      </trkpt>
      <trkpt lat="48.85132" lon="1.78948">
        <ele>128</ele>
        <time>2016-06-11T12:09:50.000Z</time>
      </trkpt>
      <trkpt lat="48.85133" lon="1.78951">
        <ele>128</ele>
        <time>2016-06-11T12:09:52.000Z</time>
      </trkpt>
      <trkpt lat="48.85135" lon="1.78954">
        <ele>128</ele>
        <time>2016-06-11T12:09:56.000Z</time>
      </trkpt>
      <trkpt lat="48.85137" lon="1.78957">
        <ele>128</ele>
        <time>2016-06-11T12:09:58.000Z</time>
      </trkpt>
      <trkpt lat="48.85138" lon="1.78959">
        <ele>128</ele>
        <time>2016-06-11T12:10:00.000Z</time>
      </trkpt>
      <trkpt lat="48.85138" lon="1.78962">
        <ele>128</ele>
        <time>2016-06-11T12:10:03.000Z</time>
      </trkpt>
      <trkpt lat="48.85138" lon="1.78964">
        <ele>128</ele>
        <time>2016-06-11T12:10:05.000Z</time>
      </trkpt>
      <trkpt lat="48.8514" lon="1.78967">
        <ele>128</ele>
        <time>2016-06-11T12:10:08.000Z</time>
      </trkpt>
      <trkpt lat="48.85142" lon="1.78972">
        <ele>128</ele>
        <time>2016-06-11T12:10:11.000Z</time>
      </trkpt>
      <trkpt lat="48.85141" lon="1.78973">
        <ele>128</ele>
        <time>2016-06-11T12:10:12.000Z</time>
      </trkpt>
      <trkpt lat="48.85142" lon="1.78976">
        <ele>128</ele>
        <time>2016-06-11T12:10:16.000Z</time>
      </trkpt>
      <trkpt lat="48.85142" lon="1.78978">
        <ele>128</ele>
        <time>2016-06-11T12:10:18.000Z</time>
      </trkpt>
      <trkpt lat="48.85143" lon="1.7898">
        <ele>128</ele>
        <time>2016-06-11T12:10:19.000Z</time>
      </trkpt>
      <trkpt lat="48.85143" lon="1.78983">
        <ele>128</ele>
        <time>2016-06-11T12:10:21.000Z</time>
      </trkpt>
      <trkpt lat="48.85147" lon="1.78993">
        <ele>128</ele>
        <time>2016-06-11T12:10:28.000Z</time>
      </trkpt>
      <trkpt lat="48.85148" lon="1.78994">
        <ele>128</ele>
        <time>2016-06-11T12:10:29.000Z</time>
      </trkpt>
      <trkpt lat="48.85149" lon="1.79001">
        <ele>127.80000305176</ele>
        <time>2016-06-11T12:10:33.000Z</time>
      </trkpt>
      <trkpt lat="48.85151" lon="1.7901">
        <ele>127.80000305176</ele>
        <time>2016-06-11T12:10:37.000Z</time>
      </trkpt>
      <trkpt lat="48.85153" lon="1.79015">
        <ele>127.59999847412</ele>
        <time>2016-06-11T12:10:41.000Z</time>
      </trkpt>
      <trkpt lat="48.85154" lon="1.79021">
        <ele>127.59999847412</ele>
        <time>2016-06-11T12:10:44.000Z</time>
      </trkpt>
      <trkpt lat="48.85155" lon="1.79024">
        <ele>127.59999847412</ele>
        <time>2016-06-11T12:10:46.000Z</time>
      </trkpt>
      <trkpt lat="48.85156" lon="1.79034">
        <ele>127.40000152588</ele>
        <time>2016-06-11T12:10:51.000Z</time>
      </trkpt>
      <trkpt lat="48.85158" lon="1.79041">
        <ele>127.40000152588</ele>
        <time>2016-06-11T12:10:55.000Z</time>
      </trkpt>
      <trkpt lat="48.85158" lon="1.79042">
        <ele>127.40000152588</ele>
        <time>2016-06-11T12:10:56.000Z</time>
      </trkpt>
      <trkpt lat="48.8516" lon="1.79047">
        <ele>127.40000152588</ele>
        <time>2016-06-11T12:10:59.000Z</time>
      </trkpt>
      <trkpt lat="48.85162" lon="1.79054">
        <ele>127.40000152588</ele>
        <time>2016-06-11T12:11:03.000Z</time>
      </trkpt>
      <trkpt lat="48.85163" lon="1.79058">
        <ele>127.40000152588</ele>
        <time>2016-06-11T12:11:05.000Z</time>
      </trkpt>
      <trkpt lat="48.85165" lon="1.79067">
        <ele>127.19999694824</ele>
        <time>2016-06-11T12:11:11.000Z</time>
      </trkpt>
      <trkpt lat="48.85168" lon="1.79076">
        <ele>127.40000152588</ele>
        <time>2016-06-11T12:11:17.000Z</time>
      </trkpt>
      <trkpt lat="48.85168" lon="1.79081">
        <ele>127.40000152588</ele>
        <time>2016-06-11T12:11:19.000Z</time>
      </trkpt>
      <trkpt lat="48.85169" lon="1.79082">
        <ele>127.40000152588</ele>
        <time>2016-06-11T12:11:20.000Z</time>
      </trkpt>
      <trkpt lat="48.85168" lon="1.79087">
        <ele>127.59999847412</ele>
        <time>2016-06-11T12:11:22.000Z</time>
      </trkpt>
      <trkpt lat="48.85166" lon="1.79096">
        <ele>127.80000305176</ele>
        <time>2016-06-11T12:11:27.000Z</time>
      </trkpt>
      <trkpt lat="48.85164" lon="1.79108">
        <ele>128.19999694824</ele>
        <time>2016-06-11T12:11:32.000Z</time>
      </trkpt>
      <trkpt lat="48.85163" lon="1.79116">
        <ele>128.39999389648</ele>
        <time>2016-06-11T12:11:36.000Z</time>
      </trkpt>
      <trkpt lat="48.85159" lon="1.79124">
        <ele>128.60000610352</ele>
        <time>2016-06-11T12:11:40.000Z</time>
      </trkpt>
      <trkpt lat="48.85159" lon="1.79126">
        <ele>128.60000610352</ele>
        <time>2016-06-11T12:11:41.000Z</time>
      </trkpt>
      <trkpt lat="48.85159" lon="1.79128">
        <ele>128.60000610352</ele>
        <time>2016-06-11T12:11:42.000Z</time>
      </trkpt>
      <trkpt lat="48.8516" lon="1.79134">
        <ele>128.60000610352</ele>
        <time>2016-06-11T12:11:45.000Z</time>
      </trkpt>
      <trkpt lat="48.8516" lon="1.79136">
        <ele>128.60000610352</ele>
        <time>2016-06-11T12:11:46.000Z</time>
      </trkpt>
      <trkpt lat="48.85159" lon="1.79143">
        <ele>128.39999389648</ele>
        <time>2016-06-11T12:11:49.000Z</time>
      </trkpt>
      <trkpt lat="48.85158" lon="1.79148">
        <ele>128.39999389648</ele>
        <time>2016-06-11T12:11:51.000Z</time>
      </trkpt>
      <trkpt lat="48.85159" lon="1.7915">
        <ele>128.39999389648</ele>
        <time>2016-06-11T12:11:52.000Z</time>
      </trkpt>
      <trkpt lat="48.85159" lon="1.79155">
        <ele>128.19999694824</ele>
        <time>2016-06-11T12:11:55.000Z</time>
      </trkpt>
      <trkpt lat="48.85159" lon="1.79157">
        <ele>128.19999694824</ele>
        <time>2016-06-11T12:11:56.000Z</time>
      </trkpt>
      <trkpt lat="48.8516" lon="1.79164">
        <ele>128.19999694824</ele>
        <time>2016-06-11T12:12:00.000Z</time>
      </trkpt>
      <trkpt lat="48.8516" lon="1.79169">
        <ele>128.19999694824</ele>
        <time>2016-06-11T12:12:03.000Z</time>
      </trkpt>
      <trkpt lat="48.85159" lon="1.79172">
        <ele>128</ele>
        <time>2016-06-11T12:12:05.000Z</time>
      </trkpt>
      <trkpt lat="48.85159" lon="1.79174">
        <ele>128</ele>
        <time>2016-06-11T12:12:06.000Z</time>
      </trkpt>
      <trkpt lat="48.85157" lon="1.79184">
        <ele>127.80000305176</ele>
        <time>2016-06-11T12:12:10.000Z</time>
      </trkpt>
      <trkpt lat="48.85157" lon="1.79185">
        <ele>127.80000305176</ele>
        <time>2016-06-11T12:12:11.000Z</time>
      </trkpt>
      <trkpt lat="48.85156" lon="1.79192">
        <ele>127.80000305176</ele>
        <time>2016-06-11T12:12:14.000Z</time>
      </trkpt>
      <trkpt lat="48.85156" lon="1.79193">
        <ele>127.80000305176</ele>
        <time>2016-06-11T12:12:15.000Z</time>
      </trkpt>
      <trkpt lat="48.85155" lon="1.79199">
        <ele>127.59999847412</ele>
        <time>2016-06-11T12:12:17.000Z</time>
      </trkpt>
      <trkpt lat="48.85155" lon="1.79202">
        <ele>127.59999847412</ele>
        <time>2016-06-11T12:12:19.000Z</time>
      </trkpt>
      <trkpt lat="48.85154" lon="1.7921">
        <ele>127.59999847412</ele>
        <time>2016-06-11T12:12:23.000Z</time>
      </trkpt>
      <trkpt lat="48.85154" lon="1.79218">
        <ele>127.59999847412</ele>
        <time>2016-06-11T12:12:28.000Z</time>
      </trkpt>
      <trkpt lat="48.85151" lon="1.79226">
        <ele>127.59999847412</ele>
        <time>2016-06-11T12:12:32.000Z</time>
      </trkpt>
      <trkpt lat="48.85152" lon="1.79232">
        <ele>127.59999847412</ele>
        <time>2016-06-11T12:12:35.000Z</time>
      </trkpt>
      <trkpt lat="48.85152" lon="1.79233">
        <ele>127.59999847412</ele>
        <time>2016-06-11T12:12:36.000Z</time>
      </trkpt>
      <trkpt lat="48.85151" lon="1.79237">
        <ele>127.59999847412</ele>
        <time>2016-06-11T12:12:38.000Z</time>
      </trkpt>
      <trkpt lat="48.8515" lon="1.79243">
        <ele>127.59999847412</ele>
        <time>2016-06-11T12:12:42.000Z</time>
      </trkpt>
      <trkpt lat="48.85149" lon="1.79248">
        <ele>127.59999847412</ele>
        <time>2016-06-11T12:12:44.000Z</time>
      </trkpt>
      <trkpt lat="48.85148" lon="1.79256">
        <ele>127.59999847412</ele>
        <time>2016-06-11T12:12:47.000Z</time>
      </trkpt>
      <trkpt lat="48.85147" lon="1.79258">
        <ele>127.40000152588</ele>
        <time>2016-06-11T12:12:48.000Z</time>
      </trkpt>
      <trkpt lat="48.85143" lon="1.79267">
        <ele>127.40000152588</ele>
        <time>2016-06-11T12:12:52.000Z</time>
      </trkpt>
      <trkpt lat="48.85144" lon="1.79268">
        <ele>127.40000152588</ele>
        <time>2016-06-11T12:12:53.000Z</time>
      </trkpt>
      <trkpt lat="48.85142" lon="1.79273">
        <ele>127.40000152588</ele>
        <time>2016-06-11T12:12:56.000Z</time>
      </trkpt>
      <trkpt lat="48.85141" lon="1.79275">
        <ele>127.40000152588</ele>
        <time>2016-06-11T12:12:59.000Z</time>
      </trkpt>
      <trkpt lat="48.85141" lon="1.79276">
        <ele>127.19999694824</ele>
        <time>2016-06-11T12:13:01.000Z</time>
      </trkpt>
      <trkpt lat="48.85128" lon="1.79319">
        <ele>123.80000305176</ele>
        <time>2016-06-11T12:14:19.000Z</time>
      </trkpt>
      <trkpt lat="48.85126" lon="1.79326">
        <ele>123.40000152588</ele>
        <time>2016-06-11T12:14:24.000Z</time>
      </trkpt>
      <trkpt lat="48.85127" lon="1.79332">
        <ele>123.40000152588</ele>
        <time>2016-06-11T12:14:31.000Z</time>
      </trkpt>
      <trkpt lat="48.85125" lon="1.79338">
        <ele>123.40000152588</ele>
        <time>2016-06-11T12:14:37.000Z</time>
      </trkpt>
      <trkpt lat="48.85121" lon="1.79346">
        <ele>123.59999847412</ele>
        <time>2016-06-11T12:14:43.000Z</time>
      </trkpt>
      <trkpt lat="48.85122" lon="1.79353">
        <ele>124</ele>
        <time>2016-06-11T12:14:48.000Z</time>
      </trkpt>
      <trkpt lat="48.85122" lon="1.79362">
        <ele>124.40000152588</ele>
        <time>2016-06-11T12:14:53.000Z</time>
      </trkpt>
      <trkpt lat="48.85119" lon="1.79372">
        <ele>124.80000305176</ele>
        <time>2016-06-11T12:14:59.000Z</time>
      </trkpt>
      <trkpt lat="48.85119" lon="1.79379">
        <ele>125</ele>
        <time>2016-06-11T12:15:03.000Z</time>
      </trkpt>
      <trkpt lat="48.85119" lon="1.79383">
        <ele>125.19999694824</ele>
        <time>2016-06-11T12:15:05.000Z</time>
      </trkpt>
      <trkpt lat="48.8512" lon="1.79386">
        <ele>125.40000152588</ele>
        <time>2016-06-11T12:15:08.000Z</time>
      </trkpt>
      <trkpt lat="48.85121" lon="1.79392">
        <ele>125.80000305176</ele>
        <time>2016-06-11T12:15:12.000Z</time>
      </trkpt>
      <trkpt lat="48.85121" lon="1.79396">
        <ele>126</ele>
        <time>2016-06-11T12:15:14.000Z</time>
      </trkpt>
      <trkpt lat="48.85122" lon="1.79403">
        <ele>126.19999694824</ele>
        <time>2016-06-11T12:15:18.000Z</time>
      </trkpt>
      <trkpt lat="48.85122" lon="1.79405">
        <ele>126.40000152588</ele>
        <time>2016-06-11T12:15:19.000Z</time>
      </trkpt>
      <trkpt lat="48.85122" lon="1.79407">
        <ele>126.19999694824</ele>
        <time>2016-06-11T12:15:20.000Z</time>
      </trkpt>
      <trkpt lat="48.8512" lon="1.79416">
        <ele>125.59999847412</ele>
        <time>2016-06-11T12:15:24.000Z</time>
      </trkpt>
      <trkpt lat="48.8512" lon="1.79417">
        <ele>125.59999847412</ele>
        <time>2016-06-11T12:15:25.000Z</time>
      </trkpt>
      <trkpt lat="48.85119" lon="1.79424">
        <ele>125.40000152588</ele>
        <time>2016-06-11T12:15:30.000Z</time>
      </trkpt>
      <trkpt lat="48.85119" lon="1.79428">
        <ele>125.40000152588</ele>
        <time>2016-06-11T12:15:32.000Z</time>
      </trkpt>
      <trkpt lat="48.85118" lon="1.79437">
        <ele>125.40000152588</ele>
        <time>2016-06-11T12:15:36.000Z</time>
      </trkpt>
      <trkpt lat="48.85118" lon="1.79442">
        <ele>125.19999694824</ele>
        <time>2016-06-11T12:15:39.000Z</time>
      </trkpt>
      <trkpt lat="48.85117" lon="1.79444">
        <ele>125.19999694824</ele>
        <time>2016-06-11T12:15:40.000Z</time>
      </trkpt>
      <trkpt lat="48.85116" lon="1.79446">
        <ele>125.19999694824</ele>
        <time>2016-06-11T12:15:41.000Z</time>
      </trkpt>
      <trkpt lat="48.85113" lon="1.79453">
        <ele>125.19999694824</ele>
        <time>2016-06-11T12:15:45.000Z</time>
      </trkpt>
      <trkpt lat="48.85113" lon="1.79455">
        <ele>125.19999694824</ele>
        <time>2016-06-11T12:15:46.000Z</time>
      </trkpt>
      <trkpt lat="48.85107" lon="1.79462">
        <ele>125.19999694824</ele>
        <time>2016-06-11T12:15:51.000Z</time>
      </trkpt>
      <trkpt lat="48.85102" lon="1.79466">
        <ele>125.19999694824</ele>
        <time>2016-06-11T12:15:55.000Z</time>
      </trkpt>
      <trkpt lat="48.85101" lon="1.79468">
        <ele>125.19999694824</ele>
        <time>2016-06-11T12:15:56.000Z</time>
      </trkpt>
      <trkpt lat="48.85097" lon="1.79473">
        <ele>125</ele>
        <time>2016-06-11T12:16:00.000Z</time>
      </trkpt>
      <trkpt lat="48.85092" lon="1.7948">
        <ele>125</ele>
        <time>2016-06-11T12:16:05.000Z</time>
      </trkpt>
      <trkpt lat="48.85087" lon="1.79487">
        <ele>125</ele>
        <time>2016-06-11T12:16:09.000Z</time>
      </trkpt>
      <trkpt lat="48.85081" lon="1.79492">
        <ele>125.19999694824</ele>
        <time>2016-06-11T12:16:13.000Z</time>
      </trkpt>
      <trkpt lat="48.85078" lon="1.79494">
        <ele>125.19999694824</ele>
        <time>2016-06-11T12:16:15.000Z</time>
      </trkpt>
      <trkpt lat="48.85072" lon="1.795">
        <ele>125.40000152588</ele>
        <time>2016-06-11T12:16:20.000Z</time>
      </trkpt>
      <trkpt lat="48.85071" lon="1.79501">
        <ele>125.40000152588</ele>
        <time>2016-06-11T12:16:21.000Z</time>
      </trkpt>
      <trkpt lat="48.85067" lon="1.79505">
        <ele>125.59999847412</ele>
        <time>2016-06-11T12:16:24.000Z</time>
      </trkpt>
      <trkpt lat="48.85064" lon="1.79508">
        <ele>125.59999847412</ele>
        <time>2016-06-11T12:16:26.000Z</time>
      </trkpt>
      <trkpt lat="48.85055" lon="1.79515">
        <ele>126</ele>
        <time>2016-06-11T12:16:32.000Z</time>
      </trkpt>
      <trkpt lat="48.85053" lon="1.79518">
        <ele>126</ele>
        <time>2016-06-11T12:16:34.000Z</time>
      </trkpt>
      <trkpt lat="48.8505" lon="1.79521">
        <ele>126</ele>
        <time>2016-06-11T12:16:37.000Z</time>
      </trkpt>
      <trkpt lat="48.85049" lon="1.79523">
        <ele>126</ele>
        <time>2016-06-11T12:16:39.000Z</time>
      </trkpt>
      <trkpt lat="48.85043" lon="1.79527">
        <ele>125.80000305176</ele>
        <time>2016-06-11T12:16:43.000Z</time>
      </trkpt>
      <trkpt lat="48.85036" lon="1.79532">
        <ele>125.40000152588</ele>
        <time>2016-06-11T12:16:48.000Z</time>
      </trkpt>
      <trkpt lat="48.85027" lon="1.79535">
        <ele>125.19999694824</ele>
        <time>2016-06-11T12:16:53.000Z</time>
      </trkpt>
      <trkpt lat="48.85016" lon="1.79541">
        <ele>125.19999694824</ele>
        <time>2016-06-11T12:17:01.000Z</time>
      </trkpt>
      <trkpt lat="48.85014" lon="1.79543">
        <ele>125.19999694824</ele>
        <time>2016-06-11T12:17:03.000Z</time>
      </trkpt>
      <trkpt lat="48.85009" lon="1.79545">
        <ele>125.40000152588</ele>
        <time>2016-06-11T12:17:06.000Z</time>
      </trkpt>
      <trkpt lat="48.85002" lon="1.79549">
        <ele>125.40000152588</ele>
        <time>2016-06-11T12:17:11.000Z</time>
      </trkpt>
      <trkpt lat="48.85001" lon="1.79549">
        <ele>125.59999847412</ele>
        <time>2016-06-11T12:17:12.000Z</time>
      </trkpt>
      <trkpt lat="48.8499" lon="1.79555">
        <ele>125.59999847412</ele>
        <time>2016-06-11T12:17:19.000Z</time>
      </trkpt>
      <trkpt lat="48.84984" lon="1.79557">
        <ele>125.59999847412</ele>
        <time>2016-06-11T12:17:25.000Z</time>
      </trkpt>
      <trkpt lat="48.84984" lon="1.79558">
        <ele>125.59999847412</ele>
        <time>2016-06-11T12:17:26.000Z</time>
      </trkpt>
      <trkpt lat="48.84957" lon="1.7958">
        <ele>125.40000152588</ele>
        <time>2016-06-11T12:18:10.000Z</time>
      </trkpt>
      <trkpt lat="48.84955" lon="1.79581">
        <ele>125.40000152588</ele>
        <time>2016-06-11T12:18:12.000Z</time>
      </trkpt>
      <trkpt lat="48.84947" lon="1.79589">
        <ele>125</ele>
        <time>2016-06-11T12:18:20.000Z</time>
      </trkpt>
      <trkpt lat="48.8494" lon="1.79597">
        <ele>124.59999847412</ele>
        <time>2016-06-11T12:18:25.000Z</time>
      </trkpt>
      <trkpt lat="48.84932" lon="1.79606">
        <ele>123.80000305176</ele>
        <time>2016-06-11T12:18:32.000Z</time>
      </trkpt>
      <trkpt lat="48.84925" lon="1.79614">
        <ele>123.19999694824</ele>
        <time>2016-06-11T12:18:38.000Z</time>
      </trkpt>
      <trkpt lat="48.84921" lon="1.79617">
        <ele>123</ele>
        <time>2016-06-11T12:18:41.000Z</time>
      </trkpt>
      <trkpt lat="48.84919" lon="1.7962">
        <ele>122.80000305176</ele>
        <time>2016-06-11T12:18:43.000Z</time>
      </trkpt>
      <trkpt lat="48.84914" lon="1.79626">
        <ele>122.40000152588</ele>
        <time>2016-06-11T12:18:47.000Z</time>
      </trkpt>
      <trkpt lat="48.84908" lon="1.79633">
        <ele>122.19999694824</ele>
        <time>2016-06-11T12:18:53.000Z</time>
      </trkpt>
      <trkpt lat="48.849" lon="1.79639">
        <ele>122.40000152588</ele>
        <time>2016-06-11T12:19:00.000Z</time>
      </trkpt>
      <trkpt lat="48.84894" lon="1.79647">
        <ele>122.19999694824</ele>
        <time>2016-06-11T12:19:05.000Z</time>
      </trkpt>
      <trkpt lat="48.84893" lon="1.79647">
        <ele>122.19999694824</ele>
        <time>2016-06-11T12:19:06.000Z</time>
      </trkpt>
      <trkpt lat="48.84884" lon="1.79654">
        <ele>122.40000152588</ele>
        <time>2016-06-11T12:19:13.000Z</time>
      </trkpt>
      <trkpt lat="48.8488" lon="1.79657">
        <ele>122.40000152588</ele>
        <time>2016-06-11T12:19:17.000Z</time>
      </trkpt>
      <trkpt lat="48.84879" lon="1.79658">
        <ele>122.40000152588</ele>
        <time>2016-06-11T12:19:18.000Z</time>
      </trkpt>
      <trkpt lat="48.84876" lon="1.79661">
        <ele>122.59999847412</ele>
        <time>2016-06-11T12:19:21.000Z</time>
      </trkpt>
      <trkpt lat="48.84871" lon="1.79665">
        <ele>122.59999847412</ele>
        <time>2016-06-11T12:19:26.000Z</time>
      </trkpt>
      <trkpt lat="48.84866" lon="1.7967">
        <ele>122.80000305176</ele>
        <time>2016-06-11T12:19:32.000Z</time>
      </trkpt>
      <trkpt lat="48.84862" lon="1.79674">
        <ele>122.80000305176</ele>
        <time>2016-06-11T12:19:37.000Z</time>
      </trkpt>
      <trkpt lat="48.84856" lon="1.79678">
        <ele>123</ele>
        <time>2016-06-11T12:19:40.000Z</time>
      </trkpt>
      <trkpt lat="48.84855" lon="1.79679">
        <ele>123</ele>
        <time>2016-06-11T12:19:41.000Z</time>
      </trkpt>
      <trkpt lat="48.84851" lon="1.79683">
        <ele>122.80000305176</ele>
        <time>2016-06-11T12:19:45.000Z</time>
      </trkpt>
      <trkpt lat="48.84848" lon="1.79686">
        <ele>122.80000305176</ele>
        <time>2016-06-11T12:19:47.000Z</time>
      </trkpt>
      <trkpt lat="48.84845" lon="1.79689">
        <ele>122.59999847412</ele>
        <time>2016-06-11T12:19:50.000Z</time>
      </trkpt>
      <trkpt lat="48.84843" lon="1.79694">
        <ele>122.59999847412</ele>
        <time>2016-06-11T12:19:55.000Z</time>
      </trkpt>
      <trkpt lat="48.84842" lon="1.79698">
        <ele>122.40000152588</ele>
        <time>2016-06-11T12:19:57.000Z</time>
      </trkpt>
      <trkpt lat="48.84841" lon="1.79702">
        <ele>122.40000152588</ele>
        <time>2016-06-11T12:20:00.000Z</time>
      </trkpt>
      <trkpt lat="48.84841" lon="1.79706">
        <ele>122.40000152588</ele>
        <time>2016-06-11T12:20:02.000Z</time>
      </trkpt>
      <trkpt lat="48.8484" lon="1.7971">
        <ele>122.40000152588</ele>
        <time>2016-06-11T12:20:05.000Z</time>
      </trkpt>
      <trkpt lat="48.84837" lon="1.79722">
        <ele>122.40000152588</ele>
        <time>2016-06-11T12:20:12.000Z</time>
      </trkpt>
      <trkpt lat="48.84837" lon="1.79724">
        <ele>122.40000152588</ele>
        <time>2016-06-11T12:20:13.000Z</time>
      </trkpt>
      <trkpt lat="48.84836" lon="1.79729">
        <ele>122.59999847412</ele>
        <time>2016-06-11T12:20:16.000Z</time>
      </trkpt>
      <trkpt lat="48.84835" lon="1.7973">
        <ele>122.59999847412</ele>
        <time>2016-06-11T12:20:17.000Z</time>
      </trkpt>
      <trkpt lat="48.84832" lon="1.79742">
        <ele>122.80000305176</ele>
        <time>2016-06-11T12:20:23.000Z</time>
      </trkpt>
      <trkpt lat="48.84833" lon="1.79744">
        <ele>122.80000305176</ele>
        <time>2016-06-11T12:20:24.000Z</time>
      </trkpt>
      <trkpt lat="48.84831" lon="1.79751">
        <ele>122.59999847412</ele>
        <time>2016-06-11T12:20:28.000Z</time>
      </trkpt>
      <trkpt lat="48.84829" lon="1.79755">
        <ele>122.59999847412</ele>
        <time>2016-06-11T12:20:30.000Z</time>
      </trkpt>
      <trkpt lat="48.84826" lon="1.79769">
        <ele>122.59999847412</ele>
        <time>2016-06-11T12:20:37.000Z</time>
      </trkpt>
      <trkpt lat="48.84827" lon="1.79771">
        <ele>122.59999847412</ele>
        <time>2016-06-11T12:20:40.000Z</time>
      </trkpt>
      <trkpt lat="48.84827" lon="1.79772">
        <ele>122.59999847412</ele>
        <time>2016-06-11T12:20:41.000Z</time>
      </trkpt>
      <trkpt lat="48.84825" lon="1.79779">
        <ele>122.59999847412</ele>
        <time>2016-06-11T12:20:45.000Z</time>
      </trkpt>
      <trkpt lat="48.84822" lon="1.79782">
        <ele>122.59999847412</ele>
        <time>2016-06-11T12:20:48.000Z</time>
      </trkpt>
      <trkpt lat="48.84822" lon="1.79784">
        <ele>122.59999847412</ele>
        <time>2016-06-11T12:20:49.000Z</time>
      </trkpt>
      <trkpt lat="48.8482" lon="1.79798">
        <ele>122.19999694824</ele>
        <time>2016-06-11T12:20:57.000Z</time>
      </trkpt>
      <trkpt lat="48.84819" lon="1.7981">
        <ele>122</ele>
        <time>2016-06-11T12:21:03.000Z</time>
      </trkpt>
      <trkpt lat="48.84818" lon="1.79817">
        <ele>121.80000305176</ele>
        <time>2016-06-11T12:21:06.000Z</time>
      </trkpt>
      <trkpt lat="48.84818" lon="1.79823">
        <ele>121.59999847412</ele>
        <time>2016-06-11T12:21:09.000Z</time>
      </trkpt>
      <trkpt lat="48.84816" lon="1.79828">
        <ele>121.59999847412</ele>
        <time>2016-06-11T12:21:12.000Z</time>
      </trkpt>
      <trkpt lat="48.84814" lon="1.79834">
        <ele>121.59999847412</ele>
        <time>2016-06-11T12:21:15.000Z</time>
      </trkpt>
      <trkpt lat="48.84812" lon="1.79841">
        <ele>121.40000152588</ele>
        <time>2016-06-11T12:21:18.000Z</time>
      </trkpt>
      <trkpt lat="48.84812" lon="1.79846">
        <ele>121.40000152588</ele>
        <time>2016-06-11T12:21:21.000Z</time>
      </trkpt>
      <trkpt lat="48.8481" lon="1.79849">
        <ele>121.40000152588</ele>
        <time>2016-06-11T12:21:23.000Z</time>
      </trkpt>
      <trkpt lat="48.84811" lon="1.79851">
        <ele>121.40000152588</ele>
        <time>2016-06-11T12:21:24.000Z</time>
      </trkpt>
      <trkpt lat="48.8481" lon="1.79857">
        <ele>121.40000152588</ele>
        <time>2016-06-11T12:21:27.000Z</time>
      </trkpt>
      <trkpt lat="48.84807" lon="1.79863">
        <ele>121.40000152588</ele>
        <time>2016-06-11T12:21:31.000Z</time>
      </trkpt>
      <trkpt lat="48.84806" lon="1.79873">
        <ele>121.40000152588</ele>
        <time>2016-06-11T12:21:37.000Z</time>
      </trkpt>
      <trkpt lat="48.84805" lon="1.7988">
        <ele>121.40000152588</ele>
        <time>2016-06-11T12:21:41.000Z</time>
      </trkpt>
      <trkpt lat="48.84805" lon="1.79882">
        <ele>121.59999847412</ele>
        <time>2016-06-11T12:21:42.000Z</time>
      </trkpt>
      <trkpt lat="48.84805" lon="1.79887">
        <ele>121.59999847412</ele>
        <time>2016-06-11T12:21:44.000Z</time>
      </trkpt>
      <trkpt lat="48.84805" lon="1.7989">
        <ele>121.59999847412</ele>
        <time>2016-06-11T12:21:46.000Z</time>
      </trkpt>
      <trkpt lat="48.84804" lon="1.79896">
        <ele>121.59999847412</ele>
        <time>2016-06-11T12:21:50.000Z</time>
      </trkpt>
      <trkpt lat="48.84805" lon="1.79901">
        <ele>121.80000305176</ele>
        <time>2016-06-11T12:21:54.000Z</time>
      </trkpt>
      <trkpt lat="48.84807" lon="1.79903">
        <ele>121.80000305176</ele>
        <time>2016-06-11T12:21:56.000Z</time>
      </trkpt>
      <trkpt lat="48.84809" lon="1.79908">
        <ele>122</ele>
        <time>2016-06-11T12:21:59.000Z</time>
      </trkpt>
      <trkpt lat="48.84816" lon="1.79915">
        <ele>122.19999694824</ele>
        <time>2016-06-11T12:22:06.000Z</time>
      </trkpt>
      <trkpt lat="48.84817" lon="1.79915">
        <ele>122.19999694824</ele>
        <time>2016-06-11T12:22:07.000Z</time>
      </trkpt>
      <trkpt lat="48.84822" lon="1.79921">
        <ele>122.40000152588</ele>
        <time>2016-06-11T12:22:12.000Z</time>
      </trkpt>
      <trkpt lat="48.84825" lon="1.79924">
        <ele>122.40000152588</ele>
        <time>2016-06-11T12:22:15.000Z</time>
      </trkpt>
      <trkpt lat="48.84828" lon="1.79928">
        <ele>122.59999847412</ele>
        <time>2016-06-11T12:22:19.000Z</time>
      </trkpt>
      <trkpt lat="48.8483" lon="1.79932">
        <ele>122.59999847412</ele>
        <time>2016-06-11T12:22:22.000Z</time>
      </trkpt>
      <trkpt lat="48.84832" lon="1.79936">
        <ele>122.80000305176</ele>
        <time>2016-06-11T12:22:25.000Z</time>
      </trkpt>
      <trkpt lat="48.84835" lon="1.79945">
        <ele>123</ele>
        <time>2016-06-11T12:22:30.000Z</time>
      </trkpt>
      <trkpt lat="48.84836" lon="1.79953">
        <ele>123.19999694824</ele>
        <time>2016-06-11T12:22:36.000Z</time>
      </trkpt>
      <trkpt lat="48.84838" lon="1.79965">
        <ele>123.19999694824</ele>
        <time>2016-06-11T12:22:42.000Z</time>
      </trkpt>
      <trkpt lat="48.84839" lon="1.79971">
        <ele>123.40000152588</ele>
        <time>2016-06-11T12:22:45.000Z</time>
      </trkpt>
      <trkpt lat="48.8484" lon="1.79974">
        <ele>123.40000152588</ele>
        <time>2016-06-11T12:22:47.000Z</time>
      </trkpt>
      <trkpt lat="48.8484" lon="1.79977">
        <ele>123.59999847412</ele>
        <time>2016-06-11T12:22:48.000Z</time>
      </trkpt>
      <trkpt lat="48.84842" lon="1.79988">
        <ele>124</ele>
        <time>2016-06-11T12:22:54.000Z</time>
      </trkpt>
      <trkpt lat="48.84843" lon="1.8">
        <ele>124.19999694824</ele>
        <time>2016-06-11T12:23:00.000Z</time>
      </trkpt>
      <trkpt lat="48.84843" lon="1.80011">
        <ele>124.19999694824</ele>
        <time>2016-06-11T12:23:05.000Z</time>
      </trkpt>
      <trkpt lat="48.84843" lon="1.80014">
        <ele>124.40000152588</ele>
        <time>2016-06-11T12:23:07.000Z</time>
      </trkpt>
      <trkpt lat="48.84844" lon="1.80024">
        <ele>124.40000152588</ele>
        <time>2016-06-11T12:23:12.000Z</time>
      </trkpt>
      <trkpt lat="48.84844" lon="1.80043">
        <ele>124.59999847412</ele>
        <time>2016-06-11T12:23:21.000Z</time>
      </trkpt>
      <trkpt lat="48.84842" lon="1.80061">
        <ele>125</ele>
        <time>2016-06-11T12:23:30.000Z</time>
      </trkpt>
      <trkpt lat="48.84838" lon="1.80076">
        <ele>125.59999847412</ele>
        <time>2016-06-11T12:23:38.000Z</time>
      </trkpt>
      <trkpt lat="48.8483" lon="1.80094">
        <ele>126.19999694824</ele>
        <time>2016-06-11T12:23:49.000Z</time>
      </trkpt>
      <trkpt lat="48.8483" lon="1.80096">
        <ele>126.19999694824</ele>
        <time>2016-06-11T12:23:50.000Z</time>
      </trkpt>
      <trkpt lat="48.84828" lon="1.80104">
        <ele>126.40000152588</ele>
        <time>2016-06-11T12:23:55.000Z</time>
      </trkpt>
      <trkpt lat="48.84826" lon="1.80115">
        <ele>126.59999847412</ele>
        <time>2016-06-11T12:24:01.000Z</time>
      </trkpt>
      <trkpt lat="48.84822" lon="1.80129">
        <ele>126.59999847412</ele>
        <time>2016-06-11T12:24:08.000Z</time>
      </trkpt>
      <trkpt lat="48.84822" lon="1.80133">
        <ele>126.59999847412</ele>
        <time>2016-06-11T12:24:10.000Z</time>
      </trkpt>
      <trkpt lat="48.84821" lon="1.8014">
        <ele>126.40000152588</ele>
        <time>2016-06-11T12:24:14.000Z</time>
      </trkpt>
      <trkpt lat="48.84821" lon="1.80152">
        <ele>126</ele>
        <time>2016-06-11T12:24:20.000Z</time>
      </trkpt>
      <trkpt lat="48.84821" lon="1.80155">
        <ele>126</ele>
        <time>2016-06-11T12:24:22.000Z</time>
      </trkpt>
      <trkpt lat="48.84823" lon="1.80159">
        <ele>126</ele>
        <time>2016-06-11T12:24:25.000Z</time>
      </trkpt>
      <trkpt lat="48.84825" lon="1.8016">
        <ele>126</ele>
        <time>2016-06-11T12:24:26.000Z</time>
      </trkpt>
      <trkpt lat="48.84827" lon="1.80163">
        <ele>126.19999694824</ele>
        <time>2016-06-11T12:24:28.000Z</time>
      </trkpt>
      <trkpt lat="48.84828" lon="1.80165">
        <ele>126.19999694824</ele>
        <time>2016-06-11T12:24:29.000Z</time>
      </trkpt>
      <trkpt lat="48.84831" lon="1.80173">
        <ele>126.19999694824</ele>
        <time>2016-06-11T12:24:34.000Z</time>
      </trkpt>
      <trkpt lat="48.8483" lon="1.80176">
        <ele>126.19999694824</ele>
        <time>2016-06-11T12:24:36.000Z</time>
      </trkpt>
      <trkpt lat="48.84829" lon="1.80183">
        <ele>126.40000152588</ele>
        <time>2016-06-11T12:24:39.000Z</time>
      </trkpt>
      <trkpt lat="48.84825" lon="1.80189">
        <ele>126.40000152588</ele>
        <time>2016-06-11T12:24:43.000Z</time>
      </trkpt>
      <trkpt lat="48.84824" lon="1.80191">
        <ele>126.40000152588</ele>
        <time>2016-06-11T12:24:44.000Z</time>
      </trkpt>
      <trkpt lat="48.84824" lon="1.80193">
        <ele>126.40000152588</ele>
        <time>2016-06-11T12:24:45.000Z</time>
      </trkpt>
      <trkpt lat="48.84822" lon="1.802">
        <ele>126.59999847412</ele>
        <time>2016-06-11T12:24:49.000Z</time>
      </trkpt>
      <trkpt lat="48.8482" lon="1.80209">
        <ele>126.59999847412</ele>
        <time>2016-06-11T12:24:53.000Z</time>
      </trkpt>
      <trkpt lat="48.84821" lon="1.80213">
        <ele>126.40000152588</ele>
        <time>2016-06-11T12:24:55.000Z</time>
      </trkpt>
      <trkpt lat="48.84818" lon="1.80222">
        <ele>126.19999694824</ele>
        <time>2016-06-11T12:25:00.000Z</time>
      </trkpt>
      <trkpt lat="48.84815" lon="1.80232">
        <ele>126.19999694824</ele>
        <time>2016-06-11T12:25:05.000Z</time>
      </trkpt>
      <trkpt lat="48.84811" lon="1.80241">
        <ele>126</ele>
        <time>2016-06-11T12:25:10.000Z</time>
      </trkpt>
      <trkpt lat="48.84806" lon="1.80249">
        <ele>125.80000305176</ele>
        <time>2016-06-11T12:25:15.000Z</time>
      </trkpt>
      <trkpt lat="48.84802" lon="1.8026">
        <ele>125.80000305176</ele>
        <time>2016-06-11T12:25:21.000Z</time>
      </trkpt>
      <trkpt lat="48.84799" lon="1.80264">
        <ele>125.59999847412</ele>
        <time>2016-06-11T12:25:23.000Z</time>
      </trkpt>
      <trkpt lat="48.84796" lon="1.80273">
        <ele>125.80000305176</ele>
        <time>2016-06-11T12:25:28.000Z</time>
      </trkpt>
      <trkpt lat="48.84795" lon="1.80275">
        <ele>125.80000305176</ele>
        <time>2016-06-11T12:25:29.000Z</time>
      </trkpt>
      <trkpt lat="48.8479" lon="1.80282">
        <ele>125.80000305176</ele>
        <time>2016-06-11T12:25:32.000Z</time>
      </trkpt>
      <trkpt lat="48.84789" lon="1.80284">
        <ele>125.80000305176</ele>
        <time>2016-06-11T12:25:34.000Z</time>
      </trkpt>
      <trkpt lat="48.84785" lon="1.80292">
        <ele>125.80000305176</ele>
        <time>2016-06-11T12:25:38.000Z</time>
      </trkpt>
      <trkpt lat="48.84779" lon="1.80301">
        <ele>125.80000305176</ele>
        <time>2016-06-11T12:25:44.000Z</time>
      </trkpt>
      <trkpt lat="48.84775" lon="1.80309">
        <ele>125.80000305176</ele>
        <time>2016-06-11T12:25:49.000Z</time>
      </trkpt>
      <trkpt lat="48.84774" lon="1.80314">
        <ele>126</ele>
        <time>2016-06-11T12:25:51.000Z</time>
      </trkpt>
      <trkpt lat="48.84772" lon="1.80318">
        <ele>126</ele>
        <time>2016-06-11T12:25:54.000Z</time>
      </trkpt>
      <trkpt lat="48.84771" lon="1.80322">
        <ele>126</ele>
        <time>2016-06-11T12:25:56.000Z</time>
      </trkpt>
      <trkpt lat="48.84768" lon="1.80328">
        <ele>126</ele>
        <time>2016-06-11T12:26:00.000Z</time>
      </trkpt>
      <trkpt lat="48.84766" lon="1.80333">
        <ele>126</ele>
        <time>2016-06-11T12:26:04.000Z</time>
      </trkpt>
      <trkpt lat="48.84765" lon="1.80335">
        <ele>125.80000305176</ele>
        <time>2016-06-11T12:26:06.000Z</time>
      </trkpt>
      <trkpt lat="48.84765" lon="1.80337">
        <ele>126</ele>
        <time>2016-06-11T12:26:10.000Z</time>
      </trkpt>
      <trkpt lat="48.848" lon="1.80407">
        <ele>127.40000152588</ele>
        <time>2016-06-11T12:30:43.000Z</time>
      </trkpt>
      <trkpt lat="48.84811" lon="1.80411">
        <ele>127.59999847412</ele>
        <time>2016-06-11T12:30:52.000Z</time>
      </trkpt>
      <trkpt lat="48.84822" lon="1.80416">
        <ele>127.80000305176</ele>
        <time>2016-06-11T12:31:01.000Z</time>
      </trkpt>
      <trkpt lat="48.84832" lon="1.80422">
        <ele>128.19999694824</ele>
        <time>2016-06-11T12:31:10.000Z</time>
      </trkpt>
      <trkpt lat="48.84843" lon="1.80428">
        <ele>128.39999389648</ele>
        <time>2016-06-11T12:31:19.000Z</time>
      </trkpt>
      <trkpt lat="48.84855" lon="1.80435">
        <ele>128.80000305176</ele>
        <time>2016-06-11T12:31:29.000Z</time>
      </trkpt>
      <trkpt lat="48.84861" lon="1.8044">
        <ele>129</ele>
        <time>2016-06-11T12:31:34.000Z</time>
      </trkpt>
      <trkpt lat="48.84864" lon="1.80441">
        <ele>129.19999694824</ele>
        <time>2016-06-11T12:31:36.000Z</time>
      </trkpt>
      <trkpt lat="48.84872" lon="1.80447">
        <ele>129.60000610352</ele>
        <time>2016-06-11T12:31:43.000Z</time>
      </trkpt>
      <trkpt lat="48.84883" lon="1.80458">
        <ele>130.19999694824</ele>
        <time>2016-06-11T12:31:52.000Z</time>
      </trkpt>
      <trkpt lat="48.84891" lon="1.80464">
        <ele>130.60000610352</ele>
        <time>2016-06-11T12:31:59.000Z</time>
      </trkpt>
      <trkpt lat="48.84901" lon="1.80476">
        <ele>131.39999389648</ele>
        <time>2016-06-11T12:32:09.000Z</time>
      </trkpt>
      <trkpt lat="48.84909" lon="1.80484">
        <ele>131.80000305176</ele>
        <time>2016-06-11T12:32:16.000Z</time>
      </trkpt>
      <trkpt lat="48.84911" lon="1.80484">
        <ele>131.80000305176</ele>
        <time>2016-06-11T12:32:17.000Z</time>
      </trkpt>
      <trkpt lat="48.84916" lon="1.8049">
        <ele>132.19999694824</ele>
        <time>2016-06-11T12:32:24.000Z</time>
      </trkpt>
      <trkpt lat="48.84931" lon="1.80505">
        <ele>132.39999389648</ele>
        <time>2016-06-11T12:33:56.000Z</time>
      </trkpt>
      <trkpt lat="48.84932" lon="1.80508">
        <ele>132.60000610352</ele>
        <time>2016-06-11T12:33:58.000Z</time>
      </trkpt>
      <trkpt lat="48.84933" lon="1.8051">
        <ele>132.60000610352</ele>
        <time>2016-06-11T12:33:59.000Z</time>
      </trkpt>
      <trkpt lat="48.84936" lon="1.80512">
        <ele>132.60000610352</ele>
        <time>2016-06-11T12:34:02.000Z</time>
      </trkpt>
      <trkpt lat="48.84939" lon="1.80512">
        <ele>132.80000305176</ele>
        <time>2016-06-11T12:34:04.000Z</time>
      </trkpt>
      <trkpt lat="48.84943" lon="1.80515">
        <ele>133</ele>
        <time>2016-06-11T12:34:07.000Z</time>
      </trkpt>
      <trkpt lat="48.84947" lon="1.80518">
        <ele>133.19999694824</ele>
        <time>2016-06-11T12:34:10.000Z</time>
      </trkpt>
      <trkpt lat="48.84957" lon="1.80526">
        <ele>133.60000610352</ele>
        <time>2016-06-11T12:34:18.000Z</time>
      </trkpt>
      <trkpt lat="48.84969" lon="1.80535">
        <ele>134.19999694824</ele>
        <time>2016-06-11T12:34:27.000Z</time>
      </trkpt>
      <trkpt lat="48.84984" lon="1.80546">
        <ele>135</ele>
        <time>2016-06-11T12:34:38.000Z</time>
      </trkpt>
      <trkpt lat="48.84997" lon="1.80557">
        <ele>135.60000610352</ele>
        <time>2016-06-11T12:34:48.000Z</time>
      </trkpt>
      <trkpt lat="48.85011" lon="1.80568">
        <ele>136.39999389648</ele>
        <time>2016-06-11T12:34:59.000Z</time>
      </trkpt>
      <trkpt lat="48.85021" lon="1.80579">
        <ele>137</ele>
        <time>2016-06-11T12:35:06.000Z</time>
      </trkpt>
      <trkpt lat="48.8503" lon="1.80584">
        <ele>137.39999389648</ele>
        <time>2016-06-11T12:35:12.000Z</time>
      </trkpt>
      <trkpt lat="48.85044" lon="1.80593">
        <ele>138</ele>
        <time>2016-06-11T12:35:22.000Z</time>
      </trkpt>
      <trkpt lat="48.85045" lon="1.80593">
        <ele>138</ele>
        <time>2016-06-11T12:35:23.000Z</time>
      </trkpt>
      <trkpt lat="48.85051" lon="1.80597">
        <ele>138.39999389648</ele>
        <time>2016-06-11T12:35:26.000Z</time>
      </trkpt>
      <trkpt lat="48.85057" lon="1.806">
        <ele>138.80000305176</ele>
        <time>2016-06-11T12:35:29.000Z</time>
      </trkpt>
      <trkpt lat="48.85061" lon="1.80601">
        <ele>139</ele>
        <time>2016-06-11T12:35:32.000Z</time>
      </trkpt>
      <trkpt lat="48.85069" lon="1.80601">
        <ele>139.39999389648</ele>
        <time>2016-06-11T12:35:37.000Z</time>
      </trkpt>
      <trkpt lat="48.85072" lon="1.80601">
        <ele>139.60000610352</ele>
        <time>2016-06-11T12:35:39.000Z</time>
      </trkpt>
      <trkpt lat="48.85083" lon="1.80604">
        <ele>140.19999694824</ele>
        <time>2016-06-11T12:35:46.000Z</time>
      </trkpt>
      <trkpt lat="48.85092" lon="1.80607">
        <ele>140.80000305176</ele>
        <time>2016-06-11T12:35:53.000Z</time>
      </trkpt>
      <trkpt lat="48.85098" lon="1.80608">
        <ele>141.19999694824</ele>
        <time>2016-06-11T12:35:57.000Z</time>
      </trkpt>
      <trkpt lat="48.85103" lon="1.80609">
        <ele>141.39999389648</ele>
        <time>2016-06-11T12:36:00.000Z</time>
      </trkpt>
      <trkpt lat="48.85104" lon="1.8061">
        <ele>141.39999389648</ele>
        <time>2016-06-11T12:36:01.000Z</time>
      </trkpt>
      <trkpt lat="48.85118" lon="1.80613">
        <ele>142</ele>
        <time>2016-06-11T12:36:10.000Z</time>
      </trkpt>
      <trkpt lat="48.8513" lon="1.80617">
        <ele>142.60000610352</ele>
        <time>2016-06-11T12:36:18.000Z</time>
      </trkpt>
      <trkpt lat="48.85138" lon="1.80621">
        <ele>143</ele>
        <time>2016-06-11T12:36:24.000Z</time>
      </trkpt>
      <trkpt lat="48.85149" lon="1.80624">
        <ele>143.39999389648</ele>
        <time>2016-06-11T12:36:32.000Z</time>
      </trkpt>
      <trkpt lat="48.85159" lon="1.80628">
        <ele>143.80000305176</ele>
        <time>2016-06-11T12:36:40.000Z</time>
      </trkpt>
      <trkpt lat="48.85161" lon="1.8063">
        <ele>144</ele>
        <time>2016-06-11T12:36:42.000Z</time>
      </trkpt>
      <trkpt lat="48.85163" lon="1.80633">
        <ele>144</ele>
        <time>2016-06-11T12:36:44.000Z</time>
      </trkpt>
      <trkpt lat="48.85162" lon="1.80638">
        <ele>144</ele>
        <time>2016-06-11T12:36:46.000Z</time>
      </trkpt>
      <trkpt lat="48.85163" lon="1.80647">
        <ele>143.80000305176</ele>
        <time>2016-06-11T12:36:50.000Z</time>
      </trkpt>
      <trkpt lat="48.85164" lon="1.80651">
        <ele>143.80000305176</ele>
        <time>2016-06-11T12:36:52.000Z</time>
      </trkpt>
      <trkpt lat="48.85165" lon="1.80667">
        <ele>144.60000610352</ele>
        <time>2016-06-11T12:36:59.000Z</time>
      </trkpt>
      <trkpt lat="48.85166" lon="1.80685">
        <ele>145.80000305176</ele>
        <time>2016-06-11T12:37:07.000Z</time>
      </trkpt>
      <trkpt lat="48.85163" lon="1.80705">
        <ele>146.80000305176</ele>
        <time>2016-06-11T12:37:16.000Z</time>
      </trkpt>
      <trkpt lat="48.85159" lon="1.80718">
        <ele>147</ele>
        <time>2016-06-11T12:37:22.000Z</time>
      </trkpt>
      <trkpt lat="48.85154" lon="1.80734">
        <ele>147</ele>
        <time>2016-06-11T12:37:30.000Z</time>
      </trkpt>
      <trkpt lat="48.85151" lon="1.80747">
        <ele>146.80000305176</ele>
        <time>2016-06-11T12:37:36.000Z</time>
      </trkpt>
      <trkpt lat="48.85146" lon="1.80769">
        <ele>146.80000305176</ele>
        <time>2016-06-11T12:37:46.000Z</time>
      </trkpt>
      <trkpt lat="48.85142" lon="1.80785">
        <ele>146.19999694824</ele>
        <time>2016-06-11T12:37:53.000Z</time>
      </trkpt>
      <trkpt lat="48.85141" lon="1.80789">
        <ele>146</ele>
        <time>2016-06-11T12:37:55.000Z</time>
      </trkpt>
      <trkpt lat="48.85139" lon="1.80796">
        <ele>145.60000610352</ele>
        <time>2016-06-11T12:37:58.000Z</time>
      </trkpt>
      <trkpt lat="48.85134" lon="1.80813">
        <ele>144.60000610352</ele>
        <time>2016-06-11T12:38:06.000Z</time>
      </trkpt>
      <trkpt lat="48.85129" lon="1.80834">
        <ele>143.80000305176</ele>
        <time>2016-06-11T12:38:15.000Z</time>
      </trkpt>
      <trkpt lat="48.85124" lon="1.80854">
        <ele>143.39999389648</ele>
        <time>2016-06-11T12:38:23.000Z</time>
      </trkpt>
      <trkpt lat="48.85122" lon="1.80867">
        <ele>143.39999389648</ele>
        <time>2016-06-11T12:38:29.000Z</time>
      </trkpt>
      <trkpt lat="48.85119" lon="1.80876">
        <ele>143</ele>
        <time>2016-06-11T12:38:35.000Z</time>
      </trkpt>
      <trkpt lat="48.85115" lon="1.80884">
        <ele>142.60000610352</ele>
        <time>2016-06-11T12:38:41.000Z</time>
      </trkpt>
      <trkpt lat="48.85113" lon="1.80895">
        <ele>142.60000610352</ele>
        <time>2016-06-11T12:38:48.000Z</time>
      </trkpt>
      <trkpt lat="48.8511" lon="1.80903">
        <ele>142.39999389648</ele>
        <time>2016-06-11T12:38:54.000Z</time>
      </trkpt>
      <trkpt lat="48.85109" lon="1.80906">
        <ele>142.39999389648</ele>
        <time>2016-06-11T12:38:56.000Z</time>
      </trkpt>
      <trkpt lat="48.8511" lon="1.8091">
        <ele>142.39999389648</ele>
        <time>2016-06-11T12:38:59.000Z</time>
      </trkpt>
      <trkpt lat="48.85109" lon="1.80917">
        <ele>142.60000610352</ele>
        <time>2016-06-11T12:39:03.000Z</time>
      </trkpt>
      <trkpt lat="48.85107" lon="1.80919">
        <ele>142.39999389648</ele>
        <time>2016-06-11T12:39:04.000Z</time>
      </trkpt>
      <trkpt lat="48.85106" lon="1.80926">
        <ele>142.39999389648</ele>
        <time>2016-06-11T12:39:07.000Z</time>
      </trkpt>
      <trkpt lat="48.85105" lon="1.80929">
        <ele>142.60000610352</ele>
        <time>2016-06-11T12:39:09.000Z</time>
      </trkpt>
      <trkpt lat="48.85105" lon="1.80931">
        <ele>142.60000610352</ele>
        <time>2016-06-11T12:39:11.000Z</time>
      </trkpt>
      <trkpt lat="48.85104" lon="1.80939">
        <ele>142.80000305176</ele>
        <time>2016-06-11T12:39:14.000Z</time>
      </trkpt>
      <trkpt lat="48.85103" lon="1.80952">
        <ele>143</ele>
        <time>2016-06-11T12:39:19.000Z</time>
      </trkpt>
      <trkpt lat="48.85103" lon="1.80954">
        <ele>143.19999694824</ele>
        <time>2016-06-11T12:39:20.000Z</time>
      </trkpt>
      <trkpt lat="48.85104" lon="1.80959">
        <ele>143.19999694824</ele>
        <time>2016-06-11T12:39:23.000Z</time>
      </trkpt>
      <trkpt lat="48.85103" lon="1.80962">
        <ele>143.39999389648</ele>
        <time>2016-06-11T12:39:24.000Z</time>
      </trkpt>
      <trkpt lat="48.85102" lon="1.80964">
        <ele>143.39999389648</ele>
        <time>2016-06-11T12:39:25.000Z</time>
      </trkpt>
      <trkpt lat="48.85102" lon="1.80973">
        <ele>143.60000610352</ele>
        <time>2016-06-11T12:39:29.000Z</time>
      </trkpt>
      <trkpt lat="48.85101" lon="1.80978">
        <ele>143.60000610352</ele>
        <time>2016-06-11T12:39:31.000Z</time>
      </trkpt>
      <trkpt lat="48.851" lon="1.80983">
        <ele>143.80000305176</ele>
        <time>2016-06-11T12:39:33.000Z</time>
      </trkpt>
      <trkpt lat="48.85099" lon="1.80985">
        <ele>143.80000305176</ele>
        <time>2016-06-11T12:39:35.000Z</time>
      </trkpt>
      <trkpt lat="48.85098" lon="1.80986">
        <ele>143.60000610352</ele>
        <time>2016-06-11T12:39:36.000Z</time>
      </trkpt>
      <trkpt lat="48.85096" lon="1.80992">
        <ele>143.80000305176</ele>
        <time>2016-06-11T12:39:40.000Z</time>
      </trkpt>
      <trkpt lat="48.85095" lon="1.80996">
        <ele>144</ele>
        <time>2016-06-11T12:39:41.000Z</time>
      </trkpt>
      <trkpt lat="48.85096" lon="1.81003">
        <ele>144.39999389648</ele>
        <time>2016-06-11T12:39:44.000Z</time>
      </trkpt>
      <trkpt lat="48.85095" lon="1.81005">
        <ele>144.60000610352</ele>
        <time>2016-06-11T12:39:45.000Z</time>
      </trkpt>
      <trkpt lat="48.85095" lon="1.8101">
        <ele>144.80000305176</ele>
        <time>2016-06-11T12:39:48.000Z</time>
      </trkpt>
      <trkpt lat="48.85093" lon="1.81015">
        <ele>145</ele>
        <time>2016-06-11T12:39:50.000Z</time>
      </trkpt>
      <trkpt lat="48.85092" lon="1.81018">
        <ele>145</ele>
        <time>2016-06-11T12:39:52.000Z</time>
      </trkpt>
      <trkpt lat="48.85086" lon="1.81032">
        <ele>145.60000610352</ele>
        <time>2016-06-11T12:39:58.000Z</time>
      </trkpt>
      <trkpt lat="48.85081" lon="1.81051">
        <ele>146.39999389648</ele>
        <time>2016-06-11T12:40:05.000Z</time>
      </trkpt>
      <trkpt lat="48.8508" lon="1.81062">
        <ele>146.39999389648</ele>
        <time>2016-06-11T12:40:09.000Z</time>
      </trkpt>
      <trkpt lat="48.85081" lon="1.81069">
        <ele>146.60000610352</ele>
        <time>2016-06-11T12:40:12.000Z</time>
      </trkpt>
      <trkpt lat="48.85081" lon="1.81073">
        <ele>146.60000610352</ele>
        <time>2016-06-11T12:40:14.000Z</time>
      </trkpt>
      <trkpt lat="48.85082" lon="1.81084">
        <ele>146.80000305176</ele>
        <time>2016-06-11T12:40:19.000Z</time>
      </trkpt>
      <trkpt lat="48.85084" lon="1.81091">
        <ele>146.80000305176</ele>
        <time>2016-06-11T12:40:23.000Z</time>
      </trkpt>
      <trkpt lat="48.85084" lon="1.81094">
        <ele>147</ele>
        <time>2016-06-11T12:40:24.000Z</time>
      </trkpt>
      <trkpt lat="48.85088" lon="1.81107">
        <ele>147.19999694824</ele>
        <time>2016-06-11T12:40:29.000Z</time>
      </trkpt>
      <trkpt lat="48.8509" lon="1.81115">
        <ele>147.39999389648</ele>
        <time>2016-06-11T12:40:31.000Z</time>
      </trkpt>
      <trkpt lat="48.85092" lon="1.81131">
        <ele>147.60000610352</ele>
        <time>2016-06-11T12:40:38.000Z</time>
      </trkpt>
      <trkpt lat="48.85092" lon="1.81133">
        <ele>147.60000610352</ele>
        <time>2016-06-11T12:40:39.000Z</time>
      </trkpt>
      <trkpt lat="48.85092" lon="1.8114">
        <ele>147.80000305176</ele>
        <time>2016-06-11T12:40:42.000Z</time>
      </trkpt>
      <trkpt lat="48.85094" lon="1.81147">
        <ele>148</ele>
        <time>2016-06-11T12:40:45.000Z</time>
      </trkpt>
      <trkpt lat="48.85095" lon="1.8115">
        <ele>148.19999694824</ele>
        <time>2016-06-11T12:40:47.000Z</time>
      </trkpt>
      <trkpt lat="48.85095" lon="1.81162">
        <ele>148.60000610352</ele>
        <time>2016-06-11T12:40:53.000Z</time>
      </trkpt>
      <trkpt lat="48.85092" lon="1.81171">
        <ele>149</ele>
        <time>2016-06-11T12:40:58.000Z</time>
      </trkpt>
      <trkpt lat="48.8509" lon="1.81173">
        <ele>149</ele>
        <time>2016-06-11T12:40:59.000Z</time>
      </trkpt>
      <trkpt lat="48.85086" lon="1.81183">
        <ele>149.19999694824</ele>
        <time>2016-06-11T12:41:04.000Z</time>
      </trkpt>
      <trkpt lat="48.85079" lon="1.81202">
        <ele>149.60000610352</ele>
        <time>2016-06-11T12:41:11.000Z</time>
      </trkpt>
      <trkpt lat="48.85067" lon="1.81221">
        <ele>148.39999389648</ele>
        <time>2016-06-11T12:41:17.000Z</time>
      </trkpt>
      <trkpt lat="48.8506" lon="1.81234">
        <ele>147</ele>
        <time>2016-06-11T12:41:21.000Z</time>
      </trkpt>
      <trkpt lat="48.85051" lon="1.81248">
        <ele>146</ele>
        <time>2016-06-11T12:41:25.000Z</time>
      </trkpt>
      <trkpt lat="48.85038" lon="1.8127">
        <ele>145</ele>
        <time>2016-06-11T12:41:31.000Z</time>
      </trkpt>
      <trkpt lat="48.85025" lon="1.81305">
        <ele>144.60000610352</ele>
        <time>2016-06-11T12:41:39.000Z</time>
      </trkpt>
      <trkpt lat="48.85018" lon="1.81325">
        <ele>145.19999694824</ele>
        <time>2016-06-11T12:41:45.000Z</time>
      </trkpt>
      <trkpt lat="48.85006" lon="1.81362">
        <ele>148.19999694824</ele>
        <time>2016-06-11T12:41:53.000Z</time>
      </trkpt>
      <trkpt lat="48.84995" lon="1.81404">
        <ele>150.19999694824</ele>
        <time>2016-06-11T12:42:02.000Z</time>
      </trkpt>
      <trkpt lat="48.84989" lon="1.81432">
        <ele>151.19999694824</ele>
        <time>2016-06-11T12:42:10.000Z</time>
      </trkpt>
      <trkpt lat="48.84988" lon="1.81439">
        <ele>151.60000610352</ele>
        <time>2016-06-11T12:42:14.000Z</time>
      </trkpt>
      <trkpt lat="48.84988" lon="1.81443">
        <ele>151.80000305176</ele>
        <time>2016-06-11T12:42:16.000Z</time>
      </trkpt>
      <trkpt lat="48.84982" lon="1.8145">
        <ele>151.60000610352</ele>
        <time>2016-06-11T12:42:22.000Z</time>
      </trkpt>
      <trkpt lat="48.84982" lon="1.81452">
        <ele>151.80000305176</ele>
        <time>2016-06-11T12:42:24.000Z</time>
      </trkpt>
      <trkpt lat="48.84981" lon="1.81455">
        <ele>151.60000610352</ele>
        <time>2016-06-11T12:42:26.000Z</time>
      </trkpt>
      <trkpt lat="48.8498" lon="1.81457">
        <ele>151.60000610352</ele>
        <time>2016-06-11T12:42:27.000Z</time>
      </trkpt>
      <trkpt lat="48.84974" lon="1.81469">
        <ele>151.39999389648</ele>
        <time>2016-06-11T12:42:34.000Z</time>
      </trkpt>
      <trkpt lat="48.84972" lon="1.81472">
        <ele>151.39999389648</ele>
        <time>2016-06-11T12:42:36.000Z</time>
      </trkpt>
      <trkpt lat="48.84969" lon="1.81477">
        <ele>151.19999694824</ele>
        <time>2016-06-11T12:42:39.000Z</time>
      </trkpt>
      <trkpt lat="48.84959" lon="1.81487">
        <ele>150.60000610352</ele>
        <time>2016-06-11T12:42:44.000Z</time>
      </trkpt>
      <trkpt lat="48.84949" lon="1.81496">
        <ele>150.19999694824</ele>
        <time>2016-06-11T12:42:49.000Z</time>
      </trkpt>
      <trkpt lat="48.84943" lon="1.81508">
        <ele>150.19999694824</ele>
        <time>2016-06-11T12:42:54.000Z</time>
      </trkpt>
      <trkpt lat="48.84942" lon="1.8151">
        <ele>150</ele>
        <time>2016-06-11T12:42:56.000Z</time>
      </trkpt>
      <trkpt lat="48.84941" lon="1.81512">
        <ele>150</ele>
        <time>2016-06-11T12:42:59.000Z</time>
      </trkpt>
      <trkpt lat="48.84933" lon="1.81546">
        <ele>150.39999389648</ele>
        <time>2016-06-11T12:43:39.000Z</time>
      </trkpt>
      <trkpt lat="48.84929" lon="1.81553">
        <ele>150.19999694824</ele>
        <time>2016-06-11T12:43:43.000Z</time>
      </trkpt>
      <trkpt lat="48.84922" lon="1.81569">
        <ele>149.80000305176</ele>
        <time>2016-06-11T12:43:51.000Z</time>
      </trkpt>
      <trkpt lat="48.84916" lon="1.81581">
        <ele>149.19999694824</ele>
        <time>2016-06-11T12:43:58.000Z</time>
      </trkpt>
      <trkpt lat="48.84912" lon="1.8159">
        <ele>148.80000305176</ele>
        <time>2016-06-11T12:44:03.000Z</time>
      </trkpt>
      <trkpt lat="48.84905" lon="1.81609">
        <ele>147.80000305176</ele>
        <time>2016-06-11T12:44:12.000Z</time>
      </trkpt>
      <trkpt lat="48.849" lon="1.81629">
        <ele>147.19999694824</ele>
        <time>2016-06-11T12:44:20.000Z</time>
      </trkpt>
      <trkpt lat="48.84895" lon="1.81649">
        <ele>146.80000305176</ele>
        <time>2016-06-11T12:44:28.000Z</time>
      </trkpt>
      <trkpt lat="48.8489" lon="1.81668">
        <ele>146</ele>
        <time>2016-06-11T12:44:36.000Z</time>
      </trkpt>
      <trkpt lat="48.84887" lon="1.81679">
        <ele>145.80000305176</ele>
        <time>2016-06-11T12:44:41.000Z</time>
      </trkpt>
      <trkpt lat="48.84885" lon="1.81684">
        <ele>145.60000610352</ele>
        <time>2016-06-11T12:44:43.000Z</time>
      </trkpt>
      <trkpt lat="48.8488" lon="1.817">
        <ele>145</ele>
        <time>2016-06-11T12:44:50.000Z</time>
      </trkpt>
      <trkpt lat="48.84879" lon="1.81702">
        <ele>144.80000305176</ele>
        <time>2016-06-11T12:44:51.000Z</time>
      </trkpt>
      <trkpt lat="48.84876" lon="1.8171">
        <ele>144.39999389648</ele>
        <time>2016-06-11T12:44:55.000Z</time>
      </trkpt>
      <trkpt lat="48.84876" lon="1.8171">
        <ele>144.39999389648</ele>
        <time>2016-06-11T12:44:57.000Z</time>
      </trkpt>
      <trkpt lat="48.84874" lon="1.8173">
        <ele>144.19999694824</ele>
        <time>2016-06-11T12:45:26.000Z</time>
      </trkpt>
      <trkpt lat="48.84874" lon="1.81733">
        <ele>144.19999694824</ele>
        <time>2016-06-11T12:45:27.000Z</time>
      </trkpt>
      <trkpt lat="48.84876" lon="1.81764">
        <ele>143.80000305176</ele>
        <time>2016-06-11T12:45:39.000Z</time>
      </trkpt>
      <trkpt lat="48.8488" lon="1.81796">
        <ele>143.80000305176</ele>
        <time>2016-06-11T12:45:52.000Z</time>
      </trkpt>
      <trkpt lat="48.84882" lon="1.81823">
        <ele>143.80000305176</ele>
        <time>2016-06-11T12:46:03.000Z</time>
      </trkpt>
      <trkpt lat="48.84884" lon="1.81851">
        <ele>143</ele>
        <time>2016-06-11T12:46:15.000Z</time>
      </trkpt>
      <trkpt lat="48.84884" lon="1.81872">
        <ele>142.80000305176</ele>
        <time>2016-06-11T12:46:23.000Z</time>
      </trkpt>
      <trkpt lat="48.84882" lon="1.81892">
        <ele>142.39999389648</ele>
        <time>2016-06-11T12:46:31.000Z</time>
      </trkpt>
      <trkpt lat="48.84879" lon="1.81922">
        <ele>141.39999389648</ele>
        <time>2016-06-11T12:46:42.000Z</time>
      </trkpt>
      <trkpt lat="48.84876" lon="1.81952">
        <ele>140.60000610352</ele>
        <time>2016-06-11T12:46:54.000Z</time>
      </trkpt>
      <trkpt lat="48.84873" lon="1.81979">
        <ele>140.19999694824</ele>
        <time>2016-06-11T12:47:05.000Z</time>
      </trkpt>
      <trkpt lat="48.8487" lon="1.82005">
        <ele>139.39999389648</ele>
        <time>2016-06-11T12:47:16.000Z</time>
      </trkpt>
      <trkpt lat="48.84868" lon="1.8203">
        <ele>138.80000305176</ele>
        <time>2016-06-11T12:47:26.000Z</time>
      </trkpt>
      <trkpt lat="48.84868" lon="1.82048">
        <ele>138.39999389648</ele>
        <time>2016-06-11T12:47:34.000Z</time>
      </trkpt>
      <trkpt lat="48.84868" lon="1.82065">
        <ele>138</ele>
        <time>2016-06-11T12:47:41.000Z</time>
      </trkpt>
      <trkpt lat="48.8487" lon="1.82088">
        <ele>137.39999389648</ele>
        <time>2016-06-11T12:47:50.000Z</time>
      </trkpt>
      <trkpt lat="48.8487" lon="1.82105">
        <ele>137.19999694824</ele>
        <time>2016-06-11T12:47:57.000Z</time>
      </trkpt>
      <trkpt lat="48.8487" lon="1.82121">
        <ele>137</ele>
        <time>2016-06-11T12:48:04.000Z</time>
      </trkpt>
      <trkpt lat="48.84871" lon="1.82126">
        <ele>137</ele>
        <time>2016-06-11T12:48:06.000Z</time>
      </trkpt>
      <trkpt lat="48.84872" lon="1.82152">
        <ele>136.80000305176</ele>
        <time>2016-06-11T12:48:16.000Z</time>
      </trkpt>
      <trkpt lat="48.84873" lon="1.8217">
        <ele>136.60000610352</ele>
        <time>2016-06-11T12:48:23.000Z</time>
      </trkpt>
      <trkpt lat="48.84874" lon="1.82186">
        <ele>136.19999694824</ele>
        <time>2016-06-11T12:48:28.000Z</time>
      </trkpt>
      <trkpt lat="48.84876" lon="1.82207">
        <ele>135.80000305176</ele>
        <time>2016-06-11T12:48:34.000Z</time>
      </trkpt>
      <trkpt lat="48.84877" lon="1.82236">
        <ele>135</ele>
        <time>2016-06-11T12:48:42.000Z</time>
      </trkpt>
      <trkpt lat="48.84877" lon="1.82254">
        <ele>134.60000610352</ele>
        <time>2016-06-11T12:48:49.000Z</time>
      </trkpt>
      <trkpt lat="48.84877" lon="1.8229">
        <ele>134.19999694824</ele>
        <time>2016-06-11T12:49:03.000Z</time>
      </trkpt>
      <trkpt lat="48.84878" lon="1.82316">
        <ele>133.80000305176</ele>
        <time>2016-06-11T12:49:14.000Z</time>
      </trkpt>
      <trkpt lat="48.84879" lon="1.82342">
        <ele>134</ele>
        <time>2016-06-11T12:49:25.000Z</time>
      </trkpt>
      <trkpt lat="48.84879" lon="1.82357">
        <ele>134.19999694824</ele>
        <time>2016-06-11T12:49:31.000Z</time>
      </trkpt>
      <trkpt lat="48.84879" lon="1.82362">
        <ele>134.39999389648</ele>
        <time>2016-06-11T12:49:33.000Z</time>
      </trkpt>
      <trkpt lat="48.8488" lon="1.82375">
        <ele>134.39999389648</ele>
        <time>2016-06-11T12:49:39.000Z</time>
      </trkpt>
      <trkpt lat="48.8488" lon="1.82391">
        <ele>134.80000305176</ele>
        <time>2016-06-11T12:49:46.000Z</time>
      </trkpt>
      <trkpt lat="48.8488" lon="1.82414">
        <ele>134.80000305176</ele>
        <time>2016-06-11T12:49:55.000Z</time>
      </trkpt>
      <trkpt lat="48.84881" lon="1.82433">
        <ele>135</ele>
        <time>2016-06-11T12:50:01.000Z</time>
      </trkpt>
      <trkpt lat="48.84881" lon="1.8245">
        <ele>135.19999694824</ele>
        <time>2016-06-11T12:50:08.000Z</time>
      </trkpt>
      <trkpt lat="48.8488" lon="1.82467">
        <ele>135.39999389648</ele>
        <time>2016-06-11T12:50:15.000Z</time>
      </trkpt>
      <trkpt lat="48.8488" lon="1.82469">
        <ele>135.39999389648</ele>
        <time>2016-06-11T12:50:16.000Z</time>
      </trkpt>
      <trkpt lat="48.84879" lon="1.82492">
        <ele>135.60000610352</ele>
        <time>2016-06-11T12:50:26.000Z</time>
      </trkpt>
      <trkpt lat="48.84879" lon="1.8251">
        <ele>135.60000610352</ele>
        <time>2016-06-11T12:50:34.000Z</time>
      </trkpt>
      <trkpt lat="48.84875" lon="1.82521">
        <ele>135.60000610352</ele>
        <time>2016-06-11T12:50:41.000Z</time>
      </trkpt>
      <trkpt lat="48.8487" lon="1.82523">
        <ele>135.60000610352</ele>
        <time>2016-06-11T12:50:44.000Z</time>
      </trkpt>
      <trkpt lat="48.84867" lon="1.82524">
        <ele>135.60000610352</ele>
        <time>2016-06-11T12:50:46.000Z</time>
      </trkpt>
      <trkpt lat="48.84856" lon="1.82524">
        <ele>135.39999389648</ele>
        <time>2016-06-11T12:50:53.000Z</time>
      </trkpt>
      <trkpt lat="48.84841" lon="1.82523">
        <ele>135.19999694824</ele>
        <time>2016-06-11T12:51:02.000Z</time>
      </trkpt>
      <trkpt lat="48.84834" lon="1.82522">
        <ele>135.19999694824</ele>
        <time>2016-06-11T12:51:06.000Z</time>
      </trkpt>
      <trkpt lat="48.8483" lon="1.82521">
        <ele>135</ele>
        <time>2016-06-11T12:51:09.000Z</time>
      </trkpt>
      <trkpt lat="48.84818" lon="1.8252">
        <ele>135</ele>
        <time>2016-06-11T12:51:16.000Z</time>
      </trkpt>
      <trkpt lat="48.84808" lon="1.82519">
        <ele>134.80000305176</ele>
        <time>2016-06-11T12:51:22.000Z</time>
      </trkpt>
      <trkpt lat="48.84797" lon="1.82518">
        <ele>134.60000610352</ele>
        <time>2016-06-11T12:51:29.000Z</time>
      </trkpt>
      <trkpt lat="48.84782" lon="1.82517">
        <ele>134.39999389648</ele>
        <time>2016-06-11T12:51:38.000Z</time>
      </trkpt>
      <trkpt lat="48.84767" lon="1.82515">
        <ele>134.19999694824</ele>
        <time>2016-06-11T12:51:46.000Z</time>
      </trkpt>
      <trkpt lat="48.84756" lon="1.82514">
        <ele>134</ele>
        <time>2016-06-11T12:51:52.000Z</time>
      </trkpt>
      <trkpt lat="48.84741" lon="1.82512">
        <ele>133.60000610352</ele>
        <time>2016-06-11T12:52:02.000Z</time>
      </trkpt>
      <trkpt lat="48.8474" lon="1.82513">
        <ele>133.60000610352</ele>
        <time>2016-06-11T12:52:04.000Z</time>
      </trkpt>
      <trkpt lat="48.8474" lon="1.82513">
        <ele>133.60000610352</ele>
        <time>2016-06-11T12:52:09.000Z</time>
      </trkpt>
      <trkpt lat="48.84739" lon="1.82514">
        <ele>133.39999389648</ele>
        <time>2016-06-11T12:52:10.000Z</time>
      </trkpt>
      <trkpt lat="48.84737" lon="1.82526">
        <ele>133.60000610352</ele>
        <time>2016-06-11T12:52:16.000Z</time>
      </trkpt>
      <trkpt lat="48.8474" lon="1.82537">
        <ele>133.80000305176</ele>
        <time>2016-06-11T12:52:22.000Z</time>
      </trkpt>
      <trkpt lat="48.84757" lon="1.82557">
        <ele>134.39999389648</ele>
        <time>2016-06-11T12:52:36.000Z</time>
      </trkpt>
      <trkpt lat="48.84764" lon="1.82566">
        <ele>134.80000305176</ele>
        <time>2016-06-11T12:52:42.000Z</time>
      </trkpt>
      <trkpt lat="48.84774" lon="1.8258">
        <ele>135</ele>
        <time>2016-06-11T12:52:51.000Z</time>
      </trkpt>
      <trkpt lat="48.84786" lon="1.82595">
        <ele>135.39999389648</ele>
        <time>2016-06-11T12:53:01.000Z</time>
      </trkpt>
      <trkpt lat="48.84798" lon="1.82611">
        <ele>135.60000610352</ele>
        <time>2016-06-11T12:53:11.000Z</time>
      </trkpt>
      <trkpt lat="48.84805" lon="1.82621">
        <ele>135.80000305176</ele>
        <time>2016-06-11T12:53:17.000Z</time>
      </trkpt>
      <trkpt lat="48.84813" lon="1.82633">
        <ele>136</ele>
        <time>2016-06-11T12:53:23.000Z</time>
      </trkpt>
      <trkpt lat="48.84824" lon="1.82646">
        <ele>136.19999694824</ele>
        <time>2016-06-11T12:53:28.000Z</time>
      </trkpt>
      <trkpt lat="48.84833" lon="1.82658">
        <ele>136.39999389648</ele>
        <time>2016-06-11T12:53:33.000Z</time>
      </trkpt>
      <trkpt lat="48.84847" lon="1.82677">
        <ele>136.60000610352</ele>
        <time>2016-06-11T12:53:42.000Z</time>
      </trkpt>
      <trkpt lat="48.84855" lon="1.82688">
        <ele>136.60000610352</ele>
        <time>2016-06-11T12:53:49.000Z</time>
      </trkpt>
      <trkpt lat="48.84865" lon="1.82703">
        <ele>136.39999389648</ele>
        <time>2016-06-11T12:53:58.000Z</time>
      </trkpt>
      <trkpt lat="48.84875" lon="1.82717">
        <ele>136.19999694824</ele>
        <time>2016-06-11T12:54:06.000Z</time>
      </trkpt>
      <trkpt lat="48.84884" lon="1.82729">
        <ele>136.19999694824</ele>
        <time>2016-06-11T12:54:14.000Z</time>
      </trkpt>
      <trkpt lat="48.84892" lon="1.82741">
        <ele>136</ele>
        <time>2016-06-11T12:54:21.000Z</time>
      </trkpt>
      <trkpt lat="48.84901" lon="1.82752">
        <ele>136.39999389648</ele>
        <time>2016-06-11T12:54:29.000Z</time>
      </trkpt>
      <trkpt lat="48.84904" lon="1.82756">
        <ele>136.39999389648</ele>
        <time>2016-06-11T12:54:32.000Z</time>
      </trkpt>
      <trkpt lat="48.84904" lon="1.82757">
        <ele>136.39999389648</ele>
        <time>2016-06-11T12:54:33.000Z</time>
      </trkpt>
      <trkpt lat="48.84909" lon="1.82765">
        <ele>136.60000610352</ele>
        <time>2016-06-11T12:54:54.000Z</time>
      </trkpt>
      <trkpt lat="48.8492" lon="1.82778">
        <ele>137</ele>
        <time>2016-06-11T12:55:02.000Z</time>
      </trkpt>
      <trkpt lat="48.84927" lon="1.82792">
        <ele>137.19999694824</ele>
        <time>2016-06-11T12:55:09.000Z</time>
      </trkpt>
      <trkpt lat="48.84934" lon="1.82805">
        <ele>137.60000610352</ele>
        <time>2016-06-11T12:55:15.000Z</time>
      </trkpt>
      <trkpt lat="48.8494" lon="1.82821">
        <ele>138</ele>
        <time>2016-06-11T12:55:23.000Z</time>
      </trkpt>
      <trkpt lat="48.84948" lon="1.82841">
        <ele>137.60000610352</ele>
        <time>2016-06-11T12:55:33.000Z</time>
      </trkpt>
      <trkpt lat="48.84956" lon="1.82863">
        <ele>137</ele>
        <time>2016-06-11T12:55:40.000Z</time>
      </trkpt>
      <trkpt lat="48.84965" lon="1.82892">
        <ele>136.39999389648</ele>
        <time>2016-06-11T12:55:47.000Z</time>
      </trkpt>
      <trkpt lat="48.84972" lon="1.8291">
        <ele>136.19999694824</ele>
        <time>2016-06-11T12:55:53.000Z</time>
      </trkpt>
      <trkpt lat="48.8498" lon="1.82931">
        <ele>136.60000610352</ele>
        <time>2016-06-11T12:55:58.000Z</time>
      </trkpt>
      <trkpt lat="48.84995" lon="1.82963">
        <ele>137.39999389648</ele>
        <time>2016-06-11T12:56:05.000Z</time>
      </trkpt>
      <trkpt lat="48.85013" lon="1.82997">
        <ele>137.39999389648</ele>
        <time>2016-06-11T12:56:12.000Z</time>
      </trkpt>
      <trkpt lat="48.85039" lon="1.83034">
        <ele>137.60000610352</ele>
        <time>2016-06-11T12:56:19.000Z</time>
      </trkpt>
      <trkpt lat="48.85065" lon="1.8306">
        <ele>138.39999389648</ele>
        <time>2016-06-11T12:56:25.000Z</time>
      </trkpt>
      <trkpt lat="48.85069" lon="1.83065">
        <ele>138.39999389648</ele>
        <time>2016-06-11T12:56:26.000Z</time>
      </trkpt>
      <trkpt lat="48.8508" lon="1.83076">
        <ele>138.80000305176</ele>
        <time>2016-06-11T12:56:29.000Z</time>
      </trkpt>
      <trkpt lat="48.85092" lon="1.83082">
        <ele>139.39999389648</ele>
        <time>2016-06-11T12:56:32.000Z</time>
      </trkpt>
      <trkpt lat="48.85097" lon="1.83086">
        <ele>139.80000305176</ele>
        <time>2016-06-11T12:56:34.000Z</time>
      </trkpt>
      <trkpt lat="48.85105" lon="1.83094">
        <ele>140.19999694824</ele>
        <time>2016-06-11T12:56:38.000Z</time>
      </trkpt>
      <trkpt lat="48.85106" lon="1.83096">
        <ele>140.19999694824</ele>
        <time>2016-06-11T12:56:41.000Z</time>
      </trkpt>
      <trkpt lat="48.85112" lon="1.831">
        <ele>140.39999389648</ele>
        <time>2016-06-11T12:56:45.000Z</time>
      </trkpt>
      <trkpt lat="48.8512" lon="1.83107">
        <ele>140.60000610352</ele>
        <time>2016-06-11T12:56:51.000Z</time>
      </trkpt>
      <trkpt lat="48.85121" lon="1.83107">
        <ele>140.60000610352</ele>
        <time>2016-06-11T12:56:53.000Z</time>
      </trkpt>
      <trkpt lat="48.85118" lon="1.83102">
        <ele>140.60000610352</ele>
        <time>2016-06-11T12:56:56.000Z</time>
      </trkpt>
      <trkpt lat="48.85114" lon="1.83098">
        <ele>140.39999389648</ele>
        <time>2016-06-11T12:56:59.000Z</time>
      </trkpt>
      <trkpt lat="48.85105" lon="1.83092">
        <ele>140.19999694824</ele>
        <time>2016-06-11T12:57:05.000Z</time>
      </trkpt>
      <trkpt lat="48.85092" lon="1.83082">
        <ele>139.39999389648</ele>
        <time>2016-06-11T12:57:12.000Z</time>
      </trkpt>
      <trkpt lat="48.85082" lon="1.83078">
        <ele>139</ele>
        <time>2016-06-11T12:57:18.000Z</time>
      </trkpt>
      <trkpt lat="48.8508" lon="1.83079">
        <ele>138.80000305176</ele>
        <time>2016-06-11T12:57:20.000Z</time>
      </trkpt>
      <trkpt lat="48.85077" lon="1.83083">
        <ele>138.80000305176</ele>
        <time>2016-06-11T12:57:23.000Z</time>
      </trkpt>
      <trkpt lat="48.85077" lon="1.83085">
        <ele>138.80000305176</ele>
        <time>2016-06-11T12:57:24.000Z</time>
      </trkpt>
      <trkpt lat="48.85076" lon="1.83089">
        <ele>138.80000305176</ele>
        <time>2016-06-11T12:57:27.000Z</time>
      </trkpt>
      <trkpt lat="48.85077" lon="1.83095">
        <ele>138.80000305176</ele>
        <time>2016-06-11T12:57:30.000Z</time>
      </trkpt>
      <trkpt lat="48.85078" lon="1.83096">
        <ele>139</ele>
        <time>2016-06-11T12:57:31.000Z</time>
      </trkpt>
      <trkpt lat="48.85085" lon="1.831">
        <ele>139.39999389648</ele>
        <time>2016-06-11T12:57:35.000Z</time>
      </trkpt>
      <trkpt lat="48.85096" lon="1.83111">
        <ele>140</ele>
        <time>2016-06-11T12:57:40.000Z</time>
      </trkpt>
      <trkpt lat="48.85109" lon="1.83124">
        <ele>140.60000610352</ele>
        <time>2016-06-11T12:57:45.000Z</time>
      </trkpt>
      <trkpt lat="48.85122" lon="1.83135">
        <ele>141</ele>
        <time>2016-06-11T12:57:50.000Z</time>
      </trkpt>
      <trkpt lat="48.85135" lon="1.83144">
        <ele>141.19999694824</ele>
        <time>2016-06-11T12:57:55.000Z</time>
      </trkpt>
      <trkpt lat="48.85143" lon="1.83154">
        <ele>141.39999389648</ele>
        <time>2016-06-11T12:57:59.000Z</time>
      </trkpt>
      <trkpt lat="48.85146" lon="1.83156">
        <ele>141.39999389648</ele>
        <time>2016-06-11T12:58:00.000Z</time>
      </trkpt>
      <trkpt lat="48.85152" lon="1.83166">
        <ele>141.80000305176</ele>
        <time>2016-06-11T12:58:04.000Z</time>
      </trkpt>
      <trkpt lat="48.85157" lon="1.83171">
        <ele>142</ele>
        <time>2016-06-11T12:58:08.000Z</time>
      </trkpt>
      <trkpt lat="48.85159" lon="1.83172">
        <ele>142</ele>
        <time>2016-06-11T12:58:09.000Z</time>
      </trkpt>
      <trkpt lat="48.85162" lon="1.83178">
        <ele>142.19999694824</ele>
        <time>2016-06-11T12:58:12.000Z</time>
      </trkpt>
      <trkpt lat="48.85163" lon="1.83179">
        <ele>142.19999694824</ele>
        <time>2016-06-11T12:58:13.000Z</time>
      </trkpt>
      <trkpt lat="48.85172" lon="1.83188">
        <ele>142.60000610352</ele>
        <time>2016-06-11T12:58:17.000Z</time>
      </trkpt>
      <trkpt lat="48.85186" lon="1.83205">
        <ele>143.19999694824</ele>
        <time>2016-06-11T12:58:22.000Z</time>
      </trkpt>
      <trkpt lat="48.85202" lon="1.83224">
        <ele>142.80000305176</ele>
        <time>2016-06-11T12:58:28.000Z</time>
      </trkpt>
      <trkpt lat="48.85209" lon="1.83234">
        <ele>142.60000610352</ele>
        <time>2016-06-11T12:58:31.000Z</time>
      </trkpt>
      <trkpt lat="48.85218" lon="1.83249">
        <ele>143.19999694824</ele>
        <time>2016-06-11T12:58:35.000Z</time>
      </trkpt>
      <trkpt lat="48.85222" lon="1.83262">
        <ele>144</ele>
        <time>2016-06-11T12:58:38.000Z</time>
      </trkpt>
      <trkpt lat="48.85221" lon="1.83267">
        <ele>144.60000610352</ele>
        <time>2016-06-11T12:58:39.000Z</time>
      </trkpt>
      <trkpt lat="48.8522" lon="1.83294">
        <ele>145.60000610352</ele>
        <time>2016-06-11T12:58:44.000Z</time>
      </trkpt>
      <trkpt lat="48.85221" lon="1.83314">
        <ele>146.39999389648</ele>
        <time>2016-06-11T12:58:48.000Z</time>
      </trkpt>
      <trkpt lat="48.85218" lon="1.83337">
        <ele>146.39999389648</ele>
        <time>2016-06-11T12:58:52.000Z</time>
      </trkpt>
      <trkpt lat="48.85217" lon="1.8336">
        <ele>145.80000305176</ele>
        <time>2016-06-11T12:58:56.000Z</time>
      </trkpt>
      <trkpt lat="48.85216" lon="1.83385">
        <ele>144.60000610352</ele>
        <time>2016-06-11T12:59:00.000Z</time>
      </trkpt>
      <trkpt lat="48.85214" lon="1.83404">
        <ele>143.60000610352</ele>
        <time>2016-06-11T12:59:03.000Z</time>
      </trkpt>
      <trkpt lat="48.85212" lon="1.83425">
        <ele>143.39999389648</ele>
        <time>2016-06-11T12:59:06.000Z</time>
      </trkpt>
      <trkpt lat="48.85212" lon="1.83431">
        <ele>143.19999694824</ele>
        <time>2016-06-11T12:59:07.000Z</time>
      </trkpt>
      <trkpt lat="48.85207" lon="1.83457">
        <ele>142</ele>
        <time>2016-06-11T12:59:11.000Z</time>
      </trkpt>
      <trkpt lat="48.85207" lon="1.83463">
        <ele>141.80000305176</ele>
        <time>2016-06-11T12:59:12.000Z</time>
      </trkpt>
      <trkpt lat="48.85204" lon="1.83481">
        <ele>141</ele>
        <time>2016-06-11T12:59:15.000Z</time>
      </trkpt>
      <trkpt lat="48.85203" lon="1.83487">
        <ele>140.80000305176</ele>
        <time>2016-06-11T12:59:16.000Z</time>
      </trkpt>
      <trkpt lat="48.852" lon="1.83497">
        <ele>140.19999694824</ele>
        <time>2016-06-11T12:59:18.000Z</time>
      </trkpt>
      <trkpt lat="48.85197" lon="1.83514">
        <ele>139.19999694824</ele>
        <time>2016-06-11T12:59:21.000Z</time>
      </trkpt>
      <trkpt lat="48.85191" lon="1.83547">
        <ele>137.39999389648</ele>
        <time>2016-06-11T12:59:27.000Z</time>
      </trkpt>
      <trkpt lat="48.85184" lon="1.83583">
        <ele>135.60000610352</ele>
        <time>2016-06-11T12:59:33.000Z</time>
      </trkpt>
      <trkpt lat="48.85181" lon="1.83608">
        <ele>135.19999694824</ele>
        <time>2016-06-11T12:59:37.000Z</time>
      </trkpt>
      <trkpt lat="48.8518" lon="1.83613">
        <ele>135.19999694824</ele>
        <time>2016-06-11T12:59:38.000Z</time>
      </trkpt>
      <trkpt lat="48.85176" lon="1.83642">
        <ele>134.60000610352</ele>
        <time>2016-06-11T12:59:43.000Z</time>
      </trkpt>
      <trkpt lat="48.8517" lon="1.83684">
        <ele>133</ele>
        <time>2016-06-11T12:59:50.000Z</time>
      </trkpt>
      <trkpt lat="48.8517" lon="1.8371">
        <ele>132</ele>
        <time>2016-06-11T12:59:55.000Z</time>
      </trkpt>
      <trkpt lat="48.85168" lon="1.83733">
        <ele>131</ele>
        <time>2016-06-11T13:00:00.000Z</time>
      </trkpt>
      <trkpt lat="48.85168" lon="1.83745">
        <ele>130.80000305176</ele>
        <time>2016-06-11T13:00:03.000Z</time>
      </trkpt>
      <trkpt lat="48.85168" lon="1.83749">
        <ele>130.80000305176</ele>
        <time>2016-06-11T13:00:04.000Z</time>
      </trkpt>
      <trkpt lat="48.85168" lon="1.8377">
        <ele>130.80000305176</ele>
        <time>2016-06-11T13:00:09.000Z</time>
      </trkpt>
      <trkpt lat="48.85166" lon="1.83793">
        <ele>130.60000610352</ele>
        <time>2016-06-11T13:00:14.000Z</time>
      </trkpt>
      <trkpt lat="48.85164" lon="1.83812">
        <ele>131.19999694824</ele>
        <time>2016-06-11T13:00:18.000Z</time>
      </trkpt>
      <trkpt lat="48.85161" lon="1.83836">
        <ele>131.80000305176</ele>
        <time>2016-06-11T13:00:23.000Z</time>
      </trkpt>
      <trkpt lat="48.85161" lon="1.83858">
        <ele>132</ele>
        <time>2016-06-11T13:00:27.000Z</time>
      </trkpt>
      <trkpt lat="48.85161" lon="1.83868">
        <ele>132.19999694824</ele>
        <time>2016-06-11T13:00:29.000Z</time>
      </trkpt>
      <trkpt lat="48.8516" lon="1.83881">
        <ele>132.39999389648</ele>
        <time>2016-06-11T13:00:31.000Z</time>
      </trkpt>
      <trkpt lat="48.85157" lon="1.83904">
        <ele>132.60000610352</ele>
        <time>2016-06-11T13:00:35.000Z</time>
      </trkpt>
      <trkpt lat="48.85155" lon="1.83929">
        <ele>132.39999389648</ele>
        <time>2016-06-11T13:00:39.000Z</time>
      </trkpt>
      <trkpt lat="48.85152" lon="1.8395">
        <ele>132</ele>
        <time>2016-06-11T13:00:43.000Z</time>
      </trkpt>
      <trkpt lat="48.85147" lon="1.83976">
        <ele>131.60000610352</ele>
        <time>2016-06-11T13:00:48.000Z</time>
      </trkpt>
      <trkpt lat="48.85141" lon="1.84008">
        <ele>131</ele>
        <time>2016-06-11T13:00:54.000Z</time>
      </trkpt>
      <trkpt lat="48.85136" lon="1.84036">
        <ele>130.39999389648</ele>
        <time>2016-06-11T13:00:59.000Z</time>
      </trkpt>
      <trkpt lat="48.85133" lon="1.84062">
        <ele>130.19999694824</ele>
        <time>2016-06-11T13:01:04.000Z</time>
      </trkpt>
      <trkpt lat="48.8513" lon="1.84087">
        <ele>129.39999389648</ele>
        <time>2016-06-11T13:01:09.000Z</time>
      </trkpt>
      <trkpt lat="48.85126" lon="1.84104">
        <ele>129.19999694824</ele>
        <time>2016-06-11T13:01:13.000Z</time>
      </trkpt>
      <trkpt lat="48.85126" lon="1.84108">
        <ele>129.19999694824</ele>
        <time>2016-06-11T13:01:14.000Z</time>
      </trkpt>
      <trkpt lat="48.85123" lon="1.8412">
        <ele>129.39999389648</ele>
        <time>2016-06-11T13:01:18.000Z</time>
      </trkpt>
      <trkpt lat="48.8512" lon="1.84138">
        <ele>129.39999389648</ele>
        <time>2016-06-11T13:01:25.000Z</time>
      </trkpt>
      <trkpt lat="48.85116" lon="1.84147">
        <ele>129.60000610352</ele>
        <time>2016-06-11T13:01:30.000Z</time>
      </trkpt>
      <trkpt lat="48.85116" lon="1.84149">
        <ele>129.60000610352</ele>
        <time>2016-06-11T13:01:31.000Z</time>
      </trkpt>
      <trkpt lat="48.85116" lon="1.84165">
        <ele>129.60000610352</ele>
        <time>2016-06-11T13:01:37.000Z</time>
      </trkpt>
      <trkpt lat="48.85111" lon="1.84183">
        <ele>129.19999694824</ele>
        <time>2016-06-11T13:01:44.000Z</time>
      </trkpt>
      <trkpt lat="48.85108" lon="1.84201">
        <ele>128.80000305176</ele>
        <time>2016-06-11T13:01:51.000Z</time>
      </trkpt>
      <trkpt lat="48.85108" lon="1.84221">
        <ele>128.39999389648</ele>
        <time>2016-06-11T13:01:59.000Z</time>
      </trkpt>
      <trkpt lat="48.8511" lon="1.84239">
        <ele>128</ele>
        <time>2016-06-11T13:02:06.000Z</time>
      </trkpt>
      <trkpt lat="48.85109" lon="1.84254">
        <ele>127.80000305176</ele>
        <time>2016-06-11T13:02:12.000Z</time>
      </trkpt>
      <trkpt lat="48.85108" lon="1.84275">
        <ele>127.59999847412</ele>
        <time>2016-06-11T13:02:21.000Z</time>
      </trkpt>
      <trkpt lat="48.85109" lon="1.84292">
        <ele>127.19999694824</ele>
        <time>2016-06-11T13:02:28.000Z</time>
      </trkpt>
      <trkpt lat="48.85107" lon="1.84304">
        <ele>127.19999694824</ele>
        <time>2016-06-11T13:02:33.000Z</time>
      </trkpt>
      <trkpt lat="48.85106" lon="1.84315">
        <ele>127</ele>
        <time>2016-06-11T13:02:38.000Z</time>
      </trkpt>
      <trkpt lat="48.85104" lon="1.84323">
        <ele>127</ele>
        <time>2016-06-11T13:02:42.000Z</time>
      </trkpt>
      <trkpt lat="48.85104" lon="1.84326">
        <ele>127</ele>
        <time>2016-06-11T13:02:43.000Z</time>
      </trkpt>
      <trkpt lat="48.85099" lon="1.84341">
        <ele>126.80000305176</ele>
        <time>2016-06-11T13:02:50.000Z</time>
      </trkpt>
      <trkpt lat="48.85094" lon="1.84358">
        <ele>126.80000305176</ele>
        <time>2016-06-11T13:02:57.000Z</time>
      </trkpt>
      <trkpt lat="48.85092" lon="1.8437">
        <ele>126.59999847412</ele>
        <time>2016-06-11T13:03:02.000Z</time>
      </trkpt>
      <trkpt lat="48.85088" lon="1.84391">
        <ele>126.40000152588</ele>
        <time>2016-06-11T13:03:10.000Z</time>
      </trkpt>
      <trkpt lat="48.85087" lon="1.84407">
        <ele>125.80000305176</ele>
        <time>2016-06-11T13:03:16.000Z</time>
      </trkpt>
      <trkpt lat="48.85085" lon="1.84422">
        <ele>125.59999847412</ele>
        <time>2016-06-11T13:03:22.000Z</time>
      </trkpt>
      <trkpt lat="48.85081" lon="1.84443">
        <ele>125.19999694824</ele>
        <time>2016-06-11T13:03:30.000Z</time>
      </trkpt>
      <trkpt lat="48.85078" lon="1.84459">
        <ele>125</ele>
        <time>2016-06-11T13:03:36.000Z</time>
      </trkpt>
      <trkpt lat="48.85077" lon="1.84474">
        <ele>124.59999847412</ele>
        <time>2016-06-11T13:03:42.000Z</time>
      </trkpt>
      <trkpt lat="48.85075" lon="1.84491">
        <ele>124.19999694824</ele>
        <time>2016-06-11T13:03:49.000Z</time>
      </trkpt>
      <trkpt lat="48.8507" lon="1.84509">
        <ele>123.59999847412</ele>
        <time>2016-06-11T13:03:57.000Z</time>
      </trkpt>
      <trkpt lat="48.85068" lon="1.84528">
        <ele>123.19999694824</ele>
        <time>2016-06-11T13:04:03.000Z</time>
      </trkpt>
      <trkpt lat="48.85065" lon="1.8456">
        <ele>122.59999847412</ele>
        <time>2016-06-11T13:04:10.000Z</time>
      </trkpt>
      <trkpt lat="48.8506" lon="1.8459">
        <ele>122</ele>
        <time>2016-06-11T13:04:16.000Z</time>
      </trkpt>
      <trkpt lat="48.85056" lon="1.84614">
        <ele>121.40000152588</ele>
        <time>2016-06-11T13:04:21.000Z</time>
      </trkpt>
      <trkpt lat="48.85052" lon="1.84643">
        <ele>121.19999694824</ele>
        <time>2016-06-11T13:04:27.000Z</time>
      </trkpt>
      <trkpt lat="48.85052" lon="1.84655">
        <ele>121</ele>
        <time>2016-06-11T13:04:32.000Z</time>
      </trkpt>
      <trkpt lat="48.85051" lon="1.84657">
        <ele>121</ele>
        <time>2016-06-11T13:04:33.000Z</time>
      </trkpt>
      <trkpt lat="48.85051" lon="1.84663">
        <ele>120.80000305176</ele>
        <time>2016-06-11T13:04:36.000Z</time>
      </trkpt>
      <trkpt lat="48.8505" lon="1.84669">
        <ele>120.59999847412</ele>
        <time>2016-06-11T13:04:38.000Z</time>
      </trkpt>
      <trkpt lat="48.85049" lon="1.84683">
        <ele>120.40000152588</ele>
        <time>2016-06-11T13:04:43.000Z</time>
      </trkpt>
      <trkpt lat="48.85046" lon="1.84704">
        <ele>119.59999847412</ele>
        <time>2016-06-11T13:04:51.000Z</time>
      </trkpt>
      <trkpt lat="48.85043" lon="1.8472">
        <ele>119</ele>
        <time>2016-06-11T13:04:57.000Z</time>
      </trkpt>
      <trkpt lat="48.85042" lon="1.84737">
        <ele>118.40000152588</ele>
        <time>2016-06-11T13:05:04.000Z</time>
      </trkpt>
      <trkpt lat="48.85042" lon="1.84739">
        <ele>118.19999694824</ele>
        <time>2016-06-11T13:05:05.000Z</time>
      </trkpt>
      <trkpt lat="48.85039" lon="1.84749">
        <ele>117.80000305176</ele>
        <time>2016-06-11T13:05:09.000Z</time>
      </trkpt>
      <trkpt lat="48.85037" lon="1.8476">
        <ele>117.19999694824</ele>
        <time>2016-06-11T13:05:14.000Z</time>
      </trkpt>
      <trkpt lat="48.85038" lon="1.84775">
        <ele>116.40000152588</ele>
        <time>2016-06-11T13:05:21.000Z</time>
      </trkpt>
      <trkpt lat="48.8504" lon="1.84792">
        <ele>115.59999847412</ele>
        <time>2016-06-11T13:05:28.000Z</time>
      </trkpt>
      <trkpt lat="48.8504" lon="1.84798">
        <ele>115.40000152588</ele>
        <time>2016-06-11T13:05:33.000Z</time>
      </trkpt>
      <trkpt lat="48.85041" lon="1.84798">
        <ele>115.40000152588</ele>
        <time>2016-06-11T13:05:34.000Z</time>
      </trkpt>
      <trkpt lat="48.85042" lon="1.84799">
        <ele>115.40000152588</ele>
        <time>2016-06-11T13:05:35.000Z</time>
      </trkpt>
      <trkpt lat="48.85042" lon="1.84802">
        <ele>115.19999694824</ele>
        <time>2016-06-11T13:05:38.000Z</time>
      </trkpt>
      <trkpt lat="48.85042" lon="1.84803">
        <ele>115.19999694824</ele>
        <time>2016-06-11T13:05:39.000Z</time>
      </trkpt>
      <trkpt lat="48.85043" lon="1.84843">
        <ele>114</ele>
        <time>2016-06-11T13:09:58.000Z</time>
      </trkpt>
      <trkpt lat="48.85043" lon="1.84847">
        <ele>114</ele>
        <time>2016-06-11T13:10:00.000Z</time>
      </trkpt>
      <trkpt lat="48.85044" lon="1.84851">
        <ele>114</ele>
        <time>2016-06-11T13:10:02.000Z</time>
      </trkpt>
      <trkpt lat="48.85045" lon="1.84856">
        <ele>113.80000305176</ele>
        <time>2016-06-11T13:10:05.000Z</time>
      </trkpt>
      <trkpt lat="48.85047" lon="1.84865">
        <ele>113.80000305176</ele>
        <time>2016-06-11T13:10:10.000Z</time>
      </trkpt>
      <trkpt lat="48.85051" lon="1.84876">
        <ele>113.80000305176</ele>
        <time>2016-06-11T13:10:15.000Z</time>
      </trkpt>
      <trkpt lat="48.85052" lon="1.8488">
        <ele>113.59999847412</ele>
        <time>2016-06-11T13:10:17.000Z</time>
      </trkpt>
      <trkpt lat="48.85053" lon="1.84889">
        <ele>113.59999847412</ele>
        <time>2016-06-11T13:10:21.000Z</time>
      </trkpt>
      <trkpt lat="48.85054" lon="1.8489">
        <ele>113.59999847412</ele>
        <time>2016-06-11T13:10:22.000Z</time>
      </trkpt>
      <trkpt lat="48.85055" lon="1.84897">
        <ele>113.40000152588</ele>
        <time>2016-06-11T13:10:25.000Z</time>
      </trkpt>
      <trkpt lat="48.85055" lon="1.84909">
        <ele>113.19999694824</ele>
        <time>2016-06-11T13:10:31.000Z</time>
      </trkpt>
      <trkpt lat="48.85058" lon="1.84918">
        <ele>113</ele>
        <time>2016-06-11T13:10:35.000Z</time>
      </trkpt>
      <trkpt lat="48.85059" lon="1.84922">
        <ele>112.80000305176</ele>
        <time>2016-06-11T13:10:37.000Z</time>
      </trkpt>
      <trkpt lat="48.8506" lon="1.84929">
        <ele>112.59999847412</ele>
        <time>2016-06-11T13:10:40.000Z</time>
      </trkpt>
      <trkpt lat="48.8506" lon="1.84932">
        <ele>112.59999847412</ele>
        <time>2016-06-11T13:10:41.000Z</time>
      </trkpt>
      <trkpt lat="48.8506" lon="1.8494">
        <ele>112.19999694824</ele>
        <time>2016-06-11T13:10:45.000Z</time>
      </trkpt>
      <trkpt lat="48.85064" lon="1.84952">
        <ele>111.80000305176</ele>
        <time>2016-06-11T13:10:50.000Z</time>
      </trkpt>
      <trkpt lat="48.85065" lon="1.84955">
        <ele>111.59999847412</ele>
        <time>2016-06-11T13:10:51.000Z</time>
      </trkpt>
      <trkpt lat="48.85066" lon="1.84957">
        <ele>111.59999847412</ele>
        <time>2016-06-11T13:10:52.000Z</time>
      </trkpt>
      <trkpt lat="48.85066" lon="1.8496">
        <ele>111.40000152588</ele>
        <time>2016-06-11T13:10:54.000Z</time>
      </trkpt>
      <trkpt lat="48.8507" lon="1.8497">
        <ele>111</ele>
        <time>2016-06-11T13:10:58.000Z</time>
      </trkpt>
      <trkpt lat="48.85071" lon="1.84972">
        <ele>111</ele>
        <time>2016-06-11T13:10:59.000Z</time>
      </trkpt>
      <trkpt lat="48.85072" lon="1.84977">
        <ele>110.80000305176</ele>
        <time>2016-06-11T13:11:01.000Z</time>
      </trkpt>
      <trkpt lat="48.85072" lon="1.84984">
        <ele>110.40000152588</ele>
        <time>2016-06-11T13:11:04.000Z</time>
      </trkpt>
      <trkpt lat="48.85072" lon="1.84993">
        <ele>110</ele>
        <time>2016-06-11T13:11:08.000Z</time>
      </trkpt>
      <trkpt lat="48.85074" lon="1.85004">
        <ele>109.59999847412</ele>
        <time>2016-06-11T13:11:13.000Z</time>
      </trkpt>
      <trkpt lat="48.85075" lon="1.85019">
        <ele>109.19999694824</ele>
        <time>2016-06-11T13:11:18.000Z</time>
      </trkpt>
      <trkpt lat="48.85079" lon="1.85031">
        <ele>108.80000305176</ele>
        <time>2016-06-11T13:11:23.000Z</time>
      </trkpt>
      <trkpt lat="48.85083" lon="1.85043">
        <ele>108.59999847412</ele>
        <time>2016-06-11T13:11:27.000Z</time>
      </trkpt>
      <trkpt lat="48.85083" lon="1.85045">
        <ele>108.40000152588</ele>
        <time>2016-06-11T13:11:28.000Z</time>
      </trkpt>
      <trkpt lat="48.85083" lon="1.85053">
        <ele>108</ele>
        <time>2016-06-11T13:11:31.000Z</time>
      </trkpt>
      <trkpt lat="48.85083" lon="1.85056">
        <ele>108</ele>
        <time>2016-06-11T13:11:32.000Z</time>
      </trkpt>
      <trkpt lat="48.85084" lon="1.85063">
        <ele>107.59999847412</ele>
        <time>2016-06-11T13:11:35.000Z</time>
      </trkpt>
      <trkpt lat="48.85084" lon="1.85066">
        <ele>107.59999847412</ele>
        <time>2016-06-11T13:11:37.000Z</time>
      </trkpt>
      <trkpt lat="48.85086" lon="1.85076">
        <ele>107</ele>
        <time>2016-06-11T13:11:41.000Z</time>
      </trkpt>
      <trkpt lat="48.85087" lon="1.85085">
        <ele>106.40000152588</ele>
        <time>2016-06-11T13:11:44.000Z</time>
      </trkpt>
      <trkpt lat="48.8509" lon="1.85091">
        <ele>106.19999694824</ele>
        <time>2016-06-11T13:11:46.000Z</time>
      </trkpt>
      <trkpt lat="48.85093" lon="1.85099">
        <ele>105.59999847412</ele>
        <time>2016-06-11T13:11:50.000Z</time>
      </trkpt>
      <trkpt lat="48.85097" lon="1.85108">
        <ele>105</ele>
        <time>2016-06-11T13:11:54.000Z</time>
      </trkpt>
      <trkpt lat="48.85099" lon="1.85119">
        <ele>104.40000152588</ele>
        <time>2016-06-11T13:11:58.000Z</time>
      </trkpt>
      <trkpt lat="48.85102" lon="1.85126">
        <ele>104</ele>
        <time>2016-06-11T13:12:01.000Z</time>
      </trkpt>
      <trkpt lat="48.85103" lon="1.85131">
        <ele>103.59999847412</ele>
        <time>2016-06-11T13:12:03.000Z</time>
      </trkpt>
      <trkpt lat="48.85104" lon="1.85134">
        <ele>103.40000152588</ele>
        <time>2016-06-11T13:12:04.000Z</time>
      </trkpt>
      <trkpt lat="48.85104" lon="1.85141">
        <ele>103</ele>
        <time>2016-06-11T13:12:06.000Z</time>
      </trkpt>
      <trkpt lat="48.85107" lon="1.85155">
        <ele>102</ele>
        <time>2016-06-11T13:12:11.000Z</time>
      </trkpt>
      <trkpt lat="48.85108" lon="1.8516">
        <ele>101.80000305176</ele>
        <time>2016-06-11T13:12:13.000Z</time>
      </trkpt>
      <trkpt lat="48.85108" lon="1.85163">
        <ele>101.59999847412</ele>
        <time>2016-06-11T13:12:14.000Z</time>
      </trkpt>
      <trkpt lat="48.8511" lon="1.85171">
        <ele>101</ele>
        <time>2016-06-11T13:12:17.000Z</time>
      </trkpt>
      <trkpt lat="48.85113" lon="1.85182">
        <ele>100.40000152588</ele>
        <time>2016-06-11T13:12:21.000Z</time>
      </trkpt>
      <trkpt lat="48.85116" lon="1.85194">
        <ele>99.599998474121</ele>
        <time>2016-06-11T13:12:25.000Z</time>
      </trkpt>
      <trkpt lat="48.85117" lon="1.85197">
        <ele>99.400001525879</ele>
        <time>2016-06-11T13:12:26.000Z</time>
      </trkpt>
      <trkpt lat="48.85119" lon="1.85212">
        <ele>98.400001525879</ele>
        <time>2016-06-11T13:12:31.000Z</time>
      </trkpt>
      <trkpt lat="48.8512" lon="1.85221">
        <ele>97.800003051758</ele>
        <time>2016-06-11T13:12:34.000Z</time>
      </trkpt>
      <trkpt lat="48.85123" lon="1.85228">
        <ele>97.400001525879</ele>
        <time>2016-06-11T13:12:37.000Z</time>
      </trkpt>
      <trkpt lat="48.85124" lon="1.85234">
        <ele>97</ele>
        <time>2016-06-11T13:12:41.000Z</time>
      </trkpt>
      <trkpt lat="48.85125" lon="1.85238">
        <ele>96.800003051758</ele>
        <time>2016-06-11T13:12:43.000Z</time>
      </trkpt>
      <trkpt lat="48.85127" lon="1.85248">
        <ele>97.800003051758</ele>
        <time>2016-06-11T13:12:48.000Z</time>
      </trkpt>
      <trkpt lat="48.85126" lon="1.8525">
        <ele>97.800003051758</ele>
        <time>2016-06-11T13:12:49.000Z</time>
      </trkpt>
      <trkpt lat="48.85127" lon="1.85262">
        <ele>99</ele>
        <time>2016-06-11T13:12:53.000Z</time>
      </trkpt>
      <trkpt lat="48.85128" lon="1.85274">
        <ele>99</ele>
        <time>2016-06-11T13:12:58.000Z</time>
      </trkpt>
      <trkpt lat="48.85131" lon="1.85287">
        <ele>99.400001525879</ele>
        <time>2016-06-11T13:13:03.000Z</time>
      </trkpt>
      <trkpt lat="48.85133" lon="1.85299">
        <ele>99.599998474121</ele>
        <time>2016-06-11T13:13:08.000Z</time>
      </trkpt>
      <trkpt lat="48.85135" lon="1.85304">
        <ele>99.800003051758</ele>
        <time>2016-06-11T13:13:10.000Z</time>
      </trkpt>
      <trkpt lat="48.85136" lon="1.85309">
        <ele>99.800003051758</ele>
        <time>2016-06-11T13:13:12.000Z</time>
      </trkpt>
      <trkpt lat="48.85136" lon="1.85313">
        <ele>99.800003051758</ele>
        <time>2016-06-11T13:13:14.000Z</time>
      </trkpt>
      <trkpt lat="48.8514" lon="1.85328">
        <ele>100.40000152588</ele>
        <time>2016-06-11T13:13:20.000Z</time>
      </trkpt>
      <trkpt lat="48.85143" lon="1.85343">
        <ele>101.19999694824</ele>
        <time>2016-06-11T13:13:26.000Z</time>
      </trkpt>
      <trkpt lat="48.85145" lon="1.8536">
        <ele>102</ele>
        <time>2016-06-11T13:13:33.000Z</time>
      </trkpt>
      <trkpt lat="48.85146" lon="1.85364">
        <ele>102.19999694824</ele>
        <time>2016-06-11T13:13:35.000Z</time>
      </trkpt>
      <trkpt lat="48.85147" lon="1.8537">
        <ele>102.40000152588</ele>
        <time>2016-06-11T13:13:38.000Z</time>
      </trkpt>
      <trkpt lat="48.8515" lon="1.85381">
        <ele>102.80000305176</ele>
        <time>2016-06-11T13:13:43.000Z</time>
      </trkpt>
      <trkpt lat="48.85152" lon="1.85388">
        <ele>103.19999694824</ele>
        <time>2016-06-11T13:13:47.000Z</time>
      </trkpt>
      <trkpt lat="48.85153" lon="1.85391">
        <ele>103.19999694824</ele>
        <time>2016-06-11T13:13:49.000Z</time>
      </trkpt>
      <trkpt lat="48.85153" lon="1.85396">
        <ele>103.19999694824</ele>
        <time>2016-06-11T13:13:52.000Z</time>
      </trkpt>
      <trkpt lat="48.85153" lon="1.85399">
        <ele>103.19999694824</ele>
        <time>2016-06-11T13:13:54.000Z</time>
      </trkpt>
      <trkpt lat="48.85153" lon="1.85403">
        <ele>103.19999694824</ele>
        <time>2016-06-11T13:13:56.000Z</time>
      </trkpt>
      <trkpt lat="48.85153" lon="1.85414">
        <ele>103</ele>
        <time>2016-06-11T13:14:00.000Z</time>
      </trkpt>
      <trkpt lat="48.85156" lon="1.85423">
        <ele>103.59999847412</ele>
        <time>2016-06-11T13:14:04.000Z</time>
      </trkpt>
      <trkpt lat="48.85157" lon="1.85426">
        <ele>103.80000305176</ele>
        <time>2016-06-11T13:14:06.000Z</time>
      </trkpt>
      <trkpt lat="48.85157" lon="1.85431">
        <ele>103.80000305176</ele>
        <time>2016-06-11T13:14:08.000Z</time>
      </trkpt>
      <trkpt lat="48.85159" lon="1.85442">
        <ele>104.19999694824</ele>
        <time>2016-06-11T13:14:13.000Z</time>
      </trkpt>
      <trkpt lat="48.8516" lon="1.85444">
        <ele>104.40000152588</ele>
        <time>2016-06-11T13:14:14.000Z</time>
      </trkpt>
      <trkpt lat="48.85164" lon="1.85455">
        <ele>105.19999694824</ele>
        <time>2016-06-11T13:14:19.000Z</time>
      </trkpt>
      <trkpt lat="48.85166" lon="1.8547">
        <ele>105.59999847412</ele>
        <time>2016-06-11T13:14:25.000Z</time>
      </trkpt>
      <trkpt lat="48.8517" lon="1.85489">
        <ele>106.80000305176</ele>
        <time>2016-06-11T13:14:32.000Z</time>
      </trkpt>
      <trkpt lat="48.85172" lon="1.85503">
        <ele>106.59999847412</ele>
        <time>2016-06-11T13:14:37.000Z</time>
      </trkpt>
      <trkpt lat="48.85178" lon="1.85525">
        <ele>106.40000152588</ele>
        <time>2016-06-11T13:14:45.000Z</time>
      </trkpt>
      <trkpt lat="48.85179" lon="1.85531">
        <ele>106.19999694824</ele>
        <time>2016-06-11T13:14:48.000Z</time>
      </trkpt>
      <trkpt lat="48.8518" lon="1.85533">
        <ele>106.19999694824</ele>
        <time>2016-06-11T13:14:49.000Z</time>
      </trkpt>
      <trkpt lat="48.85182" lon="1.85545">
        <ele>106.19999694824</ele>
        <time>2016-06-11T13:14:54.000Z</time>
      </trkpt>
      <trkpt lat="48.85183" lon="1.85553">
        <ele>106</ele>
        <time>2016-06-11T13:14:57.000Z</time>
      </trkpt>
      <trkpt lat="48.85185" lon="1.85557">
        <ele>106</ele>
        <time>2016-06-11T13:14:59.000Z</time>
      </trkpt>
      <trkpt lat="48.85186" lon="1.85569">
        <ele>105.59999847412</ele>
        <time>2016-06-11T13:15:05.000Z</time>
      </trkpt>
      <trkpt lat="48.85185" lon="1.85583">
        <ele>104.59999847412</ele>
        <time>2016-06-11T13:15:11.000Z</time>
      </trkpt>
      <trkpt lat="48.85185" lon="1.85585">
        <ele>104.59999847412</ele>
        <time>2016-06-11T13:15:12.000Z</time>
      </trkpt>
      <trkpt lat="48.85187" lon="1.8559">
        <ele>104.40000152588</ele>
        <time>2016-06-11T13:15:14.000Z</time>
      </trkpt>
      <trkpt lat="48.85189" lon="1.856">
        <ele>103.59999847412</ele>
        <time>2016-06-11T13:15:18.000Z</time>
      </trkpt>
      <trkpt lat="48.85192" lon="1.85614">
        <ele>103</ele>
        <time>2016-06-11T13:15:23.000Z</time>
      </trkpt>
      <trkpt lat="48.85196" lon="1.85629">
        <ele>102.80000305176</ele>
        <time>2016-06-11T13:15:29.000Z</time>
      </trkpt>
      <trkpt lat="48.85199" lon="1.85643">
        <ele>102.19999694824</ele>
        <time>2016-06-11T13:15:35.000Z</time>
      </trkpt>
      <trkpt lat="48.852" lon="1.85646">
        <ele>102.19999694824</ele>
        <time>2016-06-11T13:15:36.000Z</time>
      </trkpt>
      <trkpt lat="48.85201" lon="1.85655">
        <ele>101.59999847412</ele>
        <time>2016-06-11T13:15:40.000Z</time>
      </trkpt>
      <trkpt lat="48.85203" lon="1.85663">
        <ele>101.59999847412</ele>
        <time>2016-06-11T13:15:43.000Z</time>
      </trkpt>
      <trkpt lat="48.85205" lon="1.85668">
        <ele>101.80000305176</ele>
        <time>2016-06-11T13:15:45.000Z</time>
      </trkpt>
      <trkpt lat="48.85207" lon="1.85683">
        <ele>102</ele>
        <time>2016-06-11T13:15:50.000Z</time>
      </trkpt>
      <trkpt lat="48.85208" lon="1.8569">
        <ele>102</ele>
        <time>2016-06-11T13:15:53.000Z</time>
      </trkpt>
      <trkpt lat="48.8521" lon="1.85694">
        <ele>102.19999694824</ele>
        <time>2016-06-11T13:15:55.000Z</time>
      </trkpt>
      <trkpt lat="48.85213" lon="1.85705">
        <ele>102.59999847412</ele>
        <time>2016-06-11T13:16:00.000Z</time>
      </trkpt>
      <trkpt lat="48.85213" lon="1.8571">
        <ele>102.59999847412</ele>
        <time>2016-06-11T13:16:02.000Z</time>
      </trkpt>
      <trkpt lat="48.85214" lon="1.85717">
        <ele>102.59999847412</ele>
        <time>2016-06-11T13:16:04.000Z</time>
      </trkpt>
      <trkpt lat="48.85215" lon="1.85726">
        <ele>102.80000305176</ele>
        <time>2016-06-11T13:16:07.000Z</time>
      </trkpt>
      <trkpt lat="48.85217" lon="1.85729">
        <ele>103.19999694824</ele>
        <time>2016-06-11T13:16:08.000Z</time>
      </trkpt>
      <trkpt lat="48.85219" lon="1.85732">
        <ele>103.40000152588</ele>
        <time>2016-06-11T13:16:09.000Z</time>
      </trkpt>
      <trkpt lat="48.85222" lon="1.8574">
        <ele>103.80000305176</ele>
        <time>2016-06-11T13:16:13.000Z</time>
      </trkpt>
      <trkpt lat="48.85222" lon="1.85746">
        <ele>103.19999694824</ele>
        <time>2016-06-11T13:16:15.000Z</time>
      </trkpt>
      <trkpt lat="48.85223" lon="1.85762">
        <ele>101.80000305176</ele>
        <time>2016-06-11T13:16:20.000Z</time>
      </trkpt>
      <trkpt lat="48.85223" lon="1.85767">
        <ele>101.59999847412</ele>
        <time>2016-06-11T13:16:22.000Z</time>
      </trkpt>
      <trkpt lat="48.85224" lon="1.85777">
        <ele>100.80000305176</ele>
        <time>2016-06-11T13:16:25.000Z</time>
      </trkpt>
      <trkpt lat="48.85225" lon="1.85791">
        <ele>100</ele>
        <time>2016-06-11T13:16:30.000Z</time>
      </trkpt>
      <trkpt lat="48.85229" lon="1.85809">
        <ele>99.599998474121</ele>
        <time>2016-06-11T13:16:35.000Z</time>
      </trkpt>
      <trkpt lat="48.85233" lon="1.85817">
        <ele>99.599998474121</ele>
        <time>2016-06-11T13:16:38.000Z</time>
      </trkpt>
      <trkpt lat="48.85235" lon="1.85823">
        <ele>99.599998474121</ele>
        <time>2016-06-11T13:16:40.000Z</time>
      </trkpt>
      <trkpt lat="48.85237" lon="1.85828">
        <ele>99.400001525879</ele>
        <time>2016-06-11T13:16:42.000Z</time>
      </trkpt>
      <trkpt lat="48.85239" lon="1.8583">
        <ele>99.599998474121</ele>
        <time>2016-06-11T13:16:43.000Z</time>
      </trkpt>
      <trkpt lat="48.8524" lon="1.85834">
        <ele>99.400001525879</ele>
        <time>2016-06-11T13:16:45.000Z</time>
      </trkpt>
      <trkpt lat="48.85243" lon="1.85845">
        <ele>98.800003051758</ele>
        <time>2016-06-11T13:16:50.000Z</time>
      </trkpt>
      <trkpt lat="48.85251" lon="1.85859">
        <ele>98.800003051758</ele>
        <time>2016-06-11T13:16:56.000Z</time>
      </trkpt>
      <trkpt lat="48.8526" lon="1.85874">
        <ele>98.800003051758</ele>
        <time>2016-06-11T13:17:02.000Z</time>
      </trkpt>
      <trkpt lat="48.85263" lon="1.85879">
        <ele>98.800003051758</ele>
        <time>2016-06-11T13:17:04.000Z</time>
      </trkpt>
      <trkpt lat="48.85265" lon="1.85883">
        <ele>98.800003051758</ele>
        <time>2016-06-11T13:17:06.000Z</time>
      </trkpt>
      <trkpt lat="48.85267" lon="1.85889">
        <ele>98.599998474121</ele>
        <time>2016-06-11T13:17:09.000Z</time>
      </trkpt>
      <trkpt lat="48.85269" lon="1.85891">
        <ele>98.800003051758</ele>
        <time>2016-06-11T13:17:10.000Z</time>
      </trkpt>
      <trkpt lat="48.85271" lon="1.85894">
        <ele>98.800003051758</ele>
        <time>2016-06-11T13:17:11.000Z</time>
      </trkpt>
      <trkpt lat="48.85277" lon="1.85902">
        <ele>98.800003051758</ele>
        <time>2016-06-11T13:17:16.000Z</time>
      </trkpt>
      <trkpt lat="48.85286" lon="1.85915">
        <ele>98</ele>
        <time>2016-06-11T13:17:23.000Z</time>
      </trkpt>
      <trkpt lat="48.85297" lon="1.85923">
        <ele>97.800003051758</ele>
        <time>2016-06-11T13:17:29.000Z</time>
      </trkpt>
      <trkpt lat="48.85299" lon="1.85925">
        <ele>97.599998474121</ele>
        <time>2016-06-11T13:17:31.000Z</time>
      </trkpt>
      <trkpt lat="48.85303" lon="1.85928">
        <ele>97.599998474121</ele>
        <time>2016-06-11T13:17:34.000Z</time>
      </trkpt>
      <trkpt lat="48.85306" lon="1.85931">
        <ele>97.400001525879</ele>
        <time>2016-06-11T13:17:36.000Z</time>
      </trkpt>
      <trkpt lat="48.85312" lon="1.85934">
        <ele>97.599998474121</ele>
        <time>2016-06-11T13:17:39.000Z</time>
      </trkpt>
      <trkpt lat="48.85318" lon="1.85938">
        <ele>97.599998474121</ele>
        <time>2016-06-11T13:17:43.000Z</time>
      </trkpt>
      <trkpt lat="48.85326" lon="1.85943">
        <ele>97.599998474121</ele>
        <time>2016-06-11T13:17:49.000Z</time>
      </trkpt>
      <trkpt lat="48.85335" lon="1.8595">
        <ele>97.199996948242</ele>
        <time>2016-06-11T13:17:56.000Z</time>
      </trkpt>
      <trkpt lat="48.85345" lon="1.85957">
        <ele>97.199996948242</ele>
        <time>2016-06-11T13:18:01.000Z</time>
      </trkpt>
      <trkpt lat="48.85353" lon="1.85964">
        <ele>97</ele>
        <time>2016-06-11T13:18:05.000Z</time>
      </trkpt>
      <trkpt lat="48.85356" lon="1.85967">
        <ele>96.800003051758</ele>
        <time>2016-06-11T13:18:07.000Z</time>
      </trkpt>
      <trkpt lat="48.8536" lon="1.85975">
        <ele>95.400001525879</ele>
        <time>2016-06-11T13:18:11.000Z</time>
      </trkpt>
      <trkpt lat="48.85366" lon="1.85981">
        <ele>94.400001525879</ele>
        <time>2016-06-11T13:18:16.000Z</time>
      </trkpt>
      <trkpt lat="48.85371" lon="1.85984">
        <ele>93.800003051758</ele>
        <time>2016-06-11T13:18:21.000Z</time>
      </trkpt>
      <trkpt lat="48.85373" lon="1.85985">
        <ele>93.599998474121</ele>
        <time>2016-06-11T13:18:23.000Z</time>
      </trkpt>
      <trkpt lat="48.85376" lon="1.85986">
        <ele>93.199996948242</ele>
        <time>2016-06-11T13:18:26.000Z</time>
      </trkpt>
      <trkpt lat="48.85378" lon="1.85986">
        <ele>93.199996948242</ele>
        <time>2016-06-11T13:18:27.000Z</time>
      </trkpt>
      <trkpt lat="48.85387" lon="1.85988">
        <ele>92.800003051758</ele>
        <time>2016-06-11T13:18:31.000Z</time>
      </trkpt>
      <trkpt lat="48.85389" lon="1.85989">
        <ele>92.599998474121</ele>
        <time>2016-06-11T13:18:32.000Z</time>
      </trkpt>
      <trkpt lat="48.85398" lon="1.85991">
        <ele>92.400001525879</ele>
        <time>2016-06-11T13:18:36.000Z</time>
      </trkpt>
      <trkpt lat="48.85404" lon="1.85994">
        <ele>92</ele>
        <time>2016-06-11T13:18:39.000Z</time>
      </trkpt>
      <trkpt lat="48.85408" lon="1.85996">
        <ele>91.800003051758</ele>
        <time>2016-06-11T13:18:41.000Z</time>
      </trkpt>
      <trkpt lat="48.85412" lon="1.85998">
        <ele>91.400001525879</ele>
        <time>2016-06-11T13:18:43.000Z</time>
      </trkpt>
      <trkpt lat="48.85415" lon="1.86">
        <ele>91.199996948242</ele>
        <time>2016-06-11T13:18:45.000Z</time>
      </trkpt>
      <trkpt lat="48.85424" lon="1.86003">
        <ele>90.800003051758</ele>
        <time>2016-06-11T13:18:49.000Z</time>
      </trkpt>
      <trkpt lat="48.8543" lon="1.86004">
        <ele>90.599998474121</ele>
        <time>2016-06-11T13:18:53.000Z</time>
      </trkpt>
      <trkpt lat="48.85432" lon="1.86005">
        <ele>90.599998474121</ele>
        <time>2016-06-11T13:18:54.000Z</time>
      </trkpt>
      <trkpt lat="48.85436" lon="1.86011">
        <ele>90</ele>
        <time>2016-06-11T13:18:58.000Z</time>
      </trkpt>
      <trkpt lat="48.85438" lon="1.86019">
        <ele>89.199996948242</ele>
        <time>2016-06-11T13:19:02.000Z</time>
      </trkpt>
      <trkpt lat="48.85443" lon="1.86017">
        <ele>89.599998474121</ele>
        <time>2016-06-11T13:19:06.000Z</time>
      </trkpt>
      <trkpt lat="48.85445" lon="1.86015">
        <ele>90</ele>
        <time>2016-06-11T13:19:08.000Z</time>
      </trkpt>
      <trkpt lat="48.85447" lon="1.86014">
        <ele>90.199996948242</ele>
        <time>2016-06-11T13:19:09.000Z</time>
      </trkpt>
      <trkpt lat="48.8545" lon="1.86015">
        <ele>90.400001525879</ele>
        <time>2016-06-11T13:19:11.000Z</time>
      </trkpt>
      <trkpt lat="48.85459" lon="1.86019">
        <ele>90.800003051758</ele>
        <time>2016-06-11T13:19:17.000Z</time>
      </trkpt>
      <trkpt lat="48.85461" lon="1.86019">
        <ele>91</ele>
        <time>2016-06-11T13:19:18.000Z</time>
      </trkpt>
      <trkpt lat="48.85465" lon="1.86019">
        <ele>91.400001525879</ele>
        <time>2016-06-11T13:19:21.000Z</time>
      </trkpt>
      <trkpt lat="48.85473" lon="1.86021">
        <ele>91.800003051758</ele>
        <time>2016-06-11T13:19:26.000Z</time>
      </trkpt>
      <trkpt lat="48.85474" lon="1.86022">
        <ele>91.800003051758</ele>
        <time>2016-06-11T13:19:27.000Z</time>
      </trkpt>
      <trkpt lat="48.85475" lon="1.86022">
        <ele>92</ele>
        <time>2016-06-11T13:19:28.000Z</time>
      </trkpt>
      <trkpt lat="48.85477" lon="1.86023">
        <ele>92</ele>
        <time>2016-06-11T13:19:30.000Z</time>
      </trkpt>
      <trkpt lat="48.85481" lon="1.86025">
        <ele>92.199996948242</ele>
        <time>2016-06-11T13:19:32.000Z</time>
      </trkpt>
      <trkpt lat="48.85493" lon="1.86029">
        <ele>93</ele>
        <time>2016-06-11T13:19:39.000Z</time>
      </trkpt>
      <trkpt lat="48.85502" lon="1.8603">
        <ele>93.800003051758</ele>
        <time>2016-06-11T13:19:45.000Z</time>
      </trkpt>
      <trkpt lat="48.85506" lon="1.86031">
        <ele>94.199996948242</ele>
        <time>2016-06-11T13:19:48.000Z</time>
      </trkpt>
      <trkpt lat="48.85508" lon="1.86032">
        <ele>94.400001525879</ele>
        <time>2016-06-11T13:19:50.000Z</time>
      </trkpt>
      <trkpt lat="48.85516" lon="1.86036">
        <ele>94.800003051758</ele>
        <time>2016-06-11T13:19:56.000Z</time>
      </trkpt>
      <trkpt lat="48.85518" lon="1.86036">
        <ele>94.800003051758</ele>
        <time>2016-06-11T13:19:57.000Z</time>
      </trkpt>
      <trkpt lat="48.85523" lon="1.86038">
        <ele>95.400001525879</ele>
        <time>2016-06-11T13:20:01.000Z</time>
      </trkpt>
      <trkpt lat="48.85533" lon="1.8604">
        <ele>97.599998474121</ele>
        <time>2016-06-11T13:20:07.000Z</time>
      </trkpt>
      <trkpt lat="48.8554" lon="1.86042">
        <ele>99.199996948242</ele>
        <time>2016-06-11T13:20:13.000Z</time>
      </trkpt>
      <trkpt lat="48.85541" lon="1.86043">
        <ele>99.199996948242</ele>
        <time>2016-06-11T13:20:14.000Z</time>
      </trkpt>
      <trkpt lat="48.85546" lon="1.86045">
        <ele>100</ele>
        <time>2016-06-11T13:20:18.000Z</time>
      </trkpt>
      <trkpt lat="48.85547" lon="1.86046">
        <ele>100.40000152588</ele>
        <time>2016-06-11T13:20:20.000Z</time>
      </trkpt>
      <trkpt lat="48.85549" lon="1.86046">
        <ele>100.80000305176</ele>
        <time>2016-06-11T13:20:22.000Z</time>
      </trkpt>
      <trkpt lat="48.85553" lon="1.86047">
        <ele>101.59999847412</ele>
        <time>2016-06-11T13:20:24.000Z</time>
      </trkpt>
      <trkpt lat="48.85556" lon="1.86048">
        <ele>102.40000152588</ele>
        <time>2016-06-11T13:20:26.000Z</time>
      </trkpt>
      <trkpt lat="48.85562" lon="1.86049">
        <ele>103.80000305176</ele>
        <time>2016-06-11T13:20:29.000Z</time>
      </trkpt>
      <trkpt lat="48.85564" lon="1.8605">
        <ele>104.19999694824</ele>
        <time>2016-06-11T13:20:30.000Z</time>
      </trkpt>
      <trkpt lat="48.85574" lon="1.86053">
        <ele>106.40000152588</ele>
        <time>2016-06-11T13:20:36.000Z</time>
      </trkpt>
      <trkpt lat="48.85582" lon="1.86056">
        <ele>108</ele>
        <time>2016-06-11T13:20:40.000Z</time>
      </trkpt>
      <trkpt lat="48.85584" lon="1.86056">
        <ele>108.40000152588</ele>
        <time>2016-06-11T13:20:41.000Z</time>
      </trkpt>
      <trkpt lat="48.85585" lon="1.86057">
        <ele>108.59999847412</ele>
        <time>2016-06-11T13:20:42.000Z</time>
      </trkpt>
      <trkpt lat="48.85589" lon="1.86057">
        <ele>109.59999847412</ele>
        <time>2016-06-11T13:20:45.000Z</time>
      </trkpt>
      <trkpt lat="48.85597" lon="1.86059">
        <ele>110.80000305176</ele>
        <time>2016-06-11T13:20:49.000Z</time>
      </trkpt>
      <trkpt lat="48.85601" lon="1.86059">
        <ele>111.40000152588</ele>
        <time>2016-06-11T13:20:51.000Z</time>
      </trkpt>
      <trkpt lat="48.85608" lon="1.86061">
        <ele>112.40000152588</ele>
        <time>2016-06-11T13:20:56.000Z</time>
      </trkpt>
      <trkpt lat="48.85623" lon="1.86065">
        <ele>113</ele>
        <time>2016-06-11T13:21:03.000Z</time>
      </trkpt>
      <trkpt lat="48.85625" lon="1.86065">
        <ele>113.19999694824</ele>
        <time>2016-06-11T13:21:04.000Z</time>
      </trkpt>
      <trkpt lat="48.85631" lon="1.86066">
        <ele>113.40000152588</ele>
        <time>2016-06-11T13:21:08.000Z</time>
      </trkpt>
      <trkpt lat="48.85634" lon="1.86065">
        <ele>113.59999847412</ele>
        <time>2016-06-11T13:21:09.000Z</time>
      </trkpt>
      <trkpt lat="48.85637" lon="1.86066">
        <ele>113.59999847412</ele>
        <time>2016-06-11T13:21:11.000Z</time>
      </trkpt>
      <trkpt lat="48.85649" lon="1.8607">
        <ele>114.19999694824</ele>
        <time>2016-06-11T13:21:17.000Z</time>
      </trkpt>
      <trkpt lat="48.8566" lon="1.86074">
        <ele>114.59999847412</ele>
        <time>2016-06-11T13:21:23.000Z</time>
      </trkpt>
      <trkpt lat="48.85675" lon="1.86079">
        <ele>115.19999694824</ele>
        <time>2016-06-11T13:21:29.000Z</time>
      </trkpt>
      <trkpt lat="48.85683" lon="1.86081">
        <ele>115.59999847412</ele>
        <time>2016-06-11T13:21:34.000Z</time>
      </trkpt>
      <trkpt lat="48.85686" lon="1.86083">
        <ele>115.80000305176</ele>
        <time>2016-06-11T13:21:36.000Z</time>
      </trkpt>
      <trkpt lat="48.85687" lon="1.86088">
        <ele>115.80000305176</ele>
        <time>2016-06-11T13:21:39.000Z</time>
      </trkpt>
      <trkpt lat="48.85686" lon="1.86096">
        <ele>115.59999847412</ele>
        <time>2016-06-11T13:21:43.000Z</time>
      </trkpt>
      <trkpt lat="48.85686" lon="1.86102">
        <ele>115.40000152588</ele>
        <time>2016-06-11T13:21:45.000Z</time>
      </trkpt>
      <trkpt lat="48.85686" lon="1.86108">
        <ele>115.40000152588</ele>
        <time>2016-06-11T13:21:48.000Z</time>
      </trkpt>
      <trkpt lat="48.85686" lon="1.86113">
        <ele>115.40000152588</ele>
        <time>2016-06-11T13:21:50.000Z</time>
      </trkpt>
      <trkpt lat="48.85687" lon="1.86122">
        <ele>115.19999694824</ele>
        <time>2016-06-11T13:21:53.000Z</time>
      </trkpt>
      <trkpt lat="48.85687" lon="1.86126">
        <ele>115.19999694824</ele>
        <time>2016-06-11T13:21:55.000Z</time>
      </trkpt>
      <trkpt lat="48.85686" lon="1.86142">
        <ele>115</ele>
        <time>2016-06-11T13:22:00.000Z</time>
      </trkpt>
      <trkpt lat="48.85686" lon="1.86146">
        <ele>115</ele>
        <time>2016-06-11T13:22:02.000Z</time>
      </trkpt>
      <trkpt lat="48.85686" lon="1.86154">
        <ele>114.80000305176</ele>
        <time>2016-06-11T13:22:05.000Z</time>
      </trkpt>
      <trkpt lat="48.85686" lon="1.86165">
        <ele>114</ele>
        <time>2016-06-11T13:22:09.000Z</time>
      </trkpt>
      <trkpt lat="48.85685" lon="1.86175">
        <ele>113.19999694824</ele>
        <time>2016-06-11T13:22:13.000Z</time>
      </trkpt>
      <trkpt lat="48.85684" lon="1.86178">
        <ele>113</ele>
        <time>2016-06-11T13:22:14.000Z</time>
      </trkpt>
      <trkpt lat="48.85685" lon="1.8618">
        <ele>113</ele>
        <time>2016-06-11T13:22:15.000Z</time>
      </trkpt>
      <trkpt lat="48.85683" lon="1.8619">
        <ele>112.19999694824</ele>
        <time>2016-06-11T13:22:18.000Z</time>
      </trkpt>
      <trkpt lat="48.85683" lon="1.86195">
        <ele>111.80000305176</ele>
        <time>2016-06-11T13:22:19.000Z</time>
      </trkpt>
      <trkpt lat="48.8568" lon="1.86212">
        <ele>110.40000152588</ele>
        <time>2016-06-11T13:22:24.000Z</time>
      </trkpt>
      <trkpt lat="48.85677" lon="1.86226">
        <ele>109.19999694824</ele>
        <time>2016-06-11T13:22:29.000Z</time>
      </trkpt>
      <trkpt lat="48.85676" lon="1.8624">
        <ele>107.40000152588</ele>
        <time>2016-06-11T13:22:35.000Z</time>
      </trkpt>
      <trkpt lat="48.85676" lon="1.86244">
        <ele>107</ele>
        <time>2016-06-11T13:22:37.000Z</time>
      </trkpt>
      <trkpt lat="48.85673" lon="1.8625">
        <ele>106.19999694824</ele>
        <time>2016-06-11T13:22:40.000Z</time>
      </trkpt>
      <trkpt lat="48.85672" lon="1.86254">
        <ele>105.80000305176</ele>
        <time>2016-06-11T13:22:42.000Z</time>
      </trkpt>
      <trkpt lat="48.85672" lon="1.86258">
        <ele>105.59999847412</ele>
        <time>2016-06-11T13:22:44.000Z</time>
      </trkpt>
      <trkpt lat="48.85673" lon="1.86268">
        <ele>105.40000152588</ele>
        <time>2016-06-11T13:22:48.000Z</time>
      </trkpt>
      <trkpt lat="48.85673" lon="1.86271">
        <ele>105.19999694824</ele>
        <time>2016-06-11T13:22:49.000Z</time>
      </trkpt>
      <trkpt lat="48.85671" lon="1.86287">
        <ele>104</ele>
        <time>2016-06-11T13:22:54.000Z</time>
      </trkpt>
      <trkpt lat="48.85672" lon="1.86295">
        <ele>103.80000305176</ele>
        <time>2016-06-11T13:22:58.000Z</time>
      </trkpt>
      <trkpt lat="48.85676" lon="1.8631">
        <ele>103.80000305176</ele>
        <time>2016-06-11T13:23:02.000Z</time>
      </trkpt>
      <trkpt lat="48.85679" lon="1.86322">
        <ele>103.40000152588</ele>
        <time>2016-06-11T13:23:06.000Z</time>
      </trkpt>
      <trkpt lat="48.8568" lon="1.86325">
        <ele>103.40000152588</ele>
        <time>2016-06-11T13:23:07.000Z</time>
      </trkpt>
      <trkpt lat="48.85683" lon="1.86332">
        <ele>103.80000305176</ele>
        <time>2016-06-11T13:23:10.000Z</time>
      </trkpt>
      <trkpt lat="48.85687" lon="1.86346">
        <ele>104</ele>
        <time>2016-06-11T13:23:15.000Z</time>
      </trkpt>
      <trkpt lat="48.85688" lon="1.8636">
        <ele>103.40000152588</ele>
        <time>2016-06-11T13:23:20.000Z</time>
      </trkpt>
      <trkpt lat="48.85689" lon="1.86363">
        <ele>103.40000152588</ele>
        <time>2016-06-11T13:23:21.000Z</time>
      </trkpt>
      <trkpt lat="48.8569" lon="1.8637">
        <ele>103.19999694824</ele>
        <time>2016-06-11T13:23:24.000Z</time>
      </trkpt>
      <trkpt lat="48.8569" lon="1.86373">
        <ele>103</ele>
        <time>2016-06-11T13:23:25.000Z</time>
      </trkpt>
      <trkpt lat="48.85689" lon="1.86381">
        <ele>102.59999847412</ele>
        <time>2016-06-11T13:23:28.000Z</time>
      </trkpt>
      <trkpt lat="48.85693" lon="1.8639">
        <ele>101.80000305176</ele>
        <time>2016-06-11T13:23:32.000Z</time>
      </trkpt>
      <trkpt lat="48.85694" lon="1.86392">
        <ele>101.80000305176</ele>
        <time>2016-06-11T13:23:33.000Z</time>
      </trkpt>
      <trkpt lat="48.85698" lon="1.86401">
        <ele>101.19999694824</ele>
        <time>2016-06-11T13:23:38.000Z</time>
      </trkpt>
      <trkpt lat="48.85699" lon="1.86402">
        <ele>101</ele>
        <time>2016-06-11T13:23:39.000Z</time>
      </trkpt>
      <trkpt lat="48.85705" lon="1.86413">
        <ele>100</ele>
        <time>2016-06-11T13:23:45.000Z</time>
      </trkpt>
      <trkpt lat="48.85707" lon="1.86417">
        <ele>99.599998474121</ele>
        <time>2016-06-11T13:23:47.000Z</time>
      </trkpt>
      <trkpt lat="48.85711" lon="1.86424">
        <ele>99</ele>
        <time>2016-06-11T13:23:51.000Z</time>
      </trkpt>
      <trkpt lat="48.85713" lon="1.86426">
        <ele>98.800003051758</ele>
        <time>2016-06-11T13:23:53.000Z</time>
      </trkpt>
      <trkpt lat="48.8572" lon="1.86433">
        <ele>98</ele>
        <time>2016-06-11T13:23:57.000Z</time>
      </trkpt>
      <trkpt lat="48.85724" lon="1.86441">
        <ele>97.199996948242</ele>
        <time>2016-06-11T13:24:01.000Z</time>
      </trkpt>
      <trkpt lat="48.85725" lon="1.86444">
        <ele>97</ele>
        <time>2016-06-11T13:24:02.000Z</time>
      </trkpt>
      <trkpt lat="48.85731" lon="1.86451">
        <ele>96.199996948242</ele>
        <time>2016-06-11T13:24:06.000Z</time>
      </trkpt>
      <trkpt lat="48.85735" lon="1.86457">
        <ele>95.599998474121</ele>
        <time>2016-06-11T13:24:09.000Z</time>
      </trkpt>
      <trkpt lat="48.85738" lon="1.8646">
        <ele>95.199996948242</ele>
        <time>2016-06-11T13:24:11.000Z</time>
      </trkpt>
      <trkpt lat="48.85742" lon="1.86464">
        <ele>94.800003051758</ele>
        <time>2016-06-11T13:24:14.000Z</time>
      </trkpt>
      <trkpt lat="48.85753" lon="1.86474">
        <ele>93.800003051758</ele>
        <time>2016-06-11T13:24:20.000Z</time>
      </trkpt>
      <trkpt lat="48.85758" lon="1.86481">
        <ele>93</ele>
        <time>2016-06-11T13:24:24.000Z</time>
      </trkpt>
      <trkpt lat="48.85762" lon="1.86487">
        <ele>92.599998474121</ele>
        <time>2016-06-11T13:24:26.000Z</time>
      </trkpt>
      <trkpt lat="48.85763" lon="1.8649">
        <ele>92.199996948242</ele>
        <time>2016-06-11T13:24:28.000Z</time>
      </trkpt>
      <trkpt lat="48.85765" lon="1.86493">
        <ele>91.800003051758</ele>
        <time>2016-06-11T13:24:30.000Z</time>
      </trkpt>
      <trkpt lat="48.85771" lon="1.86501">
        <ele>91</ele>
        <time>2016-06-11T13:24:35.000Z</time>
      </trkpt>
      <trkpt lat="48.85776" lon="1.86506">
        <ele>90.599998474121</ele>
        <time>2016-06-11T13:24:39.000Z</time>
      </trkpt>
      <trkpt lat="48.85776" lon="1.86508">
        <ele>90.400001525879</ele>
        <time>2016-06-11T13:24:40.000Z</time>
      </trkpt>
      <trkpt lat="48.85779" lon="1.86519">
        <ele>89.400001525879</ele>
        <time>2016-06-11T13:24:44.000Z</time>
      </trkpt>
      <trkpt lat="48.85783" lon="1.86523">
        <ele>88.800003051758</ele>
        <time>2016-06-11T13:24:46.000Z</time>
      </trkpt>
      <trkpt lat="48.85793" lon="1.86532">
        <ele>87.800003051758</ele>
        <time>2016-06-11T13:24:50.000Z</time>
      </trkpt>
      <trkpt lat="48.85799" lon="1.86544">
        <ele>86.400001525879</ele>
        <time>2016-06-11T13:24:55.000Z</time>
      </trkpt>
      <trkpt lat="48.85806" lon="1.86557">
        <ele>85</ele>
        <time>2016-06-11T13:25:01.000Z</time>
      </trkpt>
      <trkpt lat="48.85811" lon="1.86574">
        <ele>83.599998474121</ele>
        <time>2016-06-11T13:25:06.000Z</time>
      </trkpt>
      <trkpt lat="48.85819" lon="1.86586">
        <ele>83</ele>
        <time>2016-06-11T13:25:12.000Z</time>
      </trkpt>
      <trkpt lat="48.85821" lon="1.8659">
        <ele>82.800003051758</ele>
        <time>2016-06-11T13:25:14.000Z</time>
      </trkpt>
      <trkpt lat="48.8582" lon="1.86601">
        <ele>82.599998474121</ele>
        <time>2016-06-11T13:25:17.000Z</time>
      </trkpt>
      <trkpt lat="48.85814" lon="1.86626">
        <ele>81</ele>
        <time>2016-06-11T13:25:24.000Z</time>
      </trkpt>
      <trkpt lat="48.85807" lon="1.86651">
        <ele>77.599998474121</ele>
        <time>2016-06-11T13:25:33.000Z</time>
      </trkpt>
      <trkpt lat="48.85801" lon="1.86669">
        <ele>76.599998474121</ele>
        <time>2016-06-11T13:25:40.000Z</time>
      </trkpt>
      <trkpt lat="48.85795" lon="1.86686">
        <ele>75.800003051758</ele>
        <time>2016-06-11T13:25:47.000Z</time>
      </trkpt>
      <trkpt lat="48.85791" lon="1.86703">
        <ele>73.800003051758</ele>
        <time>2016-06-11T13:25:54.000Z</time>
      </trkpt>
      <trkpt lat="48.85787" lon="1.86717">
        <ele>72</ele>
        <time>2016-06-11T13:26:00.000Z</time>
      </trkpt>
      <trkpt lat="48.8578" lon="1.86733">
        <ele>69.599998474121</ele>
        <time>2016-06-11T13:26:07.000Z</time>
      </trkpt>
      <trkpt lat="48.85776" lon="1.86745">
        <ele>68.400001525879</ele>
        <time>2016-06-11T13:26:12.000Z</time>
      </trkpt>
      <trkpt lat="48.85768" lon="1.86769">
        <ele>67.199996948242</ele>
        <time>2016-06-11T13:26:22.000Z</time>
      </trkpt>
      <trkpt lat="48.85764" lon="1.86785">
        <ele>66.800003051758</ele>
        <time>2016-06-11T13:26:29.000Z</time>
      </trkpt>
      <trkpt lat="48.85757" lon="1.86799">
        <ele>66.400001525879</ele>
        <time>2016-06-11T13:26:36.000Z</time>
      </trkpt>
      <trkpt lat="48.85752" lon="1.86814">
        <ele>65.599998474121</ele>
        <time>2016-06-11T13:26:43.000Z</time>
      </trkpt>
      <trkpt lat="48.85744" lon="1.86834">
        <ele>64.599998474121</ele>
        <time>2016-06-11T13:26:52.000Z</time>
      </trkpt>
      <trkpt lat="48.85735" lon="1.86855">
        <ele>64.199996948242</ele>
        <time>2016-06-11T13:27:00.000Z</time>
      </trkpt>
      <trkpt lat="48.85728" lon="1.86877">
        <ele>63.400001525879</ele>
        <time>2016-06-11T13:27:07.000Z</time>
      </trkpt>
      <trkpt lat="48.85722" lon="1.86894">
        <ele>62.200000762939</ele>
        <time>2016-06-11T13:27:14.000Z</time>
      </trkpt>
      <trkpt lat="48.85718" lon="1.86905">
        <ele>61.400001525879</ele>
        <time>2016-06-11T13:27:20.000Z</time>
      </trkpt>
      <trkpt lat="48.8571" lon="1.86921">
        <ele>60.599998474121</ele>
        <time>2016-06-11T13:27:28.000Z</time>
      </trkpt>
      <trkpt lat="48.85701" lon="1.86942">
        <ele>59.400001525879</ele>
        <time>2016-06-11T13:27:35.000Z</time>
      </trkpt>
      <trkpt lat="48.85697" lon="1.86956">
        <ele>58.599998474121</ele>
        <time>2016-06-11T13:27:41.000Z</time>
      </trkpt>
      <trkpt lat="48.85691" lon="1.8697">
        <ele>57.599998474121</ele>
        <time>2016-06-11T13:27:46.000Z</time>
      </trkpt>
      <trkpt lat="48.85686" lon="1.8698">
        <ele>57.400001525879</ele>
        <time>2016-06-11T13:27:51.000Z</time>
      </trkpt>
      <trkpt lat="48.85684" lon="1.86989">
        <ele>57</ele>
        <time>2016-06-11T13:27:55.000Z</time>
      </trkpt>
      <trkpt lat="48.85683" lon="1.86993">
        <ele>57</ele>
        <time>2016-06-11T13:27:57.000Z</time>
      </trkpt>
      <trkpt lat="48.85682" lon="1.86997">
        <ele>57</ele>
        <time>2016-06-11T13:27:59.000Z</time>
      </trkpt>
      <trkpt lat="48.85678" lon="1.87008">
        <ele>56.799999237061</ele>
        <time>2016-06-11T13:28:03.000Z</time>
      </trkpt>
      <trkpt lat="48.85672" lon="1.87024">
        <ele>56.799999237061</ele>
        <time>2016-06-11T13:28:09.000Z</time>
      </trkpt>
      <trkpt lat="48.85667" lon="1.87037">
        <ele>56.799999237061</ele>
        <time>2016-06-11T13:28:16.000Z</time>
      </trkpt>
      <trkpt lat="48.85659" lon="1.87062">
        <ele>56.400001525879</ele>
        <time>2016-06-11T13:28:27.000Z</time>
      </trkpt>
      <trkpt lat="48.85655" lon="1.87076">
        <ele>56.200000762939</ele>
        <time>2016-06-11T13:28:33.000Z</time>
      </trkpt>
      <trkpt lat="48.85653" lon="1.87098">
        <ele>55.799999237061</ele>
        <time>2016-06-11T13:28:40.000Z</time>
      </trkpt>
      <trkpt lat="48.85653" lon="1.87119">
        <ele>55.599998474121</ele>
        <time>2016-06-11T13:28:47.000Z</time>
      </trkpt>
      <trkpt lat="48.85652" lon="1.87124">
        <ele>55.599998474121</ele>
        <time>2016-06-11T13:28:49.000Z</time>
      </trkpt>
      <trkpt lat="48.85652" lon="1.87129">
        <ele>55.599998474121</ele>
        <time>2016-06-11T13:28:51.000Z</time>
      </trkpt>
      <trkpt lat="48.85653" lon="1.87135">
        <ele>55.799999237061</ele>
        <time>2016-06-11T13:28:54.000Z</time>
      </trkpt>
      <trkpt lat="48.85653" lon="1.87138">
        <ele>55.799999237061</ele>
        <time>2016-06-11T13:28:55.000Z</time>
      </trkpt>
      <trkpt lat="48.85654" lon="1.87155">
        <ele>56</ele>
        <time>2016-06-11T13:29:02.000Z</time>
      </trkpt>
      <trkpt lat="48.85657" lon="1.87171">
        <ele>55.599998474121</ele>
        <time>2016-06-11T13:29:08.000Z</time>
      </trkpt>
      <trkpt lat="48.85661" lon="1.87192">
        <ele>55.200000762939</ele>
        <time>2016-06-11T13:29:15.000Z</time>
      </trkpt>
      <trkpt lat="48.85663" lon="1.87206">
        <ele>54.799999237061</ele>
        <time>2016-06-11T13:29:21.000Z</time>
      </trkpt>
      <trkpt lat="48.85664" lon="1.87218">
        <ele>54.599998474121</ele>
        <time>2016-06-11T13:29:26.000Z</time>
      </trkpt>
      <trkpt lat="48.85664" lon="1.87222">
        <ele>54.599998474121</ele>
        <time>2016-06-11T13:29:28.000Z</time>
      </trkpt>
      <trkpt lat="48.85664" lon="1.87227">
        <ele>54.599998474121</ele>
        <time>2016-06-11T13:29:30.000Z</time>
      </trkpt>
      <trkpt lat="48.85661" lon="1.87238">
        <ele>54.599998474121</ele>
        <time>2016-06-11T13:29:35.000Z</time>
      </trkpt>
      <trkpt lat="48.8566" lon="1.87244">
        <ele>54.599998474121</ele>
        <time>2016-06-11T13:29:38.000Z</time>
      </trkpt>
      <trkpt lat="48.85657" lon="1.87261">
        <ele>54.200000762939</ele>
        <time>2016-06-11T13:29:43.000Z</time>
      </trkpt>
      <trkpt lat="48.85653" lon="1.87275">
        <ele>54</ele>
        <time>2016-06-11T13:29:48.000Z</time>
      </trkpt>
      <trkpt lat="48.85648" lon="1.87293">
        <ele>53.799999237061</ele>
        <time>2016-06-11T13:29:56.000Z</time>
      </trkpt>
      <trkpt lat="48.85644" lon="1.87307">
        <ele>53.799999237061</ele>
        <time>2016-06-11T13:30:02.000Z</time>
      </trkpt>
      <trkpt lat="48.85638" lon="1.87322">
        <ele>53.799999237061</ele>
        <time>2016-06-11T13:30:09.000Z</time>
      </trkpt>
      <trkpt lat="48.8563" lon="1.87328">
        <ele>54</ele>
        <time>2016-06-11T13:30:15.000Z</time>
      </trkpt>
      <trkpt lat="48.85623" lon="1.87334">
        <ele>54.200000762939</ele>
        <time>2016-06-11T13:30:20.000Z</time>
      </trkpt>
      <trkpt lat="48.8562" lon="1.87335">
        <ele>54.400001525879</ele>
        <time>2016-06-11T13:30:22.000Z</time>
      </trkpt>
      <trkpt lat="48.85613" lon="1.87339">
        <ele>54.400001525879</ele>
        <time>2016-06-11T13:30:26.000Z</time>
      </trkpt>
      <trkpt lat="48.85599" lon="1.87348">
        <ele>54.599998474121</ele>
        <time>2016-06-11T13:30:35.000Z</time>
      </trkpt>
      <trkpt lat="48.85589" lon="1.87362">
        <ele>54.400001525879</ele>
        <time>2016-06-11T13:30:41.000Z</time>
      </trkpt>
      <trkpt lat="48.85585" lon="1.87364">
        <ele>54.400001525879</ele>
        <time>2016-06-11T13:30:43.000Z</time>
      </trkpt>
      <trkpt lat="48.85582" lon="1.87367">
        <ele>54.599998474121</ele>
        <time>2016-06-11T13:30:45.000Z</time>
      </trkpt>
      <trkpt lat="48.85576" lon="1.87374">
        <ele>54.599998474121</ele>
        <time>2016-06-11T13:30:50.000Z</time>
      </trkpt>
      <trkpt lat="48.85576" lon="1.87376">
        <ele>54.400001525879</ele>
        <time>2016-06-11T13:30:51.000Z</time>
      </trkpt>
      <trkpt lat="48.85572" lon="1.87381">
        <ele>54.400001525879</ele>
        <time>2016-06-11T13:30:54.000Z</time>
      </trkpt>
      <trkpt lat="48.85572" lon="1.87383">
        <ele>54.200000762939</ele>
        <time>2016-06-11T13:30:55.000Z</time>
      </trkpt>
      <trkpt lat="48.85572" lon="1.87389">
        <ele>54</ele>
        <time>2016-06-11T13:30:58.000Z</time>
      </trkpt>
      <trkpt lat="48.85572" lon="1.87394">
        <ele>53.799999237061</ele>
        <time>2016-06-11T13:31:00.000Z</time>
      </trkpt>
      <trkpt lat="48.85574" lon="1.874">
        <ele>53.599998474121</ele>
        <time>2016-06-11T13:31:03.000Z</time>
      </trkpt>
      <trkpt lat="48.85577" lon="1.87409">
        <ele>53.200000762939</ele>
        <time>2016-06-11T13:31:07.000Z</time>
      </trkpt>
      <trkpt lat="48.85579" lon="1.87409">
        <ele>53.200000762939</ele>
        <time>2016-06-11T13:31:09.000Z</time>
      </trkpt>
      <trkpt lat="48.85583" lon="1.87409">
        <ele>53.200000762939</ele>
        <time>2016-06-11T13:31:14.000Z</time>
      </trkpt>
      <trkpt lat="48.85575" lon="1.87409">
        <ele>53.200000762939</ele>
        <time>2016-06-11T13:36:00.000Z</time>
      </trkpt>
      <trkpt lat="48.85576" lon="1.87419">
        <ele>52.799999237061</ele>
        <time>2016-06-11T13:36:05.000Z</time>
      </trkpt>
      <trkpt lat="48.85576" lon="1.87421">
        <ele>52.599998474121</ele>
        <time>2016-06-11T13:36:06.000Z</time>
      </trkpt>
      <trkpt lat="48.85575" lon="1.87423">
        <ele>52.599998474121</ele>
        <time>2016-06-11T13:36:08.000Z</time>
      </trkpt>
      <trkpt lat="48.85574" lon="1.87427">
        <ele>52.400001525879</ele>
        <time>2016-06-11T13:36:10.000Z</time>
      </trkpt>
      <trkpt lat="48.85574" lon="1.87428">
        <ele>52.400001525879</ele>
        <time>2016-06-11T13:36:11.000Z</time>
      </trkpt>
      <trkpt lat="48.85573" lon="1.87432">
        <ele>52.200000762939</ele>
        <time>2016-06-11T13:36:15.000Z</time>
      </trkpt>
      <trkpt lat="48.85571" lon="1.87431">
        <ele>52.200000762939</ele>
        <time>2016-06-11T13:37:05.000Z</time>
      </trkpt>
      <trkpt lat="48.85573" lon="1.87433">
        <ele>52.200000762939</ele>
        <time>2016-06-11T13:37:09.000Z</time>
      </trkpt>
      <trkpt lat="48.85289" lon="1.87418">
        <ele>71.599998474121</ele>
        <time>2016-06-11T14:11:20.000Z</time>
      </trkpt>
      <trkpt lat="48.85281" lon="1.87413">
        <ele>72.599998474121</ele>
        <time>2016-06-11T14:11:26.000Z</time>
      </trkpt>
      <trkpt lat="48.85278" lon="1.87411">
        <ele>73</ele>
        <time>2016-06-11T14:11:28.000Z</time>
      </trkpt>
      <trkpt lat="48.85272" lon="1.87408">
        <ele>73.800003051758</ele>
        <time>2016-06-11T14:11:32.000Z</time>
      </trkpt>
      <trkpt lat="48.85269" lon="1.87406">
        <ele>73.800003051758</ele>
        <time>2016-06-11T14:11:34.000Z</time>
      </trkpt>
      <trkpt lat="48.85263" lon="1.87401">
        <ele>73.599998474121</ele>
        <time>2016-06-11T14:11:39.000Z</time>
      </trkpt>
      <trkpt lat="48.85258" lon="1.87395">
        <ele>73.800003051758</ele>
        <time>2016-06-11T14:11:43.000Z</time>
      </trkpt>
      <trkpt lat="48.85257" lon="1.87394">
        <ele>73.800003051758</ele>
        <time>2016-06-11T14:11:44.000Z</time>
      </trkpt>
      <trkpt lat="48.85248" lon="1.87392">
        <ele>73</ele>
        <time>2016-06-11T14:11:49.000Z</time>
      </trkpt>
      <trkpt lat="48.85242" lon="1.87392">
        <ele>72.400001525879</ele>
        <time>2016-06-11T14:11:54.000Z</time>
      </trkpt>
      <trkpt lat="48.85232" lon="1.87392">
        <ele>71.400001525879</ele>
        <time>2016-06-11T14:12:02.000Z</time>
      </trkpt>
      <trkpt lat="48.85226" lon="1.87392">
        <ele>70.800003051758</ele>
        <time>2016-06-11T14:12:06.000Z</time>
      </trkpt>
      <trkpt lat="48.85224" lon="1.8739">
        <ele>70.599998474121</ele>
        <time>2016-06-11T14:12:08.000Z</time>
      </trkpt>
      <trkpt lat="48.85221" lon="1.87388">
        <ele>70.599998474121</ele>
        <time>2016-06-11T14:12:10.000Z</time>
      </trkpt>
      <trkpt lat="48.85217" lon="1.87384">
        <ele>70.599998474121</ele>
        <time>2016-06-11T14:12:13.000Z</time>
      </trkpt>
      <trkpt lat="48.85216" lon="1.87382">
        <ele>70.800003051758</ele>
        <time>2016-06-11T14:12:14.000Z</time>
      </trkpt>
      <trkpt lat="48.85213" lon="1.87372">
        <ele>71.599998474121</ele>
        <time>2016-06-11T14:12:19.000Z</time>
      </trkpt>
      <trkpt lat="48.85212" lon="1.87366">
        <ele>72.199996948242</ele>
        <time>2016-06-11T14:12:22.000Z</time>
      </trkpt>
      <trkpt lat="48.85211" lon="1.87357">
        <ele>73.199996948242</ele>
        <time>2016-06-11T14:12:26.000Z</time>
      </trkpt>
      <trkpt lat="48.85208" lon="1.87333">
        <ele>75.599998474121</ele>
        <time>2016-06-11T14:12:31.000Z</time>
      </trkpt>
      <trkpt lat="48.85206" lon="1.8731">
        <ele>77.599998474121</ele>
        <time>2016-06-11T14:12:37.000Z</time>
      </trkpt>
      <trkpt lat="48.85204" lon="1.87298">
        <ele>78.400001525879</ele>
        <time>2016-06-11T14:12:43.000Z</time>
      </trkpt>
      <trkpt lat="48.85202" lon="1.87283">
        <ele>79.400001525879</ele>
        <time>2016-06-11T14:12:49.000Z</time>
      </trkpt>
      <trkpt lat="48.85198" lon="1.87269">
        <ele>80.199996948242</ele>
        <time>2016-06-11T14:12:53.000Z</time>
      </trkpt>
      <trkpt lat="48.85191" lon="1.8725">
        <ele>81.400001525879</ele>
        <time>2016-06-11T14:13:00.000Z</time>
      </trkpt>
      <trkpt lat="48.85186" lon="1.87234">
        <ele>82.400001525879</ele>
        <time>2016-06-11T14:13:08.000Z</time>
      </trkpt>
      <trkpt lat="48.8518" lon="1.87218">
        <ele>84</ele>
        <time>2016-06-11T14:13:16.000Z</time>
      </trkpt>
      <trkpt lat="48.85175" lon="1.8721">
        <ele>84.599998474121</ele>
        <time>2016-06-11T14:13:21.000Z</time>
      </trkpt>
      <trkpt lat="48.85169" lon="1.872">
        <ele>85.400001525879</ele>
        <time>2016-06-11T14:13:27.000Z</time>
      </trkpt>
      <trkpt lat="48.85158" lon="1.87183">
        <ele>86.400001525879</ele>
        <time>2016-06-11T14:13:34.000Z</time>
      </trkpt>
      <trkpt lat="48.85151" lon="1.87175">
        <ele>86.800003051758</ele>
        <time>2016-06-11T14:13:39.000Z</time>
      </trkpt>
      <trkpt lat="48.85142" lon="1.87164">
        <ele>87.400001525879</ele>
        <time>2016-06-11T14:13:46.000Z</time>
      </trkpt>
      <trkpt lat="48.85135" lon="1.87154">
        <ele>88.400001525879</ele>
        <time>2016-06-11T14:13:52.000Z</time>
      </trkpt>
      <trkpt lat="48.85126" lon="1.87144">
        <ele>89.800003051758</ele>
        <time>2016-06-11T14:13:59.000Z</time>
      </trkpt>
      <trkpt lat="48.85118" lon="1.87135">
        <ele>91.199996948242</ele>
        <time>2016-06-11T14:14:05.000Z</time>
      </trkpt>
      <trkpt lat="48.85108" lon="1.87127">
        <ele>92.199996948242</ele>
        <time>2016-06-11T14:14:10.000Z</time>
      </trkpt>
      <trkpt lat="48.85101" lon="1.87118">
        <ele>93.400001525879</ele>
        <time>2016-06-11T14:14:16.000Z</time>
      </trkpt>
      <trkpt lat="48.85094" lon="1.87107">
        <ele>95</ele>
        <time>2016-06-11T14:14:22.000Z</time>
      </trkpt>
      <trkpt lat="48.85087" lon="1.87103">
        <ele>94.800003051758</ele>
        <time>2016-06-11T14:14:27.000Z</time>
      </trkpt>
      <trkpt lat="48.85081" lon="1.87098">
        <ele>95</ele>
        <time>2016-06-11T14:14:31.000Z</time>
      </trkpt>
      <trkpt lat="48.85075" lon="1.87094">
        <ele>95.199996948242</ele>
        <time>2016-06-11T14:14:35.000Z</time>
      </trkpt>
      <trkpt lat="48.85073" lon="1.87092">
        <ele>95.199996948242</ele>
        <time>2016-06-11T14:14:37.000Z</time>
      </trkpt>
      <trkpt lat="48.85065" lon="1.87084">
        <ele>95.800003051758</ele>
        <time>2016-06-11T14:14:43.000Z</time>
      </trkpt>
      <trkpt lat="48.85063" lon="1.87082">
        <ele>96.199996948242</ele>
        <time>2016-06-11T14:14:44.000Z</time>
      </trkpt>
      <trkpt lat="48.85056" lon="1.87075">
        <ele>96.800003051758</ele>
        <time>2016-06-11T14:14:48.000Z</time>
      </trkpt>
      <trkpt lat="48.85048" lon="1.87068">
        <ele>97.199996948242</ele>
        <time>2016-06-11T14:14:54.000Z</time>
      </trkpt>
      <trkpt lat="48.85036" lon="1.87056">
        <ele>98.400001525879</ele>
        <time>2016-06-11T14:15:03.000Z</time>
      </trkpt>
      <trkpt lat="48.85023" lon="1.87044">
        <ele>99.400001525879</ele>
        <time>2016-06-11T14:15:10.000Z</time>
      </trkpt>
      <trkpt lat="48.85021" lon="1.87042">
        <ele>99.599998474121</ele>
        <time>2016-06-11T14:15:12.000Z</time>
      </trkpt>
      <trkpt lat="48.85017" lon="1.87038">
        <ele>100.40000152588</ele>
        <time>2016-06-11T14:15:15.000Z</time>
      </trkpt>
      <trkpt lat="48.85014" lon="1.87036">
        <ele>100.80000305176</ele>
        <time>2016-06-11T14:15:17.000Z</time>
      </trkpt>
      <trkpt lat="48.85003" lon="1.87029">
        <ele>102.19999694824</ele>
        <time>2016-06-11T14:15:23.000Z</time>
      </trkpt>
      <trkpt lat="48.84991" lon="1.87022">
        <ele>103.40000152588</ele>
        <time>2016-06-11T14:15:30.000Z</time>
      </trkpt>
      <trkpt lat="48.84979" lon="1.87017">
        <ele>104</ele>
        <time>2016-06-11T14:15:37.000Z</time>
      </trkpt>
      <trkpt lat="48.84969" lon="1.87014">
        <ele>104.19999694824</ele>
        <time>2016-06-11T14:15:43.000Z</time>
      </trkpt>
      <trkpt lat="48.84959" lon="1.87013">
        <ele>104.19999694824</ele>
        <time>2016-06-11T14:15:49.000Z</time>
      </trkpt>
      <trkpt lat="48.84947" lon="1.8701">
        <ele>104.40000152588</ele>
        <time>2016-06-11T14:15:56.000Z</time>
      </trkpt>
      <trkpt lat="48.84937" lon="1.87007">
        <ele>104.80000305176</ele>
        <time>2016-06-11T14:16:01.000Z</time>
      </trkpt>
      <trkpt lat="48.84929" lon="1.87007">
        <ele>105.19999694824</ele>
        <time>2016-06-11T14:16:06.000Z</time>
      </trkpt>
      <trkpt lat="48.84922" lon="1.87005">
        <ele>106.19999694824</ele>
        <time>2016-06-11T14:16:12.000Z</time>
      </trkpt>
      <trkpt lat="48.84912" lon="1.87003">
        <ele>107.40000152588</ele>
        <time>2016-06-11T14:16:18.000Z</time>
      </trkpt>
      <trkpt lat="48.84901" lon="1.86995">
        <ele>110</ele>
        <time>2016-06-11T14:16:26.000Z</time>
      </trkpt>
      <trkpt lat="48.84892" lon="1.86987">
        <ele>112</ele>
        <time>2016-06-11T14:16:33.000Z</time>
      </trkpt>
      <trkpt lat="48.84887" lon="1.86984">
        <ele>112.40000152588</ele>
        <time>2016-06-11T14:16:37.000Z</time>
      </trkpt>
      <trkpt lat="48.84885" lon="1.86982">
        <ele>112.80000305176</ele>
        <time>2016-06-11T14:16:39.000Z</time>
      </trkpt>
      <trkpt lat="48.84878" lon="1.86978">
        <ele>113.59999847412</ele>
        <time>2016-06-11T14:16:44.000Z</time>
      </trkpt>
      <trkpt lat="48.84868" lon="1.8697">
        <ele>114.59999847412</ele>
        <time>2016-06-11T14:16:49.000Z</time>
      </trkpt>
      <trkpt lat="48.84862" lon="1.86963">
        <ele>115.59999847412</ele>
        <time>2016-06-11T14:16:54.000Z</time>
      </trkpt>
      <trkpt lat="48.84859" lon="1.8696">
        <ele>116</ele>
        <time>2016-06-11T14:16:57.000Z</time>
      </trkpt>
      <trkpt lat="48.84857" lon="1.86957">
        <ele>116.19999694824</ele>
        <time>2016-06-11T14:16:59.000Z</time>
      </trkpt>
      <trkpt lat="48.84851" lon="1.86954">
        <ele>116.59999847412</ele>
        <time>2016-06-11T14:17:03.000Z</time>
      </trkpt>
      <trkpt lat="48.84847" lon="1.86951">
        <ele>116.80000305176</ele>
        <time>2016-06-11T14:17:05.000Z</time>
      </trkpt>
      <trkpt lat="48.84835" lon="1.86943">
        <ele>117.59999847412</ele>
        <time>2016-06-11T14:17:11.000Z</time>
      </trkpt>
      <trkpt lat="48.84821" lon="1.86936">
        <ele>118.19999694824</ele>
        <time>2016-06-11T14:17:18.000Z</time>
      </trkpt>
      <trkpt lat="48.84812" lon="1.86932">
        <ele>118.59999847412</ele>
        <time>2016-06-11T14:17:23.000Z</time>
      </trkpt>
      <trkpt lat="48.84803" lon="1.86927">
        <ele>119.19999694824</ele>
        <time>2016-06-11T14:17:29.000Z</time>
      </trkpt>
      <trkpt lat="48.84795" lon="1.86924">
        <ele>119.40000152588</ele>
        <time>2016-06-11T14:17:34.000Z</time>
      </trkpt>
      <trkpt lat="48.84788" lon="1.8692">
        <ele>119.80000305176</ele>
        <time>2016-06-11T14:17:39.000Z</time>
      </trkpt>
      <trkpt lat="48.84788" lon="1.8692">
        <ele>119.80000305176</ele>
        <time>2016-06-11T14:17:40.000Z</time>
      </trkpt>
      <trkpt lat="48.84787" lon="1.86919">
        <ele>119.80000305176</ele>
        <time>2016-06-11T14:17:41.000Z</time>
      </trkpt>
      <trkpt lat="48.84782" lon="1.86916">
        <ele>120.19999694824</ele>
        <time>2016-06-11T14:17:44.000Z</time>
      </trkpt>
      <trkpt lat="48.84777" lon="1.86915">
        <ele>120.40000152588</ele>
        <time>2016-06-11T14:17:47.000Z</time>
      </trkpt>
      <trkpt lat="48.84773" lon="1.86914">
        <ele>120.40000152588</ele>
        <time>2016-06-11T14:17:50.000Z</time>
      </trkpt>
      <trkpt lat="48.84763" lon="1.86911">
        <ele>120.59999847412</ele>
        <time>2016-06-11T14:17:55.000Z</time>
      </trkpt>
      <trkpt lat="48.84752" lon="1.86906">
        <ele>121</ele>
        <time>2016-06-11T14:18:00.000Z</time>
      </trkpt>
      <trkpt lat="48.84744" lon="1.86903">
        <ele>121</ele>
        <time>2016-06-11T14:18:04.000Z</time>
      </trkpt>
      <trkpt lat="48.84741" lon="1.86902">
        <ele>120.80000305176</ele>
        <time>2016-06-11T14:18:06.000Z</time>
      </trkpt>
      <trkpt lat="48.84732" lon="1.86899">
        <ele>120.80000305176</ele>
        <time>2016-06-11T14:18:11.000Z</time>
      </trkpt>
      <trkpt lat="48.84722" lon="1.86898">
        <ele>120.80000305176</ele>
        <time>2016-06-11T14:18:17.000Z</time>
      </trkpt>
      <trkpt lat="48.84712" lon="1.86895">
        <ele>120.80000305176</ele>
        <time>2016-06-11T14:18:23.000Z</time>
      </trkpt>
      <trkpt lat="48.84702" lon="1.86892">
        <ele>120.59999847412</ele>
        <time>2016-06-11T14:18:29.000Z</time>
      </trkpt>
      <trkpt lat="48.84691" lon="1.86887">
        <ele>120.59999847412</ele>
        <time>2016-06-11T14:18:36.000Z</time>
      </trkpt>
      <trkpt lat="48.84688" lon="1.86886">
        <ele>120.59999847412</ele>
        <time>2016-06-11T14:18:41.000Z</time>
      </trkpt>
      <trkpt lat="48.84686" lon="1.86887">
        <ele>120.59999847412</ele>
        <time>2016-06-11T14:18:44.000Z</time>
      </trkpt>
      <trkpt lat="48.84681" lon="1.86886">
        <ele>120.59999847412</ele>
        <time>2016-06-11T14:18:53.000Z</time>
      </trkpt>
      <trkpt lat="48.84678" lon="1.86884">
        <ele>120.59999847412</ele>
        <time>2016-06-11T14:18:54.000Z</time>
      </trkpt>
      <trkpt lat="48.84666" lon="1.86878">
        <ele>120.59999847412</ele>
        <time>2016-06-11T14:18:58.000Z</time>
      </trkpt>
      <trkpt lat="48.84649" lon="1.86872">
        <ele>120.40000152588</ele>
        <time>2016-06-11T14:19:04.000Z</time>
      </trkpt>
      <trkpt lat="48.8464" lon="1.86869">
        <ele>120.19999694824</ele>
        <time>2016-06-11T14:19:10.000Z</time>
      </trkpt>
      <trkpt lat="48.84627" lon="1.86868">
        <ele>120</ele>
        <time>2016-06-11T14:19:17.000Z</time>
      </trkpt>
      <trkpt lat="48.84622" lon="1.86868">
        <ele>119.80000305176</ele>
        <time>2016-06-11T14:19:20.000Z</time>
      </trkpt>
      <trkpt lat="48.84618" lon="1.86869">
        <ele>119.80000305176</ele>
        <time>2016-06-11T14:19:22.000Z</time>
      </trkpt>
      <trkpt lat="48.84611" lon="1.86868">
        <ele>119.59999847412</ele>
        <time>2016-06-11T14:19:26.000Z</time>
      </trkpt>
      <trkpt lat="48.84601" lon="1.86865">
        <ele>119.59999847412</ele>
        <time>2016-06-11T14:19:31.000Z</time>
      </trkpt>
      <trkpt lat="48.84588" lon="1.86862">
        <ele>119.80000305176</ele>
        <time>2016-06-11T14:19:37.000Z</time>
      </trkpt>
      <trkpt lat="48.84581" lon="1.86862">
        <ele>119.80000305176</ele>
        <time>2016-06-11T14:19:42.000Z</time>
      </trkpt>
      <trkpt lat="48.84573" lon="1.86859">
        <ele>120</ele>
        <time>2016-06-11T14:19:47.000Z</time>
      </trkpt>
      <trkpt lat="48.84569" lon="1.86858">
        <ele>120</ele>
        <time>2016-06-11T14:19:51.000Z</time>
      </trkpt>
      <trkpt lat="48.84568" lon="1.86858">
        <ele>120</ele>
        <time>2016-06-11T14:19:52.000Z</time>
      </trkpt>
      <trkpt lat="48.84564" lon="1.86858">
        <ele>120</ele>
        <time>2016-06-11T14:19:54.000Z</time>
      </trkpt>
      <trkpt lat="48.84562" lon="1.86857">
        <ele>120.19999694824</ele>
        <time>2016-06-11T14:19:56.000Z</time>
      </trkpt>
      <trkpt lat="48.84551" lon="1.86856">
        <ele>120.40000152588</ele>
        <time>2016-06-11T14:20:01.000Z</time>
      </trkpt>
      <trkpt lat="48.84539" lon="1.86859">
        <ele>120.80000305176</ele>
        <time>2016-06-11T14:20:06.000Z</time>
      </trkpt>
      <trkpt lat="48.84531" lon="1.86857">
        <ele>121.19999694824</ele>
        <time>2016-06-11T14:20:10.000Z</time>
      </trkpt>
      <trkpt lat="48.8453" lon="1.86857">
        <ele>121.19999694824</ele>
        <time>2016-06-11T14:20:11.000Z</time>
      </trkpt>
      <trkpt lat="48.84529" lon="1.86856">
        <ele>121.19999694824</ele>
        <time>2016-06-11T14:20:12.000Z</time>
      </trkpt>
      <trkpt lat="48.84525" lon="1.86856">
        <ele>121.40000152588</ele>
        <time>2016-06-11T14:20:15.000Z</time>
      </trkpt>
      <trkpt lat="48.84515" lon="1.86854">
        <ele>121.59999847412</ele>
        <time>2016-06-11T14:20:21.000Z</time>
      </trkpt>
      <trkpt lat="48.84504" lon="1.86854">
        <ele>122</ele>
        <time>2016-06-11T14:20:27.000Z</time>
      </trkpt>
      <trkpt lat="48.84495" lon="1.86853">
        <ele>122.40000152588</ele>
        <time>2016-06-11T14:20:33.000Z</time>
      </trkpt>
      <trkpt lat="48.84486" lon="1.86852">
        <ele>122.59999847412</ele>
        <time>2016-06-11T14:20:39.000Z</time>
      </trkpt>
      <trkpt lat="48.84481" lon="1.86851">
        <ele>122.80000305176</ele>
        <time>2016-06-11T14:20:43.000Z</time>
      </trkpt>
      <trkpt lat="48.84479" lon="1.86849">
        <ele>122.80000305176</ele>
        <time>2016-06-11T14:20:45.000Z</time>
      </trkpt>
      <trkpt lat="48.84468" lon="1.86848">
        <ele>123.19999694824</ele>
        <time>2016-06-11T14:20:51.000Z</time>
      </trkpt>
      <trkpt lat="48.84463" lon="1.86847">
        <ele>123.40000152588</ele>
        <time>2016-06-11T14:20:54.000Z</time>
      </trkpt>
      <trkpt lat="48.84458" lon="1.86847">
        <ele>123.40000152588</ele>
        <time>2016-06-11T14:20:57.000Z</time>
      </trkpt>
      <trkpt lat="48.84451" lon="1.86847">
        <ele>123.59999847412</ele>
        <time>2016-06-11T14:21:01.000Z</time>
      </trkpt>
      <trkpt lat="48.84447" lon="1.86847">
        <ele>123.59999847412</ele>
        <time>2016-06-11T14:21:03.000Z</time>
      </trkpt>
      <trkpt lat="48.84441" lon="1.8685">
        <ele>123.59999847412</ele>
        <time>2016-06-11T14:21:07.000Z</time>
      </trkpt>
      <trkpt lat="48.84437" lon="1.8685">
        <ele>123.80000305176</ele>
        <time>2016-06-11T14:21:09.000Z</time>
      </trkpt>
      <trkpt lat="48.84432" lon="1.8685">
        <ele>124</ele>
        <time>2016-06-11T14:21:12.000Z</time>
      </trkpt>
      <trkpt lat="48.84423" lon="1.86851">
        <ele>124.19999694824</ele>
        <time>2016-06-11T14:21:17.000Z</time>
      </trkpt>
      <trkpt lat="48.84422" lon="1.86851">
        <ele>124.19999694824</ele>
        <time>2016-06-11T14:21:18.000Z</time>
      </trkpt>
      <trkpt lat="48.84415" lon="1.86851">
        <ele>124.59999847412</ele>
        <time>2016-06-11T14:21:22.000Z</time>
      </trkpt>
      <trkpt lat="48.84406" lon="1.8685">
        <ele>124.80000305176</ele>
        <time>2016-06-11T14:21:27.000Z</time>
      </trkpt>
      <trkpt lat="48.84402" lon="1.86851">
        <ele>125</ele>
        <time>2016-06-11T14:21:30.000Z</time>
      </trkpt>
      <trkpt lat="48.84399" lon="1.8685">
        <ele>125.19999694824</ele>
        <time>2016-06-11T14:21:32.000Z</time>
      </trkpt>
      <trkpt lat="48.84394" lon="1.86849">
        <ele>125.19999694824</ele>
        <time>2016-06-11T14:21:36.000Z</time>
      </trkpt>
      <trkpt lat="48.84394" lon="1.86849">
        <ele>125.40000152588</ele>
        <time>2016-06-11T14:21:37.000Z</time>
      </trkpt>
      <trkpt lat="48.84394" lon="1.86849">
        <ele>125.40000152588</ele>
        <time>2016-06-11T14:21:38.000Z</time>
      </trkpt>
      <trkpt lat="48.84386" lon="1.86849">
        <ele>125.59999847412</ele>
        <time>2016-06-11T14:21:43.000Z</time>
      </trkpt>
      <trkpt lat="48.84379" lon="1.86849">
        <ele>125.80000305176</ele>
        <time>2016-06-11T14:21:45.000Z</time>
      </trkpt>
      <trkpt lat="48.84358" lon="1.8685">
        <ele>125.40000152588</ele>
        <time>2016-06-11T14:21:51.000Z</time>
      </trkpt>
      <trkpt lat="48.84352" lon="1.86849">
        <ele>125.40000152588</ele>
        <time>2016-06-11T14:21:54.000Z</time>
      </trkpt>
      <trkpt lat="48.84349" lon="1.86849">
        <ele>125.40000152588</ele>
        <time>2016-06-11T14:21:55.000Z</time>
      </trkpt>
      <trkpt lat="48.84344" lon="1.86849">
        <ele>125.40000152588</ele>
        <time>2016-06-11T14:21:58.000Z</time>
      </trkpt>
      <trkpt lat="48.84342" lon="1.86849">
        <ele>125.40000152588</ele>
        <time>2016-06-11T14:21:59.000Z</time>
      </trkpt>
      <trkpt lat="48.84332" lon="1.8685">
        <ele>125.40000152588</ele>
        <time>2016-06-11T14:22:05.000Z</time>
      </trkpt>
      <trkpt lat="48.84329" lon="1.8685">
        <ele>125.40000152588</ele>
        <time>2016-06-11T14:22:07.000Z</time>
      </trkpt>
      <trkpt lat="48.84322" lon="1.86851">
        <ele>125.19999694824</ele>
        <time>2016-06-11T14:22:11.000Z</time>
      </trkpt>
      <trkpt lat="48.8432" lon="1.86851">
        <ele>125.19999694824</ele>
        <time>2016-06-11T14:22:12.000Z</time>
      </trkpt>
      <trkpt lat="48.84315" lon="1.86852">
        <ele>125.19999694824</ele>
        <time>2016-06-11T14:22:15.000Z</time>
      </trkpt>
      <trkpt lat="48.84309" lon="1.86851">
        <ele>125.19999694824</ele>
        <time>2016-06-11T14:22:19.000Z</time>
      </trkpt>
      <trkpt lat="48.84304" lon="1.86851">
        <ele>125.40000152588</ele>
        <time>2016-06-11T14:22:22.000Z</time>
      </trkpt>
      <trkpt lat="48.84302" lon="1.86851">
        <ele>125.40000152588</ele>
        <time>2016-06-11T14:22:23.000Z</time>
      </trkpt>
      <trkpt lat="48.84298" lon="1.86849">
        <ele>125.40000152588</ele>
        <time>2016-06-11T14:22:26.000Z</time>
      </trkpt>
      <trkpt lat="48.84295" lon="1.86849">
        <ele>125.59999847412</ele>
        <time>2016-06-11T14:22:29.000Z</time>
      </trkpt>
      <trkpt lat="48.84292" lon="1.86849">
        <ele>125.59999847412</ele>
        <time>2016-06-11T14:22:35.000Z</time>
      </trkpt>
      <trkpt lat="48.84282" lon="1.86848">
        <ele>126</ele>
        <time>2016-06-11T14:23:02.000Z</time>
      </trkpt>
      <trkpt lat="48.84274" lon="1.86846">
        <ele>126.40000152588</ele>
        <time>2016-06-11T14:23:08.000Z</time>
      </trkpt>
      <trkpt lat="48.84265" lon="1.86846">
        <ele>126.19999694824</ele>
        <time>2016-06-11T14:23:14.000Z</time>
      </trkpt>
      <trkpt lat="48.84257" lon="1.8685">
        <ele>125.80000305176</ele>
        <time>2016-06-11T14:23:19.000Z</time>
      </trkpt>
      <trkpt lat="48.84254" lon="1.86849">
        <ele>125.80000305176</ele>
        <time>2016-06-11T14:23:20.000Z</time>
      </trkpt>
      <trkpt lat="48.84246" lon="1.86849">
        <ele>125.40000152588</ele>
        <time>2016-06-11T14:23:23.000Z</time>
      </trkpt>
      <trkpt lat="48.84233" lon="1.86848">
        <ele>125</ele>
        <time>2016-06-11T14:23:28.000Z</time>
      </trkpt>
      <trkpt lat="48.84222" lon="1.86847">
        <ele>124.59999847412</ele>
        <time>2016-06-11T14:23:35.000Z</time>
      </trkpt>
      <trkpt lat="48.84212" lon="1.86846">
        <ele>124.19999694824</ele>
        <time>2016-06-11T14:23:42.000Z</time>
      </trkpt>
      <trkpt lat="48.84208" lon="1.86846">
        <ele>124.19999694824</ele>
        <time>2016-06-11T14:23:44.000Z</time>
      </trkpt>
      <trkpt lat="48.84203" lon="1.86846">
        <ele>124.19999694824</ele>
        <time>2016-06-11T14:23:46.000Z</time>
      </trkpt>
      <trkpt lat="48.84193" lon="1.86846">
        <ele>124</ele>
        <time>2016-06-11T14:23:51.000Z</time>
      </trkpt>
      <trkpt lat="48.84184" lon="1.86844">
        <ele>123.59999847412</ele>
        <time>2016-06-11T14:23:57.000Z</time>
      </trkpt>
      <trkpt lat="48.84175" lon="1.86844">
        <ele>123.19999694824</ele>
        <time>2016-06-11T14:24:02.000Z</time>
      </trkpt>
      <trkpt lat="48.84168" lon="1.86843">
        <ele>122.80000305176</ele>
        <time>2016-06-11T14:24:07.000Z</time>
      </trkpt>
      <trkpt lat="48.8416" lon="1.8684">
        <ele>122.19999694824</ele>
        <time>2016-06-11T14:24:12.000Z</time>
      </trkpt>
      <trkpt lat="48.84159" lon="1.8684">
        <ele>122.19999694824</ele>
        <time>2016-06-11T14:24:13.000Z</time>
      </trkpt>
      <trkpt lat="48.84151" lon="1.86841">
        <ele>121.80000305176</ele>
        <time>2016-06-11T14:24:19.000Z</time>
      </trkpt>
      <trkpt lat="48.8415" lon="1.86842">
        <ele>121.59999847412</ele>
        <time>2016-06-11T14:24:20.000Z</time>
      </trkpt>
      <trkpt lat="48.84147" lon="1.86847">
        <ele>121.40000152588</ele>
        <time>2016-06-11T14:24:24.000Z</time>
      </trkpt>
      <trkpt lat="48.84146" lon="1.86848">
        <ele>121.40000152588</ele>
        <time>2016-06-11T14:24:27.000Z</time>
      </trkpt>
      <trkpt lat="48.84141" lon="1.86853">
        <ele>121.19999694824</ele>
        <time>2016-06-11T14:24:31.000Z</time>
      </trkpt>
      <trkpt lat="48.84139" lon="1.86853">
        <ele>121</ele>
        <time>2016-06-11T14:24:32.000Z</time>
      </trkpt>
      <trkpt lat="48.84133" lon="1.8685">
        <ele>120.59999847412</ele>
        <time>2016-06-11T14:24:36.000Z</time>
      </trkpt>
      <trkpt lat="48.84128" lon="1.86846">
        <ele>120.40000152588</ele>
        <time>2016-06-11T14:24:39.000Z</time>
      </trkpt>
      <trkpt lat="48.84118" lon="1.86842">
        <ele>119.80000305176</ele>
        <time>2016-06-11T14:24:47.000Z</time>
      </trkpt>
      <trkpt lat="48.84117" lon="1.8685">
        <ele>119.80000305176</ele>
        <time>2016-06-11T14:24:52.000Z</time>
      </trkpt>
      <trkpt lat="48.84112" lon="1.86852">
        <ele>119.59999847412</ele>
        <time>2016-06-11T14:24:56.000Z</time>
      </trkpt>
      <trkpt lat="48.84105" lon="1.86852">
        <ele>119.40000152588</ele>
        <time>2016-06-11T14:25:00.000Z</time>
      </trkpt>
      <trkpt lat="48.84103" lon="1.86852">
        <ele>119.40000152588</ele>
        <time>2016-06-11T14:25:01.000Z</time>
      </trkpt>
      <trkpt lat="48.84096" lon="1.86852">
        <ele>120</ele>
        <time>2016-06-11T14:25:06.000Z</time>
      </trkpt>
      <trkpt lat="48.84089" lon="1.86852">
        <ele>120.40000152588</ele>
        <time>2016-06-11T14:25:11.000Z</time>
      </trkpt>
      <trkpt lat="48.84079" lon="1.86852">
        <ele>121</ele>
        <time>2016-06-11T14:25:18.000Z</time>
      </trkpt>
      <trkpt lat="48.84076" lon="1.86853">
        <ele>121.19999694824</ele>
        <time>2016-06-11T14:25:20.000Z</time>
      </trkpt>
      <trkpt lat="48.84071" lon="1.86855">
        <ele>121.40000152588</ele>
        <time>2016-06-11T14:25:24.000Z</time>
      </trkpt>
      <trkpt lat="48.84063" lon="1.86858">
        <ele>122</ele>
        <time>2016-06-11T14:25:30.000Z</time>
      </trkpt>
      <trkpt lat="48.84055" lon="1.86862">
        <ele>122.19999694824</ele>
        <time>2016-06-11T14:25:34.000Z</time>
      </trkpt>
      <trkpt lat="48.84052" lon="1.86863">
        <ele>122.40000152588</ele>
        <time>2016-06-11T14:25:35.000Z</time>
      </trkpt>
      <trkpt lat="48.84048" lon="1.86867">
        <ele>122.40000152588</ele>
        <time>2016-06-11T14:25:37.000Z</time>
      </trkpt>
      <trkpt lat="48.84044" lon="1.86875">
        <ele>122.19999694824</ele>
        <time>2016-06-11T14:25:40.000Z</time>
      </trkpt>
      <trkpt lat="48.84042" lon="1.8688">
        <ele>122.19999694824</ele>
        <time>2016-06-11T14:25:43.000Z</time>
      </trkpt>
      <trkpt lat="48.84042" lon="1.86885">
        <ele>122</ele>
        <time>2016-06-11T14:25:45.000Z</time>
      </trkpt>
      <trkpt lat="48.84041" lon="1.8689">
        <ele>122</ele>
        <time>2016-06-11T14:25:47.000Z</time>
      </trkpt>
      <trkpt lat="48.84042" lon="1.86894">
        <ele>121.80000305176</ele>
        <time>2016-06-11T14:25:49.000Z</time>
      </trkpt>
      <trkpt lat="48.84045" lon="1.86908">
        <ele>121.40000152588</ele>
        <time>2016-06-11T14:25:55.000Z</time>
      </trkpt>
      <trkpt lat="48.84048" lon="1.86922">
        <ele>120.59999847412</ele>
        <time>2016-06-11T14:25:59.000Z</time>
      </trkpt>
      <trkpt lat="48.84048" lon="1.86926">
        <ele>120.40000152588</ele>
        <time>2016-06-11T14:26:00.000Z</time>
      </trkpt>
      <trkpt lat="48.8405" lon="1.86936">
        <ele>120</ele>
        <time>2016-06-11T14:26:04.000Z</time>
      </trkpt>
      <trkpt lat="48.8405" lon="1.86938">
        <ele>120</ele>
        <time>2016-06-11T14:26:05.000Z</time>
      </trkpt>
      <trkpt lat="48.84051" lon="1.86949">
        <ele>119.59999847412</ele>
        <time>2016-06-11T14:26:10.000Z</time>
      </trkpt>
      <trkpt lat="48.84052" lon="1.86952">
        <ele>119.40000152588</ele>
        <time>2016-06-11T14:26:11.000Z</time>
      </trkpt>
      <trkpt lat="48.84055" lon="1.86965">
        <ele>119</ele>
        <time>2016-06-11T14:26:17.000Z</time>
      </trkpt>
      <trkpt lat="48.84055" lon="1.86968">
        <ele>119</ele>
        <time>2016-06-11T14:26:18.000Z</time>
      </trkpt>
      <trkpt lat="48.84055" lon="1.86978">
        <ele>118.80000305176</ele>
        <time>2016-06-11T14:26:21.000Z</time>
      </trkpt>
      <trkpt lat="48.84055" lon="1.86981">
        <ele>118.59999847412</ele>
        <time>2016-06-11T14:26:22.000Z</time>
      </trkpt>
      <trkpt lat="48.84055" lon="1.86993">
        <ele>118.19999694824</ele>
        <time>2016-06-11T14:26:27.000Z</time>
      </trkpt>
      <trkpt lat="48.84053" lon="1.87011">
        <ele>117.19999694824</ele>
        <time>2016-06-11T14:26:35.000Z</time>
      </trkpt>
      <trkpt lat="48.84051" lon="1.87023">
        <ele>116.80000305176</ele>
        <time>2016-06-11T14:26:41.000Z</time>
      </trkpt>
      <trkpt lat="48.84051" lon="1.87027">
        <ele>116.80000305176</ele>
        <time>2016-06-11T14:26:43.000Z</time>
      </trkpt>
      <trkpt lat="48.8405" lon="1.87032">
        <ele>116.59999847412</ele>
        <time>2016-06-11T14:26:46.000Z</time>
      </trkpt>
      <trkpt lat="48.8405" lon="1.87034">
        <ele>116.59999847412</ele>
        <time>2016-06-11T14:26:47.000Z</time>
      </trkpt>
      <trkpt lat="48.84049" lon="1.87045">
        <ele>116.40000152588</ele>
        <time>2016-06-11T14:26:52.000Z</time>
      </trkpt>
      <trkpt lat="48.84048" lon="1.87048">
        <ele>116.40000152588</ele>
        <time>2016-06-11T14:26:53.000Z</time>
      </trkpt>
      <trkpt lat="48.84045" lon="1.87062">
        <ele>116.40000152588</ele>
        <time>2016-06-11T14:26:58.000Z</time>
      </trkpt>
      <trkpt lat="48.84041" lon="1.87072">
        <ele>116.40000152588</ele>
        <time>2016-06-11T14:27:03.000Z</time>
      </trkpt>
      <trkpt lat="48.84036" lon="1.87089">
        <ele>115.80000305176</ele>
        <time>2016-06-11T14:27:10.000Z</time>
      </trkpt>
      <trkpt lat="48.84031" lon="1.87103">
        <ele>115.19999694824</ele>
        <time>2016-06-11T14:27:16.000Z</time>
      </trkpt>
      <trkpt lat="48.84027" lon="1.87119">
        <ele>114.19999694824</ele>
        <time>2016-06-11T14:27:22.000Z</time>
      </trkpt>
      <trkpt lat="48.84023" lon="1.87139">
        <ele>113.19999694824</ele>
        <time>2016-06-11T14:27:29.000Z</time>
      </trkpt>
      <trkpt lat="48.8402" lon="1.87154">
        <ele>112.19999694824</ele>
        <time>2016-06-11T14:27:35.000Z</time>
      </trkpt>
      <trkpt lat="48.8402" lon="1.87172">
        <ele>111.40000152588</ele>
        <time>2016-06-11T14:27:41.000Z</time>
      </trkpt>
      <trkpt lat="48.8402" lon="1.8718">
        <ele>111</ele>
        <time>2016-06-11T14:27:45.000Z</time>
      </trkpt>
      <trkpt lat="48.8402" lon="1.87182">
        <ele>110.80000305176</ele>
        <time>2016-06-11T14:27:46.000Z</time>
      </trkpt>
      <trkpt lat="48.84016" lon="1.87194">
        <ele>110.40000152588</ele>
        <time>2016-06-11T14:27:51.000Z</time>
      </trkpt>
      <trkpt lat="48.84015" lon="1.87201">
        <ele>110.19999694824</ele>
        <time>2016-06-11T14:27:53.000Z</time>
      </trkpt>
      <trkpt lat="48.84012" lon="1.8721">
        <ele>110</ele>
        <time>2016-06-11T14:27:56.000Z</time>
      </trkpt>
      <trkpt lat="48.84008" lon="1.87225">
        <ele>109.40000152588</ele>
        <time>2016-06-11T14:28:02.000Z</time>
      </trkpt>
      <trkpt lat="48.84006" lon="1.87232">
        <ele>109.19999694824</ele>
        <time>2016-06-11T14:28:05.000Z</time>
      </trkpt>
      <trkpt lat="48.84003" lon="1.87239">
        <ele>109.19999694824</ele>
        <time>2016-06-11T14:28:08.000Z</time>
      </trkpt>
      <trkpt lat="48.84002" lon="1.87245">
        <ele>108.80000305176</ele>
        <time>2016-06-11T14:28:11.000Z</time>
      </trkpt>
      <trkpt lat="48.84001" lon="1.8725">
        <ele>108.40000152588</ele>
        <time>2016-06-11T14:28:13.000Z</time>
      </trkpt>
      <trkpt lat="48.83999" lon="1.87264">
        <ele>107.40000152588</ele>
        <time>2016-06-11T14:28:18.000Z</time>
      </trkpt>
      <trkpt lat="48.83997" lon="1.87281">
        <ele>106</ele>
        <time>2016-06-11T14:28:24.000Z</time>
      </trkpt>
      <trkpt lat="48.83996" lon="1.87295">
        <ele>105</ele>
        <time>2016-06-11T14:28:29.000Z</time>
      </trkpt>
      <trkpt lat="48.83998" lon="1.87314">
        <ele>103.40000152588</ele>
        <time>2016-06-11T14:28:35.000Z</time>
      </trkpt>
      <trkpt lat="48.83997" lon="1.87325">
        <ele>102.59999847412</ele>
        <time>2016-06-11T14:28:39.000Z</time>
      </trkpt>
      <trkpt lat="48.83998" lon="1.87329">
        <ele>102.40000152588</ele>
        <time>2016-06-11T14:28:40.000Z</time>
      </trkpt>
      <trkpt lat="48.84" lon="1.87344">
        <ele>101</ele>
        <time>2016-06-11T14:28:45.000Z</time>
      </trkpt>
      <trkpt lat="48.84004" lon="1.87357">
        <ele>99.800003051758</ele>
        <time>2016-06-11T14:28:49.000Z</time>
      </trkpt>
      <trkpt lat="48.84005" lon="1.8736">
        <ele>99.599998474121</ele>
        <time>2016-06-11T14:28:50.000Z</time>
      </trkpt>
      <trkpt lat="48.84008" lon="1.87375">
        <ele>98.199996948242</ele>
        <time>2016-06-11T14:28:55.000Z</time>
      </trkpt>
      <trkpt lat="48.84009" lon="1.87392">
        <ele>97</ele>
        <time>2016-06-11T14:29:00.000Z</time>
      </trkpt>
      <trkpt lat="48.84008" lon="1.87404">
        <ele>95.400001525879</ele>
        <time>2016-06-11T14:29:04.000Z</time>
      </trkpt>
      <trkpt lat="48.84006" lon="1.87415">
        <ele>93.800003051758</ele>
        <time>2016-06-11T14:29:08.000Z</time>
      </trkpt>
      <trkpt lat="48.84005" lon="1.87419">
        <ele>93.199996948242</ele>
        <time>2016-06-11T14:29:10.000Z</time>
      </trkpt>
      <trkpt lat="48.83997" lon="1.87433">
        <ele>91.400001525879</ele>
        <time>2016-06-11T14:29:15.000Z</time>
      </trkpt>
      <trkpt lat="48.83991" lon="1.87442">
        <ele>90.400001525879</ele>
        <time>2016-06-11T14:29:19.000Z</time>
      </trkpt>
      <trkpt lat="48.83989" lon="1.87443">
        <ele>90.199996948242</ele>
        <time>2016-06-11T14:29:20.000Z</time>
      </trkpt>
      <trkpt lat="48.83986" lon="1.87447">
        <ele>89.599998474121</ele>
        <time>2016-06-11T14:29:23.000Z</time>
      </trkpt>
      <trkpt lat="48.83984" lon="1.87449">
        <ele>89.400001525879</ele>
        <time>2016-06-11T14:29:25.000Z</time>
      </trkpt>
      <trkpt lat="48.83974" lon="1.87456">
        <ele>87.400001525879</ele>
        <time>2016-06-11T14:29:31.000Z</time>
      </trkpt>
      <trkpt lat="48.83973" lon="1.87457">
        <ele>87</ele>
        <time>2016-06-11T14:29:32.000Z</time>
      </trkpt>
      <trkpt lat="48.83967" lon="1.87463">
        <ele>85.599998474121</ele>
        <time>2016-06-11T14:29:37.000Z</time>
      </trkpt>
      <trkpt lat="48.83965" lon="1.87463">
        <ele>85.400001525879</ele>
        <time>2016-06-11T14:29:38.000Z</time>
      </trkpt>
      <trkpt lat="48.83958" lon="1.87467">
        <ele>83.800003051758</ele>
        <time>2016-06-11T14:29:43.000Z</time>
      </trkpt>
      <trkpt lat="48.83955" lon="1.8747">
        <ele>83.199996948242</ele>
        <time>2016-06-11T14:29:45.000Z</time>
      </trkpt>
      <trkpt lat="48.83947" lon="1.87479">
        <ele>80.800003051758</ele>
        <time>2016-06-11T14:29:51.000Z</time>
      </trkpt>
      <trkpt lat="48.83938" lon="1.87491">
        <ele>77.800003051758</ele>
        <time>2016-06-11T14:29:58.000Z</time>
      </trkpt>
      <trkpt lat="48.83932" lon="1.87499">
        <ele>76.199996948242</ele>
        <time>2016-06-11T14:30:01.000Z</time>
      </trkpt>
      <trkpt lat="48.8393" lon="1.87502">
        <ele>75.599998474121</ele>
        <time>2016-06-11T14:30:02.000Z</time>
      </trkpt>
      <trkpt lat="48.83918" lon="1.87513">
        <ele>73.400001525879</ele>
        <time>2016-06-11T14:30:07.000Z</time>
      </trkpt>
      <trkpt lat="48.83909" lon="1.87513">
        <ele>73.400001525879</ele>
        <time>2016-06-11T14:30:12.000Z</time>
      </trkpt>
      <trkpt lat="48.83899" lon="1.87514">
        <ele>73.400001525879</ele>
        <time>2016-06-11T14:30:18.000Z</time>
      </trkpt>
      <trkpt lat="48.8389" lon="1.87515">
        <ele>73</ele>
        <time>2016-06-11T14:30:23.000Z</time>
      </trkpt>
      <trkpt lat="48.83888" lon="1.87516">
        <ele>73</ele>
        <time>2016-06-11T14:30:24.000Z</time>
      </trkpt>
      <trkpt lat="48.83881" lon="1.87518">
        <ele>72.599998474121</ele>
        <time>2016-06-11T14:30:29.000Z</time>
      </trkpt>
      <trkpt lat="48.83876" lon="1.87518">
        <ele>72.400001525879</ele>
        <time>2016-06-11T14:30:32.000Z</time>
      </trkpt>
      <trkpt lat="48.83873" lon="1.87518">
        <ele>72.400001525879</ele>
        <time>2016-06-11T14:30:34.000Z</time>
      </trkpt>
      <trkpt lat="48.83865" lon="1.8752">
        <ele>72</ele>
        <time>2016-06-11T14:30:39.000Z</time>
      </trkpt>
      <trkpt lat="48.83863" lon="1.87523">
        <ele>71.400001525879</ele>
        <time>2016-06-11T14:30:41.000Z</time>
      </trkpt>
      <trkpt lat="48.83859" lon="1.87526">
        <ele>70.599998474121</ele>
        <time>2016-06-11T14:30:44.000Z</time>
      </trkpt>
      <trkpt lat="48.83856" lon="1.87527">
        <ele>70.400001525879</ele>
        <time>2016-06-11T14:30:45.000Z</time>
      </trkpt>
      <trkpt lat="48.8385" lon="1.87531">
        <ele>69.400001525879</ele>
        <time>2016-06-11T14:30:48.000Z</time>
      </trkpt>
      <trkpt lat="48.83838" lon="1.87535">
        <ele>68</ele>
        <time>2016-06-11T14:30:54.000Z</time>
      </trkpt>
      <trkpt lat="48.83827" lon="1.87537">
        <ele>67</ele>
        <time>2016-06-11T14:31:01.000Z</time>
      </trkpt>
      <trkpt lat="48.8382" lon="1.87536">
        <ele>66.800003051758</ele>
        <time>2016-06-11T14:31:07.000Z</time>
      </trkpt>
      <trkpt lat="48.83817" lon="1.87536">
        <ele>66.800003051758</ele>
        <time>2016-06-11T14:31:09.000Z</time>
      </trkpt>
      <trkpt lat="48.83805" lon="1.87535">
        <ele>66.800003051758</ele>
        <time>2016-06-11T14:31:16.000Z</time>
      </trkpt>
      <trkpt lat="48.83794" lon="1.87536">
        <ele>66.800003051758</ele>
        <time>2016-06-11T14:31:22.000Z</time>
      </trkpt>
      <trkpt lat="48.83783" lon="1.87534">
        <ele>67</ele>
        <time>2016-06-11T14:31:28.000Z</time>
      </trkpt>
      <trkpt lat="48.83769" lon="1.87529">
        <ele>67.400001525879</ele>
        <time>2016-06-11T14:31:35.000Z</time>
      </trkpt>
      <trkpt lat="48.83762" lon="1.87526">
        <ele>66.800003051758</ele>
        <time>2016-06-11T14:31:40.000Z</time>
      </trkpt>
      <trkpt lat="48.8375" lon="1.87521">
        <ele>66.199996948242</ele>
        <time>2016-06-11T14:31:47.000Z</time>
      </trkpt>
      <trkpt lat="48.83739" lon="1.87515">
        <ele>65.599998474121</ele>
        <time>2016-06-11T14:31:53.000Z</time>
      </trkpt>
      <trkpt lat="48.83727" lon="1.87509">
        <ele>65</ele>
        <time>2016-06-11T14:32:01.000Z</time>
      </trkpt>
      <trkpt lat="48.83716" lon="1.87505">
        <ele>64.199996948242</ele>
        <time>2016-06-11T14:32:07.000Z</time>
      </trkpt>
      <trkpt lat="48.83703" lon="1.875">
        <ele>63.200000762939</ele>
        <time>2016-06-11T14:32:13.000Z</time>
      </trkpt>
      <trkpt lat="48.83693" lon="1.87497">
        <ele>62.599998474121</ele>
        <time>2016-06-11T14:32:19.000Z</time>
      </trkpt>
      <trkpt lat="48.83683" lon="1.87494">
        <ele>62.400001525879</ele>
        <time>2016-06-11T14:32:25.000Z</time>
      </trkpt>
      <trkpt lat="48.83675" lon="1.87492">
        <ele>62.400001525879</ele>
        <time>2016-06-11T14:32:29.000Z</time>
      </trkpt>
      <trkpt lat="48.83664" lon="1.87489">
        <ele>62.200000762939</ele>
        <time>2016-06-11T14:32:35.000Z</time>
      </trkpt>
      <trkpt lat="48.83652" lon="1.87485">
        <ele>62</ele>
        <time>2016-06-11T14:32:41.000Z</time>
      </trkpt>
      <trkpt lat="48.83635" lon="1.87478">
        <ele>61.799999237061</ele>
        <time>2016-06-11T14:32:49.000Z</time>
      </trkpt>
      <trkpt lat="48.83626" lon="1.87475">
        <ele>61.599998474121</ele>
        <time>2016-06-11T14:32:55.000Z</time>
      </trkpt>
      <trkpt lat="48.83612" lon="1.87469">
        <ele>61.400001525879</ele>
        <time>2016-06-11T14:33:04.000Z</time>
      </trkpt>
      <trkpt lat="48.83605" lon="1.8746">
        <ele>61.799999237061</ele>
        <time>2016-06-11T14:33:10.000Z</time>
      </trkpt>
      <trkpt lat="48.83594" lon="1.87453">
        <ele>61.599998474121</ele>
        <time>2016-06-11T14:33:17.000Z</time>
      </trkpt>
      <trkpt lat="48.83582" lon="1.87449">
        <ele>61.400001525879</ele>
        <time>2016-06-11T14:33:25.000Z</time>
      </trkpt>
      <trkpt lat="48.83577" lon="1.87447">
        <ele>61.200000762939</ele>
        <time>2016-06-11T14:33:28.000Z</time>
      </trkpt>
      <trkpt lat="48.83572" lon="1.87443">
        <ele>61.200000762939</ele>
        <time>2016-06-11T14:33:30.000Z</time>
      </trkpt>
      <trkpt lat="48.83564" lon="1.87434">
        <ele>61.400001525879</ele>
        <time>2016-06-11T14:33:35.000Z</time>
      </trkpt>
      <trkpt lat="48.83561" lon="1.87433">
        <ele>61.200000762939</ele>
        <time>2016-06-11T14:33:37.000Z</time>
      </trkpt>
      <trkpt lat="48.83557" lon="1.87428">
        <ele>61.400001525879</ele>
        <time>2016-06-11T14:33:40.000Z</time>
      </trkpt>
      <trkpt lat="48.8355" lon="1.8742">
        <ele>61.400001525879</ele>
        <time>2016-06-11T14:33:45.000Z</time>
      </trkpt>
      <trkpt lat="48.83537" lon="1.87418">
        <ele>61</ele>
        <time>2016-06-11T14:33:52.000Z</time>
      </trkpt>
      <trkpt lat="48.83521" lon="1.87415">
        <ele>60.599998474121</ele>
        <time>2016-06-11T14:33:59.000Z</time>
      </trkpt>
      <trkpt lat="48.83511" lon="1.87412">
        <ele>60.599998474121</ele>
        <time>2016-06-11T14:34:06.000Z</time>
      </trkpt>
      <trkpt lat="48.83501" lon="1.87408">
        <ele>60.400001525879</ele>
        <time>2016-06-11T14:34:13.000Z</time>
      </trkpt>
      <trkpt lat="48.83494" lon="1.87406">
        <ele>60.400001525879</ele>
        <time>2016-06-11T14:34:18.000Z</time>
      </trkpt>
      <trkpt lat="48.8348" lon="1.87403">
        <ele>60.200000762939</ele>
        <time>2016-06-11T14:34:27.000Z</time>
      </trkpt>
      <trkpt lat="48.83467" lon="1.87401">
        <ele>60</ele>
        <time>2016-06-11T14:34:36.000Z</time>
      </trkpt>
      <trkpt lat="48.83454" lon="1.874">
        <ele>59.599998474121</ele>
        <time>2016-06-11T14:34:44.000Z</time>
      </trkpt>
      <trkpt lat="48.83448" lon="1.87398">
        <ele>59.599998474121</ele>
        <time>2016-06-11T14:34:48.000Z</time>
      </trkpt>
      <trkpt lat="48.83439" lon="1.87391">
        <ele>59.799999237061</ele>
        <time>2016-06-11T14:34:54.000Z</time>
      </trkpt>
      <trkpt lat="48.83427" lon="1.87385">
        <ele>59.200000762939</ele>
        <time>2016-06-11T14:35:00.000Z</time>
      </trkpt>
      <trkpt lat="48.83418" lon="1.87384">
        <ele>58.799999237061</ele>
        <time>2016-06-11T14:35:06.000Z</time>
      </trkpt>
      <trkpt lat="48.83408" lon="1.87382">
        <ele>58.400001525879</ele>
        <time>2016-06-11T14:35:13.000Z</time>
      </trkpt>
      <trkpt lat="48.83396" lon="1.87377">
        <ele>58.200000762939</ele>
        <time>2016-06-11T14:35:19.000Z</time>
      </trkpt>
      <trkpt lat="48.83388" lon="1.87377">
        <ele>57.799999237061</ele>
        <time>2016-06-11T14:35:24.000Z</time>
      </trkpt>
      <trkpt lat="48.8338" lon="1.87376">
        <ele>57.599998474121</ele>
        <time>2016-06-11T14:35:29.000Z</time>
      </trkpt>
      <trkpt lat="48.83373" lon="1.87376">
        <ele>57.400001525879</ele>
        <time>2016-06-11T14:35:33.000Z</time>
      </trkpt>
      <trkpt lat="48.8337" lon="1.87376">
        <ele>57.200000762939</ele>
        <time>2016-06-11T14:35:35.000Z</time>
      </trkpt>
      <trkpt lat="48.83357" lon="1.87374">
        <ele>56.799999237061</ele>
        <time>2016-06-11T14:35:42.000Z</time>
      </trkpt>
      <trkpt lat="48.83347" lon="1.87374">
        <ele>56.599998474121</ele>
        <time>2016-06-11T14:35:48.000Z</time>
      </trkpt>
      <trkpt lat="48.83336" lon="1.87374">
        <ele>56.599998474121</ele>
        <time>2016-06-11T14:35:53.000Z</time>
      </trkpt>
      <trkpt lat="48.83331" lon="1.87373">
        <ele>56.400001525879</ele>
        <time>2016-06-11T14:35:57.000Z</time>
      </trkpt>
      <trkpt lat="48.83321" lon="1.87372">
        <ele>56.400001525879</ele>
        <time>2016-06-11T14:36:03.000Z</time>
      </trkpt>
      <trkpt lat="48.83312" lon="1.87373">
        <ele>56.200000762939</ele>
        <time>2016-06-11T14:36:09.000Z</time>
      </trkpt>
      <trkpt lat="48.83299" lon="1.87372">
        <ele>55.799999237061</ele>
        <time>2016-06-11T14:36:17.000Z</time>
      </trkpt>
      <trkpt lat="48.83298" lon="1.87371">
        <ele>55.799999237061</ele>
        <time>2016-06-11T14:36:20.000Z</time>
      </trkpt>
      <trkpt lat="48.8329" lon="1.87376">
        <ele>55.400001525879</ele>
        <time>2016-06-11T14:39:41.000Z</time>
      </trkpt>
      <trkpt lat="48.83287" lon="1.87377">
        <ele>55.400001525879</ele>
        <time>2016-06-11T14:39:43.000Z</time>
      </trkpt>
      <trkpt lat="48.83279" lon="1.87378">
        <ele>55.200000762939</ele>
        <time>2016-06-11T14:39:49.000Z</time>
      </trkpt>
      <trkpt lat="48.83266" lon="1.87375">
        <ele>55.200000762939</ele>
        <time>2016-06-11T14:39:58.000Z</time>
      </trkpt>
      <trkpt lat="48.83255" lon="1.8737">
        <ele>55.599998474121</ele>
        <time>2016-06-11T14:40:04.000Z</time>
      </trkpt>
      <trkpt lat="48.83246" lon="1.87365">
        <ele>55.799999237061</ele>
        <time>2016-06-11T14:40:11.000Z</time>
      </trkpt>
      <trkpt lat="48.83231" lon="1.87354">
        <ele>56.400001525879</ele>
        <time>2016-06-11T14:40:21.000Z</time>
      </trkpt>
      <trkpt lat="48.83223" lon="1.87347">
        <ele>56.799999237061</ele>
        <time>2016-06-11T14:40:27.000Z</time>
      </trkpt>
      <trkpt lat="48.83214" lon="1.87339">
        <ele>57.200000762939</ele>
        <time>2016-06-11T14:40:34.000Z</time>
      </trkpt>
      <trkpt lat="48.83203" lon="1.8733">
        <ele>57.599998474121</ele>
        <time>2016-06-11T14:40:41.000Z</time>
      </trkpt>
      <trkpt lat="48.83195" lon="1.87323">
        <ele>58</ele>
        <time>2016-06-11T14:40:48.000Z</time>
      </trkpt>
      <trkpt lat="48.83189" lon="1.87321">
        <ele>58</ele>
        <time>2016-06-11T14:40:52.000Z</time>
      </trkpt>
      <trkpt lat="48.83186" lon="1.87319">
        <ele>58.200000762939</ele>
        <time>2016-06-11T14:40:54.000Z</time>
      </trkpt>
      <trkpt lat="48.83183" lon="1.87315">
        <ele>58.400001525879</ele>
        <time>2016-06-11T14:40:57.000Z</time>
      </trkpt>
      <trkpt lat="48.83175" lon="1.8731">
        <ele>58.599998474121</ele>
        <time>2016-06-11T14:41:01.000Z</time>
      </trkpt>
      <trkpt lat="48.83167" lon="1.87302">
        <ele>59</ele>
        <time>2016-06-11T14:41:06.000Z</time>
      </trkpt>
      <trkpt lat="48.83161" lon="1.87299">
        <ele>59.400001525879</ele>
        <time>2016-06-11T14:41:12.000Z</time>
      </trkpt>
      <trkpt lat="48.83155" lon="1.87294">
        <ele>59.599998474121</ele>
        <time>2016-06-11T14:41:17.000Z</time>
      </trkpt>
      <trkpt lat="48.83147" lon="1.87287">
        <ele>60</ele>
        <time>2016-06-11T14:41:22.000Z</time>
      </trkpt>
      <trkpt lat="48.83138" lon="1.87279">
        <ele>60.400001525879</ele>
        <time>2016-06-11T14:41:27.000Z</time>
      </trkpt>
      <trkpt lat="48.83133" lon="1.87276">
        <ele>60.599998474121</ele>
        <time>2016-06-11T14:41:30.000Z</time>
      </trkpt>
      <trkpt lat="48.8313" lon="1.87274">
        <ele>60.799999237061</ele>
        <time>2016-06-11T14:41:32.000Z</time>
      </trkpt>
      <trkpt lat="48.83126" lon="1.87271">
        <ele>60.799999237061</ele>
        <time>2016-06-11T14:41:35.000Z</time>
      </trkpt>
      <trkpt lat="48.83122" lon="1.87267">
        <ele>61</ele>
        <time>2016-06-11T14:41:38.000Z</time>
      </trkpt>
      <trkpt lat="48.83113" lon="1.87257">
        <ele>61.599998474121</ele>
        <time>2016-06-11T14:41:46.000Z</time>
      </trkpt>
      <trkpt lat="48.83101" lon="1.8725">
        <ele>62</ele>
        <time>2016-06-11T14:41:54.000Z</time>
      </trkpt>
      <trkpt lat="48.83092" lon="1.87243">
        <ele>62.200000762939</ele>
        <time>2016-06-11T14:42:01.000Z</time>
      </trkpt>
      <trkpt lat="48.83083" lon="1.87236">
        <ele>62.400001525879</ele>
        <time>2016-06-11T14:42:07.000Z</time>
      </trkpt>
      <trkpt lat="48.83081" lon="1.87236">
        <ele>62.400001525879</ele>
        <time>2016-06-11T14:42:09.000Z</time>
      </trkpt>
      <trkpt lat="48.83076" lon="1.87232">
        <ele>62.599998474121</ele>
        <time>2016-06-11T14:42:12.000Z</time>
      </trkpt>
      <trkpt lat="48.83073" lon="1.87229">
        <ele>62.799999237061</ele>
        <time>2016-06-11T14:42:14.000Z</time>
      </trkpt>
      <trkpt lat="48.83066" lon="1.87223">
        <ele>63</ele>
        <time>2016-06-11T14:42:17.000Z</time>
      </trkpt>
      <trkpt lat="48.83057" lon="1.87219">
        <ele>63.400001525879</ele>
        <time>2016-06-11T14:42:22.000Z</time>
      </trkpt>
      <trkpt lat="48.83049" lon="1.87214">
        <ele>63.599998474121</ele>
        <time>2016-06-11T14:42:28.000Z</time>
      </trkpt>
      <trkpt lat="48.83041" lon="1.87211">
        <ele>63.799999237061</ele>
        <time>2016-06-11T14:42:34.000Z</time>
      </trkpt>
      <trkpt lat="48.83031" lon="1.87206">
        <ele>64.199996948242</ele>
        <time>2016-06-11T14:42:40.000Z</time>
      </trkpt>
      <trkpt lat="48.83022" lon="1.87201">
        <ele>64.400001525879</ele>
        <time>2016-06-11T14:42:46.000Z</time>
      </trkpt>
      <trkpt lat="48.83012" lon="1.87192">
        <ele>64.400001525879</ele>
        <time>2016-06-11T14:42:54.000Z</time>
      </trkpt>
      <trkpt lat="48.83001" lon="1.87187">
        <ele>64.400001525879</ele>
        <time>2016-06-11T14:43:02.000Z</time>
      </trkpt>
      <trkpt lat="48.82993" lon="1.87178">
        <ele>64.599998474121</ele>
        <time>2016-06-11T14:43:08.000Z</time>
      </trkpt>
      <trkpt lat="48.82985" lon="1.87171">
        <ele>64.599998474121</ele>
        <time>2016-06-11T14:43:14.000Z</time>
      </trkpt>
      <trkpt lat="48.82981" lon="1.87167">
        <ele>64.599998474121</ele>
        <time>2016-06-11T14:43:18.000Z</time>
      </trkpt>
      <trkpt lat="48.82973" lon="1.8716">
        <ele>64.800003051758</ele>
        <time>2016-06-11T14:43:24.000Z</time>
      </trkpt>
      <trkpt lat="48.82965" lon="1.87152">
        <ele>64.800003051758</ele>
        <time>2016-06-11T14:43:29.000Z</time>
      </trkpt>
      <trkpt lat="48.8296" lon="1.87146">
        <ele>65.199996948242</ele>
        <time>2016-06-11T14:43:34.000Z</time>
      </trkpt>
      <trkpt lat="48.82959" lon="1.87145">
        <ele>65.199996948242</ele>
        <time>2016-06-11T14:43:35.000Z</time>
      </trkpt>
      <trkpt lat="48.82954" lon="1.8714">
        <ele>65.400001525879</ele>
        <time>2016-06-11T14:43:39.000Z</time>
      </trkpt>
      <trkpt lat="48.82949" lon="1.87133">
        <ele>65.599998474121</ele>
        <time>2016-06-11T14:43:42.000Z</time>
      </trkpt>
      <trkpt lat="48.82946" lon="1.87128">
        <ele>65.800003051758</ele>
        <time>2016-06-11T14:43:44.000Z</time>
      </trkpt>
      <trkpt lat="48.8294" lon="1.8712">
        <ele>66.199996948242</ele>
        <time>2016-06-11T14:43:49.000Z</time>
      </trkpt>
      <trkpt lat="48.82931" lon="1.87109">
        <ele>66.199996948242</ele>
        <time>2016-06-11T14:43:56.000Z</time>
      </trkpt>
      <trkpt lat="48.82921" lon="1.87097">
        <ele>66.199996948242</ele>
        <time>2016-06-11T14:44:04.000Z</time>
      </trkpt>
      <trkpt lat="48.82914" lon="1.87088">
        <ele>66.400001525879</ele>
        <time>2016-06-11T14:44:10.000Z</time>
      </trkpt>
      <trkpt lat="48.82909" lon="1.87083">
        <ele>66.199996948242</ele>
        <time>2016-06-11T14:44:14.000Z</time>
      </trkpt>
      <trkpt lat="48.82907" lon="1.87081">
        <ele>66.199996948242</ele>
        <time>2016-06-11T14:44:16.000Z</time>
      </trkpt>
      <trkpt lat="48.82896" lon="1.87071">
        <ele>66</ele>
        <time>2016-06-11T14:44:23.000Z</time>
      </trkpt>
      <trkpt lat="48.82889" lon="1.87065">
        <ele>66.199996948242</ele>
        <time>2016-06-11T14:44:28.000Z</time>
      </trkpt>
      <trkpt lat="48.82886" lon="1.87061">
        <ele>66.400001525879</ele>
        <time>2016-06-11T14:44:31.000Z</time>
      </trkpt>
      <trkpt lat="48.82884" lon="1.87055">
        <ele>66.800003051758</ele>
        <time>2016-06-11T14:44:34.000Z</time>
      </trkpt>
      <trkpt lat="48.82876" lon="1.87046">
        <ele>67</ele>
        <time>2016-06-11T14:44:40.000Z</time>
      </trkpt>
      <trkpt lat="48.82871" lon="1.87042">
        <ele>67.199996948242</ele>
        <time>2016-06-11T14:44:46.000Z</time>
      </trkpt>
      <trkpt lat="48.8286" lon="1.87056">
        <ele>65</ele>
        <time>2016-06-11T14:45:06.000Z</time>
      </trkpt>
      <trkpt lat="48.82859" lon="1.87062">
        <ele>64.199996948242</ele>
        <time>2016-06-11T14:45:09.000Z</time>
      </trkpt>
      <trkpt lat="48.82853" lon="1.87077">
        <ele>62.799999237061</ele>
        <time>2016-06-11T14:45:17.000Z</time>
      </trkpt>
      <trkpt lat="48.82853" lon="1.8708">
        <ele>62.799999237061</ele>
        <time>2016-06-11T14:45:18.000Z</time>
      </trkpt>
      <trkpt lat="48.82853" lon="1.87084">
        <ele>62.599998474121</ele>
        <time>2016-06-11T14:45:20.000Z</time>
      </trkpt>
      <trkpt lat="48.82852" lon="1.87088">
        <ele>62.599998474121</ele>
        <time>2016-06-11T14:45:22.000Z</time>
      </trkpt>
      <trkpt lat="48.82851" lon="1.87092">
        <ele>62.400001525879</ele>
        <time>2016-06-11T14:45:24.000Z</time>
      </trkpt>
      <trkpt lat="48.82848" lon="1.87099">
        <ele>62.200000762939</ele>
        <time>2016-06-11T14:45:29.000Z</time>
      </trkpt>
      <trkpt lat="48.82849" lon="1.87098">
        <ele>62.200000762939</ele>
        <time>2016-06-11T14:45:30.000Z</time>
      </trkpt>
      <trkpt lat="48.82843" lon="1.87105">
        <ele>62</ele>
        <time>2016-06-11T14:45:51.000Z</time>
      </trkpt>
      <trkpt lat="48.82842" lon="1.87109">
        <ele>61.799999237061</ele>
        <time>2016-06-11T14:45:53.000Z</time>
      </trkpt>
      <trkpt lat="48.8284" lon="1.8712">
        <ele>61.400001525879</ele>
        <time>2016-06-11T14:45:59.000Z</time>
      </trkpt>
      <trkpt lat="48.82838" lon="1.87129">
        <ele>61.200000762939</ele>
        <time>2016-06-11T14:46:04.000Z</time>
      </trkpt>
      <trkpt lat="48.82838" lon="1.8713">
        <ele>61.200000762939</ele>
        <time>2016-06-11T14:46:05.000Z</time>
      </trkpt>
      <trkpt lat="48.82838" lon="1.87132">
        <ele>61.200000762939</ele>
        <time>2016-06-11T14:46:06.000Z</time>
      </trkpt>
      <trkpt lat="48.82838" lon="1.87135">
        <ele>61</ele>
        <time>2016-06-11T14:46:10.000Z</time>
      </trkpt>
      <trkpt lat="48.82811" lon="1.8714">
        <ele>60.599998474121</ele>
        <time>2016-06-11T14:51:58.000Z</time>
      </trkpt>
      <trkpt lat="48.82808" lon="1.87137">
        <ele>60.599998474121</ele>
        <time>2016-06-11T14:52:02.000Z</time>
      </trkpt>
      <trkpt lat="48.82808" lon="1.87137">
        <ele>60.599998474121</ele>
        <time>2016-06-11T14:52:03.000Z</time>
      </trkpt>
      <trkpt lat="48.82796" lon="1.87147">
        <ele>60.400001525879</ele>
        <time>2016-06-11T14:53:07.000Z</time>
      </trkpt>
      <trkpt lat="48.82798" lon="1.87153">
        <ele>60.400001525879</ele>
        <time>2016-06-11T14:53:09.000Z</time>
      </trkpt>
      <trkpt lat="48.828" lon="1.87168">
        <ele>60.200000762939</ele>
        <time>2016-06-11T14:53:15.000Z</time>
      </trkpt>
      <trkpt lat="48.82802" lon="1.87183">
        <ele>60</ele>
        <time>2016-06-11T14:53:23.000Z</time>
      </trkpt>
      <trkpt lat="48.82803" lon="1.87194">
        <ele>59.799999237061</ele>
        <time>2016-06-11T14:53:27.000Z</time>
      </trkpt>
      <trkpt lat="48.82804" lon="1.87197">
        <ele>59.799999237061</ele>
        <time>2016-06-11T14:53:28.000Z</time>
      </trkpt>
      <trkpt lat="48.82807" lon="1.87214">
        <ele>59.400001525879</ele>
        <time>2016-06-11T14:53:35.000Z</time>
      </trkpt>
      <trkpt lat="48.82809" lon="1.87229">
        <ele>59.200000762939</ele>
        <time>2016-06-11T14:53:42.000Z</time>
      </trkpt>
      <trkpt lat="48.82811" lon="1.87247">
        <ele>59</ele>
        <time>2016-06-11T14:53:50.000Z</time>
      </trkpt>
      <trkpt lat="48.82811" lon="1.87253">
        <ele>59.200000762939</ele>
        <time>2016-06-11T14:53:54.000Z</time>
      </trkpt>
      <trkpt lat="48.82811" lon="1.87264">
        <ele>59.599998474121</ele>
        <time>2016-06-11T14:53:58.000Z</time>
      </trkpt>
      <trkpt lat="48.82812" lon="1.87274">
        <ele>59.799999237061</ele>
        <time>2016-06-11T14:54:01.000Z</time>
      </trkpt>
      <trkpt lat="48.82812" lon="1.87286">
        <ele>60.200000762939</ele>
        <time>2016-06-11T14:54:05.000Z</time>
      </trkpt>
      <trkpt lat="48.82811" lon="1.87304">
        <ele>60.799999237061</ele>
        <time>2016-06-11T14:54:11.000Z</time>
      </trkpt>
      <trkpt lat="48.82811" lon="1.87309">
        <ele>61</ele>
        <time>2016-06-11T14:54:13.000Z</time>
      </trkpt>
      <trkpt lat="48.8281" lon="1.87315">
        <ele>61.200000762939</ele>
        <time>2016-06-11T14:54:16.000Z</time>
      </trkpt>
      <trkpt lat="48.82809" lon="1.87322">
        <ele>61.400001525879</ele>
        <time>2016-06-11T14:54:19.000Z</time>
      </trkpt>
      <trkpt lat="48.82809" lon="1.87328">
        <ele>61.599998474121</ele>
        <time>2016-06-11T14:54:21.000Z</time>
      </trkpt>
      <trkpt lat="48.82806" lon="1.87343">
        <ele>62.200000762939</ele>
        <time>2016-06-11T14:54:27.000Z</time>
      </trkpt>
      <trkpt lat="48.82804" lon="1.87359">
        <ele>62.799999237061</ele>
        <time>2016-06-11T14:54:32.000Z</time>
      </trkpt>
      <trkpt lat="48.82802" lon="1.87374">
        <ele>63.400001525879</ele>
        <time>2016-06-11T14:54:38.000Z</time>
      </trkpt>
      <trkpt lat="48.828" lon="1.87391">
        <ele>64.199996948242</ele>
        <time>2016-06-11T14:54:45.000Z</time>
      </trkpt>
      <trkpt lat="48.82795" lon="1.87412">
        <ele>65.199996948242</ele>
        <time>2016-06-11T14:54:53.000Z</time>
      </trkpt>
      <trkpt lat="48.82792" lon="1.87425">
        <ele>66</ele>
        <time>2016-06-11T14:54:58.000Z</time>
      </trkpt>
      <trkpt lat="48.8279" lon="1.87443">
        <ele>66.800003051758</ele>
        <time>2016-06-11T14:55:06.000Z</time>
      </trkpt>
      <trkpt lat="48.82785" lon="1.87455">
        <ele>67.400001525879</ele>
        <time>2016-06-11T14:55:12.000Z</time>
      </trkpt>
      <trkpt lat="48.82782" lon="1.87468">
        <ele>68</ele>
        <time>2016-06-11T14:55:18.000Z</time>
      </trkpt>
      <trkpt lat="48.82778" lon="1.8748">
        <ele>68.599998474121</ele>
        <time>2016-06-11T14:55:24.000Z</time>
      </trkpt>
      <trkpt lat="48.82774" lon="1.87493">
        <ele>69.199996948242</ele>
        <time>2016-06-11T14:55:30.000Z</time>
      </trkpt>
      <trkpt lat="48.82775" lon="1.87495">
        <ele>69.199996948242</ele>
        <time>2016-06-11T14:55:31.000Z</time>
      </trkpt>
      <trkpt lat="48.82773" lon="1.875">
        <ele>69.199996948242</ele>
        <time>2016-06-11T14:55:33.000Z</time>
      </trkpt>
      <trkpt lat="48.82771" lon="1.87507">
        <ele>69.400001525879</ele>
        <time>2016-06-11T14:55:37.000Z</time>
      </trkpt>
      <trkpt lat="48.8277" lon="1.87509">
        <ele>69.599998474121</ele>
        <time>2016-06-11T14:55:38.000Z</time>
      </trkpt>
      <trkpt lat="48.82764" lon="1.87528">
        <ele>70.199996948242</ele>
        <time>2016-06-11T14:55:45.000Z</time>
      </trkpt>
      <trkpt lat="48.82761" lon="1.87543">
        <ele>70.599998474121</ele>
        <time>2016-06-11T14:55:51.000Z</time>
      </trkpt>
      <trkpt lat="48.82761" lon="1.87546">
        <ele>70.800003051758</ele>
        <time>2016-06-11T14:55:52.000Z</time>
      </trkpt>
      <trkpt lat="48.8276" lon="1.87556">
        <ele>71</ele>
        <time>2016-06-11T14:55:55.000Z</time>
      </trkpt>
      <trkpt lat="48.82759" lon="1.87559">
        <ele>71.199996948242</ele>
        <time>2016-06-11T14:55:56.000Z</time>
      </trkpt>
      <trkpt lat="48.82751" lon="1.8759">
        <ele>72.199996948242</ele>
        <time>2016-06-11T14:56:05.000Z</time>
      </trkpt>
      <trkpt lat="48.82745" lon="1.87617">
        <ele>73</ele>
        <time>2016-06-11T14:56:13.000Z</time>
      </trkpt>
      <trkpt lat="48.82737" lon="1.8765">
        <ele>73.800003051758</ele>
        <time>2016-06-11T14:56:23.000Z</time>
      </trkpt>
      <trkpt lat="48.82734" lon="1.87664">
        <ele>74.199996948242</ele>
        <time>2016-06-11T14:56:28.000Z</time>
      </trkpt>
      <trkpt lat="48.82732" lon="1.87683">
        <ele>75</ele>
        <time>2016-06-11T14:56:36.000Z</time>
      </trkpt>
      <trkpt lat="48.82729" lon="1.87691">
        <ele>75.199996948242</ele>
        <time>2016-06-11T14:56:39.000Z</time>
      </trkpt>
      <trkpt lat="48.82727" lon="1.87698">
        <ele>75.599998474121</ele>
        <time>2016-06-11T14:56:41.000Z</time>
      </trkpt>
      <trkpt lat="48.82722" lon="1.87717">
        <ele>76.400001525879</ele>
        <time>2016-06-11T14:56:47.000Z</time>
      </trkpt>
      <trkpt lat="48.82714" lon="1.87745">
        <ele>77.599998474121</ele>
        <time>2016-06-11T14:56:55.000Z</time>
      </trkpt>
      <trkpt lat="48.82705" lon="1.87776">
        <ele>78.800003051758</ele>
        <time>2016-06-11T14:57:04.000Z</time>
      </trkpt>
      <trkpt lat="48.82696" lon="1.878">
        <ele>79.800003051758</ele>
        <time>2016-06-11T14:57:12.000Z</time>
      </trkpt>
      <trkpt lat="48.82696" lon="1.87803">
        <ele>80</ele>
        <time>2016-06-11T14:57:14.000Z</time>
      </trkpt>
      <trkpt lat="48.82693" lon="1.8781">
        <ele>80.400001525879</ele>
        <time>2016-06-11T14:57:17.000Z</time>
      </trkpt>
      <trkpt lat="48.82687" lon="1.8783">
        <ele>81.199996948242</ele>
        <time>2016-06-11T14:57:25.000Z</time>
      </trkpt>
      <trkpt lat="48.82682" lon="1.87843">
        <ele>81.400001525879</ele>
        <time>2016-06-11T14:57:31.000Z</time>
      </trkpt>
      <trkpt lat="48.82675" lon="1.87865">
        <ele>82</ele>
        <time>2016-06-11T14:57:40.000Z</time>
      </trkpt>
      <trkpt lat="48.82668" lon="1.87884">
        <ele>82.400001525879</ele>
        <time>2016-06-11T14:57:47.000Z</time>
      </trkpt>
      <trkpt lat="48.82662" lon="1.87902">
        <ele>83</ele>
        <time>2016-06-11T14:57:55.000Z</time>
      </trkpt>
      <trkpt lat="48.82654" lon="1.87924">
        <ele>84</ele>
        <time>2016-06-11T14:58:04.000Z</time>
      </trkpt>
      <trkpt lat="48.82647" lon="1.87941">
        <ele>84.800003051758</ele>
        <time>2016-06-11T14:58:11.000Z</time>
      </trkpt>
      <trkpt lat="48.82641" lon="1.87954">
        <ele>85</ele>
        <time>2016-06-11T14:58:16.000Z</time>
      </trkpt>
      <trkpt lat="48.82632" lon="1.87972">
        <ele>85</ele>
        <time>2016-06-11T14:58:23.000Z</time>
      </trkpt>
      <trkpt lat="48.82627" lon="1.87982">
        <ele>85</ele>
        <time>2016-06-11T14:58:29.000Z</time>
      </trkpt>
      <trkpt lat="48.8262" lon="1.87995">
        <ele>85</ele>
        <time>2016-06-11T14:58:37.000Z</time>
      </trkpt>
      <trkpt lat="48.8261" lon="1.88014">
        <ele>85.199996948242</ele>
        <time>2016-06-11T14:58:47.000Z</time>
      </trkpt>
      <trkpt lat="48.8261" lon="1.88033">
        <ele>85.400001525879</ele>
        <time>2016-06-11T14:58:55.000Z</time>
      </trkpt>
      <trkpt lat="48.82612" lon="1.88035">
        <ele>85.400001525879</ele>
        <time>2016-06-11T14:58:56.000Z</time>
      </trkpt>
      <trkpt lat="48.82621" lon="1.8804">
        <ele>85.400001525879</ele>
        <time>2016-06-11T14:59:00.000Z</time>
      </trkpt>
      <trkpt lat="48.82644" lon="1.88052">
        <ele>85.199996948242</ele>
        <time>2016-06-11T14:59:10.000Z</time>
      </trkpt>
      <trkpt lat="48.82656" lon="1.88058">
        <ele>85.199996948242</ele>
        <time>2016-06-11T14:59:17.000Z</time>
      </trkpt>
      <trkpt lat="48.82661" lon="1.88062">
        <ele>85.199996948242</ele>
        <time>2016-06-11T14:59:23.000Z</time>
      </trkpt>
      <trkpt lat="48.82673" lon="1.88069">
        <ele>85.199996948242</ele>
        <time>2016-06-11T14:59:30.000Z</time>
      </trkpt>
      <trkpt lat="48.8268" lon="1.88073">
        <ele>85</ele>
        <time>2016-06-11T14:59:35.000Z</time>
      </trkpt>
      <trkpt lat="48.82694" lon="1.8808">
        <ele>85.199996948242</ele>
        <time>2016-06-11T14:59:42.000Z</time>
      </trkpt>
      <trkpt lat="48.82703" lon="1.88084">
        <ele>85.599998474121</ele>
        <time>2016-06-11T14:59:48.000Z</time>
      </trkpt>
      <trkpt lat="48.82717" lon="1.88091">
        <ele>86.199996948242</ele>
        <time>2016-06-11T14:59:56.000Z</time>
      </trkpt>
      <trkpt lat="48.82728" lon="1.88099">
        <ele>86.599998474121</ele>
        <time>2016-06-11T15:00:03.000Z</time>
      </trkpt>
      <trkpt lat="48.82739" lon="1.88106">
        <ele>87</ele>
        <time>2016-06-11T15:00:08.000Z</time>
      </trkpt>
      <trkpt lat="48.82746" lon="1.8811">
        <ele>87.199996948242</ele>
        <time>2016-06-11T15:00:13.000Z</time>
      </trkpt>
      <trkpt lat="48.82764" lon="1.8812">
        <ele>88</ele>
        <time>2016-06-11T15:00:25.000Z</time>
      </trkpt>
      <trkpt lat="48.82775" lon="1.88127">
        <ele>88.400001525879</ele>
        <time>2016-06-11T15:00:32.000Z</time>
      </trkpt>
      <trkpt lat="48.82781" lon="1.8813">
        <ele>89</ele>
        <time>2016-06-11T15:00:36.000Z</time>
      </trkpt>
      <trkpt lat="48.82784" lon="1.88132">
        <ele>89.199996948242</ele>
        <time>2016-06-11T15:00:38.000Z</time>
      </trkpt>
      <trkpt lat="48.828" lon="1.88141">
        <ele>90.400001525879</ele>
        <time>2016-06-11T15:00:49.000Z</time>
      </trkpt>
      <trkpt lat="48.82818" lon="1.88152">
        <ele>91.599998474121</ele>
        <time>2016-06-11T15:01:00.000Z</time>
      </trkpt>
      <trkpt lat="48.8283" lon="1.88159">
        <ele>92.599998474121</ele>
        <time>2016-06-11T15:01:07.000Z</time>
      </trkpt>
      <trkpt lat="48.82837" lon="1.88162">
        <ele>93</ele>
        <time>2016-06-11T15:01:12.000Z</time>
      </trkpt>
      <trkpt lat="48.82842" lon="1.88165">
        <ele>93.599998474121</ele>
        <time>2016-06-11T15:01:18.000Z</time>
      </trkpt>
      <trkpt lat="48.82854" lon="1.88176">
        <ele>94.599998474121</ele>
        <time>2016-06-11T15:01:27.000Z</time>
      </trkpt>
      <trkpt lat="48.8286" lon="1.88195">
        <ele>95.599998474121</ele>
        <time>2016-06-11T15:01:35.000Z</time>
      </trkpt>
      <trkpt lat="48.82862" lon="1.88224">
        <ele>96.800003051758</ele>
        <time>2016-06-11T15:01:41.000Z</time>
      </trkpt>
      <trkpt lat="48.82864" lon="1.88279">
        <ele>98.800003051758</ele>
        <time>2016-06-11T15:01:50.000Z</time>
      </trkpt>
      <trkpt lat="48.82864" lon="1.88336">
        <ele>100.80000305176</ele>
        <time>2016-06-11T15:01:58.000Z</time>
      </trkpt>
      <trkpt lat="48.82864" lon="1.88393">
        <ele>103</ele>
        <time>2016-06-11T15:02:05.000Z</time>
      </trkpt>
      <trkpt lat="48.82863" lon="1.88442">
        <ele>104.80000305176</ele>
        <time>2016-06-11T15:02:11.000Z</time>
      </trkpt>
      <trkpt lat="48.82862" lon="1.88499">
        <ele>106.59999847412</ele>
        <time>2016-06-11T15:02:18.000Z</time>
      </trkpt>
      <trkpt lat="48.82864" lon="1.8855">
        <ele>108</ele>
        <time>2016-06-11T15:02:24.000Z</time>
      </trkpt>
      <trkpt lat="48.82863" lon="1.88603">
        <ele>109</ele>
        <time>2016-06-11T15:02:30.000Z</time>
      </trkpt>
      <trkpt lat="48.82863" lon="1.88647">
        <ele>109.40000152588</ele>
        <time>2016-06-11T15:02:36.000Z</time>
      </trkpt>
      <trkpt lat="48.8286" lon="1.88705">
        <ele>110.59999847412</ele>
        <time>2016-06-11T15:02:45.000Z</time>
      </trkpt>
      <trkpt lat="48.82859" lon="1.88718">
        <ele>110.80000305176</ele>
        <time>2016-06-11T15:02:47.000Z</time>
      </trkpt>
      <trkpt lat="48.82855" lon="1.88747">
        <ele>111.19999694824</ele>
        <time>2016-06-11T15:02:51.000Z</time>
      </trkpt>
      <trkpt lat="48.82846" lon="1.88802">
        <ele>112</ele>
        <time>2016-06-11T15:02:58.000Z</time>
      </trkpt>
      <trkpt lat="48.82839" lon="1.88871">
        <ele>111.59999847412</ele>
        <time>2016-06-11T15:03:06.000Z</time>
      </trkpt>
      <trkpt lat="48.82838" lon="1.88877">
        <ele>111.59999847412</ele>
        <time>2016-06-11T15:03:07.000Z</time>
      </trkpt>
      <trkpt lat="48.82834" lon="1.88937">
        <ele>112.19999694824</ele>
        <time>2016-06-11T15:03:14.000Z</time>
      </trkpt>
      <trkpt lat="48.82834" lon="1.88972">
        <ele>113.19999694824</ele>
        <time>2016-06-11T15:03:18.000Z</time>
      </trkpt>
      <trkpt lat="48.82837" lon="1.88995">
        <ele>114.19999694824</ele>
        <time>2016-06-11T15:03:21.000Z</time>
      </trkpt>
      <trkpt lat="48.82841" lon="1.89052">
        <ele>117.59999847412</ele>
        <time>2016-06-11T15:03:28.000Z</time>
      </trkpt>
      <trkpt lat="48.82844" lon="1.89089">
        <ele>119</ele>
        <time>2016-06-11T15:03:33.000Z</time>
      </trkpt>
      <trkpt lat="48.82844" lon="1.89095">
        <ele>119.19999694824</ele>
        <time>2016-06-11T15:03:34.000Z</time>
      </trkpt>
      <trkpt lat="48.82845" lon="1.89115">
        <ele>119.59999847412</ele>
        <time>2016-06-11T15:03:37.000Z</time>
      </trkpt>
      <trkpt lat="48.82846" lon="1.89133">
        <ele>120</ele>
        <time>2016-06-11T15:03:40.000Z</time>
      </trkpt>
      <trkpt lat="48.82849" lon="1.89166">
        <ele>121.19999694824</ele>
        <time>2016-06-11T15:03:47.000Z</time>
      </trkpt>
      <trkpt lat="48.82847" lon="1.89171">
        <ele>121.19999694824</ele>
        <time>2016-06-11T15:03:49.000Z</time>
      </trkpt>
      <trkpt lat="48.82845" lon="1.89174">
        <ele>121.19999694824</ele>
        <time>2016-06-11T15:03:51.000Z</time>
      </trkpt>
      <trkpt lat="48.82835" lon="1.89185">
        <ele>121.40000152588</ele>
        <time>2016-06-11T15:03:59.000Z</time>
      </trkpt>
      <trkpt lat="48.8283" lon="1.89188">
        <ele>121.40000152588</ele>
        <time>2016-06-11T15:04:03.000Z</time>
      </trkpt>
      <trkpt lat="48.8283" lon="1.89188">
        <ele>121.40000152588</ele>
        <time>2016-06-11T15:04:05.000Z</time>
      </trkpt>
      <trkpt lat="48.8282" lon="1.89199">
        <ele>121.59999847412</ele>
        <time>2016-06-11T15:04:28.000Z</time>
      </trkpt>
      <trkpt lat="48.82817" lon="1.89202">
        <ele>121.59999847412</ele>
        <time>2016-06-11T15:04:30.000Z</time>
      </trkpt>
      <trkpt lat="48.82816" lon="1.89204">
        <ele>121.59999847412</ele>
        <time>2016-06-11T15:04:31.000Z</time>
      </trkpt>
      <trkpt lat="48.82812" lon="1.89209">
        <ele>121.80000305176</ele>
        <time>2016-06-11T15:04:35.000Z</time>
      </trkpt>
      <trkpt lat="48.82811" lon="1.89212">
        <ele>122</ele>
        <time>2016-06-11T15:04:37.000Z</time>
      </trkpt>
      <trkpt lat="48.82808" lon="1.89217">
        <ele>122.19999694824</ele>
        <time>2016-06-11T15:04:40.000Z</time>
      </trkpt>
      <trkpt lat="48.82807" lon="1.89219">
        <ele>122.19999694824</ele>
        <time>2016-06-11T15:04:41.000Z</time>
      </trkpt>
      <trkpt lat="48.82804" lon="1.89224">
        <ele>122.40000152588</ele>
        <time>2016-06-11T15:04:44.000Z</time>
      </trkpt>
      <trkpt lat="48.82803" lon="1.89227">
        <ele>122.59999847412</ele>
        <time>2016-06-11T15:04:46.000Z</time>
      </trkpt>
      <trkpt lat="48.828" lon="1.89232">
        <ele>122.80000305176</ele>
        <time>2016-06-11T15:04:49.000Z</time>
      </trkpt>
      <trkpt lat="48.82799" lon="1.89236">
        <ele>122.80000305176</ele>
        <time>2016-06-11T15:04:51.000Z</time>
      </trkpt>
      <trkpt lat="48.82795" lon="1.89244">
        <ele>123</ele>
        <time>2016-06-11T15:04:55.000Z</time>
      </trkpt>
      <trkpt lat="48.82793" lon="1.89248">
        <ele>123</ele>
        <time>2016-06-11T15:04:57.000Z</time>
      </trkpt>
      <trkpt lat="48.82784" lon="1.89267">
        <ele>123</ele>
        <time>2016-06-11T15:05:07.000Z</time>
      </trkpt>
      <trkpt lat="48.82776" lon="1.89285">
        <ele>122.59999847412</ele>
        <time>2016-06-11T15:05:16.000Z</time>
      </trkpt>
      <trkpt lat="48.82767" lon="1.89304">
        <ele>122</ele>
        <time>2016-06-11T15:05:21.000Z</time>
      </trkpt>
      <trkpt lat="48.82754" lon="1.89331">
        <ele>121.80000305176</ele>
        <time>2016-06-11T15:05:28.000Z</time>
      </trkpt>
      <trkpt lat="48.82746" lon="1.89352">
        <ele>122</ele>
        <time>2016-06-11T15:05:34.000Z</time>
      </trkpt>
      <trkpt lat="48.82745" lon="1.89378">
        <ele>122.40000152588</ele>
        <time>2016-06-11T15:05:40.000Z</time>
      </trkpt>
      <trkpt lat="48.82743" lon="1.89418">
        <ele>123</ele>
        <time>2016-06-11T15:05:48.000Z</time>
      </trkpt>
      <trkpt lat="48.82743" lon="1.89441">
        <ele>123.40000152588</ele>
        <time>2016-06-11T15:05:55.000Z</time>
      </trkpt>
      <trkpt lat="48.82743" lon="1.89463">
        <ele>124</ele>
        <time>2016-06-11T15:06:02.000Z</time>
      </trkpt>
      <trkpt lat="48.82744" lon="1.89478">
        <ele>124.19999694824</ele>
        <time>2016-06-11T15:06:08.000Z</time>
      </trkpt>
      <trkpt lat="48.82743" lon="1.89493">
        <ele>124.40000152588</ele>
        <time>2016-06-11T15:06:14.000Z</time>
      </trkpt>
      <trkpt lat="48.82745" lon="1.89511">
        <ele>124.59999847412</ele>
        <time>2016-06-11T15:06:21.000Z</time>
      </trkpt>
      <trkpt lat="48.82744" lon="1.89537">
        <ele>125</ele>
        <time>2016-06-11T15:06:32.000Z</time>
      </trkpt>
      <trkpt lat="48.82745" lon="1.89558">
        <ele>125.59999847412</ele>
        <time>2016-06-11T15:06:38.000Z</time>
      </trkpt>
      <trkpt lat="48.82743" lon="1.89572">
        <ele>126.40000152588</ele>
        <time>2016-06-11T15:06:43.000Z</time>
      </trkpt>
      <trkpt lat="48.82742" lon="1.89591">
        <ele>126.19999694824</ele>
        <time>2016-06-11T15:06:50.000Z</time>
      </trkpt>
      <trkpt lat="48.82741" lon="1.89608">
        <ele>126</ele>
        <time>2016-06-11T15:06:56.000Z</time>
      </trkpt>
      <trkpt lat="48.82739" lon="1.89628">
        <ele>125.80000305176</ele>
        <time>2016-06-11T15:07:04.000Z</time>
      </trkpt>
      <trkpt lat="48.82738" lon="1.89647">
        <ele>126.40000152588</ele>
        <time>2016-06-11T15:07:10.000Z</time>
      </trkpt>
      <trkpt lat="48.82737" lon="1.89665">
        <ele>127</ele>
        <time>2016-06-11T15:07:17.000Z</time>
      </trkpt>
      <trkpt lat="48.82736" lon="1.89686">
        <ele>127.80000305176</ele>
        <time>2016-06-11T15:07:25.000Z</time>
      </trkpt>
      <trkpt lat="48.82735" lon="1.89707">
        <ele>128.60000610352</ele>
        <time>2016-06-11T15:07:31.000Z</time>
      </trkpt>
      <trkpt lat="48.82735" lon="1.89725">
        <ele>129</ele>
        <time>2016-06-11T15:07:37.000Z</time>
      </trkpt>
      <trkpt lat="48.82734" lon="1.89754">
        <ele>129.39999389648</ele>
        <time>2016-06-11T15:07:48.000Z</time>
      </trkpt>
      <trkpt lat="48.82734" lon="1.89772">
        <ele>129.39999389648</ele>
        <time>2016-06-11T15:07:55.000Z</time>
      </trkpt>
      <trkpt lat="48.82733" lon="1.89788">
        <ele>129.39999389648</ele>
        <time>2016-06-11T15:08:01.000Z</time>
      </trkpt>
      <trkpt lat="48.82732" lon="1.89817">
        <ele>129.39999389648</ele>
        <time>2016-06-11T15:08:12.000Z</time>
      </trkpt>
      <trkpt lat="48.82731" lon="1.89832">
        <ele>129.39999389648</ele>
        <time>2016-06-11T15:08:18.000Z</time>
      </trkpt>
      <trkpt lat="48.82729" lon="1.89857">
        <ele>129.19999694824</ele>
        <time>2016-06-11T15:08:28.000Z</time>
      </trkpt>
      <trkpt lat="48.82729" lon="1.89875">
        <ele>129</ele>
        <time>2016-06-11T15:08:35.000Z</time>
      </trkpt>
      <trkpt lat="48.8273" lon="1.89898">
        <ele>128.60000610352</ele>
        <time>2016-06-11T15:08:43.000Z</time>
      </trkpt>
      <trkpt lat="48.82728" lon="1.89921">
        <ele>128.60000610352</ele>
        <time>2016-06-11T15:08:50.000Z</time>
      </trkpt>
      <trkpt lat="48.82727" lon="1.89943">
        <ele>128.60000610352</ele>
        <time>2016-06-11T15:08:58.000Z</time>
      </trkpt>
      <trkpt lat="48.82726" lon="1.89958">
        <ele>128.80000305176</ele>
        <time>2016-06-11T15:09:04.000Z</time>
      </trkpt>
      <trkpt lat="48.82725" lon="1.89978">
        <ele>129.19999694824</ele>
        <time>2016-06-11T15:09:12.000Z</time>
      </trkpt>
      <trkpt lat="48.82726" lon="1.90002">
        <ele>129</ele>
        <time>2016-06-11T15:09:21.000Z</time>
      </trkpt>
      <trkpt lat="48.82727" lon="1.90018">
        <ele>128.80000305176</ele>
        <time>2016-06-11T15:09:27.000Z</time>
      </trkpt>
      <trkpt lat="48.82727" lon="1.90033">
        <ele>128.60000610352</ele>
        <time>2016-06-11T15:09:34.000Z</time>
      </trkpt>
      <trkpt lat="48.82729" lon="1.90059">
        <ele>128.19999694824</ele>
        <time>2016-06-11T15:09:45.000Z</time>
      </trkpt>
      <trkpt lat="48.8273" lon="1.90083">
        <ele>128.19999694824</ele>
        <time>2016-06-11T15:09:53.000Z</time>
      </trkpt>
      <trkpt lat="48.82731" lon="1.90107">
        <ele>128.39999389648</ele>
        <time>2016-06-11T15:10:02.000Z</time>
      </trkpt>
      <trkpt lat="48.82732" lon="1.90129">
        <ele>128.39999389648</ele>
        <time>2016-06-11T15:10:11.000Z</time>
      </trkpt>
      <trkpt lat="48.82732" lon="1.90147">
        <ele>128.39999389648</ele>
        <time>2016-06-11T15:10:17.000Z</time>
      </trkpt>
      <trkpt lat="48.82732" lon="1.90174">
        <ele>128</ele>
        <time>2016-06-11T15:10:26.000Z</time>
      </trkpt>
      <trkpt lat="48.82732" lon="1.90188">
        <ele>127.59999847412</ele>
        <time>2016-06-11T15:10:32.000Z</time>
      </trkpt>
      <trkpt lat="48.82731" lon="1.90208">
        <ele>127.40000152588</ele>
        <time>2016-06-11T15:10:41.000Z</time>
      </trkpt>
      <trkpt lat="48.8273" lon="1.9021">
        <ele>127.40000152588</ele>
        <time>2016-06-11T15:10:42.000Z</time>
      </trkpt>
      <trkpt lat="48.82729" lon="1.9022">
        <ele>127.40000152588</ele>
        <time>2016-06-11T15:10:46.000Z</time>
      </trkpt>
      <trkpt lat="48.82727" lon="1.90232">
        <ele>127.19999694824</ele>
        <time>2016-06-11T15:10:51.000Z</time>
      </trkpt>
      <trkpt lat="48.82725" lon="1.90245">
        <ele>127.19999694824</ele>
        <time>2016-06-11T15:10:56.000Z</time>
      </trkpt>
      <trkpt lat="48.82725" lon="1.90247">
        <ele>127.19999694824</ele>
        <time>2016-06-11T15:10:57.000Z</time>
      </trkpt>
      <trkpt lat="48.82718" lon="1.90267">
        <ele>127.59999847412</ele>
        <time>2016-06-11T15:11:06.000Z</time>
      </trkpt>
      <trkpt lat="48.82717" lon="1.90271">
        <ele>127.59999847412</ele>
        <time>2016-06-11T15:11:08.000Z</time>
      </trkpt>
      <trkpt lat="48.82715" lon="1.90277">
        <ele>127.59999847412</ele>
        <time>2016-06-11T15:11:11.000Z</time>
      </trkpt>
      <trkpt lat="48.8271" lon="1.90292">
        <ele>127.59999847412</ele>
        <time>2016-06-11T15:11:18.000Z</time>
      </trkpt>
      <trkpt lat="48.82703" lon="1.90309">
        <ele>127.59999847412</ele>
        <time>2016-06-11T15:11:25.000Z</time>
      </trkpt>
      <trkpt lat="48.82698" lon="1.90324">
        <ele>127.59999847412</ele>
        <time>2016-06-11T15:11:32.000Z</time>
      </trkpt>
      <trkpt lat="48.82695" lon="1.9033">
        <ele>127.59999847412</ele>
        <time>2016-06-11T15:11:35.000Z</time>
      </trkpt>
      <trkpt lat="48.82693" lon="1.90334">
        <ele>127.80000305176</ele>
        <time>2016-06-11T15:11:37.000Z</time>
      </trkpt>
      <trkpt lat="48.82686" lon="1.9035">
        <ele>128.19999694824</ele>
        <time>2016-06-11T15:11:44.000Z</time>
      </trkpt>
      <trkpt lat="48.82682" lon="1.90359">
        <ele>128.60000610352</ele>
        <time>2016-06-11T15:11:49.000Z</time>
      </trkpt>
      <trkpt lat="48.8268" lon="1.90363">
        <ele>128.80000305176</ele>
        <time>2016-06-11T15:11:51.000Z</time>
      </trkpt>
      <trkpt lat="48.82674" lon="1.90375">
        <ele>129.19999694824</ele>
        <time>2016-06-11T15:11:57.000Z</time>
      </trkpt>
      <trkpt lat="48.82668" lon="1.90389">
        <ele>129.60000610352</ele>
        <time>2016-06-11T15:12:04.000Z</time>
      </trkpt>
      <trkpt lat="48.82663" lon="1.904">
        <ele>129.60000610352</ele>
        <time>2016-06-11T15:12:10.000Z</time>
      </trkpt>
      <trkpt lat="48.82656" lon="1.90415">
        <ele>129.80000305176</ele>
        <time>2016-06-11T15:12:17.000Z</time>
      </trkpt>
      <trkpt lat="48.8265" lon="1.90427">
        <ele>129.80000305176</ele>
        <time>2016-06-11T15:12:22.000Z</time>
      </trkpt>
      <trkpt lat="48.82644" lon="1.90442">
        <ele>129.80000305176</ele>
        <time>2016-06-11T15:12:29.000Z</time>
      </trkpt>
      <trkpt lat="48.82637" lon="1.90456">
        <ele>130</ele>
        <time>2016-06-11T15:12:36.000Z</time>
      </trkpt>
      <trkpt lat="48.82632" lon="1.9047">
        <ele>129.80000305176</ele>
        <time>2016-06-11T15:12:43.000Z</time>
      </trkpt>
      <trkpt lat="48.82627" lon="1.90483">
        <ele>129.80000305176</ele>
        <time>2016-06-11T15:12:49.000Z</time>
      </trkpt>
      <trkpt lat="48.82618" lon="1.90501">
        <ele>130</ele>
        <time>2016-06-11T15:12:56.000Z</time>
      </trkpt>
      <trkpt lat="48.82607" lon="1.90524">
        <ele>130</ele>
        <time>2016-06-11T15:13:04.000Z</time>
      </trkpt>
      <trkpt lat="48.82589" lon="1.90564">
        <ele>130.39999389648</ele>
        <time>2016-06-11T15:13:13.000Z</time>
      </trkpt>
      <trkpt lat="48.82574" lon="1.90598">
        <ele>131</ele>
        <time>2016-06-11T15:13:21.000Z</time>
      </trkpt>
      <trkpt lat="48.82567" lon="1.90614">
        <ele>131.19999694824</ele>
        <time>2016-06-11T15:13:27.000Z</time>
      </trkpt>
      <trkpt lat="48.82561" lon="1.90629">
        <ele>132</ele>
        <time>2016-06-11T15:13:34.000Z</time>
      </trkpt>
      <trkpt lat="48.82559" lon="1.90633">
        <ele>132.19999694824</ele>
        <time>2016-06-11T15:13:36.000Z</time>
      </trkpt>
      <trkpt lat="48.82556" lon="1.90639">
        <ele>132.60000610352</ele>
        <time>2016-06-11T15:13:39.000Z</time>
      </trkpt>
      <trkpt lat="48.82549" lon="1.90651">
        <ele>133.39999389648</ele>
        <time>2016-06-11T15:13:46.000Z</time>
      </trkpt>
      <trkpt lat="48.82536" lon="1.9067">
        <ele>134.80000305176</ele>
        <time>2016-06-11T15:13:55.000Z</time>
      </trkpt>
      <trkpt lat="48.82529" lon="1.90677">
        <ele>135.60000610352</ele>
        <time>2016-06-11T15:14:00.000Z</time>
      </trkpt>
      <trkpt lat="48.82515" lon="1.90692">
        <ele>137.19999694824</ele>
        <time>2016-06-11T15:14:07.000Z</time>
      </trkpt>
      <trkpt lat="48.82499" lon="1.90709">
        <ele>138.80000305176</ele>
        <time>2016-06-11T15:14:13.000Z</time>
      </trkpt>
      <trkpt lat="48.82488" lon="1.90724">
        <ele>139.60000610352</ele>
        <time>2016-06-11T15:14:20.000Z</time>
      </trkpt>
      <trkpt lat="48.82484" lon="1.90734">
        <ele>139.80000305176</ele>
        <time>2016-06-11T15:14:26.000Z</time>
      </trkpt>
      <trkpt lat="48.82484" lon="1.90736">
        <ele>139.80000305176</ele>
        <time>2016-06-11T15:14:27.000Z</time>
      </trkpt>
      <trkpt lat="48.82488" lon="1.90741">
        <ele>139.39999389648</ele>
        <time>2016-06-11T15:14:31.000Z</time>
      </trkpt>
      <trkpt lat="48.8249" lon="1.90743">
        <ele>139.19999694824</ele>
        <time>2016-06-11T15:14:32.000Z</time>
      </trkpt>
      <trkpt lat="48.82496" lon="1.90748">
        <ele>138.39999389648</ele>
        <time>2016-06-11T15:14:36.000Z</time>
      </trkpt>
      <trkpt lat="48.82498" lon="1.90749">
        <ele>138.19999694824</ele>
        <time>2016-06-11T15:14:37.000Z</time>
      </trkpt>
      <trkpt lat="48.82506" lon="1.90757">
        <ele>137.19999694824</ele>
        <time>2016-06-11T15:14:42.000Z</time>
      </trkpt>
      <trkpt lat="48.82516" lon="1.90766">
        <ele>135.80000305176</ele>
        <time>2016-06-11T15:14:49.000Z</time>
      </trkpt>
      <trkpt lat="48.82524" lon="1.90775">
        <ele>134.80000305176</ele>
        <time>2016-06-11T15:14:55.000Z</time>
      </trkpt>
      <trkpt lat="48.82536" lon="1.90788">
        <ele>133.39999389648</ele>
        <time>2016-06-11T15:15:04.000Z</time>
      </trkpt>
      <trkpt lat="48.82545" lon="1.90799">
        <ele>132.39999389648</ele>
        <time>2016-06-11T15:15:11.000Z</time>
      </trkpt>
      <trkpt lat="48.82556" lon="1.9081">
        <ele>131.19999694824</ele>
        <time>2016-06-11T15:15:19.000Z</time>
      </trkpt>
      <trkpt lat="48.82564" lon="1.90818">
        <ele>130.39999389648</ele>
        <time>2016-06-11T15:15:25.000Z</time>
      </trkpt>
      <trkpt lat="48.82576" lon="1.90829">
        <ele>129.39999389648</ele>
        <time>2016-06-11T15:15:34.000Z</time>
      </trkpt>
      <trkpt lat="48.82589" lon="1.90842">
        <ele>128.80000305176</ele>
        <time>2016-06-11T15:15:43.000Z</time>
      </trkpt>
      <trkpt lat="48.82598" lon="1.9085">
        <ele>128.39999389648</ele>
        <time>2016-06-11T15:15:49.000Z</time>
      </trkpt>
      <trkpt lat="48.82605" lon="1.90856">
        <ele>128</ele>
        <time>2016-06-11T15:15:54.000Z</time>
      </trkpt>
      <trkpt lat="48.82618" lon="1.90866">
        <ele>127.40000152588</ele>
        <time>2016-06-11T15:16:03.000Z</time>
      </trkpt>
      <trkpt lat="48.82628" lon="1.90872">
        <ele>126.80000305176</ele>
        <time>2016-06-11T15:16:10.000Z</time>
      </trkpt>
      <trkpt lat="48.82641" lon="1.9088">
        <ele>126.40000152588</ele>
        <time>2016-06-11T15:16:18.000Z</time>
      </trkpt>
      <trkpt lat="48.82653" lon="1.90888">
        <ele>125.80000305176</ele>
        <time>2016-06-11T15:16:26.000Z</time>
      </trkpt>
      <trkpt lat="48.82672" lon="1.90901">
        <ele>124.80000305176</ele>
        <time>2016-06-11T15:16:39.000Z</time>
      </trkpt>
      <trkpt lat="48.82692" lon="1.90914">
        <ele>124</ele>
        <time>2016-06-11T15:16:52.000Z</time>
      </trkpt>
      <trkpt lat="48.82701" lon="1.90919">
        <ele>123.80000305176</ele>
        <time>2016-06-11T15:16:58.000Z</time>
      </trkpt>
      <trkpt lat="48.82719" lon="1.90931">
        <ele>123.19999694824</ele>
        <time>2016-06-11T15:17:10.000Z</time>
      </trkpt>
      <trkpt lat="48.82731" lon="1.9094">
        <ele>123</ele>
        <time>2016-06-11T15:17:18.000Z</time>
      </trkpt>
      <trkpt lat="48.82743" lon="1.90948">
        <ele>122.59999847412</ele>
        <time>2016-06-11T15:17:25.000Z</time>
      </trkpt>
      <trkpt lat="48.82754" lon="1.90955">
        <ele>122.40000152588</ele>
        <time>2016-06-11T15:17:32.000Z</time>
      </trkpt>
      <trkpt lat="48.82769" lon="1.90965">
        <ele>122</ele>
        <time>2016-06-11T15:17:42.000Z</time>
      </trkpt>
      <trkpt lat="48.82781" lon="1.90972">
        <ele>121.59999847412</ele>
        <time>2016-06-11T15:17:50.000Z</time>
      </trkpt>
      <trkpt lat="48.82795" lon="1.90983">
        <ele>121.19999694824</ele>
        <time>2016-06-11T15:18:00.000Z</time>
      </trkpt>
      <trkpt lat="48.82808" lon="1.90992">
        <ele>120.80000305176</ele>
        <time>2016-06-11T15:18:09.000Z</time>
      </trkpt>
      <trkpt lat="48.82816" lon="1.90997">
        <ele>120.59999847412</ele>
        <time>2016-06-11T15:18:14.000Z</time>
      </trkpt>
      <trkpt lat="48.82823" lon="1.91002">
        <ele>120.40000152588</ele>
        <time>2016-06-11T15:18:19.000Z</time>
      </trkpt>
      <trkpt lat="48.82841" lon="1.91015">
        <ele>119.80000305176</ele>
        <time>2016-06-11T15:18:31.000Z</time>
      </trkpt>
      <trkpt lat="48.8285" lon="1.9102">
        <ele>119.59999847412</ele>
        <time>2016-06-11T15:18:37.000Z</time>
      </trkpt>
      <trkpt lat="48.82865" lon="1.91027">
        <ele>119.19999694824</ele>
        <time>2016-06-11T15:18:45.000Z</time>
      </trkpt>
      <trkpt lat="48.82874" lon="1.9103">
        <ele>118.80000305176</ele>
        <time>2016-06-11T15:18:51.000Z</time>
      </trkpt>
      <trkpt lat="48.82891" lon="1.91037">
        <ele>118.19999694824</ele>
        <time>2016-06-11T15:19:02.000Z</time>
      </trkpt>
      <trkpt lat="48.82903" lon="1.9104">
        <ele>117.80000305176</ele>
        <time>2016-06-11T15:19:09.000Z</time>
      </trkpt>
      <trkpt lat="48.82905" lon="1.91041">
        <ele>117.80000305176</ele>
        <time>2016-06-11T15:19:10.000Z</time>
      </trkpt>
      <trkpt lat="48.82909" lon="1.91044">
        <ele>117.80000305176</ele>
        <time>2016-06-11T15:19:13.000Z</time>
      </trkpt>
      <trkpt lat="48.82919" lon="1.91048">
        <ele>117.40000152588</ele>
        <time>2016-06-11T15:19:20.000Z</time>
      </trkpt>
      <trkpt lat="48.82928" lon="1.91053">
        <ele>117.19999694824</ele>
        <time>2016-06-11T15:19:26.000Z</time>
      </trkpt>
      <trkpt lat="48.82946" lon="1.91062">
        <ele>116.59999847412</ele>
        <time>2016-06-11T15:19:37.000Z</time>
      </trkpt>
      <trkpt lat="48.82962" lon="1.91073">
        <ele>116.19999694824</ele>
        <time>2016-06-11T15:19:48.000Z</time>
      </trkpt>
      <trkpt lat="48.82973" lon="1.91081">
        <ele>115.80000305176</ele>
        <time>2016-06-11T15:19:55.000Z</time>
      </trkpt>
      <trkpt lat="48.82991" lon="1.91093">
        <ele>115.40000152588</ele>
        <time>2016-06-11T15:20:06.000Z</time>
      </trkpt>
      <trkpt lat="48.83002" lon="1.91101">
        <ele>115</ele>
        <time>2016-06-11T15:20:12.000Z</time>
      </trkpt>
      <trkpt lat="48.83019" lon="1.91113">
        <ele>114.59999847412</ele>
        <time>2016-06-11T15:20:22.000Z</time>
      </trkpt>
      <trkpt lat="48.83029" lon="1.91121">
        <ele>114.19999694824</ele>
        <time>2016-06-11T15:20:29.000Z</time>
      </trkpt>
      <trkpt lat="48.83046" lon="1.91132">
        <ele>113.59999847412</ele>
        <time>2016-06-11T15:20:40.000Z</time>
      </trkpt>
      <trkpt lat="48.83059" lon="1.91141">
        <ele>113</ele>
        <time>2016-06-11T15:20:49.000Z</time>
      </trkpt>
      <trkpt lat="48.8306" lon="1.91143">
        <ele>113</ele>
        <time>2016-06-11T15:20:50.000Z</time>
      </trkpt>
      <trkpt lat="48.83063" lon="1.9115">
        <ele>113</ele>
        <time>2016-06-11T15:20:54.000Z</time>
      </trkpt>
      <trkpt lat="48.8307" lon="1.91158">
        <ele>112.59999847412</ele>
        <time>2016-06-11T15:20:59.000Z</time>
      </trkpt>
      <trkpt lat="48.83074" lon="1.9116">
        <ele>112.40000152588</ele>
        <time>2016-06-11T15:21:01.000Z</time>
      </trkpt>
      <trkpt lat="48.83087" lon="1.9117">
        <ele>111.80000305176</ele>
        <time>2016-06-11T15:21:09.000Z</time>
      </trkpt>
      <trkpt lat="48.83099" lon="1.9118">
        <ele>111</ele>
        <time>2016-06-11T15:21:17.000Z</time>
      </trkpt>
      <trkpt lat="48.83108" lon="1.91186">
        <ele>110.59999847412</ele>
        <time>2016-06-11T15:21:23.000Z</time>
      </trkpt>
      <trkpt lat="48.83111" lon="1.91189">
        <ele>110.59999847412</ele>
        <time>2016-06-11T15:21:25.000Z</time>
      </trkpt>
      <trkpt lat="48.83114" lon="1.91191">
        <ele>110.40000152588</ele>
        <time>2016-06-11T15:21:27.000Z</time>
      </trkpt>
      <trkpt lat="48.83119" lon="1.91194">
        <ele>110.40000152588</ele>
        <time>2016-06-11T15:21:30.000Z</time>
      </trkpt>
      <trkpt lat="48.83131" lon="1.91202">
        <ele>110.19999694824</ele>
        <time>2016-06-11T15:21:38.000Z</time>
      </trkpt>
      <trkpt lat="48.83141" lon="1.91209">
        <ele>110</ele>
        <time>2016-06-11T15:21:44.000Z</time>
      </trkpt>
      <trkpt lat="48.83154" lon="1.91217">
        <ele>109.80000305176</ele>
        <time>2016-06-11T15:21:50.000Z</time>
      </trkpt>
      <trkpt lat="48.83161" lon="1.9122">
        <ele>109.59999847412</ele>
        <time>2016-06-11T15:21:55.000Z</time>
      </trkpt>
      <trkpt lat="48.8317" lon="1.91223">
        <ele>109.40000152588</ele>
        <time>2016-06-11T15:22:01.000Z</time>
      </trkpt>
      <trkpt lat="48.83183" lon="1.91227">
        <ele>109</ele>
        <time>2016-06-11T15:22:08.000Z</time>
      </trkpt>
      <trkpt lat="48.83187" lon="1.91229">
        <ele>109</ele>
        <time>2016-06-11T15:22:11.000Z</time>
      </trkpt>
      <trkpt lat="48.83191" lon="1.9123">
        <ele>108.80000305176</ele>
        <time>2016-06-11T15:22:13.000Z</time>
      </trkpt>
      <trkpt lat="48.83203" lon="1.91236">
        <ele>108.19999694824</ele>
        <time>2016-06-11T15:22:21.000Z</time>
      </trkpt>
      <trkpt lat="48.83206" lon="1.91237">
        <ele>108.19999694824</ele>
        <time>2016-06-11T15:22:23.000Z</time>
      </trkpt>
      <trkpt lat="48.83211" lon="1.9124">
        <ele>108</ele>
        <time>2016-06-11T15:22:26.000Z</time>
      </trkpt>
      <trkpt lat="48.83214" lon="1.91241">
        <ele>107.80000305176</ele>
        <time>2016-06-11T15:22:28.000Z</time>
      </trkpt>
      <trkpt lat="48.83221" lon="1.91245">
        <ele>107.59999847412</ele>
        <time>2016-06-11T15:22:33.000Z</time>
      </trkpt>
      <trkpt lat="48.83231" lon="1.91251">
        <ele>107</ele>
        <time>2016-06-11T15:22:40.000Z</time>
      </trkpt>
      <trkpt lat="48.83233" lon="1.91252">
        <ele>107</ele>
        <time>2016-06-11T15:22:41.000Z</time>
      </trkpt>
      <trkpt lat="48.83244" lon="1.9126">
        <ele>106.59999847412</ele>
        <time>2016-06-11T15:22:49.000Z</time>
      </trkpt>
      <trkpt lat="48.83253" lon="1.91266">
        <ele>106.19999694824</ele>
        <time>2016-06-11T15:22:55.000Z</time>
      </trkpt>
      <trkpt lat="48.83257" lon="1.91268">
        <ele>106</ele>
        <time>2016-06-11T15:22:58.000Z</time>
      </trkpt>
      <trkpt lat="48.83262" lon="1.91271">
        <ele>105.80000305176</ele>
        <time>2016-06-11T15:23:01.000Z</time>
      </trkpt>
      <trkpt lat="48.83269" lon="1.91276">
        <ele>105.59999847412</ele>
        <time>2016-06-11T15:23:06.000Z</time>
      </trkpt>
      <trkpt lat="48.83272" lon="1.91277">
        <ele>105.40000152588</ele>
        <time>2016-06-11T15:23:08.000Z</time>
      </trkpt>
      <trkpt lat="48.83276" lon="1.91279">
        <ele>105.19999694824</ele>
        <time>2016-06-11T15:23:11.000Z</time>
      </trkpt>
      <trkpt lat="48.83288" lon="1.91286">
        <ele>104.80000305176</ele>
        <time>2016-06-11T15:23:19.000Z</time>
      </trkpt>
      <trkpt lat="48.83298" lon="1.91293">
        <ele>104.40000152588</ele>
        <time>2016-06-11T15:23:26.000Z</time>
      </trkpt>
      <trkpt lat="48.833" lon="1.91294">
        <ele>104.40000152588</ele>
        <time>2016-06-11T15:23:27.000Z</time>
      </trkpt>
      <trkpt lat="48.83304" lon="1.91297">
        <ele>104.19999694824</ele>
        <time>2016-06-11T15:23:30.000Z</time>
      </trkpt>
      <trkpt lat="48.83307" lon="1.91298">
        <ele>104</ele>
        <time>2016-06-11T15:23:32.000Z</time>
      </trkpt>
      <trkpt lat="48.8332" lon="1.91307">
        <ele>103.59999847412</ele>
        <time>2016-06-11T15:23:41.000Z</time>
      </trkpt>
      <trkpt lat="48.83332" lon="1.91314">
        <ele>103</ele>
        <time>2016-06-11T15:23:50.000Z</time>
      </trkpt>
      <trkpt lat="48.8334" lon="1.91318">
        <ele>102.59999847412</ele>
        <time>2016-06-11T15:23:55.000Z</time>
      </trkpt>
      <trkpt lat="48.83353" lon="1.91325">
        <ele>102.19999694824</ele>
        <time>2016-06-11T15:24:02.000Z</time>
      </trkpt>
      <trkpt lat="48.83371" lon="1.91335">
        <ele>101.19999694824</ele>
        <time>2016-06-11T15:24:09.000Z</time>
      </trkpt>
      <trkpt lat="48.83381" lon="1.91342">
        <ele>100.40000152588</ele>
        <time>2016-06-11T15:24:15.000Z</time>
      </trkpt>
      <trkpt lat="48.83394" lon="1.91351">
        <ele>99.599998474121</ele>
        <time>2016-06-11T15:24:22.000Z</time>
      </trkpt>
      <trkpt lat="48.83414" lon="1.91363">
        <ele>98.599998474121</ele>
        <time>2016-06-11T15:24:31.000Z</time>
      </trkpt>
      <trkpt lat="48.83424" lon="1.9137">
        <ele>98</ele>
        <time>2016-06-11T15:24:38.000Z</time>
      </trkpt>
      <trkpt lat="48.83431" lon="1.91378">
        <ele>97.400001525879</ele>
        <time>2016-06-11T15:24:44.000Z</time>
      </trkpt>
      <trkpt lat="48.83436" lon="1.91382">
        <ele>97.199996948242</ele>
        <time>2016-06-11T15:24:48.000Z</time>
      </trkpt>
      <trkpt lat="48.83444" lon="1.91389">
        <ele>96.800003051758</ele>
        <time>2016-06-11T15:24:55.000Z</time>
      </trkpt>
      <trkpt lat="48.83453" lon="1.91397">
        <ele>96.400001525879</ele>
        <time>2016-06-11T15:25:01.000Z</time>
      </trkpt>
      <trkpt lat="48.83456" lon="1.91408">
        <ele>96.199996948242</ele>
        <time>2016-06-11T15:25:06.000Z</time>
      </trkpt>
      <trkpt lat="48.83457" lon="1.91422">
        <ele>95.400001525879</ele>
        <time>2016-06-11T15:25:13.000Z</time>
      </trkpt>
      <trkpt lat="48.83458" lon="1.91434">
        <ele>95</ele>
        <time>2016-06-11T15:25:18.000Z</time>
      </trkpt>
      <trkpt lat="48.83457" lon="1.91447">
        <ele>95</ele>
        <time>2016-06-11T15:25:22.000Z</time>
      </trkpt>
      <trkpt lat="48.83457" lon="1.91454">
        <ele>95</ele>
        <time>2016-06-11T15:25:24.000Z</time>
      </trkpt>
      <trkpt lat="48.83455" lon="1.91474">
        <ele>94.800003051758</ele>
        <time>2016-06-11T15:25:30.000Z</time>
      </trkpt>
      <trkpt lat="48.83457" lon="1.91488">
        <ele>94.599998474121</ele>
        <time>2016-06-11T15:25:35.000Z</time>
      </trkpt>
      <trkpt lat="48.83463" lon="1.91503">
        <ele>93.599998474121</ele>
        <time>2016-06-11T15:25:42.000Z</time>
      </trkpt>
      <trkpt lat="48.83475" lon="1.9151">
        <ele>92.599998474121</ele>
        <time>2016-06-11T15:25:49.000Z</time>
      </trkpt>
      <trkpt lat="48.8348" lon="1.91512">
        <ele>92</ele>
        <time>2016-06-11T15:25:53.000Z</time>
      </trkpt>
      <trkpt lat="48.83484" lon="1.9151">
        <ele>91.800003051758</ele>
        <time>2016-06-11T15:25:55.000Z</time>
      </trkpt>
      <trkpt lat="48.83488" lon="1.915">
        <ele>91.599998474121</ele>
        <time>2016-06-11T15:26:00.000Z</time>
      </trkpt>
      <trkpt lat="48.8349" lon="1.91493">
        <ele>91.599998474121</ele>
        <time>2016-06-11T15:26:04.000Z</time>
      </trkpt>
      <trkpt lat="48.83491" lon="1.91491">
        <ele>91.599998474121</ele>
        <time>2016-06-11T15:26:05.000Z</time>
      </trkpt>
      <trkpt lat="48.83494" lon="1.91482">
        <ele>91.400001525879</ele>
        <time>2016-06-11T15:26:10.000Z</time>
      </trkpt>
      <trkpt lat="48.83498" lon="1.91473">
        <ele>91.199996948242</ele>
        <time>2016-06-11T15:26:15.000Z</time>
      </trkpt>
      <trkpt lat="48.835" lon="1.9147">
        <ele>91</ele>
        <time>2016-06-11T15:26:17.000Z</time>
      </trkpt>
      <trkpt lat="48.83504" lon="1.91459">
        <ele>91.400001525879</ele>
        <time>2016-06-11T15:26:22.000Z</time>
      </trkpt>
      <trkpt lat="48.83508" lon="1.91451">
        <ele>91.599998474121</ele>
        <time>2016-06-11T15:26:26.000Z</time>
      </trkpt>
      <trkpt lat="48.8351" lon="1.9145">
        <ele>91.599998474121</ele>
        <time>2016-06-11T15:26:27.000Z</time>
      </trkpt>
      <trkpt lat="48.83519" lon="1.91448">
        <ele>91.199996948242</ele>
        <time>2016-06-11T15:26:33.000Z</time>
      </trkpt>
      <trkpt lat="48.8353" lon="1.91451">
        <ele>90.400001525879</ele>
        <time>2016-06-11T15:26:40.000Z</time>
      </trkpt>
      <trkpt lat="48.8354" lon="1.91454">
        <ele>89.800003051758</ele>
        <time>2016-06-11T15:26:46.000Z</time>
      </trkpt>
      <trkpt lat="48.83547" lon="1.91452">
        <ele>89.599998474121</ele>
        <time>2016-06-11T15:26:51.000Z</time>
      </trkpt>
      <trkpt lat="48.8356" lon="1.91459">
        <ele>88.800003051758</ele>
        <time>2016-06-11T15:26:58.000Z</time>
      </trkpt>
      <trkpt lat="48.83572" lon="1.91464">
        <ele>87.800003051758</ele>
        <time>2016-06-11T15:27:03.000Z</time>
      </trkpt>
      <trkpt lat="48.8359" lon="1.9147">
        <ele>86.599998474121</ele>
        <time>2016-06-11T15:27:11.000Z</time>
      </trkpt>
      <trkpt lat="48.83605" lon="1.91478">
        <ele>85.599998474121</ele>
        <time>2016-06-11T15:27:19.000Z</time>
      </trkpt>
      <trkpt lat="48.83618" lon="1.91488">
        <ele>84.400001525879</ele>
        <time>2016-06-11T15:27:27.000Z</time>
      </trkpt>
      <trkpt lat="48.8363" lon="1.91502">
        <ele>83.800003051758</ele>
        <time>2016-06-11T15:27:33.000Z</time>
      </trkpt>
      <trkpt lat="48.8365" lon="1.91519">
        <ele>82.800003051758</ele>
        <time>2016-06-11T15:27:41.000Z</time>
      </trkpt>
      <trkpt lat="48.83663" lon="1.91519">
        <ele>82.199996948242</ele>
        <time>2016-06-11T15:27:46.000Z</time>
      </trkpt>
      <trkpt lat="48.83666" lon="1.91506">
        <ele>82</ele>
        <time>2016-06-11T15:27:50.000Z</time>
      </trkpt>
      <trkpt lat="48.83667" lon="1.91486">
        <ele>82.199996948242</ele>
        <time>2016-06-11T15:27:55.000Z</time>
      </trkpt>
      <trkpt lat="48.83665" lon="1.9147">
        <ele>83</ele>
        <time>2016-06-11T15:27:58.000Z</time>
      </trkpt>
      <trkpt lat="48.83663" lon="1.91449">
        <ele>83.599998474121</ele>
        <time>2016-06-11T15:28:02.000Z</time>
      </trkpt>
      <trkpt lat="48.83655" lon="1.91403">
        <ele>84.199996948242</ele>
        <time>2016-06-11T15:28:10.000Z</time>
      </trkpt>
      <trkpt lat="48.83646" lon="1.91372">
        <ele>85.199996948242</ele>
        <time>2016-06-11T15:28:16.000Z</time>
      </trkpt>
      <trkpt lat="48.83642" lon="1.91352">
        <ele>85.800003051758</ele>
        <time>2016-06-11T15:28:20.000Z</time>
      </trkpt>
      <trkpt lat="48.83636" lon="1.91316">
        <ele>86.599998474121</ele>
        <time>2016-06-11T15:28:26.000Z</time>
      </trkpt>
      <trkpt lat="48.83631" lon="1.91292">
        <ele>86.800003051758</ele>
        <time>2016-06-11T15:28:31.000Z</time>
      </trkpt>
      <trkpt lat="48.83631" lon="1.91277">
        <ele>86.599998474121</ele>
        <time>2016-06-11T15:28:37.000Z</time>
      </trkpt>
      <trkpt lat="48.8363" lon="1.91274">
        <ele>86.599998474121</ele>
        <time>2016-06-11T15:28:38.000Z</time>
      </trkpt>
      <trkpt lat="48.83628" lon="1.91264">
        <ele>86.599998474121</ele>
        <time>2016-06-11T15:28:42.000Z</time>
      </trkpt>
      <trkpt lat="48.83627" lon="1.9125">
        <ele>86.599998474121</ele>
        <time>2016-06-11T15:28:46.000Z</time>
      </trkpt>
      <trkpt lat="48.83627" lon="1.91247">
        <ele>86.599998474121</ele>
        <time>2016-06-11T15:28:47.000Z</time>
      </trkpt>
      <trkpt lat="48.83626" lon="1.91232">
        <ele>86.199996948242</ele>
        <time>2016-06-11T15:28:53.000Z</time>
      </trkpt>
      <trkpt lat="48.83625" lon="1.91213">
        <ele>85.199996948242</ele>
        <time>2016-06-11T15:28:59.000Z</time>
      </trkpt>
      <trkpt lat="48.83626" lon="1.9119">
        <ele>84.199996948242</ele>
        <time>2016-06-11T15:29:06.000Z</time>
      </trkpt>
      <trkpt lat="48.83628" lon="1.91176">
        <ele>83.400001525879</ele>
        <time>2016-06-11T15:29:12.000Z</time>
      </trkpt>
      <trkpt lat="48.8363" lon="1.91158">
        <ele>82.599998474121</ele>
        <time>2016-06-11T15:29:20.000Z</time>
      </trkpt>
      <trkpt lat="48.83632" lon="1.91132">
        <ele>83</ele>
        <time>2016-06-11T15:29:31.000Z</time>
      </trkpt>
      <trkpt lat="48.83635" lon="1.91112">
        <ele>83.400001525879</ele>
        <time>2016-06-11T15:29:40.000Z</time>
      </trkpt>
      <trkpt lat="48.83637" lon="1.91098">
        <ele>83.199996948242</ele>
        <time>2016-06-11T15:29:46.000Z</time>
      </trkpt>
      <trkpt lat="48.83641" lon="1.91082">
        <ele>82.800003051758</ele>
        <time>2016-06-11T15:29:54.000Z</time>
      </trkpt>
      <trkpt lat="48.83644" lon="1.91059">
        <ele>82.599998474121</ele>
        <time>2016-06-11T15:30:04.000Z</time>
      </trkpt>
      <trkpt lat="48.83646" lon="1.91038">
        <ele>83</ele>
        <time>2016-06-11T15:30:13.000Z</time>
      </trkpt>
      <trkpt lat="48.83649" lon="1.91012">
        <ele>83.599998474121</ele>
        <time>2016-06-11T15:30:24.000Z</time>
      </trkpt>
      <trkpt lat="48.8365" lon="1.90989">
        <ele>84.199996948242</ele>
        <time>2016-06-11T15:30:34.000Z</time>
      </trkpt>
      <trkpt lat="48.83651" lon="1.90972">
        <ele>84.599998474121</ele>
        <time>2016-06-11T15:30:42.000Z</time>
      </trkpt>
      <trkpt lat="48.83653" lon="1.90951">
        <ele>85</ele>
        <time>2016-06-11T15:30:51.000Z</time>
      </trkpt>
      <trkpt lat="48.83653" lon="1.90929">
        <ele>85.800003051758</ele>
        <time>2016-06-11T15:31:01.000Z</time>
      </trkpt>
      <trkpt lat="48.83651" lon="1.90915">
        <ele>86.400001525879</ele>
        <time>2016-06-11T15:31:07.000Z</time>
      </trkpt>
      <trkpt lat="48.83648" lon="1.90893">
        <ele>87</ele>
        <time>2016-06-11T15:31:16.000Z</time>
      </trkpt>
      <trkpt lat="48.83649" lon="1.90873">
        <ele>86.800003051758</ele>
        <time>2016-06-11T15:31:24.000Z</time>
      </trkpt>
      <trkpt lat="48.83652" lon="1.90856">
        <ele>86.599998474121</ele>
        <time>2016-06-11T15:31:31.000Z</time>
      </trkpt>
      <trkpt lat="48.83656" lon="1.9084">
        <ele>86.400001525879</ele>
        <time>2016-06-11T15:31:38.000Z</time>
      </trkpt>
      <trkpt lat="48.83663" lon="1.90817">
        <ele>85.800003051758</ele>
        <time>2016-06-11T15:31:47.000Z</time>
      </trkpt>
      <trkpt lat="48.83669" lon="1.90802">
        <ele>85.199996948242</ele>
        <time>2016-06-11T15:31:53.000Z</time>
      </trkpt>
      <trkpt lat="48.83673" lon="1.90789">
        <ele>84.800003051758</ele>
        <time>2016-06-11T15:31:59.000Z</time>
      </trkpt>
      <trkpt lat="48.83678" lon="1.90771">
        <ele>84.199996948242</ele>
        <time>2016-06-11T15:32:05.000Z</time>
      </trkpt>
      <trkpt lat="48.83687" lon="1.90745">
        <ele>83.199996948242</ele>
        <time>2016-06-11T15:32:10.000Z</time>
      </trkpt>
      <trkpt lat="48.83699" lon="1.90715">
        <ele>82.800003051758</ele>
        <time>2016-06-11T15:32:15.000Z</time>
      </trkpt>
      <trkpt lat="48.83702" lon="1.90704">
        <ele>82.599998474121</ele>
        <time>2016-06-11T15:32:17.000Z</time>
      </trkpt>
      <trkpt lat="48.83708" lon="1.90687">
        <ele>82.599998474121</ele>
        <time>2016-06-11T15:32:20.000Z</time>
      </trkpt>
      <trkpt lat="48.83712" lon="1.90672">
        <ele>82.400001525879</ele>
        <time>2016-06-11T15:32:24.000Z</time>
      </trkpt>
      <trkpt lat="48.83713" lon="1.90665">
        <ele>82.199996948242</ele>
        <time>2016-06-11T15:32:27.000Z</time>
      </trkpt>
      <trkpt lat="48.83714" lon="1.90659">
        <ele>82.199996948242</ele>
        <time>2016-06-11T15:32:29.000Z</time>
      </trkpt>
      <trkpt lat="48.83716" lon="1.90648">
        <ele>82.199996948242</ele>
        <time>2016-06-11T15:32:34.000Z</time>
      </trkpt>
      <trkpt lat="48.83716" lon="1.90645">
        <ele>82.199996948242</ele>
        <time>2016-06-11T15:32:35.000Z</time>
      </trkpt>
      <trkpt lat="48.83717" lon="1.90633">
        <ele>82.199996948242</ele>
        <time>2016-06-11T15:32:40.000Z</time>
      </trkpt>
      <trkpt lat="48.83718" lon="1.90626">
        <ele>82.400001525879</ele>
        <time>2016-06-11T15:32:43.000Z</time>
      </trkpt>
      <trkpt lat="48.83718" lon="1.90624">
        <ele>82.400001525879</ele>
        <time>2016-06-11T15:32:44.000Z</time>
      </trkpt>
      <trkpt lat="48.83721" lon="1.90608">
        <ele>82.199996948242</ele>
        <time>2016-06-11T15:32:51.000Z</time>
      </trkpt>
      <trkpt lat="48.83723" lon="1.90597">
        <ele>82.400001525879</ele>
        <time>2016-06-11T15:32:56.000Z</time>
      </trkpt>
      <trkpt lat="48.83728" lon="1.90592">
        <ele>82.199996948242</ele>
        <time>2016-06-11T15:32:58.000Z</time>
      </trkpt>
      <trkpt lat="48.83732" lon="1.90582">
        <ele>82.199996948242</ele>
        <time>2016-06-11T15:33:02.000Z</time>
      </trkpt>
      <trkpt lat="48.83738" lon="1.90578">
        <ele>82</ele>
        <time>2016-06-11T15:33:08.000Z</time>
      </trkpt>
      <trkpt lat="48.83738" lon="1.90578">
        <ele>82</ele>
        <time>2016-06-11T15:33:09.000Z</time>
      </trkpt>
      <trkpt lat="48.83744" lon="1.9057">
        <ele>81.800003051758</ele>
        <time>2016-06-11T15:33:28.000Z</time>
      </trkpt>
      <trkpt lat="48.83746" lon="1.90575">
        <ele>81.599998474121</ele>
        <time>2016-06-11T15:33:30.000Z</time>
      </trkpt>
      <trkpt lat="48.83748" lon="1.9058">
        <ele>81.199996948242</ele>
        <time>2016-06-11T15:33:33.000Z</time>
      </trkpt>
      <trkpt lat="48.83751" lon="1.90587">
        <ele>81</ele>
        <time>2016-06-11T15:33:36.000Z</time>
      </trkpt>
      <trkpt lat="48.83757" lon="1.90603">
        <ele>80.199996948242</ele>
        <time>2016-06-11T15:33:43.000Z</time>
      </trkpt>
      <trkpt lat="48.83762" lon="1.90617">
        <ele>79.599998474121</ele>
        <time>2016-06-11T15:33:49.000Z</time>
      </trkpt>
      <trkpt lat="48.83762" lon="1.9062">
        <ele>79.599998474121</ele>
        <time>2016-06-11T15:33:50.000Z</time>
      </trkpt>
      <trkpt lat="48.83764" lon="1.90625">
        <ele>79.199996948242</ele>
        <time>2016-06-11T15:33:53.000Z</time>
      </trkpt>
      <trkpt lat="48.83771" lon="1.9064">
        <ele>78.400001525879</ele>
        <time>2016-06-11T15:33:59.000Z</time>
      </trkpt>
      <trkpt lat="48.83779" lon="1.90654">
        <ele>78</ele>
        <time>2016-06-11T15:34:05.000Z</time>
      </trkpt>
      <trkpt lat="48.83786" lon="1.90667">
        <ele>78</ele>
        <time>2016-06-11T15:34:11.000Z</time>
      </trkpt>
      <trkpt lat="48.83795" lon="1.90684">
        <ele>78.199996948242</ele>
        <time>2016-06-11T15:34:18.000Z</time>
      </trkpt>
      <trkpt lat="48.83799" lon="1.90694">
        <ele>78.400001525879</ele>
        <time>2016-06-11T15:34:23.000Z</time>
      </trkpt>
      <trkpt lat="48.83802" lon="1.907">
        <ele>78.400001525879</ele>
        <time>2016-06-11T15:34:27.000Z</time>
      </trkpt>
      <trkpt lat="48.83803" lon="1.90701">
        <ele>78.400001525879</ele>
        <time>2016-06-11T15:34:28.000Z</time>
      </trkpt>
      <trkpt lat="48.8381" lon="1.90715">
        <ele>78.400001525879</ele>
        <time>2016-06-11T15:34:35.000Z</time>
      </trkpt>
      <trkpt lat="48.83821" lon="1.90733">
        <ele>78.599998474121</ele>
        <time>2016-06-11T15:34:44.000Z</time>
      </trkpt>
      <trkpt lat="48.83829" lon="1.90746">
        <ele>78.800003051758</ele>
        <time>2016-06-11T15:34:51.000Z</time>
      </trkpt>
      <trkpt lat="48.83835" lon="1.90756">
        <ele>79</ele>
        <time>2016-06-11T15:34:57.000Z</time>
      </trkpt>
      <trkpt lat="48.83842" lon="1.90772">
        <ele>79.199996948242</ele>
        <time>2016-06-11T15:35:05.000Z</time>
      </trkpt>
      <trkpt lat="48.83848" lon="1.90783">
        <ele>79.400001525879</ele>
        <time>2016-06-11T15:35:11.000Z</time>
      </trkpt>
      <trkpt lat="48.83856" lon="1.90806">
        <ele>79.800003051758</ele>
        <time>2016-06-11T15:35:19.000Z</time>
      </trkpt>
      <trkpt lat="48.83865" lon="1.90832">
        <ele>81.599998474121</ele>
        <time>2016-06-11T15:35:28.000Z</time>
      </trkpt>
      <trkpt lat="48.83872" lon="1.90855">
        <ele>83</ele>
        <time>2016-06-11T15:35:36.000Z</time>
      </trkpt>
      <trkpt lat="48.83882" lon="1.90879">
        <ele>84.599998474121</ele>
        <time>2016-06-11T15:35:45.000Z</time>
      </trkpt>
      <trkpt lat="48.83888" lon="1.90899">
        <ele>85.800003051758</ele>
        <time>2016-06-11T15:35:53.000Z</time>
      </trkpt>
      <trkpt lat="48.83894" lon="1.90923">
        <ele>86.800003051758</ele>
        <time>2016-06-11T15:36:01.000Z</time>
      </trkpt>
      <trkpt lat="48.839" lon="1.90936">
        <ele>87.599998474121</ele>
        <time>2016-06-11T15:36:07.000Z</time>
      </trkpt>
      <trkpt lat="48.83908" lon="1.90957">
        <ele>88.800003051758</ele>
        <time>2016-06-11T15:36:13.000Z</time>
      </trkpt>
      <trkpt lat="48.83915" lon="1.90975">
        <ele>89.599998474121</ele>
        <time>2016-06-11T15:36:19.000Z</time>
      </trkpt>
      <trkpt lat="48.83919" lon="1.9099">
        <ele>90.199996948242</ele>
        <time>2016-06-11T15:36:25.000Z</time>
      </trkpt>
      <trkpt lat="48.83922" lon="1.91007">
        <ele>91.199996948242</ele>
        <time>2016-06-11T15:36:32.000Z</time>
      </trkpt>
      <trkpt lat="48.83923" lon="1.91021">
        <ele>91.800003051758</ele>
        <time>2016-06-11T15:36:38.000Z</time>
      </trkpt>
      <trkpt lat="48.83924" lon="1.91041">
        <ele>92.199996948242</ele>
        <time>2016-06-11T15:36:46.000Z</time>
      </trkpt>
      <trkpt lat="48.83922" lon="1.91063">
        <ele>92.199996948242</ele>
        <time>2016-06-11T15:36:53.000Z</time>
      </trkpt>
      <trkpt lat="48.83917" lon="1.91084">
        <ele>92.400001525879</ele>
        <time>2016-06-11T15:37:00.000Z</time>
      </trkpt>
      <trkpt lat="48.83912" lon="1.91101">
        <ele>93.199996948242</ele>
        <time>2016-06-11T15:37:06.000Z</time>
      </trkpt>
      <trkpt lat="48.83911" lon="1.91104">
        <ele>93.199996948242</ele>
        <time>2016-06-11T15:37:07.000Z</time>
      </trkpt>
      <trkpt lat="48.83903" lon="1.91128">
        <ele>94.199996948242</ele>
        <time>2016-06-11T15:37:15.000Z</time>
      </trkpt>
      <trkpt lat="48.83896" lon="1.91149">
        <ele>95.599998474121</ele>
        <time>2016-06-11T15:37:22.000Z</time>
      </trkpt>
      <trkpt lat="48.83888" lon="1.91172">
        <ele>95.400001525879</ele>
        <time>2016-06-11T15:37:31.000Z</time>
      </trkpt>
      <trkpt lat="48.83884" lon="1.9119">
        <ele>95.199996948242</ele>
        <time>2016-06-11T15:37:38.000Z</time>
      </trkpt>
      <trkpt lat="48.83881" lon="1.91211">
        <ele>97</ele>
        <time>2016-06-11T15:37:45.000Z</time>
      </trkpt>
      <trkpt lat="48.83882" lon="1.91234">
        <ele>99.199996948242</ele>
        <time>2016-06-11T15:37:52.000Z</time>
      </trkpt>
      <trkpt lat="48.83885" lon="1.91255">
        <ele>99</ele>
        <time>2016-06-11T15:37:59.000Z</time>
      </trkpt>
      <trkpt lat="48.83894" lon="1.91275">
        <ele>98.599998474121</ele>
        <time>2016-06-11T15:38:09.000Z</time>
      </trkpt>
      <trkpt lat="48.839" lon="1.91285">
        <ele>98.599998474121</ele>
        <time>2016-06-11T15:38:15.000Z</time>
      </trkpt>
      <trkpt lat="48.83901" lon="1.91289">
        <ele>98.599998474121</ele>
        <time>2016-06-11T15:38:17.000Z</time>
      </trkpt>
      <trkpt lat="48.83904" lon="1.91294">
        <ele>98.599998474121</ele>
        <time>2016-06-11T15:38:20.000Z</time>
      </trkpt>
      <trkpt lat="48.83908" lon="1.91298">
        <ele>98.800003051758</ele>
        <time>2016-06-11T15:38:23.000Z</time>
      </trkpt>
      <trkpt lat="48.83921" lon="1.91309">
        <ele>99.199996948242</ele>
        <time>2016-06-11T15:38:32.000Z</time>
      </trkpt>
      <trkpt lat="48.83931" lon="1.91318">
        <ele>99.599998474121</ele>
        <time>2016-06-11T15:38:37.000Z</time>
      </trkpt>
      <trkpt lat="48.83942" lon="1.91325">
        <ele>100.19999694824</ele>
        <time>2016-06-11T15:38:44.000Z</time>
      </trkpt>
      <trkpt lat="48.83955" lon="1.91334">
        <ele>101.19999694824</ele>
        <time>2016-06-11T15:38:53.000Z</time>
      </trkpt>
      <trkpt lat="48.83971" lon="1.91344">
        <ele>102.40000152588</ele>
        <time>2016-06-11T15:39:03.000Z</time>
      </trkpt>
      <trkpt lat="48.8398" lon="1.9135">
        <ele>103</ele>
        <time>2016-06-11T15:39:10.000Z</time>
      </trkpt>
      <trkpt lat="48.8399" lon="1.91356">
        <ele>103.80000305176</ele>
        <time>2016-06-11T15:39:16.000Z</time>
      </trkpt>
      <trkpt lat="48.84002" lon="1.91363">
        <ele>104.59999847412</ele>
        <time>2016-06-11T15:39:23.000Z</time>
      </trkpt>
      <trkpt lat="48.84015" lon="1.91372">
        <ele>105.59999847412</ele>
        <time>2016-06-11T15:39:32.000Z</time>
      </trkpt>
      <trkpt lat="48.84026" lon="1.91379">
        <ele>106.19999694824</ele>
        <time>2016-06-11T15:39:40.000Z</time>
      </trkpt>
      <trkpt lat="48.84035" lon="1.91386">
        <ele>106.59999847412</ele>
        <time>2016-06-11T15:39:45.000Z</time>
      </trkpt>
      <trkpt lat="48.84045" lon="1.91393">
        <ele>106.80000305176</ele>
        <time>2016-06-11T15:39:51.000Z</time>
      </trkpt>
      <trkpt lat="48.84057" lon="1.91402">
        <ele>107.19999694824</ele>
        <time>2016-06-11T15:39:58.000Z</time>
      </trkpt>
      <trkpt lat="48.84066" lon="1.91409">
        <ele>107.59999847412</ele>
        <time>2016-06-11T15:40:04.000Z</time>
      </trkpt>
      <trkpt lat="48.84078" lon="1.91418">
        <ele>108.19999694824</ele>
        <time>2016-06-11T15:40:12.000Z</time>
      </trkpt>
      <trkpt lat="48.84087" lon="1.91424">
        <ele>108.59999847412</ele>
        <time>2016-06-11T15:40:17.000Z</time>
      </trkpt>
      <trkpt lat="48.84099" lon="1.91432">
        <ele>109.40000152588</ele>
        <time>2016-06-11T15:40:25.000Z</time>
      </trkpt>
      <trkpt lat="48.84112" lon="1.9144">
        <ele>109.80000305176</ele>
        <time>2016-06-11T15:40:32.000Z</time>
      </trkpt>
      <trkpt lat="48.84121" lon="1.91446">
        <ele>110</ele>
        <time>2016-06-11T15:40:38.000Z</time>
      </trkpt>
      <trkpt lat="48.84134" lon="1.91455">
        <ele>110.40000152588</ele>
        <time>2016-06-11T15:40:46.000Z</time>
      </trkpt>
      <trkpt lat="48.84142" lon="1.91459">
        <ele>110.59999847412</ele>
        <time>2016-06-11T15:40:51.000Z</time>
      </trkpt>
      <trkpt lat="48.84161" lon="1.91477">
        <ele>111.19999694824</ele>
        <time>2016-06-11T15:41:04.000Z</time>
      </trkpt>
      <trkpt lat="48.84169" lon="1.91486">
        <ele>111.40000152588</ele>
        <time>2016-06-11T15:41:10.000Z</time>
      </trkpt>
      <trkpt lat="48.84177" lon="1.91496">
        <ele>111.40000152588</ele>
        <time>2016-06-11T15:41:16.000Z</time>
      </trkpt>
      <trkpt lat="48.84187" lon="1.91513">
        <ele>111.40000152588</ele>
        <time>2016-06-11T15:41:25.000Z</time>
      </trkpt>
      <trkpt lat="48.84196" lon="1.91528">
        <ele>111.19999694824</ele>
        <time>2016-06-11T15:41:33.000Z</time>
      </trkpt>
      <trkpt lat="48.842" lon="1.9154">
        <ele>111</ele>
        <time>2016-06-11T15:41:38.000Z</time>
      </trkpt>
      <trkpt lat="48.84204" lon="1.91553">
        <ele>110.59999847412</ele>
        <time>2016-06-11T15:41:44.000Z</time>
      </trkpt>
      <trkpt lat="48.84209" lon="1.91573">
        <ele>110.19999694824</ele>
        <time>2016-06-11T15:41:52.000Z</time>
      </trkpt>
      <trkpt lat="48.84216" lon="1.916">
        <ele>110</ele>
        <time>2016-06-11T15:42:03.000Z</time>
      </trkpt>
      <trkpt lat="48.8422" lon="1.91615">
        <ele>110</ele>
        <time>2016-06-11T15:42:09.000Z</time>
      </trkpt>
      <trkpt lat="48.84225" lon="1.91636">
        <ele>110</ele>
        <time>2016-06-11T15:42:17.000Z</time>
      </trkpt>
      <trkpt lat="48.8423" lon="1.91656">
        <ele>110</ele>
        <time>2016-06-11T15:42:24.000Z</time>
      </trkpt>
      <trkpt lat="48.84235" lon="1.9167">
        <ele>110.19999694824</ele>
        <time>2016-06-11T15:42:30.000Z</time>
      </trkpt>
      <trkpt lat="48.8424" lon="1.91682">
        <ele>110.19999694824</ele>
        <time>2016-06-11T15:42:37.000Z</time>
      </trkpt>
      <trkpt lat="48.84241" lon="1.91683">
        <ele>110.40000152588</ele>
        <time>2016-06-11T15:42:38.000Z</time>
      </trkpt>
      <trkpt lat="48.84248" lon="1.9169">
        <ele>110.40000152588</ele>
        <time>2016-06-11T15:42:43.000Z</time>
      </trkpt>
      <trkpt lat="48.84249" lon="1.91691">
        <ele>110.40000152588</ele>
        <time>2016-06-11T15:42:44.000Z</time>
      </trkpt>
      <trkpt lat="48.84252" lon="1.91696">
        <ele>110.40000152588</ele>
        <time>2016-06-11T15:42:50.000Z</time>
      </trkpt>
      <trkpt lat="48.84257" lon="1.91697">
        <ele>110.40000152588</ele>
        <time>2016-06-11T15:42:59.000Z</time>
      </trkpt>
      <trkpt lat="48.84262" lon="1.917">
        <ele>110.59999847412</ele>
        <time>2016-06-11T15:43:01.000Z</time>
      </trkpt>
      <trkpt lat="48.84266" lon="1.9171">
        <ele>110.59999847412</ele>
        <time>2016-06-11T15:43:06.000Z</time>
      </trkpt>
      <trkpt lat="48.84269" lon="1.91721">
        <ele>110.80000305176</ele>
        <time>2016-06-11T15:43:11.000Z</time>
      </trkpt>
      <trkpt lat="48.84273" lon="1.91738">
        <ele>111</ele>
        <time>2016-06-11T15:43:18.000Z</time>
      </trkpt>
      <trkpt lat="48.84278" lon="1.91753">
        <ele>111.40000152588</ele>
        <time>2016-06-11T15:43:25.000Z</time>
      </trkpt>
      <trkpt lat="48.84286" lon="1.9176">
        <ele>111.40000152588</ele>
        <time>2016-06-11T15:43:30.000Z</time>
      </trkpt>
      <trkpt lat="48.84291" lon="1.91763">
        <ele>111.59999847412</ele>
        <time>2016-06-11T15:43:36.000Z</time>
      </trkpt>
      <trkpt lat="48.84322" lon="1.91778">
        <ele>111.80000305176</ele>
        <time>2016-06-11T15:45:11.000Z</time>
      </trkpt>
      <trkpt lat="48.84329" lon="1.91779">
        <ele>111.80000305176</ele>
        <time>2016-06-11T15:45:16.000Z</time>
      </trkpt>
      <trkpt lat="48.84333" lon="1.91779">
        <ele>111.59999847412</ele>
        <time>2016-06-11T15:45:18.000Z</time>
      </trkpt>
      <trkpt lat="48.84339" lon="1.91781">
        <ele>111.59999847412</ele>
        <time>2016-06-11T15:45:22.000Z</time>
      </trkpt>
      <trkpt lat="48.84341" lon="1.91781">
        <ele>111.59999847412</ele>
        <time>2016-06-11T15:45:23.000Z</time>
      </trkpt>
      <trkpt lat="48.84346" lon="1.91781">
        <ele>111.59999847412</ele>
        <time>2016-06-11T15:45:27.000Z</time>
      </trkpt>
      <trkpt lat="48.84349" lon="1.9178">
        <ele>111.59999847412</ele>
        <time>2016-06-11T15:45:30.000Z</time>
      </trkpt>
      <trkpt lat="48.84351" lon="1.9178">
        <ele>111.40000152588</ele>
        <time>2016-06-11T15:45:32.000Z</time>
      </trkpt>
      <trkpt lat="48.84358" lon="1.9178">
        <ele>111.19999694824</ele>
        <time>2016-06-11T15:45:37.000Z</time>
      </trkpt>
      <trkpt lat="48.8436" lon="1.91781">
        <ele>111</ele>
        <time>2016-06-11T15:45:39.000Z</time>
      </trkpt>
      <trkpt lat="48.84368" lon="1.91781">
        <ele>110.40000152588</ele>
        <time>2016-06-11T15:45:46.000Z</time>
      </trkpt>
      <trkpt lat="48.84374" lon="1.91781">
        <ele>109.59999847412</ele>
        <time>2016-06-11T15:45:52.000Z</time>
      </trkpt>
      <trkpt lat="48.84375" lon="1.91782">
        <ele>109.59999847412</ele>
        <time>2016-06-11T15:45:53.000Z</time>
      </trkpt>
      <trkpt lat="48.84383" lon="1.91782">
        <ele>109</ele>
        <time>2016-06-11T15:45:59.000Z</time>
      </trkpt>
      <trkpt lat="48.84384" lon="1.91781">
        <ele>108.80000305176</ele>
        <time>2016-06-11T15:46:00.000Z</time>
      </trkpt>
      <trkpt lat="48.8439" lon="1.91781">
        <ele>108.19999694824</ele>
        <time>2016-06-11T15:46:04.000Z</time>
      </trkpt>
      <trkpt lat="48.84394" lon="1.91782">
        <ele>107.80000305176</ele>
        <time>2016-06-11T15:46:07.000Z</time>
      </trkpt>
      <trkpt lat="48.84401" lon="1.91782">
        <ele>107.19999694824</ele>
        <time>2016-06-11T15:46:11.000Z</time>
      </trkpt>
      <trkpt lat="48.84408" lon="1.91783">
        <ele>106.59999847412</ele>
        <time>2016-06-11T15:46:15.000Z</time>
      </trkpt>
      <trkpt lat="48.84417" lon="1.91781">
        <ele>105.80000305176</ele>
        <time>2016-06-11T15:46:21.000Z</time>
      </trkpt>
      <trkpt lat="48.84419" lon="1.91782">
        <ele>105.59999847412</ele>
        <time>2016-06-11T15:46:25.000Z</time>
      </trkpt>
      <trkpt lat="48.84426" lon="1.91781">
        <ele>105</ele>
        <time>2016-06-11T15:46:30.000Z</time>
      </trkpt>
      <trkpt lat="48.84432" lon="1.91778">
        <ele>104.40000152588</ele>
        <time>2016-06-11T15:46:35.000Z</time>
      </trkpt>
      <trkpt lat="48.84438" lon="1.91776">
        <ele>104</ele>
        <time>2016-06-11T15:46:39.000Z</time>
      </trkpt>
      <trkpt lat="48.8444" lon="1.91774">
        <ele>103.80000305176</ele>
        <time>2016-06-11T15:46:41.000Z</time>
      </trkpt>
      <trkpt lat="48.84446" lon="1.91771">
        <ele>103.40000152588</ele>
        <time>2016-06-11T15:46:46.000Z</time>
      </trkpt>
      <trkpt lat="48.84453" lon="1.91769">
        <ele>103</ele>
        <time>2016-06-11T15:46:50.000Z</time>
      </trkpt>
      <trkpt lat="48.8446" lon="1.91764">
        <ele>102.59999847412</ele>
        <time>2016-06-11T15:46:55.000Z</time>
      </trkpt>
      <trkpt lat="48.84467" lon="1.91761">
        <ele>102</ele>
        <time>2016-06-11T15:47:00.000Z</time>
      </trkpt>
      <trkpt lat="48.8447" lon="1.91761">
        <ele>101.80000305176</ele>
        <time>2016-06-11T15:47:03.000Z</time>
      </trkpt>
      <trkpt lat="48.84471" lon="1.91758">
        <ele>101.59999847412</ele>
        <time>2016-06-11T15:47:05.000Z</time>
      </trkpt>
      <trkpt lat="48.84479" lon="1.91756">
        <ele>100.80000305176</ele>
        <time>2016-06-11T15:47:09.000Z</time>
      </trkpt>
      <trkpt lat="48.84485" lon="1.91753">
        <ele>100.40000152588</ele>
        <time>2016-06-11T15:47:14.000Z</time>
      </trkpt>
      <trkpt lat="48.84487" lon="1.91753">
        <ele>100.19999694824</ele>
        <time>2016-06-11T15:47:15.000Z</time>
      </trkpt>
      <trkpt lat="48.84496" lon="1.91751">
        <ele>99.400001525879</ele>
        <time>2016-06-11T15:47:21.000Z</time>
      </trkpt>
      <trkpt lat="48.84503" lon="1.91751">
        <ele>99</ele>
        <time>2016-06-11T15:47:26.000Z</time>
      </trkpt>
      <trkpt lat="48.84509" lon="1.9175">
        <ele>98.400001525879</ele>
        <time>2016-06-11T15:47:31.000Z</time>
      </trkpt>
      <trkpt lat="48.84519" lon="1.91748">
        <ele>97.599998474121</ele>
        <time>2016-06-11T15:47:39.000Z</time>
      </trkpt>
      <trkpt lat="48.8452" lon="1.91749">
        <ele>97.599998474121</ele>
        <time>2016-06-11T15:47:40.000Z</time>
      </trkpt>
      <trkpt lat="48.84526" lon="1.91748">
        <ele>97</ele>
        <time>2016-06-11T15:47:45.000Z</time>
      </trkpt>
      <trkpt lat="48.84534" lon="1.91749">
        <ele>96.599998474121</ele>
        <time>2016-06-11T15:47:50.000Z</time>
      </trkpt>
      <trkpt lat="48.84538" lon="1.91748">
        <ele>96.199996948242</ele>
        <time>2016-06-11T15:47:54.000Z</time>
      </trkpt>
      <trkpt lat="48.84548" lon="1.91747">
        <ele>95.400001525879</ele>
        <time>2016-06-11T15:48:00.000Z</time>
      </trkpt>
      <trkpt lat="48.84552" lon="1.91746">
        <ele>95</ele>
        <time>2016-06-11T15:48:04.000Z</time>
      </trkpt>
      <trkpt lat="48.84556" lon="1.91747">
        <ele>94.800003051758</ele>
        <time>2016-06-11T15:48:06.000Z</time>
      </trkpt>
      <trkpt lat="48.84561" lon="1.91744">
        <ele>94.400001525879</ele>
        <time>2016-06-11T15:48:09.000Z</time>
      </trkpt>
      <trkpt lat="48.84562" lon="1.91744">
        <ele>94.199996948242</ele>
        <time>2016-06-11T15:48:10.000Z</time>
      </trkpt>
      <trkpt lat="48.84569" lon="1.91744">
        <ele>93.800003051758</ele>
        <time>2016-06-11T15:48:14.000Z</time>
      </trkpt>
      <trkpt lat="48.84575" lon="1.91745">
        <ele>93.400001525879</ele>
        <time>2016-06-11T15:48:18.000Z</time>
      </trkpt>
      <trkpt lat="48.84581" lon="1.91748">
        <ele>93</ele>
        <time>2016-06-11T15:48:22.000Z</time>
      </trkpt>
      <trkpt lat="48.84582" lon="1.91747">
        <ele>93</ele>
        <time>2016-06-11T15:48:23.000Z</time>
      </trkpt>
      <trkpt lat="48.84588" lon="1.91747">
        <ele>92.400001525879</ele>
        <time>2016-06-11T15:48:27.000Z</time>
      </trkpt>
      <trkpt lat="48.8459" lon="1.91747">
        <ele>92.400001525879</ele>
        <time>2016-06-11T15:48:28.000Z</time>
      </trkpt>
      <trkpt lat="48.84594" lon="1.91747">
        <ele>92</ele>
        <time>2016-06-11T15:48:31.000Z</time>
      </trkpt>
      <trkpt lat="48.84597" lon="1.91748">
        <ele>91.800003051758</ele>
        <time>2016-06-11T15:48:33.000Z</time>
      </trkpt>
      <trkpt lat="48.84598" lon="1.91748">
        <ele>91.800003051758</ele>
        <time>2016-06-11T15:48:34.000Z</time>
      </trkpt>
      <trkpt lat="48.84598" lon="1.91748">
        <ele>91.800003051758</ele>
        <time>2016-06-11T15:48:36.000Z</time>
      </trkpt>
      <trkpt lat="48.84613" lon="1.91747">
        <ele>90.800003051758</ele>
        <time>2016-06-11T15:49:22.000Z</time>
      </trkpt>
      <trkpt lat="48.84614" lon="1.91746">
        <ele>90.800003051758</ele>
        <time>2016-06-11T15:49:23.000Z</time>
      </trkpt>
      <trkpt lat="48.84624" lon="1.91742">
        <ele>90.199996948242</ele>
        <time>2016-06-11T15:49:30.000Z</time>
      </trkpt>
      <trkpt lat="48.84636" lon="1.91741">
        <ele>89.599998474121</ele>
        <time>2016-06-11T15:49:38.000Z</time>
      </trkpt>
      <trkpt lat="48.84642" lon="1.91739">
        <ele>89.199996948242</ele>
        <time>2016-06-11T15:49:43.000Z</time>
      </trkpt>
      <trkpt lat="48.84643" lon="1.91738">
        <ele>89.199996948242</ele>
        <time>2016-06-11T15:49:44.000Z</time>
      </trkpt>
      <trkpt lat="48.84648" lon="1.91737">
        <ele>89</ele>
        <time>2016-06-11T15:49:48.000Z</time>
      </trkpt>
      <trkpt lat="48.84654" lon="1.91736">
        <ele>88.599998474121</ele>
        <time>2016-06-11T15:49:52.000Z</time>
      </trkpt>
      <trkpt lat="48.84655" lon="1.91735">
        <ele>88.599998474121</ele>
        <time>2016-06-11T15:49:53.000Z</time>
      </trkpt>
      <trkpt lat="48.84666" lon="1.91736">
        <ele>88</ele>
        <time>2016-06-11T15:50:01.000Z</time>
      </trkpt>
      <trkpt lat="48.8467" lon="1.91734">
        <ele>87.800003051758</ele>
        <time>2016-06-11T15:50:05.000Z</time>
      </trkpt>
      <trkpt lat="48.84674" lon="1.91734">
        <ele>87.599998474121</ele>
        <time>2016-06-11T15:50:08.000Z</time>
      </trkpt>
      <trkpt lat="48.84675" lon="1.91734">
        <ele>87.599998474121</ele>
        <time>2016-06-11T15:50:09.000Z</time>
      </trkpt>
      <trkpt lat="48.84685" lon="1.91734">
        <ele>87.199996948242</ele>
        <time>2016-06-11T15:50:16.000Z</time>
      </trkpt>
      <trkpt lat="48.84686" lon="1.91732">
        <ele>87</ele>
        <time>2016-06-11T15:50:17.000Z</time>
      </trkpt>
      <trkpt lat="48.8469" lon="1.91731">
        <ele>86.800003051758</ele>
        <time>2016-06-11T15:50:20.000Z</time>
      </trkpt>
      <trkpt lat="48.84697" lon="1.91731">
        <ele>86.599998474121</ele>
        <time>2016-06-11T15:50:25.000Z</time>
      </trkpt>
      <trkpt lat="48.84698" lon="1.91731">
        <ele>86.599998474121</ele>
        <time>2016-06-11T15:50:26.000Z</time>
      </trkpt>
      <trkpt lat="48.84702" lon="1.91731">
        <ele>86.400001525879</ele>
        <time>2016-06-11T15:50:29.000Z</time>
      </trkpt>
      <trkpt lat="48.84715" lon="1.91729">
        <ele>86</ele>
        <time>2016-06-11T15:50:36.000Z</time>
      </trkpt>
      <trkpt lat="48.84716" lon="1.91727">
        <ele>85.800003051758</ele>
        <time>2016-06-11T15:50:38.000Z</time>
      </trkpt>
      <trkpt lat="48.84718" lon="1.91727">
        <ele>85.800003051758</ele>
        <time>2016-06-11T15:50:39.000Z</time>
      </trkpt>
      <trkpt lat="48.84723" lon="1.91726">
        <ele>85.599998474121</ele>
        <time>2016-06-11T15:50:43.000Z</time>
      </trkpt>
      <trkpt lat="48.84725" lon="1.91727">
        <ele>85.599998474121</ele>
        <time>2016-06-11T15:50:44.000Z</time>
      </trkpt>
      <trkpt lat="48.84735" lon="1.91726">
        <ele>85.199996948242</ele>
        <time>2016-06-11T15:50:51.000Z</time>
      </trkpt>
      <trkpt lat="48.84741" lon="1.91726">
        <ele>85</ele>
        <time>2016-06-11T15:50:55.000Z</time>
      </trkpt>
      <trkpt lat="48.84743" lon="1.91726">
        <ele>84.800003051758</ele>
        <time>2016-06-11T15:50:57.000Z</time>
      </trkpt>
      <trkpt lat="48.84746" lon="1.91726">
        <ele>84.800003051758</ele>
        <time>2016-06-11T15:50:59.000Z</time>
      </trkpt>
      <trkpt lat="48.84752" lon="1.91725">
        <ele>84.599998474121</ele>
        <time>2016-06-11T15:51:03.000Z</time>
      </trkpt>
      <trkpt lat="48.8476" lon="1.91724">
        <ele>84.199996948242</ele>
        <time>2016-06-11T15:51:09.000Z</time>
      </trkpt>
      <trkpt lat="48.84767" lon="1.91722">
        <ele>84</ele>
        <time>2016-06-11T15:51:14.000Z</time>
      </trkpt>
      <trkpt lat="48.84772" lon="1.9172">
        <ele>83.800003051758</ele>
        <time>2016-06-11T15:51:18.000Z</time>
      </trkpt>
      <trkpt lat="48.84775" lon="1.9172">
        <ele>83.800003051758</ele>
        <time>2016-06-11T15:51:20.000Z</time>
      </trkpt>
      <trkpt lat="48.84778" lon="1.91719">
        <ele>83.599998474121</ele>
        <time>2016-06-11T15:51:24.000Z</time>
      </trkpt>
      <trkpt lat="48.84779" lon="1.91718">
        <ele>83.599998474121</ele>
        <time>2016-06-11T15:51:25.000Z</time>
      </trkpt>
      <trkpt lat="48.84784" lon="1.91714">
        <ele>83.400001525879</ele>
        <time>2016-06-11T15:51:30.000Z</time>
      </trkpt>
      <trkpt lat="48.84791" lon="1.91715">
        <ele>83.199996948242</ele>
        <time>2016-06-11T15:51:35.000Z</time>
      </trkpt>
      <trkpt lat="48.84791" lon="1.91716">
        <ele>83.199996948242</ele>
        <time>2016-06-11T15:51:36.000Z</time>
      </trkpt>
      <trkpt lat="48.84793" lon="1.91724">
        <ele>83.400001525879</ele>
        <time>2016-06-11T15:51:41.000Z</time>
      </trkpt>
      <trkpt lat="48.84795" lon="1.91733">
        <ele>83.400001525879</ele>
        <time>2016-06-11T15:51:46.000Z</time>
      </trkpt>
      <trkpt lat="48.84796" lon="1.91734">
        <ele>83.400001525879</ele>
        <time>2016-06-11T15:51:47.000Z</time>
      </trkpt>
      <trkpt lat="48.84795" lon="1.91744">
        <ele>83.599998474121</ele>
        <time>2016-06-11T15:51:54.000Z</time>
      </trkpt>
      <trkpt lat="48.84795" lon="1.91746">
        <ele>83.599998474121</ele>
        <time>2016-06-11T15:51:55.000Z</time>
      </trkpt>
      <trkpt lat="48.8479" lon="1.91759">
        <ele>83.800003051758</ele>
        <time>2016-06-11T15:52:02.000Z</time>
      </trkpt>
      <trkpt lat="48.84791" lon="1.91762">
        <ele>84</ele>
        <time>2016-06-11T15:52:04.000Z</time>
      </trkpt>
      <trkpt lat="48.8479" lon="1.91767">
        <ele>84.199996948242</ele>
        <time>2016-06-11T15:52:07.000Z</time>
      </trkpt>
      <trkpt lat="48.84787" lon="1.91776">
        <ele>84.800003051758</ele>
        <time>2016-06-11T15:52:12.000Z</time>
      </trkpt>
      <trkpt lat="48.84786" lon="1.91779">
        <ele>85</ele>
        <time>2016-06-11T15:52:14.000Z</time>
      </trkpt>
      <trkpt lat="48.84784" lon="1.91785">
        <ele>85.400001525879</ele>
        <time>2016-06-11T15:52:17.000Z</time>
      </trkpt>
      <trkpt lat="48.84779" lon="1.91798">
        <ele>86.400001525879</ele>
        <time>2016-06-11T15:52:24.000Z</time>
      </trkpt>
      <trkpt lat="48.84778" lon="1.918">
        <ele>86.599998474121</ele>
        <time>2016-06-11T15:52:25.000Z</time>
      </trkpt>
      <trkpt lat="48.84776" lon="1.91807">
        <ele>87</ele>
        <time>2016-06-11T15:52:29.000Z</time>
      </trkpt>
      <trkpt lat="48.84775" lon="1.91811">
        <ele>87.199996948242</ele>
        <time>2016-06-11T15:52:32.000Z</time>
      </trkpt>
      <trkpt lat="48.84775" lon="1.91814">
        <ele>87.400001525879</ele>
        <time>2016-06-11T15:52:33.000Z</time>
      </trkpt>
      <trkpt lat="48.84775" lon="1.91814">
        <ele>87.400001525879</ele>
        <time>2016-06-11T15:52:35.000Z</time>
      </trkpt>
      <trkpt lat="48.84774" lon="1.91815">
        <ele>87.400001525879</ele>
        <time>2016-06-11T15:52:36.000Z</time>
      </trkpt>
      <trkpt lat="48.8477" lon="1.91839">
        <ele>88.199996948242</ele>
        <time>2016-06-11T15:53:10.000Z</time>
      </trkpt>
      <trkpt lat="48.84768" lon="1.91841">
        <ele>88.199996948242</ele>
        <time>2016-06-11T15:53:12.000Z</time>
      </trkpt>
      <trkpt lat="48.84767" lon="1.91844">
        <ele>88.400001525879</ele>
        <time>2016-06-11T15:53:14.000Z</time>
      </trkpt>
      <trkpt lat="48.84766" lon="1.91845">
        <ele>88.400001525879</ele>
        <time>2016-06-11T15:53:16.000Z</time>
      </trkpt>
      <trkpt lat="48.84762" lon="1.91851">
        <ele>88.400001525879</ele>
        <time>2016-06-11T15:53:21.000Z</time>
      </trkpt>
      <trkpt lat="48.84761" lon="1.91861">
        <ele>88.599998474121</ele>
        <time>2016-06-11T15:53:27.000Z</time>
      </trkpt>
      <trkpt lat="48.84762" lon="1.91869">
        <ele>88.599998474121</ele>
        <time>2016-06-11T15:53:32.000Z</time>
      </trkpt>
      <trkpt lat="48.84763" lon="1.9187">
        <ele>88.599998474121</ele>
        <time>2016-06-11T15:53:33.000Z</time>
      </trkpt>
      <trkpt lat="48.84763" lon="1.91873">
        <ele>88.599998474121</ele>
        <time>2016-06-11T15:53:34.000Z</time>
      </trkpt>
      <trkpt lat="48.84764" lon="1.91879">
        <ele>88.800003051758</ele>
        <time>2016-06-11T15:53:38.000Z</time>
      </trkpt>
      <trkpt lat="48.84765" lon="1.91886">
        <ele>88.800003051758</ele>
        <time>2016-06-11T15:53:42.000Z</time>
      </trkpt>
      <trkpt lat="48.84767" lon="1.91899">
        <ele>89</ele>
        <time>2016-06-11T15:53:47.000Z</time>
      </trkpt>
      <trkpt lat="48.84768" lon="1.91911">
        <ele>89</ele>
        <time>2016-06-11T15:53:52.000Z</time>
      </trkpt>
      <trkpt lat="48.84767" lon="1.91913">
        <ele>89</ele>
        <time>2016-06-11T15:53:53.000Z</time>
      </trkpt>
      <trkpt lat="48.84765" lon="1.91917">
        <ele>89</ele>
        <time>2016-06-11T15:53:56.000Z</time>
      </trkpt>
      <trkpt lat="48.84765" lon="1.91924">
        <ele>89</ele>
        <time>2016-06-11T15:53:59.000Z</time>
      </trkpt>
      <trkpt lat="48.84765" lon="1.91927">
        <ele>89</ele>
        <time>2016-06-11T15:54:01.000Z</time>
      </trkpt>
      <trkpt lat="48.84768" lon="1.91935">
        <ele>88.800003051758</ele>
        <time>2016-06-11T15:54:06.000Z</time>
      </trkpt>
      <trkpt lat="48.84768" lon="1.91945">
        <ele>88.599998474121</ele>
        <time>2016-06-11T15:54:11.000Z</time>
      </trkpt>
      <trkpt lat="48.84768" lon="1.91947">
        <ele>88.599998474121</ele>
        <time>2016-06-11T15:54:12.000Z</time>
      </trkpt>
      <trkpt lat="48.84765" lon="1.91952">
        <ele>88.599998474121</ele>
        <time>2016-06-11T15:54:15.000Z</time>
      </trkpt>
      <trkpt lat="48.84765" lon="1.91954">
        <ele>88.599998474121</ele>
        <time>2016-06-11T15:54:16.000Z</time>
      </trkpt>
      <trkpt lat="48.84767" lon="1.91965">
        <ele>88.400001525879</ele>
        <time>2016-06-11T15:54:21.000Z</time>
      </trkpt>
      <trkpt lat="48.84765" lon="1.91972">
        <ele>88.400001525879</ele>
        <time>2016-06-11T15:54:25.000Z</time>
      </trkpt>
      <trkpt lat="48.84765" lon="1.91981">
        <ele>88.400001525879</ele>
        <time>2016-06-11T15:54:29.000Z</time>
      </trkpt>
      <trkpt lat="48.84766" lon="1.91988">
        <ele>88.199996948242</ele>
        <time>2016-06-11T15:54:32.000Z</time>
      </trkpt>
      <trkpt lat="48.84765" lon="1.91991">
        <ele>88.199996948242</ele>
        <time>2016-06-11T15:54:34.000Z</time>
      </trkpt>
      <trkpt lat="48.84764" lon="1.91993">
        <ele>88.199996948242</ele>
        <time>2016-06-11T15:54:35.000Z</time>
      </trkpt>
      <trkpt lat="48.84765" lon="1.91999">
        <ele>88.199996948242</ele>
        <time>2016-06-11T15:54:38.000Z</time>
      </trkpt>
      <trkpt lat="48.84764" lon="1.92004">
        <ele>88.199996948242</ele>
        <time>2016-06-11T15:54:41.000Z</time>
      </trkpt>
      <trkpt lat="48.84764" lon="1.92007">
        <ele>88.199996948242</ele>
        <time>2016-06-11T15:54:42.000Z</time>
      </trkpt>
      <trkpt lat="48.84764" lon="1.92014">
        <ele>88.199996948242</ele>
        <time>2016-06-11T15:54:45.000Z</time>
      </trkpt>
      <trkpt lat="48.84765" lon="1.92017">
        <ele>88.199996948242</ele>
        <time>2016-06-11T15:54:47.000Z</time>
      </trkpt>
      <trkpt lat="48.84765" lon="1.92026">
        <ele>88.199996948242</ele>
        <time>2016-06-11T15:54:51.000Z</time>
      </trkpt>
      <trkpt lat="48.84765" lon="1.92037">
        <ele>88.199996948242</ele>
        <time>2016-06-11T15:54:56.000Z</time>
      </trkpt>
      <trkpt lat="48.84766" lon="1.9205">
        <ele>88.199996948242</ele>
        <time>2016-06-11T15:55:01.000Z</time>
      </trkpt>
      <trkpt lat="48.84767" lon="1.92058">
        <ele>88.199996948242</ele>
        <time>2016-06-11T15:55:05.000Z</time>
      </trkpt>
      <trkpt lat="48.84766" lon="1.92069">
        <ele>88.199996948242</ele>
        <time>2016-06-11T15:55:10.000Z</time>
      </trkpt>
      <trkpt lat="48.84765" lon="1.92074">
        <ele>88</ele>
        <time>2016-06-11T15:55:12.000Z</time>
      </trkpt>
      <trkpt lat="48.84766" lon="1.92076">
        <ele>88</ele>
        <time>2016-06-11T15:55:13.000Z</time>
      </trkpt>
      <trkpt lat="48.84766" lon="1.92081">
        <ele>88</ele>
        <time>2016-06-11T15:55:15.000Z</time>
      </trkpt>
      <trkpt lat="48.84768" lon="1.92088">
        <ele>87.800003051758</ele>
        <time>2016-06-11T15:55:19.000Z</time>
      </trkpt>
      <trkpt lat="48.84768" lon="1.9209">
        <ele>87.800003051758</ele>
        <time>2016-06-11T15:55:20.000Z</time>
      </trkpt>
      <trkpt lat="48.84769" lon="1.92097">
        <ele>87.800003051758</ele>
        <time>2016-06-11T15:55:23.000Z</time>
      </trkpt>
      <trkpt lat="48.84768" lon="1.92101">
        <ele>87.800003051758</ele>
        <time>2016-06-11T15:55:24.000Z</time>
      </trkpt>
      <trkpt lat="48.84768" lon="1.92103">
        <ele>87.800003051758</ele>
        <time>2016-06-11T15:55:25.000Z</time>
      </trkpt>
      <trkpt lat="48.84768" lon="1.92111">
        <ele>87.599998474121</ele>
        <time>2016-06-11T15:55:29.000Z</time>
      </trkpt>
      <trkpt lat="48.84768" lon="1.92113">
        <ele>87.599998474121</ele>
        <time>2016-06-11T15:55:30.000Z</time>
      </trkpt>
      <trkpt lat="48.84768" lon="1.92114">
        <ele>87.599998474121</ele>
        <time>2016-06-11T15:55:31.000Z</time>
      </trkpt>
      <trkpt lat="48.84768" lon="1.92122">
        <ele>87.400001525879</ele>
        <time>2016-06-11T15:55:35.000Z</time>
      </trkpt>
      <trkpt lat="48.84767" lon="1.92133">
        <ele>87.400001525879</ele>
        <time>2016-06-11T15:55:41.000Z</time>
      </trkpt>
      <trkpt lat="48.84765" lon="1.92142">
        <ele>87.199996948242</ele>
        <time>2016-06-11T15:55:45.000Z</time>
      </trkpt>
      <trkpt lat="48.84765" lon="1.92146">
        <ele>87.199996948242</ele>
        <time>2016-06-11T15:55:47.000Z</time>
      </trkpt>
      <trkpt lat="48.84767" lon="1.92153">
        <ele>87.199996948242</ele>
        <time>2016-06-11T15:55:50.000Z</time>
      </trkpt>
      <trkpt lat="48.84768" lon="1.92154">
        <ele>87.199996948242</ele>
        <time>2016-06-11T15:55:51.000Z</time>
      </trkpt>
      <trkpt lat="48.84769" lon="1.9216">
        <ele>87</ele>
        <time>2016-06-11T15:55:54.000Z</time>
      </trkpt>
      <trkpt lat="48.84768" lon="1.92163">
        <ele>87</ele>
        <time>2016-06-11T15:55:55.000Z</time>
      </trkpt>
      <trkpt lat="48.84768" lon="1.92164">
        <ele>87</ele>
        <time>2016-06-11T15:55:56.000Z</time>
      </trkpt>
      <trkpt lat="48.84771" lon="1.92172">
        <ele>86.800003051758</ele>
        <time>2016-06-11T15:55:59.000Z</time>
      </trkpt>
      <trkpt lat="48.84771" lon="1.92175">
        <ele>86.800003051758</ele>
        <time>2016-06-11T15:56:00.000Z</time>
      </trkpt>
      <trkpt lat="48.84772" lon="1.92181">
        <ele>86.800003051758</ele>
        <time>2016-06-11T15:56:03.000Z</time>
      </trkpt>
      <trkpt lat="48.84772" lon="1.92186">
        <ele>86.599998474121</ele>
        <time>2016-06-11T15:56:05.000Z</time>
      </trkpt>
      <trkpt lat="48.84774" lon="1.92192">
        <ele>86.599998474121</ele>
        <time>2016-06-11T15:56:09.000Z</time>
      </trkpt>
      <trkpt lat="48.84775" lon="1.922">
        <ele>86.400001525879</ele>
        <time>2016-06-11T15:56:13.000Z</time>
      </trkpt>
      <trkpt lat="48.84778" lon="1.92213">
        <ele>86.199996948242</ele>
        <time>2016-06-11T15:56:18.000Z</time>
      </trkpt>
      <trkpt lat="48.84777" lon="1.92225">
        <ele>86</ele>
        <time>2016-06-11T15:56:23.000Z</time>
      </trkpt>
      <trkpt lat="48.84774" lon="1.92234">
        <ele>86</ele>
        <time>2016-06-11T15:56:27.000Z</time>
      </trkpt>
      <trkpt lat="48.84775" lon="1.92241">
        <ele>86</ele>
        <time>2016-06-11T15:56:31.000Z</time>
      </trkpt>
      <trkpt lat="48.84774" lon="1.92245">
        <ele>86</ele>
        <time>2016-06-11T15:56:33.000Z</time>
      </trkpt>
      <trkpt lat="48.84774" lon="1.92251">
        <ele>86</ele>
        <time>2016-06-11T15:56:36.000Z</time>
      </trkpt>
      <trkpt lat="48.84774" lon="1.92252">
        <ele>86</ele>
        <time>2016-06-11T15:56:37.000Z</time>
      </trkpt>
      <trkpt lat="48.84776" lon="1.92264">
        <ele>86</ele>
        <time>2016-06-11T15:56:42.000Z</time>
      </trkpt>
      <trkpt lat="48.84777" lon="1.92267">
        <ele>86</ele>
        <time>2016-06-11T15:56:43.000Z</time>
      </trkpt>
      <trkpt lat="48.84776" lon="1.92273">
        <ele>86</ele>
        <time>2016-06-11T15:56:46.000Z</time>
      </trkpt>
      <trkpt lat="48.84776" lon="1.92274">
        <ele>86</ele>
        <time>2016-06-11T15:56:47.000Z</time>
      </trkpt>
      <trkpt lat="48.84776" lon="1.92279">
        <ele>86</ele>
        <time>2016-06-11T15:56:49.000Z</time>
      </trkpt>
      <trkpt lat="48.84775" lon="1.92288">
        <ele>86</ele>
        <time>2016-06-11T15:56:53.000Z</time>
      </trkpt>
      <trkpt lat="48.84775" lon="1.92299">
        <ele>86</ele>
        <time>2016-06-11T15:56:58.000Z</time>
      </trkpt>
      <trkpt lat="48.84775" lon="1.92316">
        <ele>86</ele>
        <time>2016-06-11T15:57:05.000Z</time>
      </trkpt>
      <trkpt lat="48.84775" lon="1.92325">
        <ele>86</ele>
        <time>2016-06-11T15:57:09.000Z</time>
      </trkpt>
      <trkpt lat="48.84775" lon="1.92327">
        <ele>85.800003051758</ele>
        <time>2016-06-11T15:57:10.000Z</time>
      </trkpt>
      <trkpt lat="48.84777" lon="1.92332">
        <ele>85.800003051758</ele>
        <time>2016-06-11T15:57:14.000Z</time>
      </trkpt>
      <trkpt lat="48.84777" lon="1.9234">
        <ele>85.800003051758</ele>
        <time>2016-06-11T15:57:18.000Z</time>
      </trkpt>
      <trkpt lat="48.84777" lon="1.92344">
        <ele>85.800003051758</ele>
        <time>2016-06-11T15:57:20.000Z</time>
      </trkpt>
      <trkpt lat="48.84777" lon="1.9235">
        <ele>85.800003051758</ele>
        <time>2016-06-11T15:57:23.000Z</time>
      </trkpt>
      <trkpt lat="48.84777" lon="1.92356">
        <ele>85.800003051758</ele>
        <time>2016-06-11T15:57:27.000Z</time>
      </trkpt>
      <trkpt lat="48.84776" lon="1.9236">
        <ele>85.800003051758</ele>
        <time>2016-06-11T15:57:29.000Z</time>
      </trkpt>
      <trkpt lat="48.84777" lon="1.92363">
        <ele>85.800003051758</ele>
        <time>2016-06-11T15:57:30.000Z</time>
      </trkpt>
      <trkpt lat="48.84775" lon="1.92368">
        <ele>85.800003051758</ele>
        <time>2016-06-11T15:57:33.000Z</time>
      </trkpt>
      <trkpt lat="48.84776" lon="1.92377">
        <ele>85.800003051758</ele>
        <time>2016-06-11T15:57:38.000Z</time>
      </trkpt>
      <trkpt lat="48.84775" lon="1.92384">
        <ele>85.800003051758</ele>
        <time>2016-06-11T15:57:42.000Z</time>
      </trkpt>
      <trkpt lat="48.84775" lon="1.92387">
        <ele>85.800003051758</ele>
        <time>2016-06-11T15:57:44.000Z</time>
      </trkpt>
      <trkpt lat="48.84776" lon="1.9239">
        <ele>85.800003051758</ele>
        <time>2016-06-11T15:57:46.000Z</time>
      </trkpt>
      <trkpt lat="48.84776" lon="1.92401">
        <ele>85.800003051758</ele>
        <time>2016-06-11T15:57:51.000Z</time>
      </trkpt>
      <trkpt lat="48.84775" lon="1.9241">
        <ele>85.800003051758</ele>
        <time>2016-06-11T15:57:55.000Z</time>
      </trkpt>
      <trkpt lat="48.84776" lon="1.92418">
        <ele>85.800003051758</ele>
        <time>2016-06-11T15:57:59.000Z</time>
      </trkpt>
      <trkpt lat="48.84777" lon="1.92425">
        <ele>85.599998474121</ele>
        <time>2016-06-11T15:58:03.000Z</time>
      </trkpt>
      <trkpt lat="48.84777" lon="1.92432">
        <ele>85.599998474121</ele>
        <time>2016-06-11T15:58:08.000Z</time>
      </trkpt>
      <trkpt lat="48.84778" lon="1.92435">
        <ele>85.599998474121</ele>
        <time>2016-06-11T15:58:09.000Z</time>
      </trkpt>
      <trkpt lat="48.84779" lon="1.92442">
        <ele>85.400001525879</ele>
        <time>2016-06-11T15:58:11.000Z</time>
      </trkpt>
      <trkpt lat="48.8478" lon="1.92444">
        <ele>85.400001525879</ele>
        <time>2016-06-11T15:58:12.000Z</time>
      </trkpt>
      <trkpt lat="48.84778" lon="1.92453">
        <ele>85.400001525879</ele>
        <time>2016-06-11T15:58:16.000Z</time>
      </trkpt>
      <trkpt lat="48.84778" lon="1.92456">
        <ele>85.199996948242</ele>
        <time>2016-06-11T15:58:17.000Z</time>
      </trkpt>
      <trkpt lat="48.84776" lon="1.92458">
        <ele>85.199996948242</ele>
        <time>2016-06-11T15:58:18.000Z</time>
      </trkpt>
      <trkpt lat="48.84778" lon="1.92465">
        <ele>85.199996948242</ele>
        <time>2016-06-11T15:58:21.000Z</time>
      </trkpt>
      <trkpt lat="48.84779" lon="1.92478">
        <ele>85</ele>
        <time>2016-06-11T15:58:26.000Z</time>
      </trkpt>
      <trkpt lat="48.8478" lon="1.92485">
        <ele>84.800003051758</ele>
        <time>2016-06-11T15:58:30.000Z</time>
      </trkpt>
      <trkpt lat="48.84779" lon="1.92496">
        <ele>84.800003051758</ele>
        <time>2016-06-11T15:58:35.000Z</time>
      </trkpt>
      <trkpt lat="48.84779" lon="1.925">
        <ele>84.800003051758</ele>
        <time>2016-06-11T15:58:37.000Z</time>
      </trkpt>
      <trkpt lat="48.8478" lon="1.92509">
        <ele>84.800003051758</ele>
        <time>2016-06-11T15:58:42.000Z</time>
      </trkpt>
      <trkpt lat="48.84779" lon="1.92512">
        <ele>85</ele>
        <time>2016-06-11T15:58:44.000Z</time>
      </trkpt>
      <trkpt lat="48.8478" lon="1.92512">
        <ele>85</ele>
        <time>2016-06-11T15:58:46.000Z</time>
      </trkpt>
    </trkseg>
  </trk>
</gpx>